<?xml version="1.0" encoding="UTF-8" standalone="no" ?>
<gpx xmlns="http://www.topografix.com/GPX/1/1" xmlns:xsi="http://www.w3.org/2001/XMLSchema-instance" xsi:schemaLocation="http://www.topografix.com/GPX/1/1 http://www.topografix.com/GPX/1/1/gpx.xsd" version="1.1" creator="VisuGPX - https://www.visugpx.com">
  <metadata>
    <name>W 1105</name>
  </metadata>
  <trk>
    <name><![CDATA[direction Bayeux]]></name>
    <trkseg>
      <trkpt lat="49.28601" lon="-0.11966">
        <ele>6.37</ele>
        <time>2025-05-31T09:26:38.000Z</time>
      </trkpt>
      <trkpt lat="49.28581" lon="-0.12003">
        <ele>6.51</ele>
        <time>2025-05-31T09:26:38.005Z</time>
      </trkpt>
      <trkpt lat="49.28561" lon="-0.1204">
        <ele>6.69</ele>
        <time>2025-05-31T09:26:38.015Z</time>
      </trkpt>
      <trkpt lat="49.28551" lon="-0.12057">
        <ele>6.86</ele>
        <time>2025-05-31T09:26:38.027Z</time>
      </trkpt>
      <trkpt lat="49.28565" lon="-0.12071">
        <ele>7.14</ele>
        <time>2025-05-31T09:26:38.042Z</time>
      </trkpt>
      <trkpt lat="49.28572" lon="-0.12083">
        <ele>7.4</ele>
        <time>2025-05-31T09:26:38.059Z</time>
      </trkpt>
      <trkpt lat="49.28574" lon="-0.12098">
        <ele>7.6</ele>
        <time>2025-05-31T09:26:38.077Z</time>
      </trkpt>
      <trkpt lat="49.28574" lon="-0.12124">
        <ele>7.67</ele>
        <time>2025-05-31T09:26:38.098Z</time>
      </trkpt>
      <trkpt lat="49.28568" lon="-0.1215">
        <ele>7.64</ele>
        <time>2025-05-31T09:26:38.122Z</time>
      </trkpt>
      <trkpt lat="49.28564" lon="-0.12177">
        <ele>7.57</ele>
        <time>2025-05-31T09:26:38.149Z</time>
      </trkpt>
      <trkpt lat="49.28561" lon="-0.12186">
        <ele>7.46</ele>
        <time>2025-05-31T09:26:38.177Z</time>
      </trkpt>
      <trkpt lat="49.28555" lon="-0.12189">
        <ele>7.35</ele>
        <time>2025-05-31T09:26:38.206Z</time>
      </trkpt>
      <trkpt lat="49.28548" lon="-0.12188">
        <ele>7.23</ele>
        <time>2025-05-31T09:26:38.236Z</time>
      </trkpt>
      <trkpt lat="49.28539" lon="-0.12234">
        <ele>6.96</ele>
        <time>2025-05-31T09:26:38.271Z</time>
      </trkpt>
      <trkpt lat="49.28536" lon="-0.12246">
        <ele>6.71</ele>
        <time>2025-05-31T09:26:38.307Z</time>
      </trkpt>
      <trkpt lat="49.28567" lon="-0.12253">
        <ele>6.47</ele>
        <time>2025-05-31T09:26:38.349Z</time>
      </trkpt>
      <trkpt lat="49.28579" lon="-0.12256">
        <ele>6.24</ele>
        <time>2025-05-31T09:26:38.392Z</time>
      </trkpt>
      <trkpt lat="49.28592" lon="-0.1226">
        <ele>6.03</ele>
        <time>2025-05-31T09:26:38.438Z</time>
      </trkpt>
      <trkpt lat="49.28586" lon="-0.12293">
        <ele>5.85</ele>
        <time>2025-05-31T09:26:38.487Z</time>
      </trkpt>
      <trkpt lat="49.28577" lon="-0.12339">
        <ele>5.66</ele>
        <time>2025-05-31T09:26:38.541Z</time>
      </trkpt>
      <trkpt lat="49.2857" lon="-0.12376">
        <ele>5.56</ele>
        <time>2025-05-31T09:26:38.599Z</time>
      </trkpt>
      <trkpt lat="49.28561" lon="-0.12422">
        <ele>5.44</ele>
        <time>2025-05-31T09:26:38.662Z</time>
      </trkpt>
      <trkpt lat="49.28552" lon="-0.12468">
        <ele>5.32</ele>
        <time>2025-05-31T09:26:38.730Z</time>
      </trkpt>
      <trkpt lat="49.28549" lon="-0.12482">
        <ele>5.23</ele>
        <time>2025-05-31T09:26:38.800Z</time>
      </trkpt>
      <trkpt lat="49.28545" lon="-0.1253">
        <ele>5.16</ele>
        <time>2025-05-31T09:26:38.875Z</time>
      </trkpt>
      <trkpt lat="49.28545" lon="-0.12536">
        <ele>5.12</ele>
        <time>2025-05-31T09:26:38.951Z</time>
      </trkpt>
      <trkpt lat="49.28551" lon="-0.12548">
        <ele>5.08</ele>
        <time>2025-05-31T09:26:39.028Z</time>
      </trkpt>
      <trkpt lat="49.28551" lon="-0.12563">
        <ele>5.06</ele>
        <time>2025-05-31T09:26:39.107Z</time>
      </trkpt>
      <trkpt lat="49.2855" lon="-0.12573">
        <ele>5.06</ele>
        <time>2025-05-31T09:26:39.187Z</time>
      </trkpt>
      <trkpt lat="49.28544" lon="-0.12581">
        <ele>5.07</ele>
        <time>2025-05-31T09:26:39.268Z</time>
      </trkpt>
      <trkpt lat="49.28534" lon="-0.12586">
        <ele>5.09</ele>
        <time>2025-05-31T09:26:39.351Z</time>
      </trkpt>
      <trkpt lat="49.28528" lon="-0.12605">
        <ele>5.11</ele>
        <time>2025-05-31T09:26:39.436Z</time>
      </trkpt>
      <trkpt lat="49.28518" lon="-0.12637">
        <ele>5.16</ele>
        <time>2025-05-31T09:26:39.525Z</time>
      </trkpt>
      <trkpt lat="49.28509" lon="-0.12678">
        <ele>5.23</ele>
        <time>2025-05-31T09:26:39.618Z</time>
      </trkpt>
      <trkpt lat="49.285" lon="-0.12724">
        <ele>5.29</ele>
        <time>2025-05-31T09:26:39.716Z</time>
      </trkpt>
      <trkpt lat="49.28493" lon="-0.12761">
        <ele>5.41</ele>
        <time>2025-05-31T09:26:39.818Z</time>
      </trkpt>
      <trkpt lat="49.28484" lon="-0.12807">
        <ele>5.55</ele>
        <time>2025-05-31T09:26:39.925Z</time>
      </trkpt>
      <trkpt lat="49.28475" lon="-0.12853">
        <ele>5.57</ele>
        <time>2025-05-31T09:26:40.037Z</time>
      </trkpt>
      <trkpt lat="49.28466" lon="-0.12899">
        <ele>5.58</ele>
        <time>2025-05-31T09:26:40.154Z</time>
      </trkpt>
      <trkpt lat="49.28464" lon="-0.12911">
        <ele>5.6</ele>
        <time>2025-05-31T09:26:40.273Z</time>
      </trkpt>
      <trkpt lat="49.28455" lon="-0.12957">
        <ele>5.57</ele>
        <time>2025-05-31T09:26:40.397Z</time>
      </trkpt>
      <trkpt lat="49.28446" lon="-0.13003">
        <ele>5.56</ele>
        <time>2025-05-31T09:26:40.526Z</time>
      </trkpt>
      <trkpt lat="49.28436" lon="-0.13049">
        <ele>5.56</ele>
        <time>2025-05-31T09:26:40.660Z</time>
      </trkpt>
      <trkpt lat="49.28427" lon="-0.13095">
        <ele>5.55</ele>
        <time>2025-05-31T09:26:40.799Z</time>
      </trkpt>
      <trkpt lat="49.28418" lon="-0.13141">
        <ele>5.53</ele>
        <time>2025-05-31T09:26:40.943Z</time>
      </trkpt>
      <trkpt lat="49.28409" lon="-0.13187">
        <ele>5.58</ele>
        <time>2025-05-31T09:26:41.092Z</time>
      </trkpt>
      <trkpt lat="49.28404" lon="-0.13212">
        <ele>5.57</ele>
        <time>2025-05-31T09:26:41.244Z</time>
      </trkpt>
      <trkpt lat="49.28395" lon="-0.13258">
        <ele>5.58</ele>
        <time>2025-05-31T09:26:41.401Z</time>
      </trkpt>
      <trkpt lat="49.28391" lon="-0.13275">
        <ele>5.55</ele>
        <time>2025-05-31T09:26:41.560Z</time>
      </trkpt>
      <trkpt lat="49.28382" lon="-0.13321">
        <ele>5.5</ele>
        <time>2025-05-31T09:26:41.724Z</time>
      </trkpt>
      <trkpt lat="49.28373" lon="-0.13367">
        <ele>5.53</ele>
        <time>2025-05-31T09:26:41.893Z</time>
      </trkpt>
      <trkpt lat="49.28364" lon="-0.13413">
        <ele>5.52</ele>
        <time>2025-05-31T09:26:42.067Z</time>
      </trkpt>
      <trkpt lat="49.2836" lon="-0.13435">
        <ele>5.51</ele>
        <time>2025-05-31T09:26:42.243Z</time>
      </trkpt>
      <trkpt lat="49.2835" lon="-0.13481">
        <ele>5.48</ele>
        <time>2025-05-31T09:26:42.424Z</time>
      </trkpt>
      <trkpt lat="49.28341" lon="-0.13527">
        <ele>5.46</ele>
        <time>2025-05-31T09:26:42.610Z</time>
      </trkpt>
      <trkpt lat="49.28331" lon="-0.13572">
        <ele>5.43</ele>
        <time>2025-05-31T09:26:42.801Z</time>
      </trkpt>
      <trkpt lat="49.28331" lon="-0.13574">
        <ele>5.41</ele>
        <time>2025-05-31T09:26:42.992Z</time>
      </trkpt>
      <trkpt lat="49.28325" lon="-0.13621">
        <ele>5.33</ele>
        <time>2025-05-31T09:26:43.188Z</time>
      </trkpt>
      <trkpt lat="49.28324" lon="-0.13625">
        <ele>5.3</ele>
        <time>2025-05-31T09:26:43.385Z</time>
      </trkpt>
      <trkpt lat="49.28325" lon="-0.13626">
        <ele>5.26</ele>
        <time>2025-05-31T09:26:43.582Z</time>
      </trkpt>
      <trkpt lat="49.28327" lon="-0.1363">
        <ele>5.22</ele>
        <time>2025-05-31T09:26:43.779Z</time>
      </trkpt>
      <trkpt lat="49.28328" lon="-0.13635">
        <ele>5.19</ele>
        <time>2025-05-31T09:26:43.977Z</time>
      </trkpt>
      <trkpt lat="49.28328" lon="-0.13644">
        <ele>5.17</ele>
        <time>2025-05-31T09:26:44.176Z</time>
      </trkpt>
      <trkpt lat="49.28325" lon="-0.13652">
        <ele>5.14</ele>
        <time>2025-05-31T09:26:44.376Z</time>
      </trkpt>
      <trkpt lat="49.28321" lon="-0.13658">
        <ele>5.12</ele>
        <time>2025-05-31T09:26:44.577Z</time>
      </trkpt>
      <trkpt lat="49.28314" lon="-0.1366">
        <ele>5.1</ele>
        <time>2025-05-31T09:26:44.779Z</time>
      </trkpt>
      <trkpt lat="49.28308" lon="-0.13657">
        <ele>5.09</ele>
        <time>2025-05-31T09:26:44.982Z</time>
      </trkpt>
      <trkpt lat="49.28304" lon="-0.13649">
        <ele>5.08</ele>
        <time>2025-05-31T09:26:45.186Z</time>
      </trkpt>
      <trkpt lat="49.28302" lon="-0.13643">
        <ele>5.08</ele>
        <time>2025-05-31T09:26:45.391Z</time>
      </trkpt>
      <trkpt lat="49.28302" lon="-0.13635">
        <ele>5.08</ele>
        <time>2025-05-31T09:26:45.597Z</time>
      </trkpt>
      <trkpt lat="49.28306" lon="-0.13626">
        <ele>5.08</ele>
        <time>2025-05-31T09:26:45.804Z</time>
      </trkpt>
      <trkpt lat="49.28311" lon="-0.13621">
        <ele>5.09</ele>
        <time>2025-05-31T09:26:46.012Z</time>
      </trkpt>
      <trkpt lat="49.28317" lon="-0.1362">
        <ele>5.11</ele>
        <time>2025-05-31T09:26:46.221Z</time>
      </trkpt>
      <trkpt lat="49.28322" lon="-0.13623">
        <ele>5.12</ele>
        <time>2025-05-31T09:26:46.430Z</time>
      </trkpt>
      <trkpt lat="49.28327" lon="-0.1363">
        <ele>5.22</ele>
        <time>2025-05-31T09:26:46.641Z</time>
      </trkpt>
      <trkpt lat="49.28328" lon="-0.13639">
        <ele>5.17</ele>
        <time>2025-05-31T09:26:46.853Z</time>
      </trkpt>
      <trkpt lat="49.28327" lon="-0.13648">
        <ele>5.19</ele>
        <time>2025-05-31T09:26:47.065Z</time>
      </trkpt>
      <trkpt lat="49.28323" lon="-0.13655">
        <ele>5.22</ele>
        <time>2025-05-31T09:26:47.278Z</time>
      </trkpt>
      <trkpt lat="49.28317" lon="-0.13659">
        <ele>5.25</ele>
        <time>2025-05-31T09:26:47.493Z</time>
      </trkpt>
      <trkpt lat="49.28303" lon="-0.13702">
        <ele>5.28</ele>
        <time>2025-05-31T09:26:47.713Z</time>
      </trkpt>
      <trkpt lat="49.28302" lon="-0.13704">
        <ele>5.31</ele>
        <time>2025-05-31T09:26:47.933Z</time>
      </trkpt>
      <trkpt lat="49.28297" lon="-0.13726">
        <ele>5.35</ele>
        <time>2025-05-31T09:26:48.155Z</time>
      </trkpt>
      <trkpt lat="49.28285" lon="-0.1377">
        <ele>5.41</ele>
        <time>2025-05-31T09:26:48.382Z</time>
      </trkpt>
      <trkpt lat="49.2827" lon="-0.13812">
        <ele>5.43</ele>
        <time>2025-05-31T09:26:48.614Z</time>
      </trkpt>
      <trkpt lat="49.28259" lon="-0.13844">
        <ele>5.48</ele>
        <time>2025-05-31T09:26:48.850Z</time>
      </trkpt>
      <trkpt lat="49.28242" lon="-0.13885">
        <ele>5.51</ele>
        <time>2025-05-31T09:26:49.091Z</time>
      </trkpt>
      <trkpt lat="49.28226" lon="-0.13926">
        <ele>5.62</ele>
        <time>2025-05-31T09:26:49.337Z</time>
      </trkpt>
      <trkpt lat="49.28225" lon="-0.13927">
        <ele>5.67</ele>
        <time>2025-05-31T09:26:49.583Z</time>
      </trkpt>
      <trkpt lat="49.28207" lon="-0.13966">
        <ele>5.68</ele>
        <time>2025-05-31T09:26:49.834Z</time>
      </trkpt>
      <trkpt lat="49.28199" lon="-0.13984">
        <ele>5.7</ele>
        <time>2025-05-31T09:26:50.088Z</time>
      </trkpt>
      <trkpt lat="49.28179" lon="-0.14021">
        <ele>5.73</ele>
        <time>2025-05-31T09:26:50.347Z</time>
      </trkpt>
      <trkpt lat="49.28159" lon="-0.14058">
        <ele>5.69</ele>
        <time>2025-05-31T09:26:50.611Z</time>
      </trkpt>
      <trkpt lat="49.28149" lon="-0.14075">
        <ele>5.7</ele>
        <time>2025-05-31T09:26:50.877Z</time>
      </trkpt>
      <trkpt lat="49.28127" lon="-0.1411">
        <ele>5.77</ele>
        <time>2025-05-31T09:26:51.148Z</time>
      </trkpt>
      <trkpt lat="49.28117" lon="-0.14126">
        <ele>5.8</ele>
        <time>2025-05-31T09:26:51.421Z</time>
      </trkpt>
      <trkpt lat="49.28095" lon="-0.1416">
        <ele>5.81</ele>
        <time>2025-05-31T09:26:51.699Z</time>
      </trkpt>
      <trkpt lat="49.28072" lon="-0.14193">
        <ele>5.77</ele>
        <time>2025-05-31T09:26:51.983Z</time>
      </trkpt>
      <trkpt lat="49.2805" lon="-0.14227">
        <ele>5.69</ele>
        <time>2025-05-31T09:26:52.272Z</time>
      </trkpt>
      <trkpt lat="49.28027" lon="-0.14261">
        <ele>5.75</ele>
        <time>2025-05-31T09:26:52.566Z</time>
      </trkpt>
      <trkpt lat="49.28005" lon="-0.14294">
        <ele>5.75</ele>
        <time>2025-05-31T09:26:52.865Z</time>
      </trkpt>
      <trkpt lat="49.27982" lon="-0.14328">
        <ele>5.77</ele>
        <time>2025-05-31T09:26:53.169Z</time>
      </trkpt>
      <trkpt lat="49.27974" lon="-0.1434">
        <ele>5.78</ele>
        <time>2025-05-31T09:26:53.474Z</time>
      </trkpt>
      <trkpt lat="49.27951" lon="-0.14373">
        <ele>5.75</ele>
        <time>2025-05-31T09:26:53.785Z</time>
      </trkpt>
      <trkpt lat="49.27928" lon="-0.14406">
        <ele>5.69</ele>
        <time>2025-05-31T09:26:54.101Z</time>
      </trkpt>
      <trkpt lat="49.27905" lon="-0.14439">
        <ele>5.64</ele>
        <time>2025-05-31T09:26:54.422Z</time>
      </trkpt>
      <trkpt lat="49.27882" lon="-0.14472">
        <ele>5.64</ele>
        <time>2025-05-31T09:26:54.748Z</time>
      </trkpt>
      <trkpt lat="49.27882" lon="-0.14472">
        <ele>5.61</ele>
        <time>2025-05-31T09:26:55.074Z</time>
      </trkpt>
      <trkpt lat="49.27859" lon="-0.14506">
        <ele>5.58</ele>
        <time>2025-05-31T09:26:55.405Z</time>
      </trkpt>
      <trkpt lat="49.27837" lon="-0.14539">
        <ele>5.48</ele>
        <time>2025-05-31T09:26:55.741Z</time>
      </trkpt>
      <trkpt lat="49.27814" lon="-0.14573">
        <ele>5.37</ele>
        <time>2025-05-31T09:26:56.082Z</time>
      </trkpt>
      <trkpt lat="49.27792" lon="-0.14606">
        <ele>5.3</ele>
        <time>2025-05-31T09:26:56.428Z</time>
      </trkpt>
      <trkpt lat="49.27769" lon="-0.1464">
        <ele>5.31</ele>
        <time>2025-05-31T09:26:56.779Z</time>
      </trkpt>
      <trkpt lat="49.27747" lon="-0.14673">
        <ele>5.33</ele>
        <time>2025-05-31T09:26:57.135Z</time>
      </trkpt>
      <trkpt lat="49.27724" lon="-0.14707">
        <ele>5.25</ele>
        <time>2025-05-31T09:26:57.496Z</time>
      </trkpt>
      <trkpt lat="49.27702" lon="-0.1474">
        <ele>5.23</ele>
        <time>2025-05-31T09:26:57.862Z</time>
      </trkpt>
      <trkpt lat="49.27679" lon="-0.14774">
        <ele>5.22</ele>
        <time>2025-05-31T09:26:58.233Z</time>
      </trkpt>
      <trkpt lat="49.27656" lon="-0.14808">
        <ele>5.21</ele>
        <time>2025-05-31T09:26:58.609Z</time>
      </trkpt>
      <trkpt lat="49.27634" lon="-0.14841">
        <ele>5.13</ele>
        <time>2025-05-31T09:26:58.990Z</time>
      </trkpt>
      <trkpt lat="49.27611" lon="-0.14874">
        <ele>5.01</ele>
        <time>2025-05-31T09:26:59.376Z</time>
      </trkpt>
      <trkpt lat="49.2759" lon="-0.14905">
        <ele>4.94</ele>
        <time>2025-05-31T09:26:59.767Z</time>
      </trkpt>
      <trkpt lat="49.27568" lon="-0.14939">
        <ele>4.89</ele>
        <time>2025-05-31T09:27:00.163Z</time>
      </trkpt>
      <trkpt lat="49.27545" lon="-0.14972">
        <ele>4.88</ele>
        <time>2025-05-31T09:27:00.564Z</time>
      </trkpt>
      <trkpt lat="49.27536" lon="-0.14986">
        <ele>4.84</ele>
        <time>2025-05-31T09:27:00.967Z</time>
      </trkpt>
      <trkpt lat="49.27512" lon="-0.15017">
        <ele>4.75</ele>
        <time>2025-05-31T09:27:01.375Z</time>
      </trkpt>
      <trkpt lat="49.2751" lon="-0.1502">
        <ele>4.7</ele>
        <time>2025-05-31T09:27:01.783Z</time>
      </trkpt>
      <trkpt lat="49.27485" lon="-0.15048">
        <ele>4.65</ele>
        <time>2025-05-31T09:27:02.196Z</time>
      </trkpt>
      <trkpt lat="49.27484" lon="-0.15049">
        <ele>4.61</ele>
        <time>2025-05-31T09:27:02.610Z</time>
      </trkpt>
      <trkpt lat="49.27458" lon="-0.15075">
        <ele>4.58</ele>
        <time>2025-05-31T09:27:03.029Z</time>
      </trkpt>
      <trkpt lat="49.27446" lon="-0.15087">
        <ele>4.56</ele>
        <time>2025-05-31T09:27:03.450Z</time>
      </trkpt>
      <trkpt lat="49.27431" lon="-0.15102">
        <ele>4.54</ele>
        <time>2025-05-31T09:27:03.874Z</time>
      </trkpt>
      <trkpt lat="49.27406" lon="-0.15126">
        <ele>4.52</ele>
        <time>2025-05-31T09:27:04.302Z</time>
      </trkpt>
      <trkpt lat="49.27379" lon="-0.15152">
        <ele>4.49</ele>
        <time>2025-05-31T09:27:04.736Z</time>
      </trkpt>
      <trkpt lat="49.27353" lon="-0.15177">
        <ele>4.49</ele>
        <time>2025-05-31T09:27:05.175Z</time>
      </trkpt>
      <trkpt lat="49.27326" lon="-0.15203">
        <ele>4.43</ele>
        <time>2025-05-31T09:27:05.619Z</time>
      </trkpt>
      <trkpt lat="49.273" lon="-0.15229">
        <ele>4.37</ele>
        <time>2025-05-31T09:27:06.068Z</time>
      </trkpt>
      <trkpt lat="49.27296" lon="-0.15232">
        <ele>4.33</ele>
        <time>2025-05-31T09:27:06.517Z</time>
      </trkpt>
      <trkpt lat="49.27271" lon="-0.15261">
        <ele>4.3</ele>
        <time>2025-05-31T09:27:06.971Z</time>
      </trkpt>
      <trkpt lat="49.27268" lon="-0.15264">
        <ele>4.27</ele>
        <time>2025-05-31T09:27:07.426Z</time>
      </trkpt>
      <trkpt lat="49.27245" lon="-0.15297">
        <ele>4.25</ele>
        <time>2025-05-31T09:27:07.886Z</time>
      </trkpt>
      <trkpt lat="49.27224" lon="-0.15328">
        <ele>4.14</ele>
        <time>2025-05-31T09:27:08.351Z</time>
      </trkpt>
      <trkpt lat="49.27202" lon="-0.15362">
        <ele>4.06</ele>
        <time>2025-05-31T09:27:08.821Z</time>
      </trkpt>
      <trkpt lat="49.2718" lon="-0.15397">
        <ele>4.03</ele>
        <time>2025-05-31T09:27:09.296Z</time>
      </trkpt>
      <trkpt lat="49.27158" lon="-0.15431">
        <ele>4.07</ele>
        <time>2025-05-31T09:27:09.776Z</time>
      </trkpt>
      <trkpt lat="49.27136" lon="-0.15466">
        <ele>4.09</ele>
        <time>2025-05-31T09:27:10.261Z</time>
      </trkpt>
      <trkpt lat="49.2713" lon="-0.15475">
        <ele>4.07</ele>
        <time>2025-05-31T09:27:10.747Z</time>
      </trkpt>
      <trkpt lat="49.27108" lon="-0.15509">
        <ele>4.03</ele>
        <time>2025-05-31T09:27:11.238Z</time>
      </trkpt>
      <trkpt lat="49.27086" lon="-0.15544">
        <ele>4.04</ele>
        <time>2025-05-31T09:27:11.734Z</time>
      </trkpt>
      <trkpt lat="49.27064" lon="-0.15578">
        <ele>4.04</ele>
        <time>2025-05-31T09:27:12.235Z</time>
      </trkpt>
      <trkpt lat="49.27049" lon="-0.15601">
        <ele>4.03</ele>
        <time>2025-05-31T09:27:12.740Z</time>
      </trkpt>
      <trkpt lat="49.27027" lon="-0.15635">
        <ele>4</ele>
        <time>2025-05-31T09:27:13.250Z</time>
      </trkpt>
      <trkpt lat="49.27004" lon="-0.15669">
        <ele>3.95</ele>
        <time>2025-05-31T09:27:13.765Z</time>
      </trkpt>
      <trkpt lat="49.2699" lon="-0.1569">
        <ele>3.89</ele>
        <time>2025-05-31T09:27:14.283Z</time>
      </trkpt>
      <trkpt lat="49.26967" lon="-0.15723">
        <ele>3.8</ele>
        <time>2025-05-31T09:27:14.806Z</time>
      </trkpt>
      <trkpt lat="49.26964" lon="-0.15727">
        <ele>3.79</ele>
        <time>2025-05-31T09:27:15.330Z</time>
      </trkpt>
      <trkpt lat="49.26945" lon="-0.15748">
        <ele>3.77</ele>
        <time>2025-05-31T09:27:15.857Z</time>
      </trkpt>
      <trkpt lat="49.26918" lon="-0.15772">
        <ele>3.8</ele>
        <time>2025-05-31T09:27:16.389Z</time>
      </trkpt>
      <trkpt lat="49.26914" lon="-0.15776">
        <ele>3.8</ele>
        <time>2025-05-31T09:27:16.922Z</time>
      </trkpt>
      <trkpt lat="49.26885" lon="-0.15795">
        <ele>3.96</ele>
        <time>2025-05-31T09:27:17.460Z</time>
      </trkpt>
      <trkpt lat="49.26869" lon="-0.15806">
        <ele>4.03</ele>
        <time>2025-05-31T09:27:18.001Z</time>
      </trkpt>
      <trkpt lat="49.26842" lon="-0.1582">
        <ele>4.06</ele>
        <time>2025-05-31T09:27:18.547Z</time>
      </trkpt>
      <trkpt lat="49.26816" lon="-0.15829">
        <ele>4.02</ele>
        <time>2025-05-31T09:27:19.097Z</time>
      </trkpt>
      <trkpt lat="49.26785" lon="-0.15836">
        <ele>3.99</ele>
        <time>2025-05-31T09:27:19.652Z</time>
      </trkpt>
      <trkpt lat="49.26765" lon="-0.1584">
        <ele>3.97</ele>
        <time>2025-05-31T09:27:20.210Z</time>
      </trkpt>
      <trkpt lat="49.26734" lon="-0.15842">
        <ele>3.96</ele>
        <time>2025-05-31T09:27:20.773Z</time>
      </trkpt>
      <trkpt lat="49.26702" lon="-0.15844">
        <ele>3.9</ele>
        <time>2025-05-31T09:27:21.341Z</time>
      </trkpt>
      <trkpt lat="49.26683" lon="-0.15845">
        <ele>3.84</ele>
        <time>2025-05-31T09:27:21.912Z</time>
      </trkpt>
      <trkpt lat="49.26652" lon="-0.15849">
        <ele>3.75</ele>
        <time>2025-05-31T09:27:22.488Z</time>
      </trkpt>
      <trkpt lat="49.26642" lon="-0.1585">
        <ele>3.71</ele>
        <time>2025-05-31T09:27:23.066Z</time>
      </trkpt>
      <trkpt lat="49.26611" lon="-0.15856">
        <ele>3.67</ele>
        <time>2025-05-31T09:27:23.649Z</time>
      </trkpt>
      <trkpt lat="49.2658" lon="-0.15861">
        <ele>3.63</ele>
        <time>2025-05-31T09:27:24.237Z</time>
      </trkpt>
      <trkpt lat="49.26571" lon="-0.15863">
        <ele>3.59</ele>
        <time>2025-05-31T09:27:24.826Z</time>
      </trkpt>
      <trkpt lat="49.2654" lon="-0.15872">
        <ele>3.56</ele>
        <time>2025-05-31T09:27:25.420Z</time>
      </trkpt>
      <trkpt lat="49.2654" lon="-0.15872">
        <ele>3.52</ele>
        <time>2025-05-31T09:27:26.014Z</time>
      </trkpt>
      <trkpt lat="49.26515" lon="-0.15882">
        <ele>3.49</ele>
        <time>2025-05-31T09:27:26.612Z</time>
      </trkpt>
      <trkpt lat="49.26485" lon="-0.15898">
        <ele>3.45</ele>
        <time>2025-05-31T09:27:27.216Z</time>
      </trkpt>
      <trkpt lat="49.26475" lon="-0.15904">
        <ele>3.39</ele>
        <time>2025-05-31T09:27:27.821Z</time>
      </trkpt>
      <trkpt lat="49.26445" lon="-0.1592">
        <ele>3.37</ele>
        <time>2025-05-31T09:27:28.431Z</time>
      </trkpt>
      <trkpt lat="49.26415" lon="-0.15935">
        <ele>3.39</ele>
        <time>2025-05-31T09:27:29.046Z</time>
      </trkpt>
      <trkpt lat="49.26386" lon="-0.15951">
        <ele>3.41</ele>
        <time>2025-05-31T09:27:29.666Z</time>
      </trkpt>
      <trkpt lat="49.26356" lon="-0.15966">
        <ele>3.39</ele>
        <time>2025-05-31T09:27:30.291Z</time>
      </trkpt>
      <trkpt lat="49.26326" lon="-0.15982">
        <ele>3.39</ele>
        <time>2025-05-31T09:27:30.921Z</time>
      </trkpt>
      <trkpt lat="49.26296" lon="-0.15997">
        <ele>3.35</ele>
        <time>2025-05-31T09:27:31.557Z</time>
      </trkpt>
      <trkpt lat="49.26267" lon="-0.16013">
        <ele>3.29</ele>
        <time>2025-05-31T09:27:32.198Z</time>
      </trkpt>
      <trkpt lat="49.26237" lon="-0.16029">
        <ele>3.25</ele>
        <time>2025-05-31T09:27:32.844Z</time>
      </trkpt>
      <trkpt lat="49.26207" lon="-0.16044">
        <ele>3.25</ele>
        <time>2025-05-31T09:27:33.495Z</time>
      </trkpt>
      <trkpt lat="49.2619" lon="-0.16053">
        <ele>3.22</ele>
        <time>2025-05-31T09:27:34.149Z</time>
      </trkpt>
      <trkpt lat="49.26159" lon="-0.16062">
        <ele>3.17</ele>
        <time>2025-05-31T09:27:34.808Z</time>
      </trkpt>
      <trkpt lat="49.26142" lon="-0.16067">
        <ele>3.16</ele>
        <time>2025-05-31T09:27:35.469Z</time>
      </trkpt>
      <trkpt lat="49.26111" lon="-0.16071">
        <ele>3.2</ele>
        <time>2025-05-31T09:27:36.135Z</time>
      </trkpt>
      <trkpt lat="49.26089" lon="-0.16074">
        <ele>3.25</ele>
        <time>2025-05-31T09:27:36.805Z</time>
      </trkpt>
      <trkpt lat="49.26066" lon="-0.16074">
        <ele>3.28</ele>
        <time>2025-05-31T09:27:37.479Z</time>
      </trkpt>
      <trkpt lat="49.26035" lon="-0.16071">
        <ele>3.33</ele>
        <time>2025-05-31T09:27:38.158Z</time>
      </trkpt>
      <trkpt lat="49.26019" lon="-0.16069">
        <ele>3.38</ele>
        <time>2025-05-31T09:27:38.839Z</time>
      </trkpt>
      <trkpt lat="49.25988" lon="-0.16061">
        <ele>3.43</ele>
        <time>2025-05-31T09:27:39.525Z</time>
      </trkpt>
      <trkpt lat="49.25957" lon="-0.16053">
        <ele>3.44</ele>
        <time>2025-05-31T09:27:40.216Z</time>
      </trkpt>
      <trkpt lat="49.25926" lon="-0.16046">
        <ele>3.48</ele>
        <time>2025-05-31T09:27:40.912Z</time>
      </trkpt>
      <trkpt lat="49.25895" lon="-0.16038">
        <ele>3.56</ele>
        <time>2025-05-31T09:27:41.613Z</time>
      </trkpt>
      <trkpt lat="49.25887" lon="-0.16036">
        <ele>3.61</ele>
        <time>2025-05-31T09:27:42.316Z</time>
      </trkpt>
      <trkpt lat="49.25856" lon="-0.16028">
        <ele>3.64</ele>
        <time>2025-05-31T09:27:43.024Z</time>
      </trkpt>
      <trkpt lat="49.25825" lon="-0.1602">
        <ele>3.75</ele>
        <time>2025-05-31T09:27:43.737Z</time>
      </trkpt>
      <trkpt lat="49.25794" lon="-0.16012">
        <ele>3.82</ele>
        <time>2025-05-31T09:27:44.455Z</time>
      </trkpt>
      <trkpt lat="49.25763" lon="-0.16003">
        <ele>3.89</ele>
        <time>2025-05-31T09:27:45.178Z</time>
      </trkpt>
      <trkpt lat="49.25746" lon="-0.15999">
        <ele>4.01</ele>
        <time>2025-05-31T09:27:45.903Z</time>
      </trkpt>
      <trkpt lat="49.25715" lon="-0.15991">
        <ele>4.2</ele>
        <time>2025-05-31T09:27:46.633Z</time>
      </trkpt>
      <trkpt lat="49.25684" lon="-0.15983">
        <ele>4.26</ele>
        <time>2025-05-31T09:27:47.369Z</time>
      </trkpt>
      <trkpt lat="49.25654" lon="-0.15976">
        <ele>4.29</ele>
        <time>2025-05-31T09:27:48.109Z</time>
      </trkpt>
      <trkpt lat="49.25623" lon="-0.15973">
        <ele>4.43</ele>
        <time>2025-05-31T09:27:48.854Z</time>
      </trkpt>
      <trkpt lat="49.25621" lon="-0.15973">
        <ele>4.57</ele>
        <time>2025-05-31T09:27:49.600Z</time>
      </trkpt>
      <trkpt lat="49.25621" lon="-0.15972">
        <ele>4.72</ele>
        <time>2025-05-31T09:27:50.346Z</time>
      </trkpt>
      <trkpt lat="49.25602" lon="-0.15972">
        <ele>4.9</ele>
        <time>2025-05-31T09:27:51.095Z</time>
      </trkpt>
      <trkpt lat="49.2558" lon="-0.15974">
        <ele>5.14</ele>
        <time>2025-05-31T09:27:51.847Z</time>
      </trkpt>
      <trkpt lat="49.25549" lon="-0.1598">
        <ele>5.37</ele>
        <time>2025-05-31T09:27:52.604Z</time>
      </trkpt>
      <trkpt lat="49.25548" lon="-0.1598">
        <ele>5.57</ele>
        <time>2025-05-31T09:27:53.361Z</time>
      </trkpt>
      <trkpt lat="49.25518" lon="-0.15991">
        <ele>5.76</ele>
        <time>2025-05-31T09:27:54.123Z</time>
      </trkpt>
      <trkpt lat="49.25488" lon="-0.16004">
        <ele>5.95</ele>
        <time>2025-05-31T09:27:54.890Z</time>
      </trkpt>
      <trkpt lat="49.25473" lon="-0.16011">
        <ele>6.18</ele>
        <time>2025-05-31T09:27:55.660Z</time>
      </trkpt>
      <trkpt lat="49.25444" lon="-0.16031">
        <ele>6.45</ele>
        <time>2025-05-31T09:27:56.435Z</time>
      </trkpt>
      <trkpt lat="49.25443" lon="-0.16032">
        <ele>6.7</ele>
        <time>2025-05-31T09:27:57.210Z</time>
      </trkpt>
      <trkpt lat="49.25414" lon="-0.16052">
        <ele>6.99</ele>
        <time>2025-05-31T09:27:57.990Z</time>
      </trkpt>
      <trkpt lat="49.25386" lon="-0.16072">
        <ele>7.31</ele>
        <time>2025-05-31T09:27:58.775Z</time>
      </trkpt>
      <trkpt lat="49.25383" lon="-0.16074">
        <ele>7.59</ele>
        <time>2025-05-31T09:27:59.561Z</time>
      </trkpt>
      <trkpt lat="49.25379" lon="-0.16081">
        <ele>7.87</ele>
        <time>2025-05-31T09:28:00.348Z</time>
      </trkpt>
      <trkpt lat="49.25369" lon="-0.16089">
        <ele>8.17</ele>
        <time>2025-05-31T09:28:01.137Z</time>
      </trkpt>
      <trkpt lat="49.25369" lon="-0.16095">
        <ele>8.45</ele>
        <time>2025-05-31T09:28:01.926Z</time>
      </trkpt>
      <trkpt lat="49.25367" lon="-0.16103">
        <ele>8.74</ele>
        <time>2025-05-31T09:28:02.716Z</time>
      </trkpt>
      <trkpt lat="49.25362" lon="-0.16108">
        <ele>9.04</ele>
        <time>2025-05-31T09:28:03.507Z</time>
      </trkpt>
      <trkpt lat="49.25357" lon="-0.1611">
        <ele>9.33</ele>
        <time>2025-05-31T09:28:04.299Z</time>
      </trkpt>
      <trkpt lat="49.25351" lon="-0.16108">
        <ele>9.63</ele>
        <time>2025-05-31T09:28:05.092Z</time>
      </trkpt>
      <trkpt lat="49.25349" lon="-0.16106">
        <ele>9.92</ele>
        <time>2025-05-31T09:28:05.885Z</time>
      </trkpt>
      <trkpt lat="49.25321" lon="-0.16127">
        <ele>10.23</ele>
        <time>2025-05-31T09:28:06.683Z</time>
      </trkpt>
      <trkpt lat="49.25292" lon="-0.16148">
        <ele>10.47</ele>
        <time>2025-05-31T09:28:07.486Z</time>
      </trkpt>
      <trkpt lat="49.25278" lon="-0.16158">
        <ele>10.74</ele>
        <time>2025-05-31T09:28:08.292Z</time>
      </trkpt>
      <trkpt lat="49.2525" lon="-0.16181">
        <ele>11.07</ele>
        <time>2025-05-31T09:28:09.103Z</time>
      </trkpt>
      <trkpt lat="49.2523" lon="-0.16197">
        <ele>11.4</ele>
        <time>2025-05-31T09:28:09.918Z</time>
      </trkpt>
      <trkpt lat="49.25214" lon="-0.16206">
        <ele>11.69</ele>
        <time>2025-05-31T09:28:10.735Z</time>
      </trkpt>
      <trkpt lat="49.25188" lon="-0.16233">
        <ele>11.94</ele>
        <time>2025-05-31T09:28:11.557Z</time>
      </trkpt>
      <trkpt lat="49.25182" lon="-0.1624">
        <ele>12.16</ele>
        <time>2025-05-31T09:28:12.381Z</time>
      </trkpt>
      <trkpt lat="49.25159" lon="-0.1627">
        <ele>12.3</ele>
        <time>2025-05-31T09:28:13.209Z</time>
      </trkpt>
      <trkpt lat="49.25137" lon="-0.16305">
        <ele>12.52</ele>
        <time>2025-05-31T09:28:14.042Z</time>
      </trkpt>
      <trkpt lat="49.25137" lon="-0.16305">
        <ele>12.71</ele>
        <time>2025-05-31T09:28:14.875Z</time>
      </trkpt>
      <trkpt lat="49.25118" lon="-0.16343">
        <ele>12.91</ele>
        <time>2025-05-31T09:28:15.714Z</time>
      </trkpt>
      <trkpt lat="49.25117" lon="-0.16344">
        <ele>13.08</ele>
        <time>2025-05-31T09:28:16.553Z</time>
      </trkpt>
      <trkpt lat="49.251" lon="-0.16385">
        <ele>13.29</ele>
        <time>2025-05-31T09:28:17.397Z</time>
      </trkpt>
      <trkpt lat="49.25094" lon="-0.16399">
        <ele>13.45</ele>
        <time>2025-05-31T09:28:18.243Z</time>
      </trkpt>
      <trkpt lat="49.25081" lon="-0.16437">
        <ele>13.59</ele>
        <time>2025-05-31T09:28:19.093Z</time>
      </trkpt>
      <trkpt lat="49.25074" lon="-0.16462">
        <ele>13.67</ele>
        <time>2025-05-31T09:28:19.946Z</time>
      </trkpt>
      <trkpt lat="49.25065" lon="-0.16508">
        <ele>13.7</ele>
        <time>2025-05-31T09:28:20.804Z</time>
      </trkpt>
      <trkpt lat="49.2506" lon="-0.16536">
        <ele>13.76</ele>
        <time>2025-05-31T09:28:21.665Z</time>
      </trkpt>
      <trkpt lat="49.25055" lon="-0.16583">
        <ele>13.88</ele>
        <time>2025-05-31T09:28:22.531Z</time>
      </trkpt>
      <trkpt lat="49.25054" lon="-0.16591">
        <ele>13.94</ele>
        <time>2025-05-31T09:28:23.398Z</time>
      </trkpt>
      <trkpt lat="49.25053" lon="-0.16639">
        <ele>14.06</ele>
        <time>2025-05-31T09:28:24.270Z</time>
      </trkpt>
      <trkpt lat="49.25052" lon="-0.16687">
        <ele>14.12</ele>
        <time>2025-05-31T09:28:25.147Z</time>
      </trkpt>
      <trkpt lat="49.25052" lon="-0.16695">
        <ele>14.12</ele>
        <time>2025-05-31T09:28:26.025Z</time>
      </trkpt>
      <trkpt lat="49.25052" lon="-0.16743">
        <ele>14.01</ele>
        <time>2025-05-31T09:28:26.908Z</time>
      </trkpt>
      <trkpt lat="49.25051" lon="-0.16791">
        <ele>13.94</ele>
        <time>2025-05-31T09:28:27.796Z</time>
      </trkpt>
      <trkpt lat="49.25051" lon="-0.1683">
        <ele>13.84</ele>
        <time>2025-05-31T09:28:28.688Z</time>
      </trkpt>
      <trkpt lat="49.2505" lon="-0.16878">
        <ele>13.76</ele>
        <time>2025-05-31T09:28:29.585Z</time>
      </trkpt>
      <trkpt lat="49.25049" lon="-0.16926">
        <ele>13.74</ele>
        <time>2025-05-31T09:28:30.487Z</time>
      </trkpt>
      <trkpt lat="49.25049" lon="-0.16927">
        <ele>13.68</ele>
        <time>2025-05-31T09:28:31.389Z</time>
      </trkpt>
      <trkpt lat="49.25045" lon="-0.16975">
        <ele>13.59</ele>
        <time>2025-05-31T09:28:32.296Z</time>
      </trkpt>
      <trkpt lat="49.25044" lon="-0.16987">
        <ele>13.49</ele>
        <time>2025-05-31T09:28:33.204Z</time>
      </trkpt>
      <trkpt lat="49.25039" lon="-0.17014">
        <ele>13.38</ele>
        <time>2025-05-31T09:28:34.115Z</time>
      </trkpt>
      <trkpt lat="49.25029" lon="-0.17059">
        <ele>13.27</ele>
        <time>2025-05-31T09:28:35.031Z</time>
      </trkpt>
      <trkpt lat="49.25023" lon="-0.17084">
        <ele>13.21</ele>
        <time>2025-05-31T09:28:35.950Z</time>
      </trkpt>
      <trkpt lat="49.25014" lon="-0.17115">
        <ele>13.18</ele>
        <time>2025-05-31T09:28:36.873Z</time>
      </trkpt>
      <trkpt lat="49.25" lon="-0.17158">
        <ele>13.2</ele>
        <time>2025-05-31T09:28:37.801Z</time>
      </trkpt>
      <trkpt lat="49.24986" lon="-0.17201">
        <ele>13.24</ele>
        <time>2025-05-31T09:28:38.734Z</time>
      </trkpt>
      <trkpt lat="49.24972" lon="-0.17244">
        <ele>13.2</ele>
        <time>2025-05-31T09:28:39.672Z</time>
      </trkpt>
      <trkpt lat="49.24958" lon="-0.17286">
        <ele>13.2</ele>
        <time>2025-05-31T09:28:40.615Z</time>
      </trkpt>
      <trkpt lat="49.24947" lon="-0.17331">
        <ele>13.22</ele>
        <time>2025-05-31T09:28:41.563Z</time>
      </trkpt>
      <trkpt lat="49.24937" lon="-0.17376">
        <ele>13.24</ele>
        <time>2025-05-31T09:28:42.516Z</time>
      </trkpt>
      <trkpt lat="49.24926" lon="-0.17422">
        <ele>13.27</ele>
        <time>2025-05-31T09:28:43.474Z</time>
      </trkpt>
      <trkpt lat="49.24915" lon="-0.17467">
        <ele>13.3</ele>
        <time>2025-05-31T09:28:44.437Z</time>
      </trkpt>
      <trkpt lat="49.24904" lon="-0.17512">
        <ele>13.33</ele>
        <time>2025-05-31T09:28:45.405Z</time>
      </trkpt>
      <trkpt lat="49.24903" lon="-0.17518">
        <ele>13.4</ele>
        <time>2025-05-31T09:28:46.374Z</time>
      </trkpt>
      <trkpt lat="49.2489" lon="-0.17562">
        <ele>13.5</ele>
        <time>2025-05-31T09:28:47.348Z</time>
      </trkpt>
      <trkpt lat="49.24888" lon="-0.17567">
        <ele>13.6</ele>
        <time>2025-05-31T09:28:48.322Z</time>
      </trkpt>
      <trkpt lat="49.24876" lon="-0.17601">
        <ele>13.76</ele>
        <time>2025-05-31T09:28:49.300Z</time>
      </trkpt>
      <trkpt lat="49.24865" lon="-0.17624">
        <ele>13.91</ele>
        <time>2025-05-31T09:28:50.281Z</time>
      </trkpt>
      <trkpt lat="49.24846" lon="-0.17662">
        <ele>14.09</ele>
        <time>2025-05-31T09:28:51.267Z</time>
      </trkpt>
      <trkpt lat="49.24826" lon="-0.177">
        <ele>14.23</ele>
        <time>2025-05-31T09:28:52.258Z</time>
      </trkpt>
      <trkpt lat="49.24807" lon="-0.17737">
        <ele>14.37</ele>
        <time>2025-05-31T09:28:53.254Z</time>
      </trkpt>
      <trkpt lat="49.24792" lon="-0.17766">
        <ele>14.53</ele>
        <time>2025-05-31T09:28:54.254Z</time>
      </trkpt>
      <trkpt lat="49.24774" lon="-0.17805">
        <ele>14.69</ele>
        <time>2025-05-31T09:28:55.259Z</time>
      </trkpt>
      <trkpt lat="49.24755" lon="-0.17844">
        <ele>14.85</ele>
        <time>2025-05-31T09:28:56.269Z</time>
      </trkpt>
      <trkpt lat="49.24737" lon="-0.17883">
        <ele>15.04</ele>
        <time>2025-05-31T09:28:57.284Z</time>
      </trkpt>
      <trkpt lat="49.24718" lon="-0.17922">
        <ele>15.22</ele>
        <time>2025-05-31T09:28:58.304Z</time>
      </trkpt>
      <trkpt lat="49.247" lon="-0.17961">
        <ele>15.41</ele>
        <time>2025-05-31T09:28:59.329Z</time>
      </trkpt>
      <trkpt lat="49.24682" lon="-0.18">
        <ele>15.65</ele>
        <time>2025-05-31T09:29:00.359Z</time>
      </trkpt>
      <trkpt lat="49.24681" lon="-0.18001">
        <ele>15.85</ele>
        <time>2025-05-31T09:29:01.390Z</time>
      </trkpt>
      <trkpt lat="49.24663" lon="-0.18041">
        <ele>16.09</ele>
        <time>2025-05-31T09:29:02.426Z</time>
      </trkpt>
      <trkpt lat="49.24645" lon="-0.1808">
        <ele>16.36</ele>
        <time>2025-05-31T09:29:03.467Z</time>
      </trkpt>
      <trkpt lat="49.24627" lon="-0.1812">
        <ele>16.6</ele>
        <time>2025-05-31T09:29:04.513Z</time>
      </trkpt>
      <trkpt lat="49.24613" lon="-0.18152">
        <ele>16.79</ele>
        <time>2025-05-31T09:29:05.563Z</time>
      </trkpt>
      <trkpt lat="49.24594" lon="-0.1819">
        <ele>16.95</ele>
        <time>2025-05-31T09:29:06.618Z</time>
      </trkpt>
      <trkpt lat="49.24575" lon="-0.18228">
        <ele>17.13</ele>
        <time>2025-05-31T09:29:07.678Z</time>
      </trkpt>
      <trkpt lat="49.24573" lon="-0.18232">
        <ele>17.35</ele>
        <time>2025-05-31T09:29:08.738Z</time>
      </trkpt>
      <trkpt lat="49.24552" lon="-0.18267">
        <ele>17.61</ele>
        <time>2025-05-31T09:29:09.803Z</time>
      </trkpt>
      <trkpt lat="49.24545" lon="-0.18278">
        <ele>17.87</ele>
        <time>2025-05-31T09:29:10.870Z</time>
      </trkpt>
      <trkpt lat="49.24529" lon="-0.18298">
        <ele>18.17</ele>
        <time>2025-05-31T09:29:11.940Z</time>
      </trkpt>
      <trkpt lat="49.24516" lon="-0.18314">
        <ele>18.45</ele>
        <time>2025-05-31T09:29:13.013Z</time>
      </trkpt>
      <trkpt lat="49.24489" lon="-0.1834">
        <ele>18.73</ele>
        <time>2025-05-31T09:29:14.091Z</time>
      </trkpt>
      <trkpt lat="49.24474" lon="-0.18355">
        <ele>19.02</ele>
        <time>2025-05-31T09:29:15.172Z</time>
      </trkpt>
      <trkpt lat="49.24447" lon="-0.18381">
        <ele>19.29</ele>
        <time>2025-05-31T09:29:16.258Z</time>
      </trkpt>
      <trkpt lat="49.24432" lon="-0.18396">
        <ele>19.57</ele>
        <time>2025-05-31T09:29:17.347Z</time>
      </trkpt>
      <trkpt lat="49.24406" lon="-0.18422">
        <ele>19.86</ele>
        <time>2025-05-31T09:29:18.441Z</time>
      </trkpt>
      <trkpt lat="49.24393" lon="-0.18435">
        <ele>20.16</ele>
        <time>2025-05-31T09:29:19.537Z</time>
      </trkpt>
      <trkpt lat="49.24366" lon="-0.1846">
        <ele>20.47</ele>
        <time>2025-05-31T09:29:20.638Z</time>
      </trkpt>
      <trkpt lat="49.24339" lon="-0.18485">
        <ele>20.79</ele>
        <time>2025-05-31T09:29:21.744Z</time>
      </trkpt>
      <trkpt lat="49.24313" lon="-0.18511">
        <ele>21.1</ele>
        <time>2025-05-31T09:29:22.855Z</time>
      </trkpt>
      <trkpt lat="49.24286" lon="-0.18536">
        <ele>21.41</ele>
        <time>2025-05-31T09:29:23.971Z</time>
      </trkpt>
      <trkpt lat="49.24259" lon="-0.18561">
        <ele>21.73</ele>
        <time>2025-05-31T09:29:25.093Z</time>
      </trkpt>
      <trkpt lat="49.2424" lon="-0.18579">
        <ele>22.04</ele>
        <time>2025-05-31T09:29:26.218Z</time>
      </trkpt>
      <trkpt lat="49.24213" lon="-0.18605">
        <ele>22.36</ele>
        <time>2025-05-31T09:29:27.348Z</time>
      </trkpt>
      <trkpt lat="49.24191" lon="-0.18626">
        <ele>22.69</ele>
        <time>2025-05-31T09:29:28.482Z</time>
      </trkpt>
      <trkpt lat="49.24168" lon="-0.18646">
        <ele>23.02</ele>
        <time>2025-05-31T09:29:29.621Z</time>
      </trkpt>
      <trkpt lat="49.24143" lon="-0.18675">
        <ele>23.35</ele>
        <time>2025-05-31T09:29:30.765Z</time>
      </trkpt>
      <trkpt lat="49.24136" lon="-0.18682">
        <ele>23.68</ele>
        <time>2025-05-31T09:29:31.910Z</time>
      </trkpt>
      <trkpt lat="49.24111" lon="-0.18711">
        <ele>24.13</ele>
        <time>2025-05-31T09:29:33.060Z</time>
      </trkpt>
      <trkpt lat="49.24086" lon="-0.18739">
        <ele>24.54</ele>
        <time>2025-05-31T09:29:34.215Z</time>
      </trkpt>
      <trkpt lat="49.2406" lon="-0.18768">
        <ele>24.86</ele>
        <time>2025-05-31T09:29:35.375Z</time>
      </trkpt>
      <trkpt lat="49.24035" lon="-0.18797">
        <ele>25.23</ele>
        <time>2025-05-31T09:29:36.540Z</time>
      </trkpt>
      <trkpt lat="49.24026" lon="-0.18807">
        <ele>25.59</ele>
        <time>2025-05-31T09:29:37.707Z</time>
      </trkpt>
      <trkpt lat="49.23999" lon="-0.18832">
        <ele>25.95</ele>
        <time>2025-05-31T09:29:38.879Z</time>
      </trkpt>
      <trkpt lat="49.23995" lon="-0.18836">
        <ele>26.29</ele>
        <time>2025-05-31T09:29:40.052Z</time>
      </trkpt>
      <trkpt lat="49.23967" lon="-0.18859">
        <ele>26.63</ele>
        <time>2025-05-31T09:29:41.230Z</time>
      </trkpt>
      <trkpt lat="49.23967" lon="-0.18859">
        <ele>26.98</ele>
        <time>2025-05-31T09:29:42.408Z</time>
      </trkpt>
      <trkpt lat="49.23946" lon="-0.18878">
        <ele>27.35</ele>
        <time>2025-05-31T09:29:43.590Z</time>
      </trkpt>
      <trkpt lat="49.23918" lon="-0.189">
        <ele>27.73</ele>
        <time>2025-05-31T09:29:44.777Z</time>
      </trkpt>
      <trkpt lat="49.23918" lon="-0.189">
        <ele>28.07</ele>
        <time>2025-05-31T09:29:45.964Z</time>
      </trkpt>
      <trkpt lat="49.23891" lon="-0.18924">
        <ele>28.45</ele>
        <time>2025-05-31T09:29:47.156Z</time>
      </trkpt>
      <trkpt lat="49.23882" lon="-0.18932">
        <ele>28.8</ele>
        <time>2025-05-31T09:29:48.349Z</time>
      </trkpt>
      <trkpt lat="49.23856" lon="-0.1896">
        <ele>29.14</ele>
        <time>2025-05-31T09:29:49.548Z</time>
      </trkpt>
      <trkpt lat="49.23852" lon="-0.18965">
        <ele>29.47</ele>
        <time>2025-05-31T09:29:50.747Z</time>
      </trkpt>
      <trkpt lat="49.23833" lon="-0.19003">
        <ele>29.86</ele>
        <time>2025-05-31T09:29:51.951Z</time>
      </trkpt>
      <trkpt lat="49.23814" lon="-0.19041">
        <ele>30.27</ele>
        <time>2025-05-31T09:29:53.160Z</time>
      </trkpt>
      <trkpt lat="49.23795" lon="-0.19079">
        <ele>30.68</ele>
        <time>2025-05-31T09:29:54.375Z</time>
      </trkpt>
      <trkpt lat="49.23775" lon="-0.19118">
        <ele>30.94</ele>
        <time>2025-05-31T09:29:55.595Z</time>
      </trkpt>
      <trkpt lat="49.23756" lon="-0.19156">
        <ele>31.18</ele>
        <time>2025-05-31T09:29:56.820Z</time>
      </trkpt>
      <trkpt lat="49.23754" lon="-0.1916">
        <ele>31.48</ele>
        <time>2025-05-31T09:29:58.045Z</time>
      </trkpt>
      <trkpt lat="49.23733" lon="-0.19196">
        <ele>31.78</ele>
        <time>2025-05-31T09:29:59.275Z</time>
      </trkpt>
      <trkpt lat="49.2373" lon="-0.19202">
        <ele>32.07</ele>
        <time>2025-05-31T09:30:00.506Z</time>
      </trkpt>
      <trkpt lat="49.2372" lon="-0.19214">
        <ele>32.36</ele>
        <time>2025-05-31T09:30:01.739Z</time>
      </trkpt>
      <trkpt lat="49.23701" lon="-0.19253">
        <ele>32.7</ele>
        <time>2025-05-31T09:30:02.977Z</time>
      </trkpt>
      <trkpt lat="49.23683" lon="-0.19291">
        <ele>33.04</ele>
        <time>2025-05-31T09:30:04.220Z</time>
      </trkpt>
      <trkpt lat="49.23671" lon="-0.19315">
        <ele>33.33</ele>
        <time>2025-05-31T09:30:05.466Z</time>
      </trkpt>
      <trkpt lat="49.23652" lon="-0.19353">
        <ele>33.61</ele>
        <time>2025-05-31T09:30:06.717Z</time>
      </trkpt>
      <trkpt lat="49.23633" lon="-0.19391">
        <ele>33.87</ele>
        <time>2025-05-31T09:30:07.973Z</time>
      </trkpt>
      <trkpt lat="49.23614" lon="-0.1943">
        <ele>34.19</ele>
        <time>2025-05-31T09:30:09.234Z</time>
      </trkpt>
      <trkpt lat="49.23595" lon="-0.19468">
        <ele>34.5</ele>
        <time>2025-05-31T09:30:10.500Z</time>
      </trkpt>
      <trkpt lat="49.23576" lon="-0.19506">
        <ele>34.82</ele>
        <time>2025-05-31T09:30:11.771Z</time>
      </trkpt>
      <trkpt lat="49.23557" lon="-0.19545">
        <ele>35.15</ele>
        <time>2025-05-31T09:30:13.047Z</time>
      </trkpt>
      <trkpt lat="49.23541" lon="-0.19576">
        <ele>35.46</ele>
        <time>2025-05-31T09:30:14.328Z</time>
      </trkpt>
      <trkpt lat="49.23523" lon="-0.19615">
        <ele>35.8</ele>
        <time>2025-05-31T09:30:15.614Z</time>
      </trkpt>
      <trkpt lat="49.23516" lon="-0.19629">
        <ele>36.13</ele>
        <time>2025-05-31T09:30:16.901Z</time>
      </trkpt>
      <trkpt lat="49.23499" lon="-0.19669">
        <ele>36.51</ele>
        <time>2025-05-31T09:30:18.194Z</time>
      </trkpt>
      <trkpt lat="49.23484" lon="-0.19704">
        <ele>36.86</ele>
        <time>2025-05-31T09:30:19.491Z</time>
      </trkpt>
      <trkpt lat="49.23467" lon="-0.19745">
        <ele>37.24</ele>
        <time>2025-05-31T09:30:20.793Z</time>
      </trkpt>
      <trkpt lat="49.2345" lon="-0.19785">
        <ele>37.6</ele>
        <time>2025-05-31T09:30:22.100Z</time>
      </trkpt>
      <trkpt lat="49.23434" lon="-0.19826">
        <ele>37.97</ele>
        <time>2025-05-31T09:30:23.412Z</time>
      </trkpt>
      <trkpt lat="49.23417" lon="-0.19866">
        <ele>38.32</ele>
        <time>2025-05-31T09:30:24.729Z</time>
      </trkpt>
      <trkpt lat="49.234" lon="-0.19907">
        <ele>38.69</ele>
        <time>2025-05-31T09:30:26.051Z</time>
      </trkpt>
      <trkpt lat="49.23383" lon="-0.19948">
        <ele>39.1</ele>
        <time>2025-05-31T09:30:27.378Z</time>
      </trkpt>
      <trkpt lat="49.2338" lon="-0.19955">
        <ele>39.47</ele>
        <time>2025-05-31T09:30:28.706Z</time>
      </trkpt>
      <trkpt lat="49.23363" lon="-0.19996">
        <ele>39.83</ele>
        <time>2025-05-31T09:30:30.039Z</time>
      </trkpt>
      <trkpt lat="49.23346" lon="-0.20036">
        <ele>40.18</ele>
        <time>2025-05-31T09:30:31.377Z</time>
      </trkpt>
      <trkpt lat="49.23332" lon="-0.20071">
        <ele>40.59</ele>
        <time>2025-05-31T09:30:32.719Z</time>
      </trkpt>
      <trkpt lat="49.23317" lon="-0.20113">
        <ele>41.02</ele>
        <time>2025-05-31T09:30:34.066Z</time>
      </trkpt>
      <trkpt lat="49.23307" lon="-0.20141">
        <ele>41.48</ele>
        <time>2025-05-31T09:30:35.417Z</time>
      </trkpt>
      <trkpt lat="49.2329" lon="-0.20182">
        <ele>41.97</ele>
        <time>2025-05-31T09:30:36.773Z</time>
      </trkpt>
      <trkpt lat="49.23274" lon="-0.20223">
        <ele>42.41</ele>
        <time>2025-05-31T09:30:38.134Z</time>
      </trkpt>
      <trkpt lat="49.23257" lon="-0.20263">
        <ele>42.92</ele>
        <time>2025-05-31T09:30:39.500Z</time>
      </trkpt>
      <trkpt lat="49.2324" lon="-0.20304">
        <ele>43.46</ele>
        <time>2025-05-31T09:30:40.871Z</time>
      </trkpt>
      <trkpt lat="49.23232" lon="-0.20325">
        <ele>43.97</ele>
        <time>2025-05-31T09:30:42.244Z</time>
      </trkpt>
      <trkpt lat="49.23222" lon="-0.2034">
        <ele>44.52</ele>
        <time>2025-05-31T09:30:43.620Z</time>
      </trkpt>
      <trkpt lat="49.23206" lon="-0.20382">
        <ele>45.11</ele>
        <time>2025-05-31T09:30:45.001Z</time>
      </trkpt>
      <trkpt lat="49.23206" lon="-0.20382">
        <ele>45.64</ele>
        <time>2025-05-31T09:30:46.382Z</time>
      </trkpt>
      <trkpt lat="49.23189" lon="-0.20422">
        <ele>46.27</ele>
        <time>2025-05-31T09:30:47.768Z</time>
      </trkpt>
      <trkpt lat="49.2318" lon="-0.20443">
        <ele>46.87</ele>
        <time>2025-05-31T09:30:49.156Z</time>
      </trkpt>
      <trkpt lat="49.23163" lon="-0.20483">
        <ele>47.54</ele>
        <time>2025-05-31T09:30:50.550Z</time>
      </trkpt>
      <trkpt lat="49.23145" lon="-0.20523">
        <ele>48.09</ele>
        <time>2025-05-31T09:30:51.949Z</time>
      </trkpt>
      <trkpt lat="49.23133" lon="-0.20552">
        <ele>48.62</ele>
        <time>2025-05-31T09:30:53.351Z</time>
      </trkpt>
      <trkpt lat="49.23118" lon="-0.20594">
        <ele>49.2</ele>
        <time>2025-05-31T09:30:54.758Z</time>
      </trkpt>
      <trkpt lat="49.23112" lon="-0.20609">
        <ele>49.76</ele>
        <time>2025-05-31T09:30:56.167Z</time>
      </trkpt>
      <trkpt lat="49.231" lon="-0.20654">
        <ele>50.35</ele>
        <time>2025-05-31T09:30:57.581Z</time>
      </trkpt>
      <trkpt lat="49.23098" lon="-0.20663">
        <ele>50.88</ele>
        <time>2025-05-31T09:30:58.996Z</time>
      </trkpt>
      <trkpt lat="49.23088" lon="-0.20709">
        <ele>51.39</ele>
        <time>2025-05-31T09:31:00.416Z</time>
      </trkpt>
      <trkpt lat="49.23078" lon="-0.20754">
        <ele>51.87</ele>
        <time>2025-05-31T09:31:01.841Z</time>
      </trkpt>
      <trkpt lat="49.23068" lon="-0.208">
        <ele>52.36</ele>
        <time>2025-05-31T09:31:03.271Z</time>
      </trkpt>
      <trkpt lat="49.23064" lon="-0.20817">
        <ele>52.87</ele>
        <time>2025-05-31T09:31:04.703Z</time>
      </trkpt>
      <trkpt lat="49.23051" lon="-0.20861">
        <ele>53.39</ele>
        <time>2025-05-31T09:31:06.140Z</time>
      </trkpt>
      <trkpt lat="49.23041" lon="-0.20894">
        <ele>53.94</ele>
        <time>2025-05-31T09:31:07.581Z</time>
      </trkpt>
      <trkpt lat="49.23025" lon="-0.20935">
        <ele>54.5</ele>
        <time>2025-05-31T09:31:09.027Z</time>
      </trkpt>
      <trkpt lat="49.23016" lon="-0.20958">
        <ele>55.07</ele>
        <time>2025-05-31T09:31:10.476Z</time>
      </trkpt>
      <trkpt lat="49.22999" lon="-0.20998">
        <ele>55.63</ele>
        <time>2025-05-31T09:31:11.930Z</time>
      </trkpt>
      <trkpt lat="49.22985" lon="-0.2103">
        <ele>56.15</ele>
        <time>2025-05-31T09:31:13.388Z</time>
      </trkpt>
      <trkpt lat="49.22966" lon="-0.21068">
        <ele>56.71</ele>
        <time>2025-05-31T09:31:14.851Z</time>
      </trkpt>
      <trkpt lat="49.22963" lon="-0.21073">
        <ele>57.24</ele>
        <time>2025-05-31T09:31:16.315Z</time>
      </trkpt>
      <trkpt lat="49.22942" lon="-0.21109">
        <ele>57.79</ele>
        <time>2025-05-31T09:31:17.784Z</time>
      </trkpt>
      <trkpt lat="49.22921" lon="-0.21145">
        <ele>58.31</ele>
        <time>2025-05-31T09:31:19.258Z</time>
      </trkpt>
      <trkpt lat="49.22902" lon="-0.21178">
        <ele>58.81</ele>
        <time>2025-05-31T09:31:20.736Z</time>
      </trkpt>
      <trkpt lat="49.2288" lon="-0.21212">
        <ele>59.34</ele>
        <time>2025-05-31T09:31:22.219Z</time>
      </trkpt>
      <trkpt lat="49.22858" lon="-0.21246">
        <ele>59.83</ele>
        <time>2025-05-31T09:31:23.707Z</time>
      </trkpt>
      <trkpt lat="49.22838" lon="-0.21276">
        <ele>60.34</ele>
        <time>2025-05-31T09:31:25.200Z</time>
      </trkpt>
      <trkpt lat="49.22814" lon="-0.21308">
        <ele>60.83</ele>
        <time>2025-05-31T09:31:26.698Z</time>
      </trkpt>
      <trkpt lat="49.22813" lon="-0.2131">
        <ele>61.25</ele>
        <time>2025-05-31T09:31:28.196Z</time>
      </trkpt>
      <trkpt lat="49.22791" lon="-0.21344">
        <ele>61.67</ele>
        <time>2025-05-31T09:31:29.699Z</time>
      </trkpt>
      <trkpt lat="49.2277" lon="-0.21376">
        <ele>62</ele>
        <time>2025-05-31T09:31:31.207Z</time>
      </trkpt>
      <trkpt lat="49.22762" lon="-0.21395">
        <ele>62.34</ele>
        <time>2025-05-31T09:31:32.717Z</time>
      </trkpt>
      <trkpt lat="49.22744" lon="-0.21423">
        <ele>62.66</ele>
        <time>2025-05-31T09:31:34.231Z</time>
      </trkpt>
      <trkpt lat="49.22724" lon="-0.2146">
        <ele>62.91</ele>
        <time>2025-05-31T09:31:35.750Z</time>
      </trkpt>
      <trkpt lat="49.22718" lon="-0.21471">
        <ele>63.13</ele>
        <time>2025-05-31T09:31:37.271Z</time>
      </trkpt>
      <trkpt lat="49.22702" lon="-0.21512">
        <ele>63.31</ele>
        <time>2025-05-31T09:31:38.797Z</time>
      </trkpt>
      <trkpt lat="49.227" lon="-0.21516">
        <ele>63.44</ele>
        <time>2025-05-31T09:31:40.324Z</time>
      </trkpt>
      <trkpt lat="49.22686" lon="-0.21559">
        <ele>63.6</ele>
        <time>2025-05-31T09:31:41.856Z</time>
      </trkpt>
      <trkpt lat="49.22685" lon="-0.21563">
        <ele>63.64</ele>
        <time>2025-05-31T09:31:43.388Z</time>
      </trkpt>
      <trkpt lat="49.22676" lon="-0.21609">
        <ele>63.71</ele>
        <time>2025-05-31T09:31:44.925Z</time>
      </trkpt>
      <trkpt lat="49.22671" lon="-0.21636">
        <ele>63.69</ele>
        <time>2025-05-31T09:31:46.465Z</time>
      </trkpt>
      <trkpt lat="49.22662" lon="-0.21682">
        <ele>63.61</ele>
        <time>2025-05-31T09:31:48.010Z</time>
      </trkpt>
      <trkpt lat="49.22652" lon="-0.21728">
        <ele>63.31</ele>
        <time>2025-05-31T09:31:49.560Z</time>
      </trkpt>
      <trkpt lat="49.22644" lon="-0.2177">
        <ele>62.91</ele>
        <time>2025-05-31T09:31:51.115Z</time>
      </trkpt>
      <trkpt lat="49.22639" lon="-0.21792">
        <ele>62.53</ele>
        <time>2025-05-31T09:31:52.672Z</time>
      </trkpt>
      <trkpt lat="49.22627" lon="-0.21829">
        <ele>62.13</ele>
        <time>2025-05-31T09:31:54.233Z</time>
      </trkpt>
      <trkpt lat="49.22614" lon="-0.21873">
        <ele>61.69</ele>
        <time>2025-05-31T09:31:55.799Z</time>
      </trkpt>
      <trkpt lat="49.22602" lon="-0.21917">
        <ele>61.17</ele>
        <time>2025-05-31T09:31:57.371Z</time>
      </trkpt>
      <trkpt lat="49.22589" lon="-0.21961">
        <ele>60.58</ele>
        <time>2025-05-31T09:31:58.948Z</time>
      </trkpt>
      <trkpt lat="49.22576" lon="-0.22005">
        <ele>59.82</ele>
        <time>2025-05-31T09:32:00.530Z</time>
      </trkpt>
      <trkpt lat="49.22567" lon="-0.22037">
        <ele>58.92</ele>
        <time>2025-05-31T09:32:02.115Z</time>
      </trkpt>
      <trkpt lat="49.22552" lon="-0.22079">
        <ele>57.9</ele>
        <time>2025-05-31T09:32:03.705Z</time>
      </trkpt>
      <trkpt lat="49.22551" lon="-0.22083">
        <ele>56.95</ele>
        <time>2025-05-31T09:32:05.296Z</time>
      </trkpt>
      <trkpt lat="49.22536" lon="-0.22119">
        <ele>55.84</ele>
        <time>2025-05-31T09:32:06.891Z</time>
      </trkpt>
      <trkpt lat="49.22516" lon="-0.22157">
        <ele>54.72</ele>
        <time>2025-05-31T09:32:08.491Z</time>
      </trkpt>
      <trkpt lat="49.22498" lon="-0.22192">
        <ele>53.54</ele>
        <time>2025-05-31T09:32:10.096Z</time>
      </trkpt>
      <trkpt lat="49.22486" lon="-0.22217">
        <ele>52.31</ele>
        <time>2025-05-31T09:32:11.704Z</time>
      </trkpt>
      <trkpt lat="49.2247" lon="-0.22258">
        <ele>50.99</ele>
        <time>2025-05-31T09:32:13.317Z</time>
      </trkpt>
      <trkpt lat="49.22467" lon="-0.22266">
        <ele>49.74</ele>
        <time>2025-05-31T09:32:14.931Z</time>
      </trkpt>
      <trkpt lat="49.22457" lon="-0.2231">
        <ele>48.41</ele>
        <time>2025-05-31T09:32:16.550Z</time>
      </trkpt>
      <trkpt lat="49.22449" lon="-0.22356">
        <ele>47.07</ele>
        <time>2025-05-31T09:32:18.174Z</time>
      </trkpt>
      <trkpt lat="49.22444" lon="-0.22384">
        <ele>45.73</ele>
        <time>2025-05-31T09:32:19.801Z</time>
      </trkpt>
      <trkpt lat="49.22437" lon="-0.22431">
        <ele>44.25</ele>
        <time>2025-05-31T09:32:21.433Z</time>
      </trkpt>
      <trkpt lat="49.22431" lon="-0.22469">
        <ele>42.85</ele>
        <time>2025-05-31T09:32:23.069Z</time>
      </trkpt>
      <trkpt lat="49.22426" lon="-0.22517">
        <ele>41.51</ele>
        <time>2025-05-31T09:32:24.710Z</time>
      </trkpt>
      <trkpt lat="49.22426" lon="-0.2252">
        <ele>40.25</ele>
        <time>2025-05-31T09:32:26.352Z</time>
      </trkpt>
      <trkpt lat="49.22424" lon="-0.2255">
        <ele>38.98</ele>
        <time>2025-05-31T09:32:27.997Z</time>
      </trkpt>
      <trkpt lat="49.22421" lon="-0.22598">
        <ele>37.73</ele>
        <time>2025-05-31T09:32:29.647Z</time>
      </trkpt>
      <trkpt lat="49.22419" lon="-0.2263">
        <ele>36.54</ele>
        <time>2025-05-31T09:32:31.300Z</time>
      </trkpt>
      <trkpt lat="49.22418" lon="-0.22678">
        <ele>35.37</ele>
        <time>2025-05-31T09:32:32.958Z</time>
      </trkpt>
      <trkpt lat="49.22418" lon="-0.22679">
        <ele>34.28</ele>
        <time>2025-05-31T09:32:34.616Z</time>
      </trkpt>
      <trkpt lat="49.22429" lon="-0.22718">
        <ele>33.18</ele>
        <time>2025-05-31T09:32:36.279Z</time>
      </trkpt>
      <trkpt lat="49.22434" lon="-0.22724">
        <ele>32.16</ele>
        <time>2025-05-31T09:32:37.943Z</time>
      </trkpt>
      <trkpt lat="49.22438" lon="-0.22736">
        <ele>31.18</ele>
        <time>2025-05-31T09:32:39.608Z</time>
      </trkpt>
      <trkpt lat="49.22437" lon="-0.22748">
        <ele>30.28</ele>
        <time>2025-05-31T09:32:41.275Z</time>
      </trkpt>
      <trkpt lat="49.2243" lon="-0.2276">
        <ele>29.43</ele>
        <time>2025-05-31T09:32:42.943Z</time>
      </trkpt>
      <trkpt lat="49.22423" lon="-0.22764">
        <ele>28.62</ele>
        <time>2025-05-31T09:32:44.612Z</time>
      </trkpt>
      <trkpt lat="49.22412" lon="-0.22771">
        <ele>27.86</ele>
        <time>2025-05-31T09:32:46.283Z</time>
      </trkpt>
      <trkpt lat="49.22395" lon="-0.22791">
        <ele>27.13</ele>
        <time>2025-05-31T09:32:47.958Z</time>
      </trkpt>
      <trkpt lat="49.22385" lon="-0.22816">
        <ele>26.38</ele>
        <time>2025-05-31T09:32:49.636Z</time>
      </trkpt>
      <trkpt lat="49.22371" lon="-0.22859">
        <ele>25.62</ele>
        <time>2025-05-31T09:32:51.319Z</time>
      </trkpt>
      <trkpt lat="49.22356" lon="-0.22902">
        <ele>24.96</ele>
        <time>2025-05-31T09:32:53.007Z</time>
      </trkpt>
      <trkpt lat="49.22342" lon="-0.22944">
        <ele>24.34</ele>
        <time>2025-05-31T09:32:54.700Z</time>
      </trkpt>
      <trkpt lat="49.22341" lon="-0.22948">
        <ele>23.81</ele>
        <time>2025-05-31T09:32:56.393Z</time>
      </trkpt>
      <trkpt lat="49.22328" lon="-0.22992">
        <ele>23.31</ele>
        <time>2025-05-31T09:32:58.091Z</time>
      </trkpt>
      <trkpt lat="49.22321" lon="-0.23014">
        <ele>22.83</ele>
        <time>2025-05-31T09:32:59.792Z</time>
      </trkpt>
      <trkpt lat="49.2231" lon="-0.23059">
        <ele>22.41</ele>
        <time>2025-05-31T09:33:01.498Z</time>
      </trkpt>
      <trkpt lat="49.22305" lon="-0.23077">
        <ele>22.01</ele>
        <time>2025-05-31T09:33:03.206Z</time>
      </trkpt>
      <trkpt lat="49.22296" lon="-0.23123">
        <ele>21.66</ele>
        <time>2025-05-31T09:33:04.919Z</time>
      </trkpt>
      <trkpt lat="49.2229" lon="-0.23157">
        <ele>21.32</ele>
        <time>2025-05-31T09:33:06.636Z</time>
      </trkpt>
      <trkpt lat="49.22283" lon="-0.23204">
        <ele>20.99</ele>
        <time>2025-05-31T09:33:08.358Z</time>
      </trkpt>
      <trkpt lat="49.22276" lon="-0.23251">
        <ele>20.7</ele>
        <time>2025-05-31T09:33:10.085Z</time>
      </trkpt>
      <trkpt lat="49.22275" lon="-0.23254">
        <ele>20.45</ele>
        <time>2025-05-31T09:33:11.812Z</time>
      </trkpt>
      <trkpt lat="49.22267" lon="-0.23259">
        <ele>20.22</ele>
        <time>2025-05-31T09:33:13.541Z</time>
      </trkpt>
      <trkpt lat="49.22264" lon="-0.23264">
        <ele>20.02</ele>
        <time>2025-05-31T09:33:15.270Z</time>
      </trkpt>
      <trkpt lat="49.22249" lon="-0.23306">
        <ele>19.83</ele>
        <time>2025-05-31T09:33:17.004Z</time>
      </trkpt>
      <trkpt lat="49.22248" lon="-0.2331">
        <ele>19.65</ele>
        <time>2025-05-31T09:33:18.739Z</time>
      </trkpt>
      <trkpt lat="49.22234" lon="-0.23353">
        <ele>19.45</ele>
        <time>2025-05-31T09:33:20.479Z</time>
      </trkpt>
      <trkpt lat="49.22226" lon="-0.2338">
        <ele>19.27</ele>
        <time>2025-05-31T09:33:22.222Z</time>
      </trkpt>
      <trkpt lat="49.22224" lon="-0.23405">
        <ele>19.07</ele>
        <time>2025-05-31T09:33:23.968Z</time>
      </trkpt>
      <trkpt lat="49.22226" lon="-0.23434">
        <ele>18.91</ele>
        <time>2025-05-31T09:33:25.717Z</time>
      </trkpt>
      <trkpt lat="49.22228" lon="-0.23439">
        <ele>18.76</ele>
        <time>2025-05-31T09:33:27.466Z</time>
      </trkpt>
      <trkpt lat="49.22224" lon="-0.23442">
        <ele>18.61</ele>
        <time>2025-05-31T09:33:29.216Z</time>
      </trkpt>
      <trkpt lat="49.22221" lon="-0.23448">
        <ele>18.47</ele>
        <time>2025-05-31T09:33:30.967Z</time>
      </trkpt>
      <trkpt lat="49.22209" lon="-0.23493">
        <ele>18.35</ele>
        <time>2025-05-31T09:33:32.723Z</time>
      </trkpt>
      <trkpt lat="49.22208" lon="-0.23497">
        <ele>18.2</ele>
        <time>2025-05-31T09:33:34.479Z</time>
      </trkpt>
      <trkpt lat="49.22195" lon="-0.23541">
        <ele>18.04</ele>
        <time>2025-05-31T09:33:36.240Z</time>
      </trkpt>
      <trkpt lat="49.22183" lon="-0.23585">
        <ele>17.87</ele>
        <time>2025-05-31T09:33:38.006Z</time>
      </trkpt>
      <trkpt lat="49.22182" lon="-0.23588">
        <ele>17.72</ele>
        <time>2025-05-31T09:33:39.773Z</time>
      </trkpt>
      <trkpt lat="49.22167" lon="-0.2363">
        <ele>17.55</ele>
        <time>2025-05-31T09:33:41.545Z</time>
      </trkpt>
      <trkpt lat="49.22166" lon="-0.23634">
        <ele>17.38</ele>
        <time>2025-05-31T09:33:43.317Z</time>
      </trkpt>
      <trkpt lat="49.22147" lon="-0.23672">
        <ele>17.2</ele>
        <time>2025-05-31T09:33:45.094Z</time>
      </trkpt>
      <trkpt lat="49.22145" lon="-0.23676">
        <ele>17.01</ele>
        <time>2025-05-31T09:33:46.872Z</time>
      </trkpt>
      <trkpt lat="49.22123" lon="-0.2371">
        <ele>16.79</ele>
        <time>2025-05-31T09:33:48.655Z</time>
      </trkpt>
      <trkpt lat="49.22121" lon="-0.23712">
        <ele>16.6</ele>
        <time>2025-05-31T09:33:50.438Z</time>
      </trkpt>
      <trkpt lat="49.22097" lon="-0.23743">
        <ele>16.43</ele>
        <time>2025-05-31T09:33:52.226Z</time>
      </trkpt>
      <trkpt lat="49.2209" lon="-0.23751">
        <ele>16.23</ele>
        <time>2025-05-31T09:33:54.016Z</time>
      </trkpt>
      <trkpt lat="49.22065" lon="-0.2378">
        <ele>15.99</ele>
        <time>2025-05-31T09:33:55.811Z</time>
      </trkpt>
      <trkpt lat="49.2204" lon="-0.23809">
        <ele>15.74</ele>
        <time>2025-05-31T09:33:57.611Z</time>
      </trkpt>
      <trkpt lat="49.22015" lon="-0.23838">
        <ele>15.52</ele>
        <time>2025-05-31T09:33:59.416Z</time>
      </trkpt>
      <trkpt lat="49.2199" lon="-0.23867">
        <ele>15.28</ele>
        <time>2025-05-31T09:34:01.226Z</time>
      </trkpt>
      <trkpt lat="49.21976" lon="-0.23883">
        <ele>15.08</ele>
        <time>2025-05-31T09:34:03.039Z</time>
      </trkpt>
      <trkpt lat="49.21951" lon="-0.23912">
        <ele>14.9</ele>
        <time>2025-05-31T09:34:04.857Z</time>
      </trkpt>
      <trkpt lat="49.21926" lon="-0.23941">
        <ele>14.72</ele>
        <time>2025-05-31T09:34:06.680Z</time>
      </trkpt>
      <trkpt lat="49.21905" lon="-0.23965">
        <ele>14.49</ele>
        <time>2025-05-31T09:34:08.507Z</time>
      </trkpt>
      <trkpt lat="49.21881" lon="-0.23995">
        <ele>14.27</ele>
        <time>2025-05-31T09:34:10.339Z</time>
      </trkpt>
      <trkpt lat="49.21856" lon="-0.24026">
        <ele>14.1</ele>
        <time>2025-05-31T09:34:12.176Z</time>
      </trkpt>
      <trkpt lat="49.21832" lon="-0.24056">
        <ele>13.93</ele>
        <time>2025-05-31T09:34:14.018Z</time>
      </trkpt>
      <trkpt lat="49.21807" lon="-0.24086">
        <ele>13.76</ele>
        <time>2025-05-31T09:34:15.865Z</time>
      </trkpt>
      <trkpt lat="49.21806" lon="-0.24088">
        <ele>13.63</ele>
        <time>2025-05-31T09:34:17.712Z</time>
      </trkpt>
      <trkpt lat="49.21793" lon="-0.24106">
        <ele>13.5</ele>
        <time>2025-05-31T09:34:19.562Z</time>
      </trkpt>
      <trkpt lat="49.21771" lon="-0.2414">
        <ele>13.4</ele>
        <time>2025-05-31T09:34:21.417Z</time>
      </trkpt>
      <trkpt lat="49.21763" lon="-0.24151">
        <ele>13.32</ele>
        <time>2025-05-31T09:34:23.274Z</time>
      </trkpt>
      <trkpt lat="49.21743" lon="-0.24189">
        <ele>13.22</ele>
        <time>2025-05-31T09:34:25.136Z</time>
      </trkpt>
      <trkpt lat="49.21733" lon="-0.24209">
        <ele>13.13</ele>
        <time>2025-05-31T09:34:27.001Z</time>
      </trkpt>
      <trkpt lat="49.21715" lon="-0.24248">
        <ele>13.09</ele>
        <time>2025-05-31T09:34:28.871Z</time>
      </trkpt>
      <trkpt lat="49.21698" lon="-0.24284">
        <ele>13.15</ele>
        <time>2025-05-31T09:34:30.745Z</time>
      </trkpt>
      <trkpt lat="49.21686" lon="-0.24317">
        <ele>13.2</ele>
        <time>2025-05-31T09:34:32.623Z</time>
      </trkpt>
      <trkpt lat="49.21698" lon="-0.24284">
        <ele>13.15</ele>
        <time>2025-05-31T09:34:34.505Z</time>
      </trkpt>
      <trkpt lat="49.21716" lon="-0.24245">
        <ele>13.26</ele>
        <time>2025-05-31T09:34:36.392Z</time>
      </trkpt>
      <trkpt lat="49.21723" lon="-0.24229">
        <ele>13.37</ele>
        <time>2025-05-31T09:34:38.281Z</time>
      </trkpt>
      <trkpt lat="49.21742" lon="-0.24191">
        <ele>13.56</ele>
        <time>2025-05-31T09:34:40.175Z</time>
      </trkpt>
      <trkpt lat="49.21744" lon="-0.24188">
        <ele>13.72</ele>
        <time>2025-05-31T09:34:42.070Z</time>
      </trkpt>
      <trkpt lat="49.21764" lon="-0.24151">
        <ele>13.93</ele>
        <time>2025-05-31T09:34:43.970Z</time>
      </trkpt>
      <trkpt lat="49.21767" lon="-0.24145">
        <ele>14.12</ele>
        <time>2025-05-31T09:34:45.870Z</time>
      </trkpt>
      <trkpt lat="49.21789" lon="-0.24111">
        <ele>14.34</ele>
        <time>2025-05-31T09:34:47.776Z</time>
      </trkpt>
      <trkpt lat="49.21801" lon="-0.24094">
        <ele>14.57</ele>
        <time>2025-05-31T09:34:49.684Z</time>
      </trkpt>
      <trkpt lat="49.21825" lon="-0.24063">
        <ele>14.83</ele>
        <time>2025-05-31T09:34:51.597Z</time>
      </trkpt>
      <trkpt lat="49.21846" lon="-0.24036">
        <ele>15.1</ele>
        <time>2025-05-31T09:34:53.515Z</time>
      </trkpt>
      <trkpt lat="49.21871" lon="-0.24006">
        <ele>15.37</ele>
        <time>2025-05-31T09:34:55.438Z</time>
      </trkpt>
      <trkpt lat="49.21896" lon="-0.23977">
        <ele>15.68</ele>
        <time>2025-05-31T09:34:57.366Z</time>
      </trkpt>
      <trkpt lat="49.21918" lon="-0.2395">
        <ele>16</ele>
        <time>2025-05-31T09:34:59.298Z</time>
      </trkpt>
      <trkpt lat="49.21943" lon="-0.23921">
        <ele>16.3</ele>
        <time>2025-05-31T09:35:01.235Z</time>
      </trkpt>
      <trkpt lat="49.21968" lon="-0.23892">
        <ele>16.56</ele>
        <time>2025-05-31T09:35:03.177Z</time>
      </trkpt>
      <trkpt lat="49.2199" lon="-0.23867">
        <ele>16.86</ele>
        <time>2025-05-31T09:35:05.124Z</time>
      </trkpt>
      <trkpt lat="49.22015" lon="-0.23838">
        <ele>17.19</ele>
        <time>2025-05-31T09:35:07.076Z</time>
      </trkpt>
      <trkpt lat="49.2204" lon="-0.23809">
        <ele>17.49</ele>
        <time>2025-05-31T09:35:09.033Z</time>
      </trkpt>
      <trkpt lat="49.22065" lon="-0.2378">
        <ele>17.83</ele>
        <time>2025-05-31T09:35:10.995Z</time>
      </trkpt>
      <trkpt lat="49.2209" lon="-0.23751">
        <ele>18.14</ele>
        <time>2025-05-31T09:35:12.962Z</time>
      </trkpt>
      <trkpt lat="49.22107" lon="-0.23731">
        <ele>18.4</ele>
        <time>2025-05-31T09:35:14.932Z</time>
      </trkpt>
      <trkpt lat="49.22131" lon="-0.23699">
        <ele>18.64</ele>
        <time>2025-05-31T09:35:16.907Z</time>
      </trkpt>
      <trkpt lat="49.22134" lon="-0.23695">
        <ele>18.89</ele>
        <time>2025-05-31T09:35:18.883Z</time>
      </trkpt>
      <trkpt lat="49.22155" lon="-0.2366">
        <ele>19.16</ele>
        <time>2025-05-31T09:35:20.864Z</time>
      </trkpt>
      <trkpt lat="49.22171" lon="-0.23619">
        <ele>19.38</ele>
        <time>2025-05-31T09:35:22.850Z</time>
      </trkpt>
      <trkpt lat="49.22172" lon="-0.23616">
        <ele>19.56</ele>
        <time>2025-05-31T09:35:24.836Z</time>
      </trkpt>
      <trkpt lat="49.22185" lon="-0.23572">
        <ele>19.73</ele>
        <time>2025-05-31T09:35:26.827Z</time>
      </trkpt>
      <trkpt lat="49.22198" lon="-0.23529">
        <ele>19.89</ele>
        <time>2025-05-31T09:35:28.823Z</time>
      </trkpt>
      <trkpt lat="49.22211" lon="-0.23485">
        <ele>20.03</ele>
        <time>2025-05-31T09:35:30.824Z</time>
      </trkpt>
      <trkpt lat="49.22215" lon="-0.23473">
        <ele>20.11</ele>
        <time>2025-05-31T09:35:32.827Z</time>
      </trkpt>
      <trkpt lat="49.22222" lon="-0.23445">
        <ele>20.19</ele>
        <time>2025-05-31T09:35:34.833Z</time>
      </trkpt>
      <trkpt lat="49.22228" lon="-0.23439">
        <ele>18.76</ele>
        <time>2025-05-31T09:35:36.840Z</time>
      </trkpt>
      <trkpt lat="49.22236" lon="-0.23445">
        <ele>20.28</ele>
        <time>2025-05-31T09:35:38.848Z</time>
      </trkpt>
      <trkpt lat="49.22252" lon="-0.23451">
        <ele>20.32</ele>
        <time>2025-05-31T09:35:40.859Z</time>
      </trkpt>
      <trkpt lat="49.22241" lon="-0.23496">
        <ele>20.27</ele>
        <time>2025-05-31T09:35:42.875Z</time>
      </trkpt>
      <trkpt lat="49.22232" lon="-0.2353">
        <ele>20.25</ele>
        <time>2025-05-31T09:35:44.895Z</time>
      </trkpt>
      <trkpt lat="49.22217" lon="-0.23572">
        <ele>20.11</ele>
        <time>2025-05-31T09:35:46.920Z</time>
      </trkpt>
      <trkpt lat="49.22208" lon="-0.23597">
        <ele>19.97</ele>
        <time>2025-05-31T09:35:48.948Z</time>
      </trkpt>
      <trkpt lat="49.22191" lon="-0.23636">
        <ele>19.84</ele>
        <time>2025-05-31T09:35:50.981Z</time>
      </trkpt>
      <trkpt lat="49.22171" lon="-0.23673">
        <ele>19.71</ele>
        <time>2025-05-31T09:35:53.019Z</time>
      </trkpt>
      <trkpt lat="49.22162" lon="-0.2369">
        <ele>19.56</ele>
        <time>2025-05-31T09:35:55.059Z</time>
      </trkpt>
      <trkpt lat="49.22139" lon="-0.23723">
        <ele>19.36</ele>
        <time>2025-05-31T09:35:57.104Z</time>
      </trkpt>
      <trkpt lat="49.22131" lon="-0.23735">
        <ele>19.17</ele>
        <time>2025-05-31T09:35:59.151Z</time>
      </trkpt>
      <trkpt lat="49.22106" lon="-0.23765">
        <ele>19.04</ele>
        <time>2025-05-31T09:36:01.203Z</time>
      </trkpt>
      <trkpt lat="49.22089" lon="-0.23786">
        <ele>18.82</ele>
        <time>2025-05-31T09:36:03.259Z</time>
      </trkpt>
      <trkpt lat="49.22064" lon="-0.23815">
        <ele>18.55</ele>
        <time>2025-05-31T09:36:05.320Z</time>
      </trkpt>
      <trkpt lat="49.22057" lon="-0.23824">
        <ele>18.31</ele>
        <time>2025-05-31T09:36:07.382Z</time>
      </trkpt>
      <trkpt lat="49.22036" lon="-0.23844">
        <ele>18.03</ele>
        <time>2025-05-31T09:36:09.448Z</time>
      </trkpt>
      <trkpt lat="49.22011" lon="-0.23873">
        <ele>17.74</ele>
        <time>2025-05-31T09:36:11.519Z</time>
      </trkpt>
      <trkpt lat="49.21986" lon="-0.23902">
        <ele>17.46</ele>
        <time>2025-05-31T09:36:13.595Z</time>
      </trkpt>
      <trkpt lat="49.21971" lon="-0.2392">
        <ele>17.22</ele>
        <time>2025-05-31T09:36:15.674Z</time>
      </trkpt>
      <trkpt lat="49.21946" lon="-0.23949">
        <ele>16.99</ele>
        <time>2025-05-31T09:36:17.758Z</time>
      </trkpt>
      <trkpt lat="49.21921" lon="-0.23978">
        <ele>16.69</ele>
        <time>2025-05-31T09:36:19.847Z</time>
      </trkpt>
      <trkpt lat="49.21896" lon="-0.24007">
        <ele>16.4</ele>
        <time>2025-05-31T09:36:21.941Z</time>
      </trkpt>
      <trkpt lat="49.21871" lon="-0.24036">
        <ele>16.14</ele>
        <time>2025-05-31T09:36:24.040Z</time>
      </trkpt>
      <trkpt lat="49.21856" lon="-0.24053">
        <ele>15.9</ele>
        <time>2025-05-31T09:36:26.142Z</time>
      </trkpt>
      <trkpt lat="49.21833" lon="-0.24085">
        <ele>15.64</ele>
        <time>2025-05-31T09:36:28.249Z</time>
      </trkpt>
      <trkpt lat="49.21811" lon="-0.24115">
        <ele>15.4</ele>
        <time>2025-05-31T09:36:30.361Z</time>
      </trkpt>
      <trkpt lat="49.21789" lon="-0.24149">
        <ele>15.19</ele>
        <time>2025-05-31T09:36:32.478Z</time>
      </trkpt>
      <trkpt lat="49.21767" lon="-0.24184">
        <ele>14.98</ele>
        <time>2025-05-31T09:36:34.600Z</time>
      </trkpt>
      <trkpt lat="49.21765" lon="-0.24187">
        <ele>14.78</ele>
        <time>2025-05-31T09:36:36.723Z</time>
      </trkpt>
      <trkpt lat="49.21745" lon="-0.24224">
        <ele>14.52</ele>
        <time>2025-05-31T09:36:38.851Z</time>
      </trkpt>
      <trkpt lat="49.21736" lon="-0.24241">
        <ele>14.32</ele>
        <time>2025-05-31T09:36:40.981Z</time>
      </trkpt>
      <trkpt lat="49.21719" lon="-0.24277">
        <ele>14.21</ele>
        <time>2025-05-31T09:36:43.116Z</time>
      </trkpt>
      <trkpt lat="49.21702" lon="-0.24318">
        <ele>14.12</ele>
        <time>2025-05-31T09:36:45.256Z</time>
      </trkpt>
      <trkpt lat="49.21692" lon="-0.24343">
        <ele>14.04</ele>
        <time>2025-05-31T09:36:47.399Z</time>
      </trkpt>
      <trkpt lat="49.21677" lon="-0.24386">
        <ele>14</ele>
        <time>2025-05-31T09:36:49.547Z</time>
      </trkpt>
      <trkpt lat="49.21676" lon="-0.2439">
        <ele>13.9</ele>
        <time>2025-05-31T09:36:51.695Z</time>
      </trkpt>
      <trkpt lat="49.21664" lon="-0.24434">
        <ele>13.78</ele>
        <time>2025-05-31T09:36:53.848Z</time>
      </trkpt>
      <trkpt lat="49.21652" lon="-0.24479">
        <ele>13.66</ele>
        <time>2025-05-31T09:36:56.006Z</time>
      </trkpt>
      <trkpt lat="49.2165" lon="-0.24486">
        <ele>13.58</ele>
        <time>2025-05-31T09:36:58.165Z</time>
      </trkpt>
      <trkpt lat="49.21648" lon="-0.24493">
        <ele>13.51</ele>
        <time>2025-05-31T09:37:00.325Z</time>
      </trkpt>
      <trkpt lat="49.21639" lon="-0.24539">
        <ele>13.42</ele>
        <time>2025-05-31T09:37:02.490Z</time>
      </trkpt>
      <trkpt lat="49.21633" lon="-0.24571">
        <ele>13.36</ele>
        <time>2025-05-31T09:37:04.659Z</time>
      </trkpt>
      <trkpt lat="49.21626" lon="-0.24618">
        <ele>13.32</ele>
        <time>2025-05-31T09:37:06.833Z</time>
      </trkpt>
      <trkpt lat="49.21622" lon="-0.24647">
        <ele>13.28</ele>
        <time>2025-05-31T09:37:09.010Z</time>
      </trkpt>
      <trkpt lat="49.21617" lon="-0.24691">
        <ele>13.22</ele>
        <time>2025-05-31T09:37:11.191Z</time>
      </trkpt>
      <trkpt lat="49.21614" lon="-0.24739">
        <ele>13.23</ele>
        <time>2025-05-31T09:37:13.377Z</time>
      </trkpt>
      <trkpt lat="49.21613" lon="-0.24764">
        <ele>13.22</ele>
        <time>2025-05-31T09:37:15.566Z</time>
      </trkpt>
      <trkpt lat="49.21612" lon="-0.24812">
        <ele>13.28</ele>
        <time>2025-05-31T09:37:17.760Z</time>
      </trkpt>
      <trkpt lat="49.21612" lon="-0.24818">
        <ele>13.29</ele>
        <time>2025-05-31T09:37:19.955Z</time>
      </trkpt>
      <trkpt lat="49.21614" lon="-0.24866">
        <ele>13.33</ele>
        <time>2025-05-31T09:37:22.155Z</time>
      </trkpt>
      <trkpt lat="49.21615" lon="-0.24914">
        <ele>13.37</ele>
        <time>2025-05-31T09:37:24.360Z</time>
      </trkpt>
      <trkpt lat="49.21617" lon="-0.24962">
        <ele>13.39</ele>
        <time>2025-05-31T09:37:26.570Z</time>
      </trkpt>
      <trkpt lat="49.21618" lon="-0.25009">
        <ele>13.39</ele>
        <time>2025-05-31T09:37:28.785Z</time>
      </trkpt>
      <trkpt lat="49.2162" lon="-0.25057">
        <ele>13.41</ele>
        <time>2025-05-31T09:37:31.005Z</time>
      </trkpt>
      <trkpt lat="49.21621" lon="-0.25073">
        <ele>13.45</ele>
        <time>2025-05-31T09:37:33.227Z</time>
      </trkpt>
      <trkpt lat="49.21624" lon="-0.25097">
        <ele>13.48</ele>
        <time>2025-05-31T09:37:35.451Z</time>
      </trkpt>
      <trkpt lat="49.21625" lon="-0.25125">
        <ele>13.53</ele>
        <time>2025-05-31T09:37:37.678Z</time>
      </trkpt>
      <trkpt lat="49.21629" lon="-0.25148">
        <ele>13.58</ele>
        <time>2025-05-31T09:37:39.908Z</time>
      </trkpt>
      <trkpt lat="49.21635" lon="-0.25161">
        <ele>13.65</ele>
        <time>2025-05-31T09:37:42.139Z</time>
      </trkpt>
      <trkpt lat="49.21637" lon="-0.25163">
        <ele>13.73</ele>
        <time>2025-05-31T09:37:44.371Z</time>
      </trkpt>
      <trkpt lat="49.21644" lon="-0.25176">
        <ele>13.82</ele>
        <time>2025-05-31T09:37:46.604Z</time>
      </trkpt>
      <trkpt lat="49.21646" lon="-0.25189">
        <ele>13.94</ele>
        <time>2025-05-31T09:37:48.839Z</time>
      </trkpt>
      <trkpt lat="49.21644" lon="-0.25202">
        <ele>14.02</ele>
        <time>2025-05-31T09:37:51.075Z</time>
      </trkpt>
      <trkpt lat="49.21639" lon="-0.25213">
        <ele>14.13</ele>
        <time>2025-05-31T09:37:53.313Z</time>
      </trkpt>
      <trkpt lat="49.21632" lon="-0.25221">
        <ele>14.25</ele>
        <time>2025-05-31T09:37:55.552Z</time>
      </trkpt>
      <trkpt lat="49.21623" lon="-0.25223">
        <ele>14.41</ele>
        <time>2025-05-31T09:37:57.792Z</time>
      </trkpt>
      <trkpt lat="49.21615" lon="-0.2522">
        <ele>14.57</ele>
        <time>2025-05-31T09:38:00.034Z</time>
      </trkpt>
      <trkpt lat="49.21609" lon="-0.25215">
        <ele>14.74</ele>
        <time>2025-05-31T09:38:02.277Z</time>
      </trkpt>
      <trkpt lat="49.21605" lon="-0.25208">
        <ele>14.95</ele>
        <time>2025-05-31T09:38:04.521Z</time>
      </trkpt>
      <trkpt lat="49.21604" lon="-0.25206">
        <ele>15.16</ele>
        <time>2025-05-31T09:38:06.765Z</time>
      </trkpt>
      <trkpt lat="49.21589" lon="-0.25205">
        <ele>15.41</ele>
        <time>2025-05-31T09:38:09.011Z</time>
      </trkpt>
      <trkpt lat="49.21579" lon="-0.2522">
        <ele>15.66</ele>
        <time>2025-05-31T09:38:11.260Z</time>
      </trkpt>
      <trkpt lat="49.21574" lon="-0.25233">
        <ele>15.94</ele>
        <time>2025-05-31T09:38:13.510Z</time>
      </trkpt>
      <trkpt lat="49.21574" lon="-0.25261">
        <ele>16.23</ele>
        <time>2025-05-31T09:38:15.763Z</time>
      </trkpt>
      <trkpt lat="49.21575" lon="-0.25304">
        <ele>16.56</ele>
        <time>2025-05-31T09:38:18.021Z</time>
      </trkpt>
      <trkpt lat="49.21571" lon="-0.25343">
        <ele>16.89</ele>
        <time>2025-05-31T09:38:20.283Z</time>
      </trkpt>
      <trkpt lat="49.21563" lon="-0.25381">
        <ele>17.22</ele>
        <time>2025-05-31T09:38:22.549Z</time>
      </trkpt>
      <trkpt lat="49.21551" lon="-0.25425">
        <ele>17.59</ele>
        <time>2025-05-31T09:38:24.820Z</time>
      </trkpt>
      <trkpt lat="49.21548" lon="-0.25437">
        <ele>17.93</ele>
        <time>2025-05-31T09:38:27.092Z</time>
      </trkpt>
      <trkpt lat="49.21531" lon="-0.25478">
        <ele>18.25</ele>
        <time>2025-05-31T09:38:29.369Z</time>
      </trkpt>
      <trkpt lat="49.21529" lon="-0.25484">
        <ele>18.59</ele>
        <time>2025-05-31T09:38:31.647Z</time>
      </trkpt>
      <trkpt lat="49.2151" lon="-0.25523">
        <ele>18.92</ele>
        <time>2025-05-31T09:38:33.930Z</time>
      </trkpt>
      <trkpt lat="49.21492" lon="-0.25561">
        <ele>19.3</ele>
        <time>2025-05-31T09:38:36.218Z</time>
      </trkpt>
      <trkpt lat="49.21473" lon="-0.256">
        <ele>19.73</ele>
        <time>2025-05-31T09:38:38.511Z</time>
      </trkpt>
      <trkpt lat="49.21454" lon="-0.25639">
        <ele>20.09</ele>
        <time>2025-05-31T09:38:40.809Z</time>
      </trkpt>
      <trkpt lat="49.21448" lon="-0.25652">
        <ele>20.49</ele>
        <time>2025-05-31T09:38:43.109Z</time>
      </trkpt>
      <trkpt lat="49.2143" lon="-0.25692">
        <ele>20.88</ele>
        <time>2025-05-31T09:38:45.414Z</time>
      </trkpt>
      <trkpt lat="49.21413" lon="-0.25732">
        <ele>21.27</ele>
        <time>2025-05-31T09:38:47.724Z</time>
      </trkpt>
      <trkpt lat="49.21395" lon="-0.25772">
        <ele>21.68</ele>
        <time>2025-05-31T09:38:50.039Z</time>
      </trkpt>
      <trkpt lat="49.21378" lon="-0.25811">
        <ele>22.16</ele>
        <time>2025-05-31T09:38:52.359Z</time>
      </trkpt>
      <trkpt lat="49.21362" lon="-0.25847">
        <ele>22.6</ele>
        <time>2025-05-31T09:38:54.684Z</time>
      </trkpt>
      <trkpt lat="49.21346" lon="-0.25888">
        <ele>23</ele>
        <time>2025-05-31T09:38:57.014Z</time>
      </trkpt>
      <trkpt lat="49.21336" lon="-0.25915">
        <ele>23.39</ele>
        <time>2025-05-31T09:38:59.347Z</time>
      </trkpt>
      <trkpt lat="49.21326" lon="-0.2596">
        <ele>23.81</ele>
        <time>2025-05-31T09:39:01.685Z</time>
      </trkpt>
      <trkpt lat="49.21319" lon="-0.25989">
        <ele>24.2</ele>
        <time>2025-05-31T09:39:04.026Z</time>
      </trkpt>
      <trkpt lat="49.21308" lon="-0.26034">
        <ele>24.57</ele>
        <time>2025-05-31T09:39:06.372Z</time>
      </trkpt>
      <trkpt lat="49.21302" lon="-0.26061">
        <ele>24.92</ele>
        <time>2025-05-31T09:39:08.721Z</time>
      </trkpt>
      <trkpt lat="49.21292" lon="-0.26107">
        <ele>25.27</ele>
        <time>2025-05-31T09:39:11.075Z</time>
      </trkpt>
      <trkpt lat="49.21292" lon="-0.26108">
        <ele>25.64</ele>
        <time>2025-05-31T09:39:13.429Z</time>
      </trkpt>
      <trkpt lat="49.21283" lon="-0.26154">
        <ele>26.08</ele>
        <time>2025-05-31T09:39:15.789Z</time>
      </trkpt>
      <trkpt lat="49.21277" lon="-0.26183">
        <ele>26.5</ele>
        <time>2025-05-31T09:39:18.152Z</time>
      </trkpt>
      <trkpt lat="49.21271" lon="-0.2623">
        <ele>26.91</ele>
        <time>2025-05-31T09:39:20.520Z</time>
      </trkpt>
      <trkpt lat="49.21265" lon="-0.26273">
        <ele>27.28</ele>
        <time>2025-05-31T09:39:22.892Z</time>
      </trkpt>
      <trkpt lat="49.21258" lon="-0.2632">
        <ele>27.6</ele>
        <time>2025-05-31T09:39:25.269Z</time>
      </trkpt>
      <trkpt lat="49.21258" lon="-0.26323">
        <ele>27.95</ele>
        <time>2025-05-31T09:39:27.647Z</time>
      </trkpt>
      <trkpt lat="49.21251" lon="-0.2637">
        <ele>28.3</ele>
        <time>2025-05-31T09:39:30.030Z</time>
      </trkpt>
      <trkpt lat="49.21245" lon="-0.26417">
        <ele>28.71</ele>
        <time>2025-05-31T09:39:32.418Z</time>
      </trkpt>
      <trkpt lat="49.21241" lon="-0.26444">
        <ele>29.09</ele>
        <time>2025-05-31T09:39:34.809Z</time>
      </trkpt>
      <trkpt lat="49.21234" lon="-0.26491">
        <ele>29.47</ele>
        <time>2025-05-31T09:39:37.205Z</time>
      </trkpt>
      <trkpt lat="49.2123" lon="-0.26515">
        <ele>29.82</ele>
        <time>2025-05-31T09:39:39.603Z</time>
      </trkpt>
      <trkpt lat="49.21222" lon="-0.2655">
        <ele>30.15</ele>
        <time>2025-05-31T09:39:42.005Z</time>
      </trkpt>
      <trkpt lat="49.21209" lon="-0.26594">
        <ele>30.5</ele>
        <time>2025-05-31T09:39:44.412Z</time>
      </trkpt>
      <trkpt lat="49.21195" lon="-0.26637">
        <ele>30.81</ele>
        <time>2025-05-31T09:39:46.824Z</time>
      </trkpt>
      <trkpt lat="49.21194" lon="-0.26642">
        <ele>31.14</ele>
        <time>2025-05-31T09:39:49.237Z</time>
      </trkpt>
      <trkpt lat="49.21178" lon="-0.26683">
        <ele>31.51</ele>
        <time>2025-05-31T09:39:51.655Z</time>
      </trkpt>
      <trkpt lat="49.21161" lon="-0.26724">
        <ele>31.88</ele>
        <time>2025-05-31T09:39:54.078Z</time>
      </trkpt>
      <trkpt lat="49.2116" lon="-0.26727">
        <ele>32.2</ele>
        <time>2025-05-31T09:39:56.501Z</time>
      </trkpt>
      <trkpt lat="49.21145" lon="-0.26769">
        <ele>32.51</ele>
        <time>2025-05-31T09:39:58.929Z</time>
      </trkpt>
      <trkpt lat="49.2113" lon="-0.26811">
        <ele>32.84</ele>
        <time>2025-05-31T09:40:01.362Z</time>
      </trkpt>
      <trkpt lat="49.21119" lon="-0.2684">
        <ele>33.15</ele>
        <time>2025-05-31T09:40:03.799Z</time>
      </trkpt>
      <trkpt lat="49.21105" lon="-0.26883">
        <ele>33.46</ele>
        <time>2025-05-31T09:40:06.241Z</time>
      </trkpt>
      <trkpt lat="49.21093" lon="-0.26919">
        <ele>33.82</ele>
        <time>2025-05-31T09:40:08.687Z</time>
      </trkpt>
      <trkpt lat="49.21082" lon="-0.26964">
        <ele>34.15</ele>
        <time>2025-05-31T09:40:11.138Z</time>
      </trkpt>
      <trkpt lat="49.21079" lon="-0.26976">
        <ele>34.44</ele>
        <time>2025-05-31T09:40:13.591Z</time>
      </trkpt>
      <trkpt lat="49.2107" lon="-0.27022">
        <ele>34.74</ele>
        <time>2025-05-31T09:40:16.049Z</time>
      </trkpt>
      <trkpt lat="49.21061" lon="-0.27063">
        <ele>35.04</ele>
        <time>2025-05-31T09:40:18.511Z</time>
      </trkpt>
      <trkpt lat="49.21052" lon="-0.27109">
        <ele>35.38</ele>
        <time>2025-05-31T09:40:20.978Z</time>
      </trkpt>
      <trkpt lat="49.21042" lon="-0.27155">
        <ele>35.64</ele>
        <time>2025-05-31T09:40:23.450Z</time>
      </trkpt>
      <trkpt lat="49.21042" lon="-0.27155">
        <ele>35.91</ele>
        <time>2025-05-31T09:40:25.922Z</time>
      </trkpt>
      <trkpt lat="49.21032" lon="-0.272">
        <ele>36.2</ele>
        <time>2025-05-31T09:40:28.399Z</time>
      </trkpt>
      <trkpt lat="49.21022" lon="-0.27246">
        <ele>36.44</ele>
        <time>2025-05-31T09:40:30.881Z</time>
      </trkpt>
      <trkpt lat="49.2102" lon="-0.27253">
        <ele>36.69</ele>
        <time>2025-05-31T09:40:33.364Z</time>
      </trkpt>
      <trkpt lat="49.21015" lon="-0.273">
        <ele>36.87</ele>
        <time>2025-05-31T09:40:35.852Z</time>
      </trkpt>
      <trkpt lat="49.2101" lon="-0.27343">
        <ele>37.17</ele>
        <time>2025-05-31T09:40:38.345Z</time>
      </trkpt>
      <trkpt lat="49.21004" lon="-0.27385">
        <ele>37.45</ele>
        <time>2025-05-31T09:40:40.842Z</time>
      </trkpt>
      <trkpt lat="49.20995" lon="-0.27431">
        <ele>37.74</ele>
        <time>2025-05-31T09:40:43.344Z</time>
      </trkpt>
      <trkpt lat="49.20993" lon="-0.27443">
        <ele>37.96</ele>
        <time>2025-05-31T09:40:45.848Z</time>
      </trkpt>
      <trkpt lat="49.20982" lon="-0.27488">
        <ele>38.15</ele>
        <time>2025-05-31T09:40:48.357Z</time>
      </trkpt>
      <trkpt lat="49.20971" lon="-0.27533">
        <ele>38.38</ele>
        <time>2025-05-31T09:40:50.871Z</time>
      </trkpt>
      <trkpt lat="49.2097" lon="-0.27537">
        <ele>38.58</ele>
        <time>2025-05-31T09:40:53.385Z</time>
      </trkpt>
      <trkpt lat="49.20956" lon="-0.2758">
        <ele>38.75</ele>
        <time>2025-05-31T09:40:55.904Z</time>
      </trkpt>
      <trkpt lat="49.20953" lon="-0.27588">
        <ele>38.93</ele>
        <time>2025-05-31T09:40:58.424Z</time>
      </trkpt>
      <trkpt lat="49.20938" lon="-0.2763">
        <ele>39.04</ele>
        <time>2025-05-31T09:41:00.949Z</time>
      </trkpt>
      <trkpt lat="49.20922" lon="-0.27672">
        <ele>39.25</ele>
        <time>2025-05-31T09:41:03.479Z</time>
      </trkpt>
      <trkpt lat="49.20907" lon="-0.27714">
        <ele>39.5</ele>
        <time>2025-05-31T09:41:06.014Z</time>
      </trkpt>
      <trkpt lat="49.20892" lon="-0.27756">
        <ele>39.7</ele>
        <time>2025-05-31T09:41:08.554Z</time>
      </trkpt>
      <trkpt lat="49.20876" lon="-0.27798">
        <ele>39.88</ele>
        <time>2025-05-31T09:41:11.099Z</time>
      </trkpt>
      <trkpt lat="49.20861" lon="-0.2784">
        <ele>40.03</ele>
        <time>2025-05-31T09:41:13.649Z</time>
      </trkpt>
      <trkpt lat="49.20849" lon="-0.27873">
        <ele>40.1</ele>
        <time>2025-05-31T09:41:16.203Z</time>
      </trkpt>
      <trkpt lat="49.20833" lon="-0.27914">
        <ele>40.21</ele>
        <time>2025-05-31T09:41:18.762Z</time>
      </trkpt>
      <trkpt lat="49.20817" lon="-0.27956">
        <ele>40.37</ele>
        <time>2025-05-31T09:41:21.326Z</time>
      </trkpt>
      <trkpt lat="49.20808" lon="-0.27979">
        <ele>40.48</ele>
        <time>2025-05-31T09:41:23.893Z</time>
      </trkpt>
      <trkpt lat="49.20795" lon="-0.28007">
        <ele>40.54</ele>
        <time>2025-05-31T09:41:26.464Z</time>
      </trkpt>
      <trkpt lat="49.20774" lon="-0.28043">
        <ele>40.57</ele>
        <time>2025-05-31T09:41:29.040Z</time>
      </trkpt>
      <trkpt lat="49.20771" lon="-0.28048">
        <ele>40.63</ele>
        <time>2025-05-31T09:41:31.617Z</time>
      </trkpt>
      <trkpt lat="49.2075" lon="-0.28077">
        <ele>40.7</ele>
        <time>2025-05-31T09:41:34.198Z</time>
      </trkpt>
      <trkpt lat="49.20726" lon="-0.28109">
        <ele>40.74</ele>
        <time>2025-05-31T09:41:36.784Z</time>
      </trkpt>
      <trkpt lat="49.20718" lon="-0.2812">
        <ele>40.79</ele>
        <time>2025-05-31T09:41:39.372Z</time>
      </trkpt>
      <trkpt lat="49.20696" lon="-0.28154">
        <ele>40.84</ele>
        <time>2025-05-31T09:41:41.965Z</time>
      </trkpt>
      <trkpt lat="49.20689" lon="-0.28165">
        <ele>40.88</ele>
        <time>2025-05-31T09:41:44.560Z</time>
      </trkpt>
      <trkpt lat="49.20669" lon="-0.28202">
        <ele>40.92</ele>
        <time>2025-05-31T09:41:47.160Z</time>
      </trkpt>
      <trkpt lat="49.20649" lon="-0.2824">
        <ele>40.96</ele>
        <time>2025-05-31T09:41:49.765Z</time>
      </trkpt>
      <trkpt lat="49.20643" lon="-0.28252">
        <ele>40.98</ele>
        <time>2025-05-31T09:41:52.371Z</time>
      </trkpt>
      <trkpt lat="49.20624" lon="-0.2829">
        <ele>40.98</ele>
        <time>2025-05-31T09:41:54.982Z</time>
      </trkpt>
      <trkpt lat="49.20606" lon="-0.28324">
        <ele>41.01</ele>
        <time>2025-05-31T09:41:57.598Z</time>
      </trkpt>
      <trkpt lat="49.20586" lon="-0.28357">
        <ele>41.09</ele>
        <time>2025-05-31T09:42:00.219Z</time>
      </trkpt>
      <trkpt lat="49.20564" lon="-0.28381">
        <ele>41.1</ele>
        <time>2025-05-31T09:42:02.844Z</time>
      </trkpt>
      <trkpt lat="49.20536" lon="-0.28403">
        <ele>41.11</ele>
        <time>2025-05-31T09:42:05.474Z</time>
      </trkpt>
      <trkpt lat="49.20517" lon="-0.28418">
        <ele>41.14</ele>
        <time>2025-05-31T09:42:08.107Z</time>
      </trkpt>
      <trkpt lat="49.20489" lon="-0.2844">
        <ele>41.17</ele>
        <time>2025-05-31T09:42:10.745Z</time>
      </trkpt>
      <trkpt lat="49.20483" lon="-0.28445">
        <ele>41.2</ele>
        <time>2025-05-31T09:42:13.385Z</time>
      </trkpt>
      <trkpt lat="49.20468" lon="-0.28461">
        <ele>41.23</ele>
        <time>2025-05-31T09:42:16.027Z</time>
      </trkpt>
      <trkpt lat="49.20454" lon="-0.28493">
        <ele>41.27</ele>
        <time>2025-05-31T09:42:18.674Z</time>
      </trkpt>
      <trkpt lat="49.20449" lon="-0.28532">
        <ele>41.33</ele>
        <time>2025-05-31T09:42:21.325Z</time>
      </trkpt>
      <trkpt lat="49.20453" lon="-0.28563">
        <ele>41.4</ele>
        <time>2025-05-31T09:42:23.979Z</time>
      </trkpt>
      <trkpt lat="49.20457" lon="-0.28577">
        <ele>41.45</ele>
        <time>2025-05-31T09:42:26.635Z</time>
      </trkpt>
      <trkpt lat="49.20459" lon="-0.28576">
        <ele>41.46</ele>
        <time>2025-05-31T09:42:29.291Z</time>
      </trkpt>
      <trkpt lat="49.20463" lon="-0.28577">
        <ele>41.48</ele>
        <time>2025-05-31T09:42:31.948Z</time>
      </trkpt>
      <trkpt lat="49.20471" lon="-0.28581">
        <ele>41.46</ele>
        <time>2025-05-31T09:42:34.606Z</time>
      </trkpt>
      <trkpt lat="49.20479" lon="-0.28594">
        <ele>41.44</ele>
        <time>2025-05-31T09:42:37.266Z</time>
      </trkpt>
      <trkpt lat="49.20481" lon="-0.28609">
        <ele>41.44</ele>
        <time>2025-05-31T09:42:39.927Z</time>
      </trkpt>
      <trkpt lat="49.2048" lon="-0.28621">
        <ele>41.43</ele>
        <time>2025-05-31T09:42:42.590Z</time>
      </trkpt>
      <trkpt lat="49.20476" lon="-0.2863">
        <ele>41.42</ele>
        <time>2025-05-31T09:42:45.254Z</time>
      </trkpt>
      <trkpt lat="49.20472" lon="-0.28636">
        <ele>41.39</ele>
        <time>2025-05-31T09:42:47.919Z</time>
      </trkpt>
      <trkpt lat="49.20462" lon="-0.28642">
        <ele>41.34</ele>
        <time>2025-05-31T09:42:50.585Z</time>
      </trkpt>
      <trkpt lat="49.2046" lon="-0.28642">
        <ele>41.28</ele>
        <time>2025-05-31T09:42:53.252Z</time>
      </trkpt>
      <trkpt lat="49.20433" lon="-0.28666">
        <ele>41.17</ele>
        <time>2025-05-31T09:42:55.924Z</time>
      </trkpt>
      <trkpt lat="49.2043" lon="-0.28669">
        <ele>41.09</ele>
        <time>2025-05-31T09:42:58.596Z</time>
      </trkpt>
      <trkpt lat="49.20417" lon="-0.28687">
        <ele>40.99</ele>
        <time>2025-05-31T09:43:01.271Z</time>
      </trkpt>
      <trkpt lat="49.20394" lon="-0.2872">
        <ele>40.93</ele>
        <time>2025-05-31T09:43:03.951Z</time>
      </trkpt>
      <trkpt lat="49.20371" lon="-0.28753">
        <ele>40.81</ele>
        <time>2025-05-31T09:43:06.636Z</time>
      </trkpt>
      <trkpt lat="49.20351" lon="-0.28781">
        <ele>40.67</ele>
        <time>2025-05-31T09:43:09.326Z</time>
      </trkpt>
      <trkpt lat="49.20328" lon="-0.28814">
        <ele>40.53</ele>
        <time>2025-05-31T09:43:12.021Z</time>
      </trkpt>
      <trkpt lat="49.20306" lon="-0.28848">
        <ele>40.48</ele>
        <time>2025-05-31T09:43:14.721Z</time>
      </trkpt>
      <trkpt lat="49.20283" lon="-0.28881">
        <ele>40.35</ele>
        <time>2025-05-31T09:43:17.426Z</time>
      </trkpt>
      <trkpt lat="49.20278" lon="-0.28889">
        <ele>40.18</ele>
        <time>2025-05-31T09:43:20.132Z</time>
      </trkpt>
      <trkpt lat="49.20256" lon="-0.28923">
        <ele>39.94</ele>
        <time>2025-05-31T09:43:22.843Z</time>
      </trkpt>
      <trkpt lat="49.20241" lon="-0.28946">
        <ele>39.74</ele>
        <time>2025-05-31T09:43:25.557Z</time>
      </trkpt>
      <trkpt lat="49.20217" lon="-0.28977">
        <ele>39.58</ele>
        <time>2025-05-31T09:43:28.276Z</time>
      </trkpt>
      <trkpt lat="49.20213" lon="-0.28983">
        <ele>39.41</ele>
        <time>2025-05-31T09:43:30.996Z</time>
      </trkpt>
      <trkpt lat="49.20195" lon="-0.29003">
        <ele>39.21</ele>
        <time>2025-05-31T09:43:33.720Z</time>
      </trkpt>
      <trkpt lat="49.20169" lon="-0.29027">
        <ele>39.02</ele>
        <time>2025-05-31T09:43:36.449Z</time>
      </trkpt>
      <trkpt lat="49.20141" lon="-0.2905">
        <ele>38.9</ele>
        <time>2025-05-31T09:43:39.183Z</time>
      </trkpt>
      <trkpt lat="49.20117" lon="-0.2907">
        <ele>38.71</ele>
        <time>2025-05-31T09:43:41.921Z</time>
      </trkpt>
      <trkpt lat="49.20099" lon="-0.29086">
        <ele>38.49</ele>
        <time>2025-05-31T09:43:44.662Z</time>
      </trkpt>
      <trkpt lat="49.20099" lon="-0.29085">
        <ele>38.3</ele>
        <time>2025-05-31T09:43:47.404Z</time>
      </trkpt>
      <trkpt lat="49.20084" lon="-0.29098">
        <ele>38.08</ele>
        <time>2025-05-31T09:43:50.148Z</time>
      </trkpt>
      <trkpt lat="49.20068" lon="-0.29112">
        <ele>37.87</ele>
        <time>2025-05-31T09:43:52.895Z</time>
      </trkpt>
      <trkpt lat="49.20061" lon="-0.29123">
        <ele>37.67</ele>
        <time>2025-05-31T09:43:55.644Z</time>
      </trkpt>
      <trkpt lat="49.20034" lon="-0.29148">
        <ele>37.49</ele>
        <time>2025-05-31T09:43:58.398Z</time>
      </trkpt>
      <trkpt lat="49.20032" lon="-0.2915">
        <ele>37.29</ele>
        <time>2025-05-31T09:44:01.152Z</time>
      </trkpt>
      <trkpt lat="49.20007" lon="-0.29178">
        <ele>37.12</ele>
        <time>2025-05-31T09:44:03.911Z</time>
      </trkpt>
      <trkpt lat="49.19981" lon="-0.29207">
        <ele>36.9</ele>
        <time>2025-05-31T09:44:06.675Z</time>
      </trkpt>
      <trkpt lat="49.19979" lon="-0.29209">
        <ele>36.68</ele>
        <time>2025-05-31T09:44:09.440Z</time>
      </trkpt>
      <trkpt lat="49.19964" lon="-0.29227">
        <ele>36.44</ele>
        <time>2025-05-31T09:44:12.208Z</time>
      </trkpt>
      <trkpt lat="49.19941" lon="-0.29256">
        <ele>36.21</ele>
        <time>2025-05-31T09:44:14.981Z</time>
      </trkpt>
      <trkpt lat="49.19935" lon="-0.2927">
        <ele>35.99</ele>
        <time>2025-05-31T09:44:17.755Z</time>
      </trkpt>
      <trkpt lat="49.19935" lon="-0.29274">
        <ele>35.77</ele>
        <time>2025-05-31T09:44:20.530Z</time>
      </trkpt>
      <trkpt lat="49.19936" lon="-0.29282">
        <ele>35.56</ele>
        <time>2025-05-31T09:44:23.306Z</time>
      </trkpt>
      <trkpt lat="49.19935" lon="-0.29291">
        <ele>35.34</ele>
        <time>2025-05-31T09:44:26.083Z</time>
      </trkpt>
      <trkpt lat="49.19931" lon="-0.29307">
        <ele>35.12</ele>
        <time>2025-05-31T09:44:28.861Z</time>
      </trkpt>
      <trkpt lat="49.19924" lon="-0.29319">
        <ele>34.88</ele>
        <time>2025-05-31T09:44:31.641Z</time>
      </trkpt>
      <trkpt lat="49.19913" lon="-0.29327">
        <ele>34.65</ele>
        <time>2025-05-31T09:44:34.423Z</time>
      </trkpt>
      <trkpt lat="49.19904" lon="-0.29329">
        <ele>34.44</ele>
        <time>2025-05-31T09:44:37.207Z</time>
      </trkpt>
      <trkpt lat="49.19897" lon="-0.29327">
        <ele>34.25</ele>
        <time>2025-05-31T09:44:39.992Z</time>
      </trkpt>
      <trkpt lat="49.19894" lon="-0.29325">
        <ele>34.07</ele>
        <time>2025-05-31T09:44:42.777Z</time>
      </trkpt>
      <trkpt lat="49.1988" lon="-0.29333">
        <ele>33.89</ele>
        <time>2025-05-31T09:44:45.565Z</time>
      </trkpt>
      <trkpt lat="49.19862" lon="-0.29351">
        <ele>33.69</ele>
        <time>2025-05-31T09:44:48.356Z</time>
      </trkpt>
      <trkpt lat="49.19837" lon="-0.29381">
        <ele>33.51</ele>
        <time>2025-05-31T09:44:51.152Z</time>
      </trkpt>
      <trkpt lat="49.19812" lon="-0.2941">
        <ele>33.35</ele>
        <time>2025-05-31T09:44:53.953Z</time>
      </trkpt>
      <trkpt lat="49.19788" lon="-0.29439">
        <ele>33.25</ele>
        <time>2025-05-31T09:44:56.759Z</time>
      </trkpt>
      <trkpt lat="49.19763" lon="-0.29468">
        <ele>33.14</ele>
        <time>2025-05-31T09:44:59.570Z</time>
      </trkpt>
      <trkpt lat="49.19738" lon="-0.29497">
        <ele>33</ele>
        <time>2025-05-31T09:45:02.386Z</time>
      </trkpt>
      <trkpt lat="49.19734" lon="-0.29502">
        <ele>32.91</ele>
        <time>2025-05-31T09:45:05.203Z</time>
      </trkpt>
      <trkpt lat="49.19708" lon="-0.2953">
        <ele>32.8</ele>
        <time>2025-05-31T09:45:08.025Z</time>
      </trkpt>
      <trkpt lat="49.19694" lon="-0.29546">
        <ele>32.73</ele>
        <time>2025-05-31T09:45:10.850Z</time>
      </trkpt>
      <trkpt lat="49.19668" lon="-0.29573">
        <ele>32.68</ele>
        <time>2025-05-31T09:45:13.680Z</time>
      </trkpt>
      <trkpt lat="49.19642" lon="-0.29599">
        <ele>32.72</ele>
        <time>2025-05-31T09:45:16.515Z</time>
      </trkpt>
      <trkpt lat="49.19639" lon="-0.29602">
        <ele>32.72</ele>
        <time>2025-05-31T09:45:19.350Z</time>
      </trkpt>
      <trkpt lat="49.19612" lon="-0.29626">
        <ele>32.78</ele>
        <time>2025-05-31T09:45:22.191Z</time>
      </trkpt>
      <trkpt lat="49.19598" lon="-0.29638">
        <ele>32.83</ele>
        <time>2025-05-31T09:45:25.034Z</time>
      </trkpt>
      <trkpt lat="49.19571" lon="-0.29662">
        <ele>32.89</ele>
        <time>2025-05-31T09:45:27.882Z</time>
      </trkpt>
      <trkpt lat="49.19555" lon="-0.29675">
        <ele>32.92</ele>
        <time>2025-05-31T09:45:30.733Z</time>
      </trkpt>
      <trkpt lat="49.19527" lon="-0.29697">
        <ele>32.95</ele>
        <time>2025-05-31T09:45:33.589Z</time>
      </trkpt>
      <trkpt lat="49.19499" lon="-0.29718">
        <ele>33.05</ele>
        <time>2025-05-31T09:45:36.450Z</time>
      </trkpt>
      <trkpt lat="49.19471" lon="-0.2974">
        <ele>33.18</ele>
        <time>2025-05-31T09:45:39.316Z</time>
      </trkpt>
      <trkpt lat="49.19443" lon="-0.29762">
        <ele>33.32</ele>
        <time>2025-05-31T09:45:42.187Z</time>
      </trkpt>
      <trkpt lat="49.19415" lon="-0.29784">
        <ele>33.41</ele>
        <time>2025-05-31T09:45:45.063Z</time>
      </trkpt>
      <trkpt lat="49.19387" lon="-0.29805">
        <ele>33.51</ele>
        <time>2025-05-31T09:45:47.944Z</time>
      </trkpt>
      <trkpt lat="49.19359" lon="-0.29827">
        <ele>33.61</ele>
        <time>2025-05-31T09:45:50.830Z</time>
      </trkpt>
      <trkpt lat="49.19331" lon="-0.29849">
        <ele>33.75</ele>
        <time>2025-05-31T09:45:53.721Z</time>
      </trkpt>
      <trkpt lat="49.19315" lon="-0.29861">
        <ele>33.91</ele>
        <time>2025-05-31T09:45:56.615Z</time>
      </trkpt>
      <trkpt lat="49.19287" lon="-0.29882">
        <ele>34.1</ele>
        <time>2025-05-31T09:45:59.514Z</time>
      </trkpt>
      <trkpt lat="49.19258" lon="-0.29903">
        <ele>34.26</ele>
        <time>2025-05-31T09:46:02.418Z</time>
      </trkpt>
      <trkpt lat="49.1923" lon="-0.29924">
        <ele>34.46</ele>
        <time>2025-05-31T09:46:05.327Z</time>
      </trkpt>
      <trkpt lat="49.19202" lon="-0.29946">
        <ele>34.71</ele>
        <time>2025-05-31T09:46:08.241Z</time>
      </trkpt>
      <trkpt lat="49.19184" lon="-0.29959">
        <ele>34.92</ele>
        <time>2025-05-31T09:46:11.158Z</time>
      </trkpt>
      <trkpt lat="49.19179" lon="-0.29964">
        <ele>35.09</ele>
        <time>2025-05-31T09:46:14.076Z</time>
      </trkpt>
      <trkpt lat="49.1917" lon="-0.29981">
        <ele>35.22</ele>
        <time>2025-05-31T09:46:16.997Z</time>
      </trkpt>
      <trkpt lat="49.19171" lon="-0.30008">
        <ele>35.39</ele>
        <time>2025-05-31T09:46:19.921Z</time>
      </trkpt>
      <trkpt lat="49.19164" lon="-0.30035">
        <ele>35.56</ele>
        <time>2025-05-31T09:46:22.848Z</time>
      </trkpt>
      <trkpt lat="49.19156" lon="-0.30051">
        <ele>35.75</ele>
        <time>2025-05-31T09:46:25.777Z</time>
      </trkpt>
      <trkpt lat="49.19147" lon="-0.30061">
        <ele>35.96</ele>
        <time>2025-05-31T09:46:28.707Z</time>
      </trkpt>
      <trkpt lat="49.19133" lon="-0.30069">
        <ele>36.18</ele>
        <time>2025-05-31T09:46:31.640Z</time>
      </trkpt>
      <trkpt lat="49.1912" lon="-0.3007">
        <ele>36.4</ele>
        <time>2025-05-31T09:46:34.575Z</time>
      </trkpt>
      <trkpt lat="49.19114" lon="-0.30068">
        <ele>36.62</ele>
        <time>2025-05-31T09:46:37.511Z</time>
      </trkpt>
      <trkpt lat="49.19102" lon="-0.30062">
        <ele>36.85</ele>
        <time>2025-05-31T09:46:40.449Z</time>
      </trkpt>
      <trkpt lat="49.19097" lon="-0.30057">
        <ele>37.08</ele>
        <time>2025-05-31T09:46:43.388Z</time>
      </trkpt>
      <trkpt lat="49.19083" lon="-0.30055">
        <ele>37.32</ele>
        <time>2025-05-31T09:46:46.329Z</time>
      </trkpt>
      <trkpt lat="49.1907" lon="-0.30057">
        <ele>37.56</ele>
        <time>2025-05-31T09:46:49.272Z</time>
      </trkpt>
      <trkpt lat="49.19052" lon="-0.30065">
        <ele>37.83</ele>
        <time>2025-05-31T09:46:52.218Z</time>
      </trkpt>
      <trkpt lat="49.19034" lon="-0.30073">
        <ele>38.09</ele>
        <time>2025-05-31T09:46:55.167Z</time>
      </trkpt>
      <trkpt lat="49.19006" lon="-0.30095">
        <ele>38.37</ele>
        <time>2025-05-31T09:46:58.121Z</time>
      </trkpt>
      <trkpt lat="49.19" lon="-0.30099">
        <ele>38.61</ele>
        <time>2025-05-31T09:47:01.076Z</time>
      </trkpt>
      <trkpt lat="49.18972" lon="-0.30121">
        <ele>38.85</ele>
        <time>2025-05-31T09:47:04.036Z</time>
      </trkpt>
      <trkpt lat="49.18944" lon="-0.30142">
        <ele>39.07</ele>
        <time>2025-05-31T09:47:07.001Z</time>
      </trkpt>
      <trkpt lat="49.18916" lon="-0.30164">
        <ele>39.25</ele>
        <time>2025-05-31T09:47:09.971Z</time>
      </trkpt>
      <trkpt lat="49.18909" lon="-0.30169">
        <ele>39.45</ele>
        <time>2025-05-31T09:47:12.943Z</time>
      </trkpt>
      <trkpt lat="49.18882" lon="-0.30194">
        <ele>39.64</ele>
        <time>2025-05-31T09:47:15.920Z</time>
      </trkpt>
      <trkpt lat="49.1887" lon="-0.30206">
        <ele>39.86</ele>
        <time>2025-05-31T09:47:18.899Z</time>
      </trkpt>
      <trkpt lat="49.18845" lon="-0.30234">
        <ele>40.06</ele>
        <time>2025-05-31T09:47:21.883Z</time>
      </trkpt>
      <trkpt lat="49.1882" lon="-0.30262">
        <ele>40.18</ele>
        <time>2025-05-31T09:47:24.872Z</time>
      </trkpt>
      <trkpt lat="49.18796" lon="-0.30294">
        <ele>40.29</ele>
        <time>2025-05-31T09:47:27.866Z</time>
      </trkpt>
      <trkpt lat="49.18773" lon="-0.30326">
        <ele>40.37</ele>
        <time>2025-05-31T09:47:30.865Z</time>
      </trkpt>
      <trkpt lat="49.18772" lon="-0.30327">
        <ele>40.46</ele>
        <time>2025-05-31T09:47:33.864Z</time>
      </trkpt>
      <trkpt lat="49.1875" lon="-0.30361">
        <ele>40.51</ele>
        <time>2025-05-31T09:47:36.868Z</time>
      </trkpt>
      <trkpt lat="49.18749" lon="-0.30363">
        <ele>40.55</ele>
        <time>2025-05-31T09:47:39.873Z</time>
      </trkpt>
      <trkpt lat="49.18729" lon="-0.304">
        <ele>40.55</ele>
        <time>2025-05-31T09:47:42.883Z</time>
      </trkpt>
      <trkpt lat="49.18714" lon="-0.30427">
        <ele>40.5</ele>
        <time>2025-05-31T09:47:45.896Z</time>
      </trkpt>
      <trkpt lat="49.18695" lon="-0.30466">
        <ele>40.42</ele>
        <time>2025-05-31T09:47:48.914Z</time>
      </trkpt>
      <trkpt lat="49.18683" lon="-0.30491">
        <ele>40.37</ele>
        <time>2025-05-31T09:47:51.936Z</time>
      </trkpt>
      <trkpt lat="49.18667" lon="-0.30532">
        <ele>40.39</ele>
        <time>2025-05-31T09:47:54.963Z</time>
      </trkpt>
      <trkpt lat="49.1865" lon="-0.30573">
        <ele>40.32</ele>
        <time>2025-05-31T09:47:57.995Z</time>
      </trkpt>
      <trkpt lat="49.1865" lon="-0.30573">
        <ele>40.14</ele>
        <time>2025-05-31T09:48:01.027Z</time>
      </trkpt>
      <trkpt lat="49.18636" lon="-0.30616">
        <ele>39.87</ele>
        <time>2025-05-31T09:48:04.064Z</time>
      </trkpt>
      <trkpt lat="49.18636" lon="-0.30617">
        <ele>39.59</ele>
        <time>2025-05-31T09:48:07.101Z</time>
      </trkpt>
      <trkpt lat="49.18623" lon="-0.30661">
        <ele>39.22</ele>
        <time>2025-05-31T09:48:10.143Z</time>
      </trkpt>
      <trkpt lat="49.18619" lon="-0.30674">
        <ele>38.81</ele>
        <time>2025-05-31T09:48:13.186Z</time>
      </trkpt>
      <trkpt lat="49.18608" lon="-0.30719">
        <ele>38.32</ele>
        <time>2025-05-31T09:48:16.234Z</time>
      </trkpt>
      <trkpt lat="49.18598" lon="-0.30761">
        <ele>37.88</ele>
        <time>2025-05-31T09:48:19.287Z</time>
      </trkpt>
      <trkpt lat="49.18591" lon="-0.30808">
        <ele>37.4</ele>
        <time>2025-05-31T09:48:22.345Z</time>
      </trkpt>
      <trkpt lat="49.18583" lon="-0.30854">
        <ele>36.86</ele>
        <time>2025-05-31T09:48:25.408Z</time>
      </trkpt>
      <trkpt lat="49.18583" lon="-0.30856">
        <ele>36.26</ele>
        <time>2025-05-31T09:48:28.471Z</time>
      </trkpt>
      <trkpt lat="49.18578" lon="-0.30894">
        <ele>35.6</ele>
        <time>2025-05-31T09:48:31.538Z</time>
      </trkpt>
      <trkpt lat="49.18573" lon="-0.30941">
        <ele>34.8</ele>
        <time>2025-05-31T09:48:34.611Z</time>
      </trkpt>
      <trkpt lat="49.18568" lon="-0.30989">
        <ele>34.02</ele>
        <time>2025-05-31T09:48:37.689Z</time>
      </trkpt>
      <trkpt lat="49.18563" lon="-0.31036">
        <ele>33.23</ele>
        <time>2025-05-31T09:48:40.772Z</time>
      </trkpt>
      <trkpt lat="49.18558" lon="-0.31084">
        <ele>32.43</ele>
        <time>2025-05-31T09:48:43.860Z</time>
      </trkpt>
      <trkpt lat="49.18557" lon="-0.3109">
        <ele>31.57</ele>
        <time>2025-05-31T09:48:46.948Z</time>
      </trkpt>
      <trkpt lat="49.18552" lon="-0.31137">
        <ele>30.57</ele>
        <time>2025-05-31T09:48:50.041Z</time>
      </trkpt>
      <trkpt lat="49.18547" lon="-0.31185">
        <ele>29.53</ele>
        <time>2025-05-31T09:48:53.139Z</time>
      </trkpt>
      <trkpt lat="49.18542" lon="-0.31232">
        <ele>28.53</ele>
        <time>2025-05-31T09:48:56.242Z</time>
      </trkpt>
      <trkpt lat="49.18537" lon="-0.3128">
        <ele>27.58</ele>
        <time>2025-05-31T09:48:59.350Z</time>
      </trkpt>
      <trkpt lat="49.18534" lon="-0.31311">
        <ele>26.6</ele>
        <time>2025-05-31T09:49:02.462Z</time>
      </trkpt>
      <trkpt lat="49.18529" lon="-0.31358">
        <ele>25.57</ele>
        <time>2025-05-31T09:49:05.579Z</time>
      </trkpt>
      <trkpt lat="49.18527" lon="-0.31377">
        <ele>24.45</ele>
        <time>2025-05-31T09:49:08.698Z</time>
      </trkpt>
      <trkpt lat="49.18523" lon="-0.31396">
        <ele>23.29</ele>
        <time>2025-05-31T09:49:11.819Z</time>
      </trkpt>
      <trkpt lat="49.18511" lon="-0.31424">
        <ele>22.02</ele>
        <time>2025-05-31T09:49:14.943Z</time>
      </trkpt>
      <trkpt lat="49.18492" lon="-0.31453">
        <ele>20.73</ele>
        <time>2025-05-31T09:49:18.072Z</time>
      </trkpt>
      <trkpt lat="49.18468" lon="-0.31484">
        <ele>19.53</ele>
        <time>2025-05-31T09:49:21.206Z</time>
      </trkpt>
      <trkpt lat="49.18443" lon="-0.31514">
        <ele>18.41</ele>
        <time>2025-05-31T09:49:24.345Z</time>
      </trkpt>
      <trkpt lat="49.18419" lon="-0.31545">
        <ele>17.35</ele>
        <time>2025-05-31T09:49:27.489Z</time>
      </trkpt>
      <trkpt lat="49.18395" lon="-0.31575">
        <ele>16.25</ele>
        <time>2025-05-31T09:49:30.638Z</time>
      </trkpt>
      <trkpt lat="49.1837" lon="-0.31605">
        <ele>15.13</ele>
        <time>2025-05-31T09:49:33.792Z</time>
      </trkpt>
      <trkpt lat="49.18362" lon="-0.31615">
        <ele>14.14</ele>
        <time>2025-05-31T09:49:36.948Z</time>
      </trkpt>
      <trkpt lat="49.18362" lon="-0.31621">
        <ele>13.18</ele>
        <time>2025-05-31T09:49:40.104Z</time>
      </trkpt>
      <trkpt lat="49.18344" lon="-0.3164">
        <ele>12.26</ele>
        <time>2025-05-31T09:49:43.264Z</time>
      </trkpt>
      <trkpt lat="49.18318" lon="-0.31666">
        <ele>11.35</ele>
        <time>2025-05-31T09:49:46.429Z</time>
      </trkpt>
      <trkpt lat="49.18314" lon="-0.3167">
        <ele>10.52</ele>
        <time>2025-05-31T09:49:49.595Z</time>
      </trkpt>
      <trkpt lat="49.18299" lon="-0.31683">
        <ele>9.72</ele>
        <time>2025-05-31T09:49:52.763Z</time>
      </trkpt>
      <trkpt lat="49.18292" lon="-0.31693">
        <ele>8.97</ele>
        <time>2025-05-31T09:49:55.933Z</time>
      </trkpt>
      <trkpt lat="49.18282" lon="-0.31719">
        <ele>8.25</ele>
        <time>2025-05-31T09:49:59.106Z</time>
      </trkpt>
      <trkpt lat="49.18275" lon="-0.31748">
        <ele>7.61</ele>
        <time>2025-05-31T09:50:02.282Z</time>
      </trkpt>
      <trkpt lat="49.18275" lon="-0.31775">
        <ele>6.98</ele>
        <time>2025-05-31T09:50:05.461Z</time>
      </trkpt>
      <trkpt lat="49.18279" lon="-0.31823">
        <ele>6.42</ele>
        <time>2025-05-31T09:50:08.645Z</time>
      </trkpt>
      <trkpt lat="49.18283" lon="-0.3187">
        <ele>5.91</ele>
        <time>2025-05-31T09:50:11.834Z</time>
      </trkpt>
      <trkpt lat="49.18284" lon="-0.31882">
        <ele>5.47</ele>
        <time>2025-05-31T09:50:15.024Z</time>
      </trkpt>
      <trkpt lat="49.18286" lon="-0.3193">
        <ele>5.11</ele>
        <time>2025-05-31T09:50:18.219Z</time>
      </trkpt>
      <trkpt lat="49.18287" lon="-0.31942">
        <ele>4.77</ele>
        <time>2025-05-31T09:50:21.416Z</time>
      </trkpt>
      <trkpt lat="49.18284" lon="-0.3198">
        <ele>4.43</ele>
        <time>2025-05-31T09:50:24.617Z</time>
      </trkpt>
      <trkpt lat="49.1828" lon="-0.32008">
        <ele>4.13</ele>
        <time>2025-05-31T09:50:27.821Z</time>
      </trkpt>
      <trkpt lat="49.18268" lon="-0.32053">
        <ele>3.82</ele>
        <time>2025-05-31T09:50:31.030Z</time>
      </trkpt>
      <trkpt lat="49.18266" lon="-0.32061">
        <ele>3.61</ele>
        <time>2025-05-31T09:50:34.240Z</time>
      </trkpt>
      <trkpt lat="49.18251" lon="-0.32103">
        <ele>3.47</ele>
        <time>2025-05-31T09:50:37.455Z</time>
      </trkpt>
      <trkpt lat="49.18237" lon="-0.32146">
        <ele>3.36</ele>
        <time>2025-05-31T09:50:40.675Z</time>
      </trkpt>
      <trkpt lat="49.18222" lon="-0.32188">
        <ele>3.2</ele>
        <time>2025-05-31T09:50:43.900Z</time>
      </trkpt>
      <trkpt lat="49.18217" lon="-0.32202">
        <ele>3.06</ele>
        <time>2025-05-31T09:50:47.126Z</time>
      </trkpt>
      <trkpt lat="49.18203" lon="-0.32245">
        <ele>2.91</ele>
        <time>2025-05-31T09:50:50.358Z</time>
      </trkpt>
      <trkpt lat="49.18189" lon="-0.32288">
        <ele>2.84</ele>
        <time>2025-05-31T09:50:53.595Z</time>
      </trkpt>
      <trkpt lat="49.18175" lon="-0.32331">
        <ele>2.79</ele>
        <time>2025-05-31T09:50:56.837Z</time>
      </trkpt>
      <trkpt lat="49.1816" lon="-0.32373">
        <ele>2.74</ele>
        <time>2025-05-31T09:51:00.084Z</time>
      </trkpt>
      <trkpt lat="49.18146" lon="-0.32416">
        <ele>2.79</ele>
        <time>2025-05-31T09:51:03.336Z</time>
      </trkpt>
      <trkpt lat="49.18143" lon="-0.32426">
        <ele>2.79</ele>
        <time>2025-05-31T09:51:06.589Z</time>
      </trkpt>
      <trkpt lat="49.18128" lon="-0.32468">
        <ele>2.81</ele>
        <time>2025-05-31T09:51:09.847Z</time>
      </trkpt>
      <trkpt lat="49.18119" lon="-0.32493">
        <ele>2.86</ele>
        <time>2025-05-31T09:51:13.108Z</time>
      </trkpt>
      <trkpt lat="49.18107" lon="-0.32537">
        <ele>2.85</ele>
        <time>2025-05-31T09:51:16.374Z</time>
      </trkpt>
      <trkpt lat="49.18106" lon="-0.32539">
        <ele>2.89</ele>
        <time>2025-05-31T09:51:19.640Z</time>
      </trkpt>
      <trkpt lat="49.18094" lon="-0.32584">
        <ele>2.84</ele>
        <time>2025-05-31T09:51:22.911Z</time>
      </trkpt>
      <trkpt lat="49.18083" lon="-0.32628">
        <ele>2.87</ele>
        <time>2025-05-31T09:51:26.187Z</time>
      </trkpt>
      <trkpt lat="49.18077" lon="-0.3265">
        <ele>2.95</ele>
        <time>2025-05-31T09:51:29.466Z</time>
      </trkpt>
      <trkpt lat="49.18066" lon="-0.32695">
        <ele>2.97</ele>
        <time>2025-05-31T09:51:32.750Z</time>
      </trkpt>
      <trkpt lat="49.18055" lon="-0.3274">
        <ele>2.98</ele>
        <time>2025-05-31T09:51:36.039Z</time>
      </trkpt>
      <trkpt lat="49.18051" lon="-0.32754">
        <ele>3.1</ele>
        <time>2025-05-31T09:51:39.329Z</time>
      </trkpt>
      <trkpt lat="49.1804" lon="-0.32799">
        <ele>3.31</ele>
        <time>2025-05-31T09:51:42.624Z</time>
      </trkpt>
      <trkpt lat="49.18036" lon="-0.32816">
        <ele>3.53</ele>
        <time>2025-05-31T09:51:45.921Z</time>
      </trkpt>
      <trkpt lat="49.18026" lon="-0.32862">
        <ele>3.85</ele>
        <time>2025-05-31T09:51:49.223Z</time>
      </trkpt>
      <trkpt lat="49.18016" lon="-0.32907">
        <ele>4.07</ele>
        <time>2025-05-31T09:51:52.530Z</time>
      </trkpt>
      <trkpt lat="49.18006" lon="-0.32953">
        <ele>4.23</ele>
        <time>2025-05-31T09:51:55.842Z</time>
      </trkpt>
      <trkpt lat="49.18002" lon="-0.32971">
        <ele>4.44</ele>
        <time>2025-05-31T09:51:59.156Z</time>
      </trkpt>
      <trkpt lat="49.17994" lon="-0.33017">
        <ele>4.7</ele>
        <time>2025-05-31T09:52:02.475Z</time>
      </trkpt>
      <trkpt lat="49.17991" lon="-0.33034">
        <ele>4.93</ele>
        <time>2025-05-31T09:52:05.796Z</time>
      </trkpt>
      <trkpt lat="49.17983" lon="-0.33081">
        <ele>5.18</ele>
        <time>2025-05-31T09:52:09.122Z</time>
      </trkpt>
      <trkpt lat="49.17982" lon="-0.33088">
        <ele>5.41</ele>
        <time>2025-05-31T09:52:12.449Z</time>
      </trkpt>
      <trkpt lat="49.17976" lon="-0.33135">
        <ele>5.65</ele>
        <time>2025-05-31T09:52:15.781Z</time>
      </trkpt>
      <trkpt lat="49.17969" lon="-0.33182">
        <ele>5.88</ele>
        <time>2025-05-31T09:52:19.118Z</time>
      </trkpt>
      <trkpt lat="49.17963" lon="-0.33229">
        <ele>6.15</ele>
        <time>2025-05-31T09:52:22.460Z</time>
      </trkpt>
      <trkpt lat="49.17962" lon="-0.33237">
        <ele>6.36</ele>
        <time>2025-05-31T09:52:25.803Z</time>
      </trkpt>
      <trkpt lat="49.17958" lon="-0.33285">
        <ele>6.55</ele>
        <time>2025-05-31T09:52:29.151Z</time>
      </trkpt>
      <trkpt lat="49.17953" lon="-0.33332">
        <ele>6.72</ele>
        <time>2025-05-31T09:52:32.504Z</time>
      </trkpt>
      <trkpt lat="49.1795" lon="-0.33367">
        <ele>6.84</ele>
        <time>2025-05-31T09:52:35.861Z</time>
      </trkpt>
      <trkpt lat="49.17947" lon="-0.33415">
        <ele>6.96</ele>
        <time>2025-05-31T09:52:39.223Z</time>
      </trkpt>
      <trkpt lat="49.17944" lon="-0.33463">
        <ele>7.15</ele>
        <time>2025-05-31T09:52:42.590Z</time>
      </trkpt>
      <trkpt lat="49.17942" lon="-0.3351">
        <ele>7.38</ele>
        <time>2025-05-31T09:52:45.962Z</time>
      </trkpt>
      <trkpt lat="49.17939" lon="-0.33558">
        <ele>7.61</ele>
        <time>2025-05-31T09:52:49.339Z</time>
      </trkpt>
      <trkpt lat="49.17939" lon="-0.33606">
        <ele>7.84</ele>
        <time>2025-05-31T09:52:52.721Z</time>
      </trkpt>
      <trkpt lat="49.17939" lon="-0.33654">
        <ele>8.01</ele>
        <time>2025-05-31T09:52:56.108Z</time>
      </trkpt>
      <trkpt lat="49.1794" lon="-0.33702">
        <ele>8.15</ele>
        <time>2025-05-31T09:52:59.500Z</time>
      </trkpt>
      <trkpt lat="49.1794" lon="-0.3375">
        <ele>8.29</ele>
        <time>2025-05-31T09:53:02.897Z</time>
      </trkpt>
      <trkpt lat="49.1794" lon="-0.33763">
        <ele>8.43</ele>
        <time>2025-05-31T09:53:06.296Z</time>
      </trkpt>
      <trkpt lat="49.17941" lon="-0.33811">
        <ele>8.58</ele>
        <time>2025-05-31T09:53:09.700Z</time>
      </trkpt>
      <trkpt lat="49.17942" lon="-0.33859">
        <ele>8.73</ele>
        <time>2025-05-31T09:53:13.109Z</time>
      </trkpt>
      <trkpt lat="49.17943" lon="-0.33907">
        <ele>8.92</ele>
        <time>2025-05-31T09:53:16.523Z</time>
      </trkpt>
      <trkpt lat="49.17944" lon="-0.33955">
        <ele>9.05</ele>
        <time>2025-05-31T09:53:19.942Z</time>
      </trkpt>
      <trkpt lat="49.17945" lon="-0.34003">
        <ele>9.13</ele>
        <time>2025-05-31T09:53:23.366Z</time>
      </trkpt>
      <trkpt lat="49.17946" lon="-0.34051">
        <ele>9.19</ele>
        <time>2025-05-31T09:53:26.795Z</time>
      </trkpt>
      <trkpt lat="49.17947" lon="-0.34099">
        <ele>9.24</ele>
        <time>2025-05-31T09:53:30.229Z</time>
      </trkpt>
      <trkpt lat="49.17947" lon="-0.34147">
        <ele>9.2</ele>
        <time>2025-05-31T09:53:33.668Z</time>
      </trkpt>
      <trkpt lat="49.17948" lon="-0.34173">
        <ele>9.2</ele>
        <time>2025-05-31T09:53:37.110Z</time>
      </trkpt>
      <trkpt lat="49.17949" lon="-0.34221">
        <ele>9.24</ele>
        <time>2025-05-31T09:53:40.557Z</time>
      </trkpt>
      <trkpt lat="49.1795" lon="-0.34269">
        <ele>9.32</ele>
        <time>2025-05-31T09:53:44.009Z</time>
      </trkpt>
      <trkpt lat="49.17951" lon="-0.34317">
        <ele>9.36</ele>
        <time>2025-05-31T09:53:47.466Z</time>
      </trkpt>
      <trkpt lat="49.17953" lon="-0.34365">
        <ele>9.38</ele>
        <time>2025-05-31T09:53:50.928Z</time>
      </trkpt>
      <trkpt lat="49.17954" lon="-0.34413">
        <ele>9.41</ele>
        <time>2025-05-31T09:53:54.395Z</time>
      </trkpt>
      <trkpt lat="49.17955" lon="-0.34461">
        <ele>9.41</ele>
        <time>2025-05-31T09:53:57.867Z</time>
      </trkpt>
      <trkpt lat="49.17956" lon="-0.34509">
        <ele>9.32</ele>
        <time>2025-05-31T09:54:01.344Z</time>
      </trkpt>
      <trkpt lat="49.17957" lon="-0.34547">
        <ele>9.34</ele>
        <time>2025-05-31T09:54:04.825Z</time>
      </trkpt>
      <trkpt lat="49.17958" lon="-0.34595">
        <ele>9.48</ele>
        <time>2025-05-31T09:54:08.311Z</time>
      </trkpt>
      <trkpt lat="49.17958" lon="-0.34643">
        <ele>9.57</ele>
        <time>2025-05-31T09:54:11.802Z</time>
      </trkpt>
      <trkpt lat="49.17959" lon="-0.34691">
        <ele>9.56</ele>
        <time>2025-05-31T09:54:15.298Z</time>
      </trkpt>
      <trkpt lat="49.17959" lon="-0.34706">
        <ele>9.57</ele>
        <time>2025-05-31T09:54:18.796Z</time>
      </trkpt>
      <trkpt lat="49.17959" lon="-0.34754">
        <ele>9.63</ele>
        <time>2025-05-31T09:54:22.299Z</time>
      </trkpt>
      <trkpt lat="49.17959" lon="-0.34785">
        <ele>9.65</ele>
        <time>2025-05-31T09:54:25.805Z</time>
      </trkpt>
      <trkpt lat="49.17955" lon="-0.3483">
        <ele>9.55</ele>
        <time>2025-05-31T09:54:29.316Z</time>
      </trkpt>
      <trkpt lat="49.17952" lon="-0.34843">
        <ele>9.48</ele>
        <time>2025-05-31T09:54:32.828Z</time>
      </trkpt>
      <trkpt lat="49.17945" lon="-0.34865">
        <ele>9.37</ele>
        <time>2025-05-31T09:54:36.343Z</time>
      </trkpt>
      <trkpt lat="49.1793" lon="-0.34903">
        <ele>9.41</ele>
        <time>2025-05-31T09:54:39.862Z</time>
      </trkpt>
      <trkpt lat="49.17919" lon="-0.34933">
        <ele>9.52</ele>
        <time>2025-05-31T09:54:43.385Z</time>
      </trkpt>
      <trkpt lat="49.17913" lon="-0.34939">
        <ele>9.53</ele>
        <time>2025-05-31T09:54:46.909Z</time>
      </trkpt>
      <trkpt lat="49.17897" lon="-0.34975">
        <ele>9.45</ele>
        <time>2025-05-31T09:54:50.438Z</time>
      </trkpt>
      <trkpt lat="49.17879" lon="-0.35014">
        <ele>9.24</ele>
        <time>2025-05-31T09:54:53.972Z</time>
      </trkpt>
      <trkpt lat="49.17863" lon="-0.35048">
        <ele>9.17</ele>
        <time>2025-05-31T09:54:57.510Z</time>
      </trkpt>
      <trkpt lat="49.17845" lon="-0.35088">
        <ele>9.14</ele>
        <time>2025-05-31T09:55:01.053Z</time>
      </trkpt>
      <trkpt lat="49.1783" lon="-0.35122">
        <ele>9.08</ele>
        <time>2025-05-31T09:55:04.600Z</time>
      </trkpt>
      <trkpt lat="49.17812" lon="-0.35161">
        <ele>9</ele>
        <time>2025-05-31T09:55:08.152Z</time>
      </trkpt>
      <trkpt lat="49.17794" lon="-0.35201">
        <ele>8.98</ele>
        <time>2025-05-31T09:55:11.710Z</time>
      </trkpt>
      <trkpt lat="49.17776" lon="-0.3524">
        <ele>9.03</ele>
        <time>2025-05-31T09:55:15.273Z</time>
      </trkpt>
      <trkpt lat="49.17766" lon="-0.35263">
        <ele>9.02</ele>
        <time>2025-05-31T09:55:18.838Z</time>
      </trkpt>
      <trkpt lat="49.17748" lon="-0.35303">
        <ele>9.01</ele>
        <time>2025-05-31T09:55:22.408Z</time>
      </trkpt>
      <trkpt lat="49.17731" lon="-0.35342">
        <ele>9.04</ele>
        <time>2025-05-31T09:55:25.984Z</time>
      </trkpt>
      <trkpt lat="49.17728" lon="-0.35348">
        <ele>9.03</ele>
        <time>2025-05-31T09:55:29.560Z</time>
      </trkpt>
      <trkpt lat="49.1771" lon="-0.35387">
        <ele>9.01</ele>
        <time>2025-05-31T09:55:33.141Z</time>
      </trkpt>
      <trkpt lat="49.17692" lon="-0.35427">
        <ele>8.98</ele>
        <time>2025-05-31T09:55:36.727Z</time>
      </trkpt>
      <trkpt lat="49.17689" lon="-0.35433">
        <ele>8.96</ele>
        <time>2025-05-31T09:55:40.314Z</time>
      </trkpt>
      <trkpt lat="49.17676" lon="-0.35462">
        <ele>8.96</ele>
        <time>2025-05-31T09:55:43.905Z</time>
      </trkpt>
      <trkpt lat="49.17685" lon="-0.35474">
        <ele>8.89</ele>
        <time>2025-05-31T09:55:47.498Z</time>
      </trkpt>
      <trkpt lat="49.1771" lon="-0.35502">
        <ele>8.9</ele>
        <time>2025-05-31T09:55:51.096Z</time>
      </trkpt>
      <trkpt lat="49.17711" lon="-0.35503">
        <ele>8.9</ele>
        <time>2025-05-31T09:55:54.694Z</time>
      </trkpt>
      <trkpt lat="49.17732" lon="-0.35519">
        <ele>8.95</ele>
        <time>2025-05-31T09:55:58.296Z</time>
      </trkpt>
      <trkpt lat="49.17738" lon="-0.35522">
        <ele>8.97</ele>
        <time>2025-05-31T09:56:01.899Z</time>
      </trkpt>
      <trkpt lat="49.17732" lon="-0.35519">
        <ele>8.95</ele>
        <time>2025-05-31T09:56:05.503Z</time>
      </trkpt>
      <trkpt lat="49.17725" lon="-0.35514">
        <ele>8.98</ele>
        <time>2025-05-31T09:56:09.108Z</time>
      </trkpt>
      <trkpt lat="49.17711" lon="-0.35503">
        <ele>8.9</ele>
        <time>2025-05-31T09:56:12.715Z</time>
      </trkpt>
      <trkpt lat="49.17686" lon="-0.35475">
        <ele>9</ele>
        <time>2025-05-31T09:56:16.327Z</time>
      </trkpt>
      <trkpt lat="49.17685" lon="-0.35474">
        <ele>8.89</ele>
        <time>2025-05-31T09:56:19.940Z</time>
      </trkpt>
      <trkpt lat="49.17676" lon="-0.35462">
        <ele>8.96</ele>
        <time>2025-05-31T09:56:23.555Z</time>
      </trkpt>
      <trkpt lat="49.17658" lon="-0.35501">
        <ele>9.17</ele>
        <time>2025-05-31T09:56:27.175Z</time>
      </trkpt>
      <trkpt lat="49.1764" lon="-0.35541">
        <ele>9.16</ele>
        <time>2025-05-31T09:56:30.800Z</time>
      </trkpt>
      <trkpt lat="49.17637" lon="-0.35547">
        <ele>9.18</ele>
        <time>2025-05-31T09:56:34.425Z</time>
      </trkpt>
      <trkpt lat="49.17619" lon="-0.35586">
        <ele>9.2</ele>
        <time>2025-05-31T09:56:38.055Z</time>
      </trkpt>
      <trkpt lat="49.17601" lon="-0.35626">
        <ele>9.19</ele>
        <time>2025-05-31T09:56:41.690Z</time>
      </trkpt>
      <trkpt lat="49.17583" lon="-0.35665">
        <ele>9.23</ele>
        <time>2025-05-31T09:56:45.331Z</time>
      </trkpt>
      <trkpt lat="49.17571" lon="-0.35692">
        <ele>9.29</ele>
        <time>2025-05-31T09:56:48.975Z</time>
      </trkpt>
      <trkpt lat="49.17593" lon="-0.35726">
        <ele>9.29</ele>
        <time>2025-05-31T09:56:52.624Z</time>
      </trkpt>
      <trkpt lat="49.17595" lon="-0.35729">
        <ele>9.29</ele>
        <time>2025-05-31T09:56:56.273Z</time>
      </trkpt>
      <trkpt lat="49.17613" lon="-0.35759">
        <ele>9.31</ele>
        <time>2025-05-31T09:56:59.927Z</time>
      </trkpt>
      <trkpt lat="49.1762" lon="-0.35763">
        <ele>9.32</ele>
        <time>2025-05-31T09:57:03.582Z</time>
      </trkpt>
      <trkpt lat="49.17616" lon="-0.35771">
        <ele>9.29</ele>
        <time>2025-05-31T09:57:07.238Z</time>
      </trkpt>
      <trkpt lat="49.17615" lon="-0.35776">
        <ele>9.25</ele>
        <time>2025-05-31T09:57:10.894Z</time>
      </trkpt>
      <trkpt lat="49.17607" lon="-0.35798">
        <ele>9.16</ele>
        <time>2025-05-31T09:57:14.553Z</time>
      </trkpt>
      <trkpt lat="49.17585" lon="-0.35833">
        <ele>9.1</ele>
        <time>2025-05-31T09:57:18.217Z</time>
      </trkpt>
      <trkpt lat="49.17564" lon="-0.35868">
        <ele>9.06</ele>
        <time>2025-05-31T09:57:21.886Z</time>
      </trkpt>
      <trkpt lat="49.17542" lon="-0.35903">
        <ele>8.99</ele>
        <time>2025-05-31T09:57:25.560Z</time>
      </trkpt>
      <trkpt lat="49.17521" lon="-0.35938">
        <ele>8.9</ele>
        <time>2025-05-31T09:57:29.239Z</time>
      </trkpt>
      <trkpt lat="49.17499" lon="-0.35973">
        <ele>8.85</ele>
        <time>2025-05-31T09:57:32.923Z</time>
      </trkpt>
      <trkpt lat="49.17478" lon="-0.36008">
        <ele>8.81</ele>
        <time>2025-05-31T09:57:36.612Z</time>
      </trkpt>
      <trkpt lat="49.17456" lon="-0.36043">
        <ele>8.71</ele>
        <time>2025-05-31T09:57:40.306Z</time>
      </trkpt>
      <trkpt lat="49.17435" lon="-0.36078">
        <ele>8.59</ele>
        <time>2025-05-31T09:57:44.005Z</time>
      </trkpt>
      <trkpt lat="49.17413" lon="-0.36113">
        <ele>8.53</ele>
        <time>2025-05-31T09:57:47.709Z</time>
      </trkpt>
      <trkpt lat="49.17392" lon="-0.36148">
        <ele>8.46</ele>
        <time>2025-05-31T09:57:51.419Z</time>
      </trkpt>
      <trkpt lat="49.1737" lon="-0.36184">
        <ele>8.36</ele>
        <time>2025-05-31T09:57:55.134Z</time>
      </trkpt>
      <trkpt lat="49.17349" lon="-0.36219">
        <ele>8.31</ele>
        <time>2025-05-31T09:57:58.854Z</time>
      </trkpt>
      <trkpt lat="49.17334" lon="-0.36243">
        <ele>8.21</ele>
        <time>2025-05-31T09:58:02.577Z</time>
      </trkpt>
      <trkpt lat="49.17312" lon="-0.36278">
        <ele>8.1</ele>
        <time>2025-05-31T09:58:06.305Z</time>
      </trkpt>
      <trkpt lat="49.1729" lon="-0.36312">
        <ele>7.99</ele>
        <time>2025-05-31T09:58:10.038Z</time>
      </trkpt>
      <trkpt lat="49.17269" lon="-0.36347">
        <ele>7.93</ele>
        <time>2025-05-31T09:58:13.776Z</time>
      </trkpt>
      <trkpt lat="49.17259" lon="-0.36362">
        <ele>7.85</ele>
        <time>2025-05-31T09:58:17.516Z</time>
      </trkpt>
      <trkpt lat="49.17237" lon="-0.36397">
        <ele>7.76</ele>
        <time>2025-05-31T09:58:21.261Z</time>
      </trkpt>
      <trkpt lat="49.17216" lon="-0.36432">
        <ele>7.7</ele>
        <time>2025-05-31T09:58:25.012Z</time>
      </trkpt>
      <trkpt lat="49.17209" lon="-0.36443">
        <ele>7.62</ele>
        <time>2025-05-31T09:58:28.764Z</time>
      </trkpt>
      <trkpt lat="49.17188" lon="-0.36478">
        <ele>7.5</ele>
        <time>2025-05-31T09:58:32.521Z</time>
      </trkpt>
      <trkpt lat="49.17185" lon="-0.36483">
        <ele>7.4</ele>
        <time>2025-05-31T09:58:36.279Z</time>
      </trkpt>
      <trkpt lat="49.17183" lon="-0.36501">
        <ele>7.31</ele>
        <time>2025-05-31T09:58:40.039Z</time>
      </trkpt>
      <trkpt lat="49.17178" lon="-0.36548">
        <ele>7.25</ele>
        <time>2025-05-31T09:58:43.804Z</time>
      </trkpt>
      <trkpt lat="49.17176" lon="-0.36564">
        <ele>7.14</ele>
        <time>2025-05-31T09:58:47.570Z</time>
      </trkpt>
      <trkpt lat="49.17171" lon="-0.36603">
        <ele>6.98</ele>
        <time>2025-05-31T09:58:51.341Z</time>
      </trkpt>
      <trkpt lat="49.1717" lon="-0.36619">
        <ele>6.87</ele>
        <time>2025-05-31T09:58:55.113Z</time>
      </trkpt>
      <trkpt lat="49.17156" lon="-0.36617">
        <ele>6.77</ele>
        <time>2025-05-31T09:58:58.888Z</time>
      </trkpt>
      <trkpt lat="49.1713" lon="-0.36615">
        <ele>6.73</ele>
        <time>2025-05-31T09:59:02.667Z</time>
      </trkpt>
      <trkpt lat="49.17126" lon="-0.36616">
        <ele>6.62</ele>
        <time>2025-05-31T09:59:06.446Z</time>
      </trkpt>
      <trkpt lat="49.17122" lon="-0.3662">
        <ele>6.51</ele>
        <time>2025-05-31T09:59:10.226Z</time>
      </trkpt>
      <trkpt lat="49.17106" lon="-0.36662">
        <ele>6.37</ele>
        <time>2025-05-31T09:59:14.011Z</time>
      </trkpt>
      <trkpt lat="49.17103" lon="-0.3667">
        <ele>6.26</ele>
        <time>2025-05-31T09:59:17.797Z</time>
      </trkpt>
      <trkpt lat="49.17089" lon="-0.36687">
        <ele>6.14</ele>
        <time>2025-05-31T09:59:21.586Z</time>
      </trkpt>
      <trkpt lat="49.17069" lon="-0.36702">
        <ele>6.02</ele>
        <time>2025-05-31T09:59:25.379Z</time>
      </trkpt>
      <trkpt lat="49.17061" lon="-0.36706">
        <ele>5.89</ele>
        <time>2025-05-31T09:59:29.173Z</time>
      </trkpt>
      <trkpt lat="49.17051" lon="-0.36707">
        <ele>5.76</ele>
        <time>2025-05-31T09:59:32.969Z</time>
      </trkpt>
      <trkpt lat="49.17029" lon="-0.36708">
        <ele>5.63</ele>
        <time>2025-05-31T09:59:36.768Z</time>
      </trkpt>
      <trkpt lat="49.17028" lon="-0.36709">
        <ele>5.5</ele>
        <time>2025-05-31T09:59:40.567Z</time>
      </trkpt>
      <trkpt lat="49.17027" lon="-0.36713">
        <ele>5.38</ele>
        <time>2025-05-31T09:59:44.367Z</time>
      </trkpt>
      <trkpt lat="49.17015" lon="-0.3671">
        <ele>5.26</ele>
        <time>2025-05-31T09:59:48.169Z</time>
      </trkpt>
      <trkpt lat="49.17002" lon="-0.36706">
        <ele>5.15</ele>
        <time>2025-05-31T09:59:51.973Z</time>
      </trkpt>
      <trkpt lat="49.16983" lon="-0.36695">
        <ele>5.02</ele>
        <time>2025-05-31T09:59:55.780Z</time>
      </trkpt>
      <trkpt lat="49.16974" lon="-0.36692">
        <ele>4.9</ele>
        <time>2025-05-31T09:59:59.589Z</time>
      </trkpt>
      <trkpt lat="49.16968" lon="-0.36693">
        <ele>4.79</ele>
        <time>2025-05-31T10:00:03.399Z</time>
      </trkpt>
      <trkpt lat="49.16961" lon="-0.36696">
        <ele>4.67</ele>
        <time>2025-05-31T10:00:07.210Z</time>
      </trkpt>
      <trkpt lat="49.16953" lon="-0.36705">
        <ele>4.56</ele>
        <time>2025-05-31T10:00:11.022Z</time>
      </trkpt>
      <trkpt lat="49.16934" lon="-0.36731">
        <ele>4.44</ele>
        <time>2025-05-31T10:00:14.838Z</time>
      </trkpt>
      <trkpt lat="49.16911" lon="-0.36763">
        <ele>4.35</ele>
        <time>2025-05-31T10:00:18.659Z</time>
      </trkpt>
      <trkpt lat="49.16887" lon="-0.36795">
        <ele>4.25</ele>
        <time>2025-05-31T10:00:22.485Z</time>
      </trkpt>
      <trkpt lat="49.16864" lon="-0.36827">
        <ele>4.06</ele>
        <time>2025-05-31T10:00:26.316Z</time>
      </trkpt>
      <trkpt lat="49.1684" lon="-0.36859">
        <ele>3.97</ele>
        <time>2025-05-31T10:00:30.153Z</time>
      </trkpt>
      <trkpt lat="49.16817" lon="-0.36892">
        <ele>3.99</ele>
        <time>2025-05-31T10:00:33.995Z</time>
      </trkpt>
      <trkpt lat="49.16794" lon="-0.36924">
        <ele>4.03</ele>
        <time>2025-05-31T10:00:37.842Z</time>
      </trkpt>
      <trkpt lat="49.1677" lon="-0.36956">
        <ele>4.02</ele>
        <time>2025-05-31T10:00:41.694Z</time>
      </trkpt>
      <trkpt lat="49.16747" lon="-0.36988">
        <ele>4.06</ele>
        <time>2025-05-31T10:00:45.551Z</time>
      </trkpt>
      <trkpt lat="49.16723" lon="-0.3702">
        <ele>4.1</ele>
        <time>2025-05-31T10:00:49.413Z</time>
      </trkpt>
      <trkpt lat="49.16722" lon="-0.37022">
        <ele>4.16</ele>
        <time>2025-05-31T10:00:53.275Z</time>
      </trkpt>
      <trkpt lat="49.16699" lon="-0.37054">
        <ele>4.19</ele>
        <time>2025-05-31T10:00:57.142Z</time>
      </trkpt>
      <trkpt lat="49.16675" lon="-0.37086">
        <ele>4.3</ele>
        <time>2025-05-31T10:01:01.014Z</time>
      </trkpt>
      <trkpt lat="49.16652" lon="-0.37118">
        <ele>4.55</ele>
        <time>2025-05-31T10:01:04.891Z</time>
      </trkpt>
      <trkpt lat="49.16628" lon="-0.3715">
        <ele>4.73</ele>
        <time>2025-05-31T10:01:08.773Z</time>
      </trkpt>
      <trkpt lat="49.16605" lon="-0.37182">
        <ele>4.79</ele>
        <time>2025-05-31T10:01:12.660Z</time>
      </trkpt>
      <trkpt lat="49.16604" lon="-0.37183">
        <ele>4.95</ele>
        <time>2025-05-31T10:01:16.547Z</time>
      </trkpt>
      <trkpt lat="49.16581" lon="-0.37215">
        <ele>5.05</ele>
        <time>2025-05-31T10:01:20.439Z</time>
      </trkpt>
      <trkpt lat="49.16557" lon="-0.37247">
        <ele>5.32</ele>
        <time>2025-05-31T10:01:24.336Z</time>
      </trkpt>
      <trkpt lat="49.16534" lon="-0.37279">
        <ele>5.64</ele>
        <time>2025-05-31T10:01:28.239Z</time>
      </trkpt>
      <trkpt lat="49.1651" lon="-0.37311">
        <ele>5.92</ele>
        <time>2025-05-31T10:01:32.147Z</time>
      </trkpt>
      <trkpt lat="49.16487" lon="-0.37343">
        <ele>6.17</ele>
        <time>2025-05-31T10:01:36.060Z</time>
      </trkpt>
      <trkpt lat="49.16464" lon="-0.37375">
        <ele>6.36</ele>
        <time>2025-05-31T10:01:39.978Z</time>
      </trkpt>
      <trkpt lat="49.1644" lon="-0.37407">
        <ele>6.66</ele>
        <time>2025-05-31T10:01:43.901Z</time>
      </trkpt>
      <trkpt lat="49.16417" lon="-0.3744">
        <ele>6.96</ele>
        <time>2025-05-31T10:01:47.829Z</time>
      </trkpt>
      <trkpt lat="49.16393" lon="-0.37472">
        <ele>7.23</ele>
        <time>2025-05-31T10:01:51.762Z</time>
      </trkpt>
      <trkpt lat="49.16385" lon="-0.37483">
        <ele>7.5</ele>
        <time>2025-05-31T10:01:55.697Z</time>
      </trkpt>
      <trkpt lat="49.16364" lon="-0.37519">
        <ele>7.76</ele>
        <time>2025-05-31T10:01:59.637Z</time>
      </trkpt>
      <trkpt lat="49.16355" lon="-0.37534">
        <ele>8.05</ele>
        <time>2025-05-31T10:02:03.579Z</time>
      </trkpt>
      <trkpt lat="49.16349" lon="-0.3755">
        <ele>8.35</ele>
        <time>2025-05-31T10:02:07.523Z</time>
      </trkpt>
      <trkpt lat="49.16342" lon="-0.37597">
        <ele>8.69</ele>
        <time>2025-05-31T10:02:11.472Z</time>
      </trkpt>
      <trkpt lat="49.1634" lon="-0.37615">
        <ele>8.99</ele>
        <time>2025-05-31T10:02:15.423Z</time>
      </trkpt>
      <trkpt lat="49.16336" lon="-0.37645">
        <ele>9.29</ele>
        <time>2025-05-31T10:02:19.377Z</time>
      </trkpt>
      <trkpt lat="49.16323" lon="-0.37688">
        <ele>9.64</ele>
        <time>2025-05-31T10:02:23.336Z</time>
      </trkpt>
      <trkpt lat="49.1632" lon="-0.37697">
        <ele>9.91</ele>
        <time>2025-05-31T10:02:27.296Z</time>
      </trkpt>
      <trkpt lat="49.16308" lon="-0.37722">
        <ele>10.17</ele>
        <time>2025-05-31T10:02:31.259Z</time>
      </trkpt>
      <trkpt lat="49.1629" lon="-0.37748">
        <ele>10.4</ele>
        <time>2025-05-31T10:02:35.226Z</time>
      </trkpt>
      <trkpt lat="49.16275" lon="-0.37761">
        <ele>10.57</ele>
        <time>2025-05-31T10:02:39.196Z</time>
      </trkpt>
      <trkpt lat="49.16256" lon="-0.37774">
        <ele>10.76</ele>
        <time>2025-05-31T10:02:43.169Z</time>
      </trkpt>
      <trkpt lat="49.16226" lon="-0.37787">
        <ele>10.97</ele>
        <time>2025-05-31T10:02:47.147Z</time>
      </trkpt>
      <trkpt lat="49.16195" lon="-0.378">
        <ele>11.21</ele>
        <time>2025-05-31T10:02:51.130Z</time>
      </trkpt>
      <trkpt lat="49.16195" lon="-0.378">
        <ele>11.37</ele>
        <time>2025-05-31T10:02:55.113Z</time>
      </trkpt>
      <trkpt lat="49.16165" lon="-0.37813">
        <ele>11.55</ele>
        <time>2025-05-31T10:02:59.101Z</time>
      </trkpt>
      <trkpt lat="49.16135" lon="-0.37827">
        <ele>11.61</ele>
        <time>2025-05-31T10:03:03.094Z</time>
      </trkpt>
      <trkpt lat="49.16104" lon="-0.3784">
        <ele>11.68</ele>
        <time>2025-05-31T10:03:07.092Z</time>
      </trkpt>
      <trkpt lat="49.16104" lon="-0.3784">
        <ele>11.78</ele>
        <time>2025-05-31T10:03:11.091Z</time>
      </trkpt>
      <trkpt lat="49.16074" lon="-0.37854">
        <ele>11.85</ele>
        <time>2025-05-31T10:03:15.095Z</time>
      </trkpt>
      <trkpt lat="49.16044" lon="-0.37867">
        <ele>11.89</ele>
        <time>2025-05-31T10:03:19.104Z</time>
      </trkpt>
      <trkpt lat="49.16013" lon="-0.37881">
        <ele>11.99</ele>
        <time>2025-05-31T10:03:23.118Z</time>
      </trkpt>
      <trkpt lat="49.15983" lon="-0.37894">
        <ele>12.09</ele>
        <time>2025-05-31T10:03:27.137Z</time>
      </trkpt>
      <trkpt lat="49.15953" lon="-0.37908">
        <ele>12.12</ele>
        <time>2025-05-31T10:03:31.161Z</time>
      </trkpt>
      <trkpt lat="49.15923" lon="-0.37921">
        <ele>12.09</ele>
        <time>2025-05-31T10:03:35.190Z</time>
      </trkpt>
      <trkpt lat="49.15921" lon="-0.37922">
        <ele>12.12</ele>
        <time>2025-05-31T10:03:39.219Z</time>
      </trkpt>
      <trkpt lat="49.15891" lon="-0.37936">
        <ele>12.07</ele>
        <time>2025-05-31T10:03:43.253Z</time>
      </trkpt>
      <trkpt lat="49.15861" lon="-0.37949">
        <ele>12.07</ele>
        <time>2025-05-31T10:03:47.292Z</time>
      </trkpt>
      <trkpt lat="49.15846" lon="-0.37956">
        <ele>12.1</ele>
        <time>2025-05-31T10:03:51.334Z</time>
      </trkpt>
      <trkpt lat="49.15823" lon="-0.3797">
        <ele>12.16</ele>
        <time>2025-05-31T10:03:55.380Z</time>
      </trkpt>
      <trkpt lat="49.15813" lon="-0.3798">
        <ele>12.16</ele>
        <time>2025-05-31T10:03:59.427Z</time>
      </trkpt>
      <trkpt lat="49.15796" lon="-0.38008">
        <ele>12.16</ele>
        <time>2025-05-31T10:04:03.478Z</time>
      </trkpt>
      <trkpt lat="49.15787" lon="-0.3804">
        <ele>12.14</ele>
        <time>2025-05-31T10:04:07.533Z</time>
      </trkpt>
      <trkpt lat="49.15785" lon="-0.38066">
        <ele>12.12</ele>
        <time>2025-05-31T10:04:11.591Z</time>
      </trkpt>
      <trkpt lat="49.15792" lon="-0.38113">
        <ele>12.11</ele>
        <time>2025-05-31T10:04:15.654Z</time>
      </trkpt>
      <trkpt lat="49.15796" lon="-0.38138">
        <ele>12.09</ele>
        <time>2025-05-31T10:04:19.720Z</time>
      </trkpt>
      <trkpt lat="49.15805" lon="-0.38184">
        <ele>11.99</ele>
        <time>2025-05-31T10:04:23.791Z</time>
      </trkpt>
      <trkpt lat="49.15813" lon="-0.3823">
        <ele>11.9</ele>
        <time>2025-05-31T10:04:27.867Z</time>
      </trkpt>
      <trkpt lat="49.15822" lon="-0.38276">
        <ele>11.93</ele>
        <time>2025-05-31T10:04:31.948Z</time>
      </trkpt>
      <trkpt lat="49.1583" lon="-0.38323">
        <ele>11.91</ele>
        <time>2025-05-31T10:04:36.034Z</time>
      </trkpt>
      <trkpt lat="49.15839" lon="-0.38369">
        <ele>11.93</ele>
        <time>2025-05-31T10:04:40.125Z</time>
      </trkpt>
      <trkpt lat="49.15848" lon="-0.38415">
        <ele>11.91</ele>
        <time>2025-05-31T10:04:44.221Z</time>
      </trkpt>
      <trkpt lat="49.15856" lon="-0.38461">
        <ele>11.91</ele>
        <time>2025-05-31T10:04:48.322Z</time>
      </trkpt>
      <trkpt lat="49.15865" lon="-0.38507">
        <ele>11.78</ele>
        <time>2025-05-31T10:04:52.428Z</time>
      </trkpt>
      <trkpt lat="49.15873" lon="-0.38553">
        <ele>11.63</ele>
        <time>2025-05-31T10:04:56.539Z</time>
      </trkpt>
      <trkpt lat="49.15882" lon="-0.386">
        <ele>11.48</ele>
        <time>2025-05-31T10:05:00.655Z</time>
      </trkpt>
      <trkpt lat="49.15887" lon="-0.38626">
        <ele>11.36</ele>
        <time>2025-05-31T10:05:04.774Z</time>
      </trkpt>
      <trkpt lat="49.15895" lon="-0.38667">
        <ele>11.22</ele>
        <time>2025-05-31T10:05:08.897Z</time>
      </trkpt>
      <trkpt lat="49.15898" lon="-0.38673">
        <ele>11.05</ele>
        <time>2025-05-31T10:05:13.021Z</time>
      </trkpt>
      <trkpt lat="49.15907" lon="-0.38713">
        <ele>10.82</ele>
        <time>2025-05-31T10:05:17.150Z</time>
      </trkpt>
      <trkpt lat="49.1591" lon="-0.3873">
        <ele>10.57</ele>
        <time>2025-05-31T10:05:21.281Z</time>
      </trkpt>
      <trkpt lat="49.15905" lon="-0.38732">
        <ele>10.34</ele>
        <time>2025-05-31T10:05:25.412Z</time>
      </trkpt>
      <trkpt lat="49.15874" lon="-0.3874">
        <ele>10.02</ele>
        <time>2025-05-31T10:05:29.548Z</time>
      </trkpt>
      <trkpt lat="49.15867" lon="-0.38742">
        <ele>9.74</ele>
        <time>2025-05-31T10:05:33.686Z</time>
      </trkpt>
      <trkpt lat="49.15837" lon="-0.38759">
        <ele>9.42</ele>
        <time>2025-05-31T10:05:37.829Z</time>
      </trkpt>
      <trkpt lat="49.15837" lon="-0.38759">
        <ele>9.15</ele>
        <time>2025-05-31T10:05:41.972Z</time>
      </trkpt>
      <trkpt lat="49.15811" lon="-0.38785">
        <ele>8.85</ele>
        <time>2025-05-31T10:05:46.120Z</time>
      </trkpt>
      <trkpt lat="49.158" lon="-0.38796">
        <ele>8.56</ele>
        <time>2025-05-31T10:05:50.270Z</time>
      </trkpt>
      <trkpt lat="49.15774" lon="-0.38823">
        <ele>8.29</ele>
        <time>2025-05-31T10:05:54.425Z</time>
      </trkpt>
      <trkpt lat="49.15768" lon="-0.3883">
        <ele>8.02</ele>
        <time>2025-05-31T10:05:58.581Z</time>
      </trkpt>
      <trkpt lat="49.15741" lon="-0.38855">
        <ele>7.81</ele>
        <time>2025-05-31T10:06:02.742Z</time>
      </trkpt>
      <trkpt lat="49.1572" lon="-0.38874">
        <ele>7.56</ele>
        <time>2025-05-31T10:06:06.907Z</time>
      </trkpt>
      <trkpt lat="49.15702" lon="-0.38893">
        <ele>7.31</ele>
        <time>2025-05-31T10:06:11.075Z</time>
      </trkpt>
      <trkpt lat="49.15698" lon="-0.38899">
        <ele>7.08</ele>
        <time>2025-05-31T10:06:15.244Z</time>
      </trkpt>
      <trkpt lat="49.157" lon="-0.38918">
        <ele>6.85</ele>
        <time>2025-05-31T10:06:19.415Z</time>
      </trkpt>
      <trkpt lat="49.15698" lon="-0.38945">
        <ele>6.65</ele>
        <time>2025-05-31T10:06:23.589Z</time>
      </trkpt>
      <trkpt lat="49.15692" lon="-0.38978">
        <ele>6.45</ele>
        <time>2025-05-31T10:06:27.767Z</time>
      </trkpt>
      <trkpt lat="49.1568" lon="-0.39023">
        <ele>6.28</ele>
        <time>2025-05-31T10:06:31.950Z</time>
      </trkpt>
      <trkpt lat="49.15671" lon="-0.39058">
        <ele>6.18</ele>
        <time>2025-05-31T10:06:36.137Z</time>
      </trkpt>
      <trkpt lat="49.15656" lon="-0.391">
        <ele>6.08</ele>
        <time>2025-05-31T10:06:40.329Z</time>
      </trkpt>
      <trkpt lat="49.15642" lon="-0.39143">
        <ele>6</ele>
        <time>2025-05-31T10:06:44.526Z</time>
      </trkpt>
      <trkpt lat="49.15637" lon="-0.39156">
        <ele>5.95</ele>
        <time>2025-05-31T10:06:48.725Z</time>
      </trkpt>
      <trkpt lat="49.15633" lon="-0.39173">
        <ele>5.93</ele>
        <time>2025-05-31T10:06:52.925Z</time>
      </trkpt>
      <trkpt lat="49.15635" lon="-0.39174">
        <ele>5.93</ele>
        <time>2025-05-31T10:06:57.126Z</time>
      </trkpt>
      <trkpt lat="49.15638" lon="-0.3918">
        <ele>5.97</ele>
        <time>2025-05-31T10:07:01.328Z</time>
      </trkpt>
      <trkpt lat="49.15637" lon="-0.39187">
        <ele>6.04</ele>
        <time>2025-05-31T10:07:05.530Z</time>
      </trkpt>
      <trkpt lat="49.15633" lon="-0.3919">
        <ele>6.15</ele>
        <time>2025-05-31T10:07:09.733Z</time>
      </trkpt>
      <trkpt lat="49.15629" lon="-0.39187">
        <ele>6.29</ele>
        <time>2025-05-31T10:07:13.937Z</time>
      </trkpt>
      <trkpt lat="49.15628" lon="-0.39186">
        <ele>6.47</ele>
        <time>2025-05-31T10:07:18.141Z</time>
      </trkpt>
      <trkpt lat="49.15625" lon="-0.39188">
        <ele>6.69</ele>
        <time>2025-05-31T10:07:22.345Z</time>
      </trkpt>
      <trkpt lat="49.15621" lon="-0.39194">
        <ele>6.95</ele>
        <time>2025-05-31T10:07:26.550Z</time>
      </trkpt>
      <trkpt lat="49.15602" lon="-0.39233">
        <ele>7.24</ele>
        <time>2025-05-31T10:07:30.760Z</time>
      </trkpt>
      <trkpt lat="49.15586" lon="-0.39266">
        <ele>7.57</ele>
        <time>2025-05-31T10:07:34.975Z</time>
      </trkpt>
      <trkpt lat="49.15575" lon="-0.3929">
        <ele>7.95</ele>
        <time>2025-05-31T10:07:39.193Z</time>
      </trkpt>
      <trkpt lat="49.15562" lon="-0.39333">
        <ele>8.4</ele>
        <time>2025-05-31T10:07:43.416Z</time>
      </trkpt>
      <trkpt lat="49.15561" lon="-0.39335">
        <ele>8.85</ele>
        <time>2025-05-31T10:07:47.639Z</time>
      </trkpt>
      <trkpt lat="49.15548" lon="-0.3937">
        <ele>9.34</ele>
        <time>2025-05-31T10:07:51.866Z</time>
      </trkpt>
      <trkpt lat="49.15531" lon="-0.3941">
        <ele>9.89</ele>
        <time>2025-05-31T10:07:56.098Z</time>
      </trkpt>
      <trkpt lat="49.15526" lon="-0.39421">
        <ele>10.45</ele>
        <time>2025-05-31T10:08:00.332Z</time>
      </trkpt>
      <trkpt lat="49.15507" lon="-0.3946">
        <ele>11.09</ele>
        <time>2025-05-31T10:08:04.571Z</time>
      </trkpt>
      <trkpt lat="49.15505" lon="-0.39465">
        <ele>11.72</ele>
        <time>2025-05-31T10:08:08.810Z</time>
      </trkpt>
      <trkpt lat="49.15485" lon="-0.39502">
        <ele>12.39</ele>
        <time>2025-05-31T10:08:13.054Z</time>
      </trkpt>
      <trkpt lat="49.15465" lon="-0.39538">
        <ele>13.11</ele>
        <time>2025-05-31T10:08:17.303Z</time>
      </trkpt>
      <trkpt lat="49.15445" lon="-0.39575">
        <ele>13.9</ele>
        <time>2025-05-31T10:08:21.557Z</time>
      </trkpt>
      <trkpt lat="49.15425" lon="-0.39612">
        <ele>14.68</ele>
        <time>2025-05-31T10:08:25.816Z</time>
      </trkpt>
      <trkpt lat="49.15405" lon="-0.39649">
        <ele>15.47</ele>
        <time>2025-05-31T10:08:30.081Z</time>
      </trkpt>
      <trkpt lat="49.15391" lon="-0.39675">
        <ele>16.22</ele>
        <time>2025-05-31T10:08:34.349Z</time>
      </trkpt>
      <trkpt lat="49.15371" lon="-0.39712">
        <ele>16.99</ele>
        <time>2025-05-31T10:08:38.622Z</time>
      </trkpt>
      <trkpt lat="49.15355" lon="-0.39742">
        <ele>17.8</ele>
        <time>2025-05-31T10:08:42.899Z</time>
      </trkpt>
      <trkpt lat="49.15336" lon="-0.3978">
        <ele>18.64</ele>
        <time>2025-05-31T10:08:47.181Z</time>
      </trkpt>
      <trkpt lat="49.15316" lon="-0.39817">
        <ele>19.49</ele>
        <time>2025-05-31T10:08:51.468Z</time>
      </trkpt>
      <trkpt lat="49.15306" lon="-0.39837">
        <ele>20.33</ele>
        <time>2025-05-31T10:08:55.758Z</time>
      </trkpt>
      <trkpt lat="49.15288" lon="-0.39876">
        <ele>21.21</ele>
        <time>2025-05-31T10:09:00.053Z</time>
      </trkpt>
      <trkpt lat="49.15269" lon="-0.39915">
        <ele>22</ele>
        <time>2025-05-31T10:09:04.353Z</time>
      </trkpt>
      <trkpt lat="49.15269" lon="-0.39916">
        <ele>22.75</ele>
        <time>2025-05-31T10:09:08.653Z</time>
      </trkpt>
      <trkpt lat="49.15251" lon="-0.39955">
        <ele>23.5</ele>
        <time>2025-05-31T10:09:12.958Z</time>
      </trkpt>
      <trkpt lat="49.15233" lon="-0.39994">
        <ele>24.24</ele>
        <time>2025-05-31T10:09:17.268Z</time>
      </trkpt>
      <trkpt lat="49.15214" lon="-0.40033">
        <ele>24.93</ele>
        <time>2025-05-31T10:09:21.583Z</time>
      </trkpt>
      <trkpt lat="49.15209" lon="-0.40045">
        <ele>25.62</ele>
        <time>2025-05-31T10:09:25.900Z</time>
      </trkpt>
      <trkpt lat="49.15208" lon="-0.4005">
        <ele>26.26</ele>
        <time>2025-05-31T10:09:30.217Z</time>
      </trkpt>
      <trkpt lat="49.15208" lon="-0.40053">
        <ele>26.88</ele>
        <time>2025-05-31T10:09:34.535Z</time>
      </trkpt>
      <trkpt lat="49.15201" lon="-0.40055">
        <ele>27.49</ele>
        <time>2025-05-31T10:09:38.854Z</time>
      </trkpt>
      <trkpt lat="49.15175" lon="-0.40064">
        <ele>28.12</ele>
        <time>2025-05-31T10:09:43.177Z</time>
      </trkpt>
      <trkpt lat="49.15168" lon="-0.40066">
        <ele>28.66</ele>
        <time>2025-05-31T10:09:47.501Z</time>
      </trkpt>
      <trkpt lat="49.15138" lon="-0.40079">
        <ele>29.18</ele>
        <time>2025-05-31T10:09:51.830Z</time>
      </trkpt>
      <trkpt lat="49.15121" lon="-0.40086">
        <ele>29.65</ele>
        <time>2025-05-31T10:09:56.162Z</time>
      </trkpt>
      <trkpt lat="49.15091" lon="-0.40101">
        <ele>30.07</ele>
        <time>2025-05-31T10:10:00.499Z</time>
      </trkpt>
      <trkpt lat="49.1507" lon="-0.40112">
        <ele>30.44</ele>
        <time>2025-05-31T10:10:04.840Z</time>
      </trkpt>
      <trkpt lat="49.15041" lon="-0.40131">
        <ele>30.83</ele>
        <time>2025-05-31T10:10:09.186Z</time>
      </trkpt>
      <trkpt lat="49.15037" lon="-0.40134">
        <ele>31.13</ele>
        <time>2025-05-31T10:10:13.532Z</time>
      </trkpt>
      <trkpt lat="49.15008" lon="-0.40153">
        <ele>31.42</ele>
        <time>2025-05-31T10:10:17.883Z</time>
      </trkpt>
      <trkpt lat="49.14979" lon="-0.40173">
        <ele>31.7</ele>
        <time>2025-05-31T10:10:22.239Z</time>
      </trkpt>
      <trkpt lat="49.14951" lon="-0.40192">
        <ele>31.94</ele>
        <time>2025-05-31T10:10:26.600Z</time>
      </trkpt>
      <trkpt lat="49.14935" lon="-0.40203">
        <ele>32.09</ele>
        <time>2025-05-31T10:10:30.964Z</time>
      </trkpt>
      <trkpt lat="49.14906" lon="-0.40222">
        <ele>32.15</ele>
        <time>2025-05-31T10:10:35.333Z</time>
      </trkpt>
      <trkpt lat="49.14877" lon="-0.40241">
        <ele>32.18</ele>
        <time>2025-05-31T10:10:39.707Z</time>
      </trkpt>
      <trkpt lat="49.14848" lon="-0.4026">
        <ele>32.18</ele>
        <time>2025-05-31T10:10:44.086Z</time>
      </trkpt>
      <trkpt lat="49.1482" lon="-0.4028">
        <ele>32.15</ele>
        <time>2025-05-31T10:10:48.470Z</time>
      </trkpt>
      <trkpt lat="49.14801" lon="-0.40292">
        <ele>32.15</ele>
        <time>2025-05-31T10:10:52.858Z</time>
      </trkpt>
      <trkpt lat="49.14772" lon="-0.4031">
        <ele>32.16</ele>
        <time>2025-05-31T10:10:57.251Z</time>
      </trkpt>
      <trkpt lat="49.14743" lon="-0.40328">
        <ele>32.1</ele>
        <time>2025-05-31T10:11:01.649Z</time>
      </trkpt>
      <trkpt lat="49.14713" lon="-0.40345">
        <ele>31.97</ele>
        <time>2025-05-31T10:11:06.052Z</time>
      </trkpt>
      <trkpt lat="49.14686" lon="-0.40362">
        <ele>31.83</ele>
        <time>2025-05-31T10:11:10.459Z</time>
      </trkpt>
      <trkpt lat="49.14657" lon="-0.4038">
        <ele>31.7</ele>
        <time>2025-05-31T10:11:14.871Z</time>
      </trkpt>
      <trkpt lat="49.14628" lon="-0.40398">
        <ele>31.54</ele>
        <time>2025-05-31T10:11:19.288Z</time>
      </trkpt>
      <trkpt lat="49.14598" lon="-0.40416">
        <ele>31.38</ele>
        <time>2025-05-31T10:11:23.710Z</time>
      </trkpt>
      <trkpt lat="49.14569" lon="-0.40433">
        <ele>31.26</ele>
        <time>2025-05-31T10:11:28.138Z</time>
      </trkpt>
      <trkpt lat="49.1454" lon="-0.40451">
        <ele>31.15</ele>
        <time>2025-05-31T10:11:32.571Z</time>
      </trkpt>
      <trkpt lat="49.14511" lon="-0.40469">
        <ele>30.99</ele>
        <time>2025-05-31T10:11:37.009Z</time>
      </trkpt>
      <trkpt lat="49.14482" lon="-0.40487">
        <ele>30.77</ele>
        <time>2025-05-31T10:11:41.452Z</time>
      </trkpt>
      <trkpt lat="49.14452" lon="-0.40505">
        <ele>30.55</ele>
        <time>2025-05-31T10:11:45.900Z</time>
      </trkpt>
      <trkpt lat="49.14423" lon="-0.40523">
        <ele>30.4</ele>
        <time>2025-05-31T10:11:50.353Z</time>
      </trkpt>
      <trkpt lat="49.14416" lon="-0.40527">
        <ele>30.28</ele>
        <time>2025-05-31T10:11:54.807Z</time>
      </trkpt>
      <trkpt lat="49.14387" lon="-0.40544">
        <ele>30.23</ele>
        <time>2025-05-31T10:11:59.266Z</time>
      </trkpt>
      <trkpt lat="49.14357" lon="-0.40562">
        <ele>30.12</ele>
        <time>2025-05-31T10:12:03.730Z</time>
      </trkpt>
      <trkpt lat="49.14348" lon="-0.40567">
        <ele>30</ele>
        <time>2025-05-31T10:12:08.196Z</time>
      </trkpt>
      <trkpt lat="49.14323" lon="-0.40576">
        <ele>29.86</ele>
        <time>2025-05-31T10:12:12.666Z</time>
      </trkpt>
      <trkpt lat="49.14301" lon="-0.40581">
        <ele>29.76</ele>
        <time>2025-05-31T10:12:17.139Z</time>
      </trkpt>
      <trkpt lat="49.14272" lon="-0.40584">
        <ele>29.7</ele>
        <time>2025-05-31T10:12:21.617Z</time>
      </trkpt>
      <trkpt lat="49.14241" lon="-0.40585">
        <ele>29.66</ele>
        <time>2025-05-31T10:12:26.100Z</time>
      </trkpt>
      <trkpt lat="49.14232" lon="-0.40585">
        <ele>29.65</ele>
        <time>2025-05-31T10:12:30.584Z</time>
      </trkpt>
      <trkpt lat="49.14201" lon="-0.40588">
        <ele>29.69</ele>
        <time>2025-05-31T10:12:35.073Z</time>
      </trkpt>
      <trkpt lat="49.14196" lon="-0.40589">
        <ele>29.71</ele>
        <time>2025-05-31T10:12:39.563Z</time>
      </trkpt>
      <trkpt lat="49.14165" lon="-0.40596">
        <ele>29.76</ele>
        <time>2025-05-31T10:12:44.058Z</time>
      </trkpt>
      <trkpt lat="49.14147" lon="-0.406">
        <ele>29.85</ele>
        <time>2025-05-31T10:12:48.556Z</time>
      </trkpt>
      <trkpt lat="49.14116" lon="-0.40611">
        <ele>29.95</ele>
        <time>2025-05-31T10:12:53.059Z</time>
      </trkpt>
      <trkpt lat="49.14086" lon="-0.40623">
        <ele>30.03</ele>
        <time>2025-05-31T10:12:57.567Z</time>
      </trkpt>
      <trkpt lat="49.14055" lon="-0.40634">
        <ele>30.17</ele>
        <time>2025-05-31T10:13:02.080Z</time>
      </trkpt>
      <trkpt lat="49.14038" lon="-0.40641">
        <ele>30.33</ele>
        <time>2025-05-31T10:13:06.596Z</time>
      </trkpt>
      <trkpt lat="49.14007" lon="-0.40652">
        <ele>30.53</ele>
        <time>2025-05-31T10:13:11.117Z</time>
      </trkpt>
      <trkpt lat="49.14003" lon="-0.40654">
        <ele>30.71</ele>
        <time>2025-05-31T10:13:15.639Z</time>
      </trkpt>
      <trkpt lat="49.13979" lon="-0.40667">
        <ele>30.92</ele>
        <time>2025-05-31T10:13:20.165Z</time>
      </trkpt>
      <trkpt lat="49.13959" lon="-0.40684">
        <ele>31.15</ele>
        <time>2025-05-31T10:13:24.695Z</time>
      </trkpt>
      <trkpt lat="49.13933" lon="-0.40711">
        <ele>31.38</ele>
        <time>2025-05-31T10:13:29.230Z</time>
      </trkpt>
      <trkpt lat="49.13907" lon="-0.40739">
        <ele>31.57</ele>
        <time>2025-05-31T10:13:33.770Z</time>
      </trkpt>
      <trkpt lat="49.13897" lon="-0.4075">
        <ele>31.8</ele>
        <time>2025-05-31T10:13:38.312Z</time>
      </trkpt>
      <trkpt lat="49.13871" lon="-0.40778">
        <ele>32.07</ele>
        <time>2025-05-31T10:13:42.859Z</time>
      </trkpt>
      <trkpt lat="49.13862" lon="-0.40788">
        <ele>32.35</ele>
        <time>2025-05-31T10:13:47.408Z</time>
      </trkpt>
      <trkpt lat="49.13836" lon="-0.40816">
        <ele>32.63</ele>
        <time>2025-05-31T10:13:51.962Z</time>
      </trkpt>
      <trkpt lat="49.13811" lon="-0.40844">
        <ele>32.94</ele>
        <time>2025-05-31T10:13:56.521Z</time>
      </trkpt>
      <trkpt lat="49.13785" lon="-0.40872">
        <ele>33.32</ele>
        <time>2025-05-31T10:14:01.085Z</time>
      </trkpt>
      <trkpt lat="49.1376" lon="-0.409">
        <ele>33.66</ele>
        <time>2025-05-31T10:14:05.654Z</time>
      </trkpt>
      <trkpt lat="49.13734" lon="-0.40928">
        <ele>33.97</ele>
        <time>2025-05-31T10:14:10.228Z</time>
      </trkpt>
      <trkpt lat="49.13709" lon="-0.40956">
        <ele>34.32</ele>
        <time>2025-05-31T10:14:14.807Z</time>
      </trkpt>
      <trkpt lat="49.13683" lon="-0.40984">
        <ele>34.65</ele>
        <time>2025-05-31T10:14:19.391Z</time>
      </trkpt>
      <trkpt lat="49.13658" lon="-0.41012">
        <ele>35.03</ele>
        <time>2025-05-31T10:14:23.980Z</time>
      </trkpt>
      <trkpt lat="49.13632" lon="-0.4104">
        <ele>35.38</ele>
        <time>2025-05-31T10:14:28.574Z</time>
      </trkpt>
      <trkpt lat="49.13607" lon="-0.41068">
        <ele>35.7</ele>
        <time>2025-05-31T10:14:33.173Z</time>
      </trkpt>
      <trkpt lat="49.13581" lon="-0.41096">
        <ele>36.08</ele>
        <time>2025-05-31T10:14:37.777Z</time>
      </trkpt>
      <trkpt lat="49.13555" lon="-0.41124">
        <ele>36.49</ele>
        <time>2025-05-31T10:14:42.386Z</time>
      </trkpt>
      <trkpt lat="49.13531" lon="-0.41151">
        <ele>36.88</ele>
        <time>2025-05-31T10:14:47.000Z</time>
      </trkpt>
      <trkpt lat="49.13507" lon="-0.41181">
        <ele>37.25</ele>
        <time>2025-05-31T10:14:51.619Z</time>
      </trkpt>
      <trkpt lat="49.13506" lon="-0.41182">
        <ele>37.64</ele>
        <time>2025-05-31T10:14:56.238Z</time>
      </trkpt>
      <trkpt lat="49.13484" lon="-0.41212">
        <ele>38.02</ele>
        <time>2025-05-31T10:15:00.862Z</time>
      </trkpt>
      <trkpt lat="49.13462" lon="-0.41247">
        <ele>38.43</ele>
        <time>2025-05-31T10:15:05.491Z</time>
      </trkpt>
      <trkpt lat="49.1346" lon="-0.41251">
        <ele>38.87</ele>
        <time>2025-05-31T10:15:10.120Z</time>
      </trkpt>
      <trkpt lat="49.13447" lon="-0.4127">
        <ele>39.35</ele>
        <time>2025-05-31T10:15:14.752Z</time>
      </trkpt>
      <trkpt lat="49.13438" lon="-0.41279">
        <ele>39.82</ele>
        <time>2025-05-31T10:15:19.386Z</time>
      </trkpt>
      <trkpt lat="49.1344" lon="-0.41282">
        <ele>40.27</ele>
        <time>2025-05-31T10:15:24.020Z</time>
      </trkpt>
      <trkpt lat="49.13442" lon="-0.41286">
        <ele>40.73</ele>
        <time>2025-05-31T10:15:28.655Z</time>
      </trkpt>
      <trkpt lat="49.13444" lon="-0.41296">
        <ele>41.21</ele>
        <time>2025-05-31T10:15:33.291Z</time>
      </trkpt>
      <trkpt lat="49.13443" lon="-0.41306">
        <ele>41.71</ele>
        <time>2025-05-31T10:15:37.928Z</time>
      </trkpt>
      <trkpt lat="49.13442" lon="-0.41309">
        <ele>42.21</ele>
        <time>2025-05-31T10:15:42.565Z</time>
      </trkpt>
      <trkpt lat="49.13446" lon="-0.41313">
        <ele>42.73</ele>
        <time>2025-05-31T10:15:47.203Z</time>
      </trkpt>
      <trkpt lat="49.13472" lon="-0.41341">
        <ele>43.2</ele>
        <time>2025-05-31T10:15:51.846Z</time>
      </trkpt>
      <trkpt lat="49.13497" lon="-0.41368">
        <ele>43.71</ele>
        <time>2025-05-31T10:15:56.494Z</time>
      </trkpt>
      <trkpt lat="49.1352" lon="-0.414">
        <ele>44.31</ele>
        <time>2025-05-31T10:16:01.147Z</time>
      </trkpt>
      <trkpt lat="49.13544" lon="-0.41432">
        <ele>44.99</ele>
        <time>2025-05-31T10:16:05.805Z</time>
      </trkpt>
      <trkpt lat="49.13567" lon="-0.41464">
        <ele>45.57</ele>
        <time>2025-05-31T10:16:10.468Z</time>
      </trkpt>
      <trkpt lat="49.13591" lon="-0.41496">
        <ele>46.1</ele>
        <time>2025-05-31T10:16:15.136Z</time>
      </trkpt>
      <trkpt lat="49.13614" lon="-0.41528">
        <ele>46.69</ele>
        <time>2025-05-31T10:16:19.809Z</time>
      </trkpt>
      <trkpt lat="49.13616" lon="-0.41531">
        <ele>47.22</ele>
        <time>2025-05-31T10:16:24.483Z</time>
      </trkpt>
      <trkpt lat="49.13639" lon="-0.41564">
        <ele>47.78</ele>
        <time>2025-05-31T10:16:29.162Z</time>
      </trkpt>
      <trkpt lat="49.13662" lon="-0.41596">
        <ele>48.32</ele>
        <time>2025-05-31T10:16:33.846Z</time>
      </trkpt>
      <trkpt lat="49.13665" lon="-0.416">
        <ele>48.83</ele>
        <time>2025-05-31T10:16:38.531Z</time>
      </trkpt>
      <trkpt lat="49.13688" lon="-0.41632">
        <ele>49.33</ele>
        <time>2025-05-31T10:16:43.221Z</time>
      </trkpt>
      <trkpt lat="49.13712" lon="-0.41665">
        <ele>49.85</ele>
        <time>2025-05-31T10:16:47.916Z</time>
      </trkpt>
      <trkpt lat="49.13735" lon="-0.41697">
        <ele>50.32</ele>
        <time>2025-05-31T10:16:52.616Z</time>
      </trkpt>
      <trkpt lat="49.13758" lon="-0.41729">
        <ele>50.81</ele>
        <time>2025-05-31T10:16:57.321Z</time>
      </trkpt>
      <trkpt lat="49.13781" lon="-0.41761">
        <ele>51.25</ele>
        <time>2025-05-31T10:17:02.031Z</time>
      </trkpt>
      <trkpt lat="49.13805" lon="-0.41794">
        <ele>51.66</ele>
        <time>2025-05-31T10:17:06.746Z</time>
      </trkpt>
      <trkpt lat="49.13828" lon="-0.41826">
        <ele>52.07</ele>
        <time>2025-05-31T10:17:11.466Z</time>
      </trkpt>
      <trkpt lat="49.13851" lon="-0.41858">
        <ele>52.44</ele>
        <time>2025-05-31T10:17:16.191Z</time>
      </trkpt>
      <trkpt lat="49.13874" lon="-0.4189">
        <ele>52.76</ele>
        <time>2025-05-31T10:17:20.921Z</time>
      </trkpt>
      <trkpt lat="49.13898" lon="-0.41922">
        <ele>53.08</ele>
        <time>2025-05-31T10:17:25.656Z</time>
      </trkpt>
      <trkpt lat="49.13921" lon="-0.41954">
        <ele>53.34</ele>
        <time>2025-05-31T10:17:30.396Z</time>
      </trkpt>
      <trkpt lat="49.13945" lon="-0.41986">
        <ele>53.6</ele>
        <time>2025-05-31T10:17:35.141Z</time>
      </trkpt>
      <trkpt lat="49.13968" lon="-0.42018">
        <ele>53.78</ele>
        <time>2025-05-31T10:17:39.891Z</time>
      </trkpt>
      <trkpt lat="49.13972" lon="-0.42024">
        <ele>53.92</ele>
        <time>2025-05-31T10:17:44.642Z</time>
      </trkpt>
      <trkpt lat="49.13997" lon="-0.42053">
        <ele>54.03</ele>
        <time>2025-05-31T10:17:49.398Z</time>
      </trkpt>
      <trkpt lat="49.14006" lon="-0.42063">
        <ele>54.12</ele>
        <time>2025-05-31T10:17:54.156Z</time>
      </trkpt>
      <trkpt lat="49.14021" lon="-0.42071">
        <ele>54.19</ele>
        <time>2025-05-31T10:17:58.916Z</time>
      </trkpt>
      <trkpt lat="49.14026" lon="-0.4207">
        <ele>54.23</ele>
        <time>2025-05-31T10:18:03.677Z</time>
      </trkpt>
      <trkpt lat="49.14032" lon="-0.42071">
        <ele>54.24</ele>
        <time>2025-05-31T10:18:08.439Z</time>
      </trkpt>
      <trkpt lat="49.14039" lon="-0.42077">
        <ele>54.22</ele>
        <time>2025-05-31T10:18:13.202Z</time>
      </trkpt>
      <trkpt lat="49.14043" lon="-0.42084">
        <ele>54.18</ele>
        <time>2025-05-31T10:18:17.966Z</time>
      </trkpt>
      <trkpt lat="49.14044" lon="-0.42092">
        <ele>54.12</ele>
        <time>2025-05-31T10:18:22.731Z</time>
      </trkpt>
      <trkpt lat="49.14044" lon="-0.421">
        <ele>54.03</ele>
        <time>2025-05-31T10:18:27.497Z</time>
      </trkpt>
      <trkpt lat="49.14053" lon="-0.42132">
        <ele>53.92</ele>
        <time>2025-05-31T10:18:32.267Z</time>
      </trkpt>
      <trkpt lat="49.14076" lon="-0.42165">
        <ele>53.77</ele>
        <time>2025-05-31T10:18:37.042Z</time>
      </trkpt>
      <trkpt lat="49.14081" lon="-0.42173">
        <ele>53.64</ele>
        <time>2025-05-31T10:18:41.818Z</time>
      </trkpt>
      <trkpt lat="49.14104" lon="-0.42205">
        <ele>53.53</ele>
        <time>2025-05-31T10:18:46.599Z</time>
      </trkpt>
      <trkpt lat="49.14128" lon="-0.42237">
        <ele>53.33</ele>
        <time>2025-05-31T10:18:51.385Z</time>
      </trkpt>
      <trkpt lat="49.14151" lon="-0.42269">
        <ele>53.11</ele>
        <time>2025-05-31T10:18:56.176Z</time>
      </trkpt>
      <trkpt lat="49.14166" lon="-0.42289">
        <ele>52.9</ele>
        <time>2025-05-31T10:19:00.970Z</time>
      </trkpt>
      <trkpt lat="49.1419" lon="-0.42321">
        <ele>52.7</ele>
        <time>2025-05-31T10:19:05.769Z</time>
      </trkpt>
      <trkpt lat="49.1421" lon="-0.42348">
        <ele>52.49</ele>
        <time>2025-05-31T10:19:10.573Z</time>
      </trkpt>
      <trkpt lat="49.1422" lon="-0.42358">
        <ele>52.31</ele>
        <time>2025-05-31T10:19:15.378Z</time>
      </trkpt>
      <trkpt lat="49.14224" lon="-0.42363">
        <ele>52.11</ele>
        <time>2025-05-31T10:19:20.184Z</time>
      </trkpt>
      <trkpt lat="49.14227" lon="-0.42363">
        <ele>51.91</ele>
        <time>2025-05-31T10:19:24.991Z</time>
      </trkpt>
      <trkpt lat="49.14234" lon="-0.42366">
        <ele>51.72</ele>
        <time>2025-05-31T10:19:29.799Z</time>
      </trkpt>
      <trkpt lat="49.14239" lon="-0.42371">
        <ele>51.53</ele>
        <time>2025-05-31T10:19:34.608Z</time>
      </trkpt>
      <trkpt lat="49.14242" lon="-0.4238">
        <ele>51.35</ele>
        <time>2025-05-31T10:19:39.418Z</time>
      </trkpt>
      <trkpt lat="49.14243" lon="-0.42401">
        <ele>51.17</ele>
        <time>2025-05-31T10:19:44.230Z</time>
      </trkpt>
      <trkpt lat="49.1424" lon="-0.42412">
        <ele>50.98</ele>
        <time>2025-05-31T10:19:49.043Z</time>
      </trkpt>
      <trkpt lat="49.14239" lon="-0.42416">
        <ele>50.79</ele>
        <time>2025-05-31T10:19:53.857Z</time>
      </trkpt>
      <trkpt lat="49.14241" lon="-0.42424">
        <ele>50.61</ele>
        <time>2025-05-31T10:19:58.672Z</time>
      </trkpt>
      <trkpt lat="49.14242" lon="-0.4243">
        <ele>50.43</ele>
        <time>2025-05-31T10:20:03.487Z</time>
      </trkpt>
      <trkpt lat="49.14246" lon="-0.42441">
        <ele>50.26</ele>
        <time>2025-05-31T10:20:08.304Z</time>
      </trkpt>
      <trkpt lat="49.14263" lon="-0.42481">
        <ele>50.05</ele>
        <time>2025-05-31T10:20:13.126Z</time>
      </trkpt>
      <trkpt lat="49.1428" lon="-0.42521">
        <ele>49.84</ele>
        <time>2025-05-31T10:20:17.953Z</time>
      </trkpt>
      <trkpt lat="49.14286" lon="-0.42543">
        <ele>49.71</ele>
        <time>2025-05-31T10:20:22.782Z</time>
      </trkpt>
      <trkpt lat="49.14287" lon="-0.42569">
        <ele>49.56</ele>
        <time>2025-05-31T10:20:27.614Z</time>
      </trkpt>
      <trkpt lat="49.14283" lon="-0.42593">
        <ele>49.43</ele>
        <time>2025-05-31T10:20:32.449Z</time>
      </trkpt>
      <trkpt lat="49.14273" lon="-0.42615">
        <ele>49.32</ele>
        <time>2025-05-31T10:20:37.286Z</time>
      </trkpt>
      <trkpt lat="49.1425" lon="-0.42648">
        <ele>49.21</ele>
        <time>2025-05-31T10:20:42.128Z</time>
      </trkpt>
      <trkpt lat="49.14228" lon="-0.42681">
        <ele>49.12</ele>
        <time>2025-05-31T10:20:46.975Z</time>
      </trkpt>
      <trkpt lat="49.14205" lon="-0.42715">
        <ele>49.05</ele>
        <time>2025-05-31T10:20:51.828Z</time>
      </trkpt>
      <trkpt lat="49.14199" lon="-0.42723">
        <ele>48.97</ele>
        <time>2025-05-31T10:20:56.682Z</time>
      </trkpt>
      <trkpt lat="49.14221" lon="-0.42757">
        <ele>48.91</ele>
        <time>2025-05-31T10:21:01.541Z</time>
      </trkpt>
      <trkpt lat="49.14243" lon="-0.42791">
        <ele>48.81</ele>
        <time>2025-05-31T10:21:06.405Z</time>
      </trkpt>
      <trkpt lat="49.14254" lon="-0.42808">
        <ele>48.73</ele>
        <time>2025-05-31T10:21:11.271Z</time>
      </trkpt>
      <trkpt lat="49.14267" lon="-0.42802">
        <ele>48.68</ele>
        <time>2025-05-31T10:21:16.140Z</time>
      </trkpt>
      <trkpt lat="49.14271" lon="-0.42807">
        <ele>48.62</ele>
        <time>2025-05-31T10:21:21.009Z</time>
      </trkpt>
      <trkpt lat="49.14294" lon="-0.42839">
        <ele>48.49</ele>
        <time>2025-05-31T10:21:25.883Z</time>
      </trkpt>
      <trkpt lat="49.14298" lon="-0.42844">
        <ele>48.48</ele>
        <time>2025-05-31T10:21:30.758Z</time>
      </trkpt>
      <trkpt lat="49.14287" lon="-0.42871">
        <ele>48.49</ele>
        <time>2025-05-31T10:21:35.637Z</time>
      </trkpt>
      <trkpt lat="49.1428" lon="-0.42892">
        <ele>48.53</ele>
        <time>2025-05-31T10:21:40.518Z</time>
      </trkpt>
      <trkpt lat="49.14278" lon="-0.42903">
        <ele>48.58</ele>
        <time>2025-05-31T10:21:45.400Z</time>
      </trkpt>
      <trkpt lat="49.1428" lon="-0.42923">
        <ele>48.65</ele>
        <time>2025-05-31T10:21:50.284Z</time>
      </trkpt>
      <trkpt lat="49.14287" lon="-0.42948">
        <ele>48.7</ele>
        <time>2025-05-31T10:21:55.171Z</time>
      </trkpt>
      <trkpt lat="49.14298" lon="-0.4298">
        <ele>48.82</ele>
        <time>2025-05-31T10:22:00.062Z</time>
      </trkpt>
      <trkpt lat="49.14312" lon="-0.43018">
        <ele>48.91</ele>
        <time>2025-05-31T10:22:04.958Z</time>
      </trkpt>
      <trkpt lat="49.14325" lon="-0.43036">
        <ele>49.03</ele>
        <time>2025-05-31T10:22:09.856Z</time>
      </trkpt>
      <trkpt lat="49.14338" lon="-0.43049">
        <ele>49.14</ele>
        <time>2025-05-31T10:22:14.757Z</time>
      </trkpt>
      <trkpt lat="49.14355" lon="-0.43059">
        <ele>49.25</ele>
        <time>2025-05-31T10:22:19.661Z</time>
      </trkpt>
      <trkpt lat="49.14377" lon="-0.43064">
        <ele>49.41</ele>
        <time>2025-05-31T10:22:24.568Z</time>
      </trkpt>
      <trkpt lat="49.14392" lon="-0.43081">
        <ele>49.61</ele>
        <time>2025-05-31T10:22:29.478Z</time>
      </trkpt>
      <trkpt lat="49.14401" lon="-0.43093">
        <ele>49.83</ele>
        <time>2025-05-31T10:22:34.390Z</time>
      </trkpt>
      <trkpt lat="49.14423" lon="-0.43127">
        <ele>50.07</ele>
        <time>2025-05-31T10:22:39.307Z</time>
      </trkpt>
      <trkpt lat="49.14436" lon="-0.43148">
        <ele>50.29</ele>
        <time>2025-05-31T10:22:44.227Z</time>
      </trkpt>
      <trkpt lat="49.1445" lon="-0.43165">
        <ele>50.53</ele>
        <time>2025-05-31T10:22:49.150Z</time>
      </trkpt>
      <trkpt lat="49.14434" lon="-0.43204">
        <ele>50.82</ele>
        <time>2025-05-31T10:22:54.078Z</time>
      </trkpt>
      <trkpt lat="49.14432" lon="-0.43211">
        <ele>51.09</ele>
        <time>2025-05-31T10:22:59.007Z</time>
      </trkpt>
      <trkpt lat="49.14432" lon="-0.43215">
        <ele>51.36</ele>
        <time>2025-05-31T10:23:03.936Z</time>
      </trkpt>
      <trkpt lat="49.14424" lon="-0.43226">
        <ele>51.66</ele>
        <time>2025-05-31T10:23:08.867Z</time>
      </trkpt>
      <trkpt lat="49.14417" lon="-0.43235">
        <ele>51.96</ele>
        <time>2025-05-31T10:23:13.799Z</time>
      </trkpt>
      <trkpt lat="49.14398" lon="-0.43273">
        <ele>52.33</ele>
        <time>2025-05-31T10:23:18.736Z</time>
      </trkpt>
      <trkpt lat="49.14379" lon="-0.43312">
        <ele>52.68</ele>
        <time>2025-05-31T10:23:23.678Z</time>
      </trkpt>
      <trkpt lat="49.14379" lon="-0.43312">
        <ele>52.99</ele>
        <time>2025-05-31T10:23:28.621Z</time>
      </trkpt>
      <trkpt lat="49.1436" lon="-0.4335">
        <ele>53.32</ele>
        <time>2025-05-31T10:23:33.569Z</time>
      </trkpt>
      <trkpt lat="49.14346" lon="-0.43377">
        <ele>53.65</ele>
        <time>2025-05-31T10:23:38.520Z</time>
      </trkpt>
      <trkpt lat="49.14326" lon="-0.43414">
        <ele>53.99</ele>
        <time>2025-05-31T10:23:43.476Z</time>
      </trkpt>
      <trkpt lat="49.14307" lon="-0.43452">
        <ele>54.34</ele>
        <time>2025-05-31T10:23:48.437Z</time>
      </trkpt>
      <trkpt lat="49.14287" lon="-0.43489">
        <ele>54.68</ele>
        <time>2025-05-31T10:23:53.403Z</time>
      </trkpt>
      <trkpt lat="49.14272" lon="-0.43518">
        <ele>55.03</ele>
        <time>2025-05-31T10:23:58.373Z</time>
      </trkpt>
      <trkpt lat="49.14253" lon="-0.43556">
        <ele>55.43</ele>
        <time>2025-05-31T10:24:03.348Z</time>
      </trkpt>
      <trkpt lat="49.14234" lon="-0.43594">
        <ele>55.83</ele>
        <time>2025-05-31T10:24:08.328Z</time>
      </trkpt>
      <trkpt lat="49.14215" lon="-0.43632">
        <ele>56.19</ele>
        <time>2025-05-31T10:24:13.313Z</time>
      </trkpt>
      <trkpt lat="49.14196" lon="-0.43671">
        <ele>56.54</ele>
        <time>2025-05-31T10:24:18.303Z</time>
      </trkpt>
      <trkpt lat="49.14187" lon="-0.43688">
        <ele>56.92</ele>
        <time>2025-05-31T10:24:23.296Z</time>
      </trkpt>
      <trkpt lat="49.14168" lon="-0.43727">
        <ele>57.34</ele>
        <time>2025-05-31T10:24:28.294Z</time>
      </trkpt>
      <trkpt lat="49.1415" lon="-0.43765">
        <ele>57.76</ele>
        <time>2025-05-31T10:24:33.297Z</time>
      </trkpt>
      <trkpt lat="49.14144" lon="-0.43777">
        <ele>58.13</ele>
        <time>2025-05-31T10:24:38.301Z</time>
      </trkpt>
      <trkpt lat="49.14127" lon="-0.43818">
        <ele>58.5</ele>
        <time>2025-05-31T10:24:43.310Z</time>
      </trkpt>
      <trkpt lat="49.14126" lon="-0.43821">
        <ele>58.88</ele>
        <time>2025-05-31T10:24:48.320Z</time>
      </trkpt>
      <trkpt lat="49.14107" lon="-0.43859">
        <ele>59.31</ele>
        <time>2025-05-31T10:24:53.335Z</time>
      </trkpt>
      <trkpt lat="49.14088" lon="-0.43896">
        <ele>59.67</ele>
        <time>2025-05-31T10:24:58.355Z</time>
      </trkpt>
      <trkpt lat="49.14068" lon="-0.43933">
        <ele>60.04</ele>
        <time>2025-05-31T10:25:03.380Z</time>
      </trkpt>
      <trkpt lat="49.14067" lon="-0.43934">
        <ele>60.41</ele>
        <time>2025-05-31T10:25:08.405Z</time>
      </trkpt>
      <trkpt lat="49.14067" lon="-0.43947">
        <ele>60.78</ele>
        <time>2025-05-31T10:25:13.431Z</time>
      </trkpt>
      <trkpt lat="49.14069" lon="-0.43954">
        <ele>61.18</ele>
        <time>2025-05-31T10:25:18.458Z</time>
      </trkpt>
      <trkpt lat="49.14075" lon="-0.43961">
        <ele>61.58</ele>
        <time>2025-05-31T10:25:23.486Z</time>
      </trkpt>
      <trkpt lat="49.14102" lon="-0.43987">
        <ele>62.05</ele>
        <time>2025-05-31T10:25:28.519Z</time>
      </trkpt>
      <trkpt lat="49.14128" lon="-0.44012">
        <ele>62.45</ele>
        <time>2025-05-31T10:25:33.557Z</time>
      </trkpt>
      <trkpt lat="49.14131" lon="-0.44015">
        <ele>62.82</ele>
        <time>2025-05-31T10:25:38.596Z</time>
      </trkpt>
      <trkpt lat="49.14132" lon="-0.44023">
        <ele>63.18</ele>
        <time>2025-05-31T10:25:43.636Z</time>
      </trkpt>
      <trkpt lat="49.14112" lon="-0.4406">
        <ele>63.55</ele>
        <time>2025-05-31T10:25:48.681Z</time>
      </trkpt>
      <trkpt lat="49.14095" lon="-0.44093">
        <ele>63.92</ele>
        <time>2025-05-31T10:25:53.730Z</time>
      </trkpt>
      <trkpt lat="49.14075" lon="-0.4413">
        <ele>64.33</ele>
        <time>2025-05-31T10:25:58.784Z</time>
      </trkpt>
      <trkpt lat="49.14055" lon="-0.44167">
        <ele>64.74</ele>
        <time>2025-05-31T10:26:03.843Z</time>
      </trkpt>
      <trkpt lat="49.14035" lon="-0.44204">
        <ele>65.14</ele>
        <time>2025-05-31T10:26:08.907Z</time>
      </trkpt>
      <trkpt lat="49.14015" lon="-0.44241">
        <ele>65.57</ele>
        <time>2025-05-31T10:26:13.976Z</time>
      </trkpt>
      <trkpt lat="49.14015" lon="-0.44242">
        <ele>65.98</ele>
        <time>2025-05-31T10:26:19.045Z</time>
      </trkpt>
      <trkpt lat="49.13994" lon="-0.44278">
        <ele>66.46</ele>
        <time>2025-05-31T10:26:24.119Z</time>
      </trkpt>
      <trkpt lat="49.13974" lon="-0.44315">
        <ele>66.91</ele>
        <time>2025-05-31T10:26:29.198Z</time>
      </trkpt>
      <trkpt lat="49.13956" lon="-0.44346">
        <ele>67.34</ele>
        <time>2025-05-31T10:26:34.282Z</time>
      </trkpt>
      <trkpt lat="49.13934" lon="-0.44381">
        <ele>67.77</ele>
        <time>2025-05-31T10:26:39.371Z</time>
      </trkpt>
      <trkpt lat="49.13933" lon="-0.44383">
        <ele>68.2</ele>
        <time>2025-05-31T10:26:44.460Z</time>
      </trkpt>
      <trkpt lat="49.13913" lon="-0.44421">
        <ele>68.65</ele>
        <time>2025-05-31T10:26:49.554Z</time>
      </trkpt>
      <trkpt lat="49.13894" lon="-0.44458">
        <ele>69.11</ele>
        <time>2025-05-31T10:26:54.653Z</time>
      </trkpt>
      <trkpt lat="49.13886" lon="-0.44473">
        <ele>69.56</ele>
        <time>2025-05-31T10:26:59.754Z</time>
      </trkpt>
      <trkpt lat="49.13866" lon="-0.44511">
        <ele>70.07</ele>
        <time>2025-05-31T10:27:04.860Z</time>
      </trkpt>
      <trkpt lat="49.13847" lon="-0.44548">
        <ele>70.55</ele>
        <time>2025-05-31T10:27:09.971Z</time>
      </trkpt>
      <trkpt lat="49.13827" lon="-0.44586">
        <ele>71.01</ele>
        <time>2025-05-31T10:27:15.087Z</time>
      </trkpt>
      <trkpt lat="49.1381" lon="-0.44619">
        <ele>71.47</ele>
        <time>2025-05-31T10:27:20.208Z</time>
      </trkpt>
      <trkpt lat="49.138" lon="-0.44633">
        <ele>71.94</ele>
        <time>2025-05-31T10:27:25.331Z</time>
      </trkpt>
      <trkpt lat="49.13791" lon="-0.4465">
        <ele>72.41</ele>
        <time>2025-05-31T10:27:30.456Z</time>
      </trkpt>
      <trkpt lat="49.13773" lon="-0.4469">
        <ele>72.89</ele>
        <time>2025-05-31T10:27:35.586Z</time>
      </trkpt>
      <trkpt lat="49.13756" lon="-0.44729">
        <ele>73.4</ele>
        <time>2025-05-31T10:27:40.721Z</time>
      </trkpt>
      <trkpt lat="49.13738" lon="-0.44769">
        <ele>73.85</ele>
        <time>2025-05-31T10:27:45.861Z</time>
      </trkpt>
      <trkpt lat="49.13733" lon="-0.4478">
        <ele>74.34</ele>
        <time>2025-05-31T10:27:51.003Z</time>
      </trkpt>
      <trkpt lat="49.13716" lon="-0.4482">
        <ele>74.89</ele>
        <time>2025-05-31T10:27:56.150Z</time>
      </trkpt>
      <trkpt lat="49.13698" lon="-0.4486">
        <ele>75.46</ele>
        <time>2025-05-31T10:28:01.302Z</time>
      </trkpt>
      <trkpt lat="49.13681" lon="-0.449">
        <ele>75.99</ele>
        <time>2025-05-31T10:28:06.459Z</time>
      </trkpt>
      <trkpt lat="49.13663" lon="-0.4494">
        <ele>76.52</ele>
        <time>2025-05-31T10:28:11.621Z</time>
      </trkpt>
      <trkpt lat="49.13646" lon="-0.4498">
        <ele>76.97</ele>
        <time>2025-05-31T10:28:16.788Z</time>
      </trkpt>
      <trkpt lat="49.13628" lon="-0.4502">
        <ele>77.41</ele>
        <time>2025-05-31T10:28:21.960Z</time>
      </trkpt>
      <trkpt lat="49.13611" lon="-0.45059">
        <ele>77.96</ele>
        <time>2025-05-31T10:28:27.137Z</time>
      </trkpt>
      <trkpt lat="49.13605" lon="-0.45073">
        <ele>78.46</ele>
        <time>2025-05-31T10:28:32.316Z</time>
      </trkpt>
      <trkpt lat="49.13598" lon="-0.45103">
        <ele>78.97</ele>
        <time>2025-05-31T10:28:37.498Z</time>
      </trkpt>
      <trkpt lat="49.13594" lon="-0.4513">
        <ele>79.44</ele>
        <time>2025-05-31T10:28:42.683Z</time>
      </trkpt>
      <trkpt lat="49.13588" lon="-0.45177">
        <ele>79.87</ele>
        <time>2025-05-31T10:28:47.873Z</time>
      </trkpt>
      <trkpt lat="49.13583" lon="-0.45224">
        <ele>80.26</ele>
        <time>2025-05-31T10:28:53.068Z</time>
      </trkpt>
      <trkpt lat="49.13577" lon="-0.45272">
        <ele>80.66</ele>
        <time>2025-05-31T10:28:58.268Z</time>
      </trkpt>
      <trkpt lat="49.13572" lon="-0.45319">
        <ele>81.07</ele>
        <time>2025-05-31T10:29:03.473Z</time>
      </trkpt>
      <trkpt lat="49.13566" lon="-0.45366">
        <ele>81.45</ele>
        <time>2025-05-31T10:29:08.683Z</time>
      </trkpt>
      <trkpt lat="49.1356" lon="-0.45413">
        <ele>81.75</ele>
        <time>2025-05-31T10:29:13.898Z</time>
      </trkpt>
      <trkpt lat="49.13555" lon="-0.4546">
        <ele>82.05</ele>
        <time>2025-05-31T10:29:19.118Z</time>
      </trkpt>
      <trkpt lat="49.13549" lon="-0.45508">
        <ele>82.45</ele>
        <time>2025-05-31T10:29:24.343Z</time>
      </trkpt>
      <trkpt lat="49.13548" lon="-0.45516">
        <ele>82.76</ele>
        <time>2025-05-31T10:29:29.569Z</time>
      </trkpt>
      <trkpt lat="49.13544" lon="-0.45539">
        <ele>83.05</ele>
        <time>2025-05-31T10:29:34.798Z</time>
      </trkpt>
      <trkpt lat="49.1354" lon="-0.45586">
        <ele>83.34</ele>
        <time>2025-05-31T10:29:40.032Z</time>
      </trkpt>
      <trkpt lat="49.13535" lon="-0.45634">
        <ele>83.59</ele>
        <time>2025-05-31T10:29:45.271Z</time>
      </trkpt>
      <trkpt lat="49.13531" lon="-0.45681">
        <ele>83.87</ele>
        <time>2025-05-31T10:29:50.515Z</time>
      </trkpt>
      <trkpt lat="49.13529" lon="-0.45702">
        <ele>84.11</ele>
        <time>2025-05-31T10:29:55.761Z</time>
      </trkpt>
      <trkpt lat="49.13525" lon="-0.4575">
        <ele>84.29</ele>
        <time>2025-05-31T10:30:01.012Z</time>
      </trkpt>
      <trkpt lat="49.13521" lon="-0.45797">
        <ele>84.37</ele>
        <time>2025-05-31T10:30:06.268Z</time>
      </trkpt>
      <trkpt lat="49.13518" lon="-0.45845">
        <ele>84.48</ele>
        <time>2025-05-31T10:30:11.529Z</time>
      </trkpt>
      <trkpt lat="49.13516" lon="-0.45866">
        <ele>84.64</ele>
        <time>2025-05-31T10:30:16.792Z</time>
      </trkpt>
      <trkpt lat="49.13512" lon="-0.45914">
        <ele>84.83</ele>
        <time>2025-05-31T10:30:22.060Z</time>
      </trkpt>
      <trkpt lat="49.13508" lon="-0.45961">
        <ele>84.95</ele>
        <time>2025-05-31T10:30:27.334Z</time>
      </trkpt>
      <trkpt lat="49.13506" lon="-0.45989">
        <ele>85.07</ele>
        <time>2025-05-31T10:30:32.610Z</time>
      </trkpt>
      <trkpt lat="49.13506" lon="-0.46037">
        <ele>85.19</ele>
        <time>2025-05-31T10:30:37.891Z</time>
      </trkpt>
      <trkpt lat="49.13506" lon="-0.46041">
        <ele>85.29</ele>
        <time>2025-05-31T10:30:43.173Z</time>
      </trkpt>
      <trkpt lat="49.13511" lon="-0.46088">
        <ele>85.4</ele>
        <time>2025-05-31T10:30:48.460Z</time>
      </trkpt>
      <trkpt lat="49.13513" lon="-0.46111">
        <ele>85.49</ele>
        <time>2025-05-31T10:30:53.749Z</time>
      </trkpt>
      <trkpt lat="49.13518" lon="-0.46158">
        <ele>85.61</ele>
        <time>2025-05-31T10:30:59.043Z</time>
      </trkpt>
      <trkpt lat="49.13523" lon="-0.46198">
        <ele>85.71</ele>
        <time>2025-05-31T10:31:04.342Z</time>
      </trkpt>
      <trkpt lat="49.13526" lon="-0.46246">
        <ele>85.79</ele>
        <time>2025-05-31T10:31:09.646Z</time>
      </trkpt>
      <trkpt lat="49.13528" lon="-0.46294">
        <ele>85.86</ele>
        <time>2025-05-31T10:31:14.955Z</time>
      </trkpt>
      <trkpt lat="49.13529" lon="-0.46308">
        <ele>85.93</ele>
        <time>2025-05-31T10:31:20.265Z</time>
      </trkpt>
      <trkpt lat="49.13532" lon="-0.46356">
        <ele>86.01</ele>
        <time>2025-05-31T10:31:25.580Z</time>
      </trkpt>
      <trkpt lat="49.13534" lon="-0.46398">
        <ele>86.08</ele>
        <time>2025-05-31T10:31:30.900Z</time>
      </trkpt>
      <trkpt lat="49.13536" lon="-0.46445">
        <ele>86.11</ele>
        <time>2025-05-31T10:31:36.225Z</time>
      </trkpt>
      <trkpt lat="49.13534" lon="-0.46491">
        <ele>86.15</ele>
        <time>2025-05-31T10:31:41.555Z</time>
      </trkpt>
      <trkpt lat="49.13525" lon="-0.46537">
        <ele>86.2</ele>
        <time>2025-05-31T10:31:46.890Z</time>
      </trkpt>
      <trkpt lat="49.13517" lon="-0.46583">
        <ele>86.34</ele>
        <time>2025-05-31T10:31:52.230Z</time>
      </trkpt>
      <trkpt lat="49.13512" lon="-0.46609">
        <ele>86.37</ele>
        <time>2025-05-31T10:31:57.572Z</time>
      </trkpt>
      <trkpt lat="49.13508" lon="-0.46631">
        <ele>86.43</ele>
        <time>2025-05-31T10:32:02.917Z</time>
      </trkpt>
      <trkpt lat="49.13507" lon="-0.46663">
        <ele>86.46</ele>
        <time>2025-05-31T10:32:08.265Z</time>
      </trkpt>
      <trkpt lat="49.13509" lon="-0.46692">
        <ele>86.44</ele>
        <time>2025-05-31T10:32:13.616Z</time>
      </trkpt>
      <trkpt lat="49.13515" lon="-0.46739">
        <ele>86.45</ele>
        <time>2025-05-31T10:32:18.972Z</time>
      </trkpt>
      <trkpt lat="49.1352" lon="-0.46786">
        <ele>86.42</ele>
        <time>2025-05-31T10:32:24.333Z</time>
      </trkpt>
      <trkpt lat="49.13526" lon="-0.46834">
        <ele>86.37</ele>
        <time>2025-05-31T10:32:29.699Z</time>
      </trkpt>
      <trkpt lat="49.13531" lon="-0.46881">
        <ele>86.37</ele>
        <time>2025-05-31T10:32:35.070Z</time>
      </trkpt>
      <trkpt lat="49.13537" lon="-0.46928">
        <ele>86.32</ele>
        <time>2025-05-31T10:32:40.446Z</time>
      </trkpt>
      <trkpt lat="49.13538" lon="-0.46939">
        <ele>86.27</ele>
        <time>2025-05-31T10:32:45.824Z</time>
      </trkpt>
      <trkpt lat="49.13544" lon="-0.46986">
        <ele>86.23</ele>
        <time>2025-05-31T10:32:51.207Z</time>
      </trkpt>
      <trkpt lat="49.13549" lon="-0.47033">
        <ele>86.2</ele>
        <time>2025-05-31T10:32:56.595Z</time>
      </trkpt>
      <trkpt lat="49.13552" lon="-0.47057">
        <ele>86.13</ele>
        <time>2025-05-31T10:33:01.985Z</time>
      </trkpt>
      <trkpt lat="49.13556" lon="-0.47104">
        <ele>86.08</ele>
        <time>2025-05-31T10:33:07.380Z</time>
      </trkpt>
      <trkpt lat="49.13561" lon="-0.47152">
        <ele>86</ele>
        <time>2025-05-31T10:33:12.780Z</time>
      </trkpt>
      <trkpt lat="49.13561" lon="-0.47154">
        <ele>85.9</ele>
        <time>2025-05-31T10:33:18.180Z</time>
      </trkpt>
      <trkpt lat="49.1357" lon="-0.47168">
        <ele>85.82</ele>
        <time>2025-05-31T10:33:23.583Z</time>
      </trkpt>
      <trkpt lat="49.13556" lon="-0.47179">
        <ele>85.66</ele>
        <time>2025-05-31T10:33:28.988Z</time>
      </trkpt>
      <trkpt lat="49.13535" lon="-0.47215">
        <ele>85.5</ele>
        <time>2025-05-31T10:33:34.398Z</time>
      </trkpt>
      <trkpt lat="49.1353" lon="-0.47223">
        <ele>85.36</ele>
        <time>2025-05-31T10:33:39.809Z</time>
      </trkpt>
      <trkpt lat="49.13504" lon="-0.4725">
        <ele>85.24</ele>
        <time>2025-05-31T10:33:45.225Z</time>
      </trkpt>
      <trkpt lat="49.13486" lon="-0.47269">
        <ele>85.09</ele>
        <time>2025-05-31T10:33:50.645Z</time>
      </trkpt>
      <trkpt lat="49.1346" lon="-0.47296">
        <ele>84.92</ele>
        <time>2025-05-31T10:33:56.070Z</time>
      </trkpt>
      <trkpt lat="49.13444" lon="-0.47312">
        <ele>84.74</ele>
        <time>2025-05-31T10:34:01.498Z</time>
      </trkpt>
      <trkpt lat="49.13417" lon="-0.47336">
        <ele>84.54</ele>
        <time>2025-05-31T10:34:06.931Z</time>
      </trkpt>
      <trkpt lat="49.13415" lon="-0.47337">
        <ele>84.38</ele>
        <time>2025-05-31T10:34:12.364Z</time>
      </trkpt>
      <trkpt lat="49.13385" lon="-0.47353">
        <ele>84.21</ele>
        <time>2025-05-31T10:34:17.802Z</time>
      </trkpt>
      <trkpt lat="49.13375" lon="-0.47358">
        <ele>84.05</ele>
        <time>2025-05-31T10:34:23.242Z</time>
      </trkpt>
      <trkpt lat="49.13358" lon="-0.47368">
        <ele>83.88</ele>
        <time>2025-05-31T10:34:28.685Z</time>
      </trkpt>
      <trkpt lat="49.13338" lon="-0.47388">
        <ele>83.72</ele>
        <time>2025-05-31T10:34:34.132Z</time>
      </trkpt>
      <trkpt lat="49.13313" lon="-0.47418">
        <ele>83.58</ele>
        <time>2025-05-31T10:34:39.584Z</time>
      </trkpt>
      <trkpt lat="49.13301" lon="-0.47433">
        <ele>83.45</ele>
        <time>2025-05-31T10:34:45.038Z</time>
      </trkpt>
      <trkpt lat="49.13278" lon="-0.47465">
        <ele>83.32</ele>
        <time>2025-05-31T10:34:50.497Z</time>
      </trkpt>
      <trkpt lat="49.13275" lon="-0.47469">
        <ele>83.2</ele>
        <time>2025-05-31T10:34:55.957Z</time>
      </trkpt>
      <trkpt lat="49.13254" lon="-0.47493">
        <ele>83.1</ele>
        <time>2025-05-31T10:35:01.421Z</time>
      </trkpt>
      <trkpt lat="49.13231" lon="-0.47527">
        <ele>83.01</ele>
        <time>2025-05-31T10:35:06.890Z</time>
      </trkpt>
      <trkpt lat="49.13209" lon="-0.4756">
        <ele>82.93</ele>
        <time>2025-05-31T10:35:12.364Z</time>
      </trkpt>
      <trkpt lat="49.13203" lon="-0.47569">
        <ele>82.86</ele>
        <time>2025-05-31T10:35:17.840Z</time>
      </trkpt>
      <trkpt lat="49.13182" lon="-0.47605">
        <ele>82.8</ele>
        <time>2025-05-31T10:35:23.321Z</time>
      </trkpt>
      <trkpt lat="49.13161" lon="-0.4764">
        <ele>82.7</ele>
        <time>2025-05-31T10:35:28.807Z</time>
      </trkpt>
      <trkpt lat="49.13144" lon="-0.47669">
        <ele>82.66</ele>
        <time>2025-05-31T10:35:34.297Z</time>
      </trkpt>
      <trkpt lat="49.13122" lon="-0.47703">
        <ele>82.65</ele>
        <time>2025-05-31T10:35:39.792Z</time>
      </trkpt>
      <trkpt lat="49.13099" lon="-0.47737">
        <ele>82.67</ele>
        <time>2025-05-31T10:35:45.292Z</time>
      </trkpt>
      <trkpt lat="49.13077" lon="-0.47771">
        <ele>82.68</ele>
        <time>2025-05-31T10:35:50.797Z</time>
      </trkpt>
      <trkpt lat="49.13073" lon="-0.47777">
        <ele>82.69</ele>
        <time>2025-05-31T10:35:56.303Z</time>
      </trkpt>
      <trkpt lat="49.13052" lon="-0.47812">
        <ele>82.67</ele>
        <time>2025-05-31T10:36:01.814Z</time>
      </trkpt>
      <trkpt lat="49.13048" lon="-0.47818">
        <ele>82.7</ele>
        <time>2025-05-31T10:36:07.326Z</time>
      </trkpt>
      <trkpt lat="49.13027" lon="-0.47854">
        <ele>82.73</ele>
        <time>2025-05-31T10:36:12.843Z</time>
      </trkpt>
      <trkpt lat="49.13014" lon="-0.47876">
        <ele>82.8</ele>
        <time>2025-05-31T10:36:18.363Z</time>
      </trkpt>
      <trkpt lat="49.12991" lon="-0.47909">
        <ele>82.89</ele>
        <time>2025-05-31T10:36:23.888Z</time>
      </trkpt>
      <trkpt lat="49.12968" lon="-0.47942">
        <ele>82.96</ele>
        <time>2025-05-31T10:36:29.418Z</time>
      </trkpt>
      <trkpt lat="49.12945" lon="-0.47975">
        <ele>83.04</ele>
        <time>2025-05-31T10:36:34.953Z</time>
      </trkpt>
      <trkpt lat="49.12922" lon="-0.48008">
        <ele>83.14</ele>
        <time>2025-05-31T10:36:40.493Z</time>
      </trkpt>
      <trkpt lat="49.12914" lon="-0.4802">
        <ele>83.27</ele>
        <time>2025-05-31T10:36:46.035Z</time>
      </trkpt>
      <trkpt lat="49.12892" lon="-0.48054">
        <ele>83.46</ele>
        <time>2025-05-31T10:36:51.582Z</time>
      </trkpt>
      <trkpt lat="49.1287" lon="-0.48088">
        <ele>83.6</ele>
        <time>2025-05-31T10:36:57.134Z</time>
      </trkpt>
      <trkpt lat="49.12848" lon="-0.48123">
        <ele>83.71</ele>
        <time>2025-05-31T10:37:02.691Z</time>
      </trkpt>
      <trkpt lat="49.12834" lon="-0.48144">
        <ele>83.82</ele>
        <time>2025-05-31T10:37:08.251Z</time>
      </trkpt>
      <trkpt lat="49.12811" lon="-0.48177">
        <ele>83.94</ele>
        <time>2025-05-31T10:37:13.816Z</time>
      </trkpt>
      <trkpt lat="49.12788" lon="-0.4821">
        <ele>84.1</ele>
        <time>2025-05-31T10:37:19.386Z</time>
      </trkpt>
      <trkpt lat="49.12774" lon="-0.4823">
        <ele>84.22</ele>
        <time>2025-05-31T10:37:24.959Z</time>
      </trkpt>
      <trkpt lat="49.12754" lon="-0.4826">
        <ele>84.31</ele>
        <time>2025-05-31T10:37:30.537Z</time>
      </trkpt>
      <trkpt lat="49.12736" lon="-0.48287">
        <ele>84.4</ele>
        <time>2025-05-31T10:37:36.119Z</time>
      </trkpt>
      <trkpt lat="49.12742" lon="-0.48313">
        <ele>84.44</ele>
        <time>2025-05-31T10:37:41.704Z</time>
      </trkpt>
      <trkpt lat="49.12749" lon="-0.48338">
        <ele>84.43</ele>
        <time>2025-05-31T10:37:47.292Z</time>
      </trkpt>
      <trkpt lat="49.12751" lon="-0.48347">
        <ele>84.43</ele>
        <time>2025-05-31T10:37:52.881Z</time>
      </trkpt>
      <trkpt lat="49.12758" lon="-0.48364">
        <ele>84.41</ele>
        <time>2025-05-31T10:37:58.472Z</time>
      </trkpt>
      <trkpt lat="49.12765" lon="-0.48377">
        <ele>84.35</ele>
        <time>2025-05-31T10:38:04.065Z</time>
      </trkpt>
      <trkpt lat="49.12773" lon="-0.48388">
        <ele>84.27</ele>
        <time>2025-05-31T10:38:09.659Z</time>
      </trkpt>
      <trkpt lat="49.12788" lon="-0.48403">
        <ele>84.19</ele>
        <time>2025-05-31T10:38:15.256Z</time>
      </trkpt>
      <trkpt lat="49.12796" lon="-0.48411">
        <ele>84.09</ele>
        <time>2025-05-31T10:38:20.855Z</time>
      </trkpt>
      <trkpt lat="49.12791" lon="-0.48422">
        <ele>83.99</ele>
        <time>2025-05-31T10:38:26.455Z</time>
      </trkpt>
      <trkpt lat="49.12771" lon="-0.4846">
        <ele>83.91</ele>
        <time>2025-05-31T10:38:32.060Z</time>
      </trkpt>
      <trkpt lat="49.12765" lon="-0.48472">
        <ele>83.76</ele>
        <time>2025-05-31T10:38:37.667Z</time>
      </trkpt>
      <trkpt lat="49.12752" lon="-0.48502">
        <ele>83.59</ele>
        <time>2025-05-31T10:38:43.278Z</time>
      </trkpt>
      <trkpt lat="49.12739" lon="-0.48545">
        <ele>83.36</ele>
        <time>2025-05-31T10:38:48.894Z</time>
      </trkpt>
      <trkpt lat="49.12728" lon="-0.4859">
        <ele>83.08</ele>
        <time>2025-05-31T10:38:54.515Z</time>
      </trkpt>
      <trkpt lat="49.12716" lon="-0.48634">
        <ele>82.78</ele>
        <time>2025-05-31T10:39:00.141Z</time>
      </trkpt>
      <trkpt lat="49.12713" lon="-0.48647">
        <ele>82.44</ele>
        <time>2025-05-31T10:39:05.768Z</time>
      </trkpt>
      <trkpt lat="49.12711" lon="-0.48652">
        <ele>82.06</ele>
        <time>2025-05-31T10:39:11.396Z</time>
      </trkpt>
      <trkpt lat="49.12722" lon="-0.48697">
        <ele>81.64</ele>
        <time>2025-05-31T10:39:17.029Z</time>
      </trkpt>
      <trkpt lat="49.12729" lon="-0.48729">
        <ele>81.13</ele>
        <time>2025-05-31T10:39:22.665Z</time>
      </trkpt>
      <trkpt lat="49.12739" lon="-0.48774">
        <ele>80.6</ele>
        <time>2025-05-31T10:39:28.306Z</time>
      </trkpt>
      <trkpt lat="49.12741" lon="-0.48781">
        <ele>80.07</ele>
        <time>2025-05-31T10:39:33.948Z</time>
      </trkpt>
      <trkpt lat="49.12751" lon="-0.48826">
        <ele>79.44</ele>
        <time>2025-05-31T10:39:39.595Z</time>
      </trkpt>
      <trkpt lat="49.12761" lon="-0.48872">
        <ele>78.79</ele>
        <time>2025-05-31T10:39:45.247Z</time>
      </trkpt>
      <trkpt lat="49.12772" lon="-0.48917">
        <ele>78.13</ele>
        <time>2025-05-31T10:39:50.904Z</time>
      </trkpt>
      <trkpt lat="49.12782" lon="-0.48962">
        <ele>77.47</ele>
        <time>2025-05-31T10:39:56.566Z</time>
      </trkpt>
      <trkpt lat="49.12782" lon="-0.48963">
        <ele>76.79</ele>
        <time>2025-05-31T10:40:02.228Z</time>
      </trkpt>
      <trkpt lat="49.12792" lon="-0.49008">
        <ele>76.05</ele>
        <time>2025-05-31T10:40:07.895Z</time>
      </trkpt>
      <trkpt lat="49.12803" lon="-0.49053">
        <ele>75.29</ele>
        <time>2025-05-31T10:40:13.567Z</time>
      </trkpt>
      <trkpt lat="49.12813" lon="-0.49099">
        <ele>74.51</ele>
        <time>2025-05-31T10:40:19.244Z</time>
      </trkpt>
      <trkpt lat="49.12824" lon="-0.49144">
        <ele>73.71</ele>
        <time>2025-05-31T10:40:24.926Z</time>
      </trkpt>
      <trkpt lat="49.12834" lon="-0.49189">
        <ele>72.79</ele>
        <time>2025-05-31T10:40:30.613Z</time>
      </trkpt>
      <trkpt lat="49.12845" lon="-0.49234">
        <ele>71.89</ele>
        <time>2025-05-31T10:40:36.306Z</time>
      </trkpt>
      <trkpt lat="49.12848" lon="-0.49248">
        <ele>71.05</ele>
        <time>2025-05-31T10:40:42.000Z</time>
      </trkpt>
      <trkpt lat="49.12855" lon="-0.49274">
        <ele>70.15</ele>
        <time>2025-05-31T10:40:47.697Z</time>
      </trkpt>
      <trkpt lat="49.12862" lon="-0.49304">
        <ele>69.22</ele>
        <time>2025-05-31T10:40:53.397Z</time>
      </trkpt>
      <trkpt lat="49.12856" lon="-0.49322">
        <ele>68.34</ele>
        <time>2025-05-31T10:40:59.099Z</time>
      </trkpt>
      <trkpt lat="49.12847" lon="-0.49351">
        <ele>67.47</ele>
        <time>2025-05-31T10:41:04.805Z</time>
      </trkpt>
      <trkpt lat="49.12878" lon="-0.49351">
        <ele>66.53</ele>
        <time>2025-05-31T10:41:10.516Z</time>
      </trkpt>
      <trkpt lat="49.12879" lon="-0.49351">
        <ele>65.64</ele>
        <time>2025-05-31T10:41:16.227Z</time>
      </trkpt>
      <trkpt lat="49.12891" lon="-0.49353">
        <ele>64.74</ele>
        <time>2025-05-31T10:41:21.940Z</time>
      </trkpt>
      <trkpt lat="49.12905" lon="-0.49359">
        <ele>63.81</ele>
        <time>2025-05-31T10:41:27.655Z</time>
      </trkpt>
      <trkpt lat="49.12923" lon="-0.49371">
        <ele>62.89</ele>
        <time>2025-05-31T10:41:33.373Z</time>
      </trkpt>
      <trkpt lat="49.12948" lon="-0.494">
        <ele>61.91</ele>
        <time>2025-05-31T10:41:39.096Z</time>
      </trkpt>
      <trkpt lat="49.12952" lon="-0.49405">
        <ele>61</ele>
        <time>2025-05-31T10:41:44.820Z</time>
      </trkpt>
      <trkpt lat="49.12963" lon="-0.49421">
        <ele>60.07</ele>
        <time>2025-05-31T10:41:50.547Z</time>
      </trkpt>
      <trkpt lat="49.12983" lon="-0.49458">
        <ele>59.25</ele>
        <time>2025-05-31T10:41:56.279Z</time>
      </trkpt>
      <trkpt lat="49.12987" lon="-0.49464">
        <ele>58.39</ele>
        <time>2025-05-31T10:42:02.012Z</time>
      </trkpt>
      <trkpt lat="49.13002" lon="-0.49498">
        <ele>57.56</ele>
        <time>2025-05-31T10:42:07.749Z</time>
      </trkpt>
      <trkpt lat="49.13007" lon="-0.49519">
        <ele>56.7</ele>
        <time>2025-05-31T10:42:13.488Z</time>
      </trkpt>
      <trkpt lat="49.13008" lon="-0.49536">
        <ele>55.83</ele>
        <time>2025-05-31T10:42:19.229Z</time>
      </trkpt>
      <trkpt lat="49.12999" lon="-0.49582">
        <ele>54.91</ele>
        <time>2025-05-31T10:42:24.975Z</time>
      </trkpt>
      <trkpt lat="49.12998" lon="-0.4959">
        <ele>54.09</ele>
        <time>2025-05-31T10:42:30.722Z</time>
      </trkpt>
      <trkpt lat="49.12991" lon="-0.49637">
        <ele>53.22</ele>
        <time>2025-05-31T10:42:36.474Z</time>
      </trkpt>
      <trkpt lat="49.12991" lon="-0.49639">
        <ele>52.45</ele>
        <time>2025-05-31T10:42:42.226Z</time>
      </trkpt>
      <trkpt lat="49.12989" lon="-0.49672">
        <ele>51.71</ele>
        <time>2025-05-31T10:42:47.982Z</time>
      </trkpt>
      <trkpt lat="49.12991" lon="-0.49694">
        <ele>51</ele>
        <time>2025-05-31T10:42:53.740Z</time>
      </trkpt>
      <trkpt lat="49.12997" lon="-0.49722">
        <ele>50.36</ele>
        <time>2025-05-31T10:42:59.501Z</time>
      </trkpt>
      <trkpt lat="49.13008" lon="-0.49747">
        <ele>49.72</ele>
        <time>2025-05-31T10:43:05.265Z</time>
      </trkpt>
      <trkpt lat="49.13021" lon="-0.49771">
        <ele>49.07</ele>
        <time>2025-05-31T10:43:11.033Z</time>
      </trkpt>
      <trkpt lat="49.13044" lon="-0.49804">
        <ele>48.33</ele>
        <time>2025-05-31T10:43:16.806Z</time>
      </trkpt>
      <trkpt lat="49.13046" lon="-0.49808">
        <ele>47.8</ele>
        <time>2025-05-31T10:43:22.579Z</time>
      </trkpt>
      <trkpt lat="49.13057" lon="-0.49827">
        <ele>47.21</ele>
        <time>2025-05-31T10:43:28.355Z</time>
      </trkpt>
      <trkpt lat="49.1306" lon="-0.49849">
        <ele>46.73</ele>
        <time>2025-05-31T10:43:34.133Z</time>
      </trkpt>
      <trkpt lat="49.13059" lon="-0.49862">
        <ele>46.37</ele>
        <time>2025-05-31T10:43:39.913Z</time>
      </trkpt>
      <trkpt lat="49.13055" lon="-0.49875">
        <ele>46.07</ele>
        <time>2025-05-31T10:43:45.694Z</time>
      </trkpt>
      <trkpt lat="49.13045" lon="-0.49896">
        <ele>45.86</ele>
        <time>2025-05-31T10:43:51.478Z</time>
      </trkpt>
      <trkpt lat="49.13034" lon="-0.49916">
        <ele>45.72</ele>
        <time>2025-05-31T10:43:57.265Z</time>
      </trkpt>
      <trkpt lat="49.13017" lon="-0.49939">
        <ele>45.63</ele>
        <time>2025-05-31T10:44:03.055Z</time>
      </trkpt>
      <trkpt lat="49.13" lon="-0.49963">
        <ele>45.61</ele>
        <time>2025-05-31T10:44:08.849Z</time>
      </trkpt>
      <trkpt lat="49.12994" lon="-0.49975">
        <ele>45.69</ele>
        <time>2025-05-31T10:44:14.644Z</time>
      </trkpt>
      <trkpt lat="49.12992" lon="-0.49984">
        <ele>45.83</ele>
        <time>2025-05-31T10:44:20.440Z</time>
      </trkpt>
      <trkpt lat="49.12992" lon="-0.49994">
        <ele>46.05</ele>
        <time>2025-05-31T10:44:26.238Z</time>
      </trkpt>
      <trkpt lat="49.12996" lon="-0.50008">
        <ele>46.35</ele>
        <time>2025-05-31T10:44:32.037Z</time>
      </trkpt>
      <trkpt lat="49.13004" lon="-0.50016">
        <ele>46.74</ele>
        <time>2025-05-31T10:44:37.838Z</time>
      </trkpt>
      <trkpt lat="49.13008" lon="-0.50018">
        <ele>47.18</ele>
        <time>2025-05-31T10:44:43.639Z</time>
      </trkpt>
      <trkpt lat="49.13021" lon="-0.50018">
        <ele>47.74</ele>
        <time>2025-05-31T10:44:49.442Z</time>
      </trkpt>
      <trkpt lat="49.13033" lon="-0.50015">
        <ele>48.37</ele>
        <time>2025-05-31T10:44:55.247Z</time>
      </trkpt>
      <trkpt lat="49.13062" lon="-0.49998">
        <ele>49.11</ele>
        <time>2025-05-31T10:45:01.057Z</time>
      </trkpt>
      <trkpt lat="49.13067" lon="-0.49995">
        <ele>49.77</ele>
        <time>2025-05-31T10:45:06.868Z</time>
      </trkpt>
      <trkpt lat="49.13095" lon="-0.49974">
        <ele>50.48</ele>
        <time>2025-05-31T10:45:12.684Z</time>
      </trkpt>
      <trkpt lat="49.13124" lon="-0.49953">
        <ele>51.29</ele>
        <time>2025-05-31T10:45:18.505Z</time>
      </trkpt>
      <trkpt lat="49.13136" lon="-0.49944">
        <ele>52.1</ele>
        <time>2025-05-31T10:45:24.328Z</time>
      </trkpt>
      <trkpt lat="49.13164" lon="-0.49926">
        <ele>52.98</ele>
        <time>2025-05-31T10:45:30.156Z</time>
      </trkpt>
      <trkpt lat="49.1318" lon="-0.49919">
        <ele>53.86</ele>
        <time>2025-05-31T10:45:35.987Z</time>
      </trkpt>
      <trkpt lat="49.13191" lon="-0.49918">
        <ele>54.76</ele>
        <time>2025-05-31T10:45:41.820Z</time>
      </trkpt>
      <trkpt lat="49.13203" lon="-0.49919">
        <ele>55.7</ele>
        <time>2025-05-31T10:45:47.655Z</time>
      </trkpt>
      <trkpt lat="49.13224" lon="-0.49931">
        <ele>56.69</ele>
        <time>2025-05-31T10:45:53.493Z</time>
      </trkpt>
      <trkpt lat="49.13247" lon="-0.49949">
        <ele>57.7</ele>
        <time>2025-05-31T10:45:59.335Z</time>
      </trkpt>
      <trkpt lat="49.13272" lon="-0.49969">
        <ele>58.63</ele>
        <time>2025-05-31T10:46:05.182Z</time>
      </trkpt>
      <trkpt lat="49.13293" lon="-0.49985">
        <ele>59.6</ele>
        <time>2025-05-31T10:46:11.033Z</time>
      </trkpt>
      <trkpt lat="49.13309" lon="-0.49992">
        <ele>60.58</ele>
        <time>2025-05-31T10:46:16.886Z</time>
      </trkpt>
      <trkpt lat="49.13333" lon="-0.49994">
        <ele>61.56</ele>
        <time>2025-05-31T10:46:22.743Z</time>
      </trkpt>
      <trkpt lat="49.13364" lon="-0.49992">
        <ele>62.53</ele>
        <time>2025-05-31T10:46:28.605Z</time>
      </trkpt>
      <trkpt lat="49.13366" lon="-0.49992">
        <ele>63.47</ele>
        <time>2025-05-31T10:46:34.468Z</time>
      </trkpt>
      <trkpt lat="49.13385" lon="-0.49991">
        <ele>64.44</ele>
        <time>2025-05-31T10:46:40.334Z</time>
      </trkpt>
      <trkpt lat="49.13397" lon="-0.49994">
        <ele>65.36</ele>
        <time>2025-05-31T10:46:46.201Z</time>
      </trkpt>
      <trkpt lat="49.13408" lon="-0.49997">
        <ele>66.28</ele>
        <time>2025-05-31T10:46:52.070Z</time>
      </trkpt>
      <trkpt lat="49.13425" lon="-0.50006">
        <ele>67.2</ele>
        <time>2025-05-31T10:46:57.942Z</time>
      </trkpt>
      <trkpt lat="49.13453" lon="-0.50026">
        <ele>68.11</ele>
        <time>2025-05-31T10:47:03.819Z</time>
      </trkpt>
      <trkpt lat="49.1348" lon="-0.50051">
        <ele>68.98</ele>
        <time>2025-05-31T10:47:09.701Z</time>
      </trkpt>
      <trkpt lat="49.13506" lon="-0.50077">
        <ele>69.89</ele>
        <time>2025-05-31T10:47:15.588Z</time>
      </trkpt>
      <trkpt lat="49.13533" lon="-0.50102">
        <ele>70.81</ele>
        <time>2025-05-31T10:47:21.480Z</time>
      </trkpt>
      <trkpt lat="49.1356" lon="-0.50127">
        <ele>71.66</ele>
        <time>2025-05-31T10:47:27.377Z</time>
      </trkpt>
      <trkpt lat="49.13561" lon="-0.50128">
        <ele>72.46</ele>
        <time>2025-05-31T10:47:33.274Z</time>
      </trkpt>
      <trkpt lat="49.13589" lon="-0.50151">
        <ele>73.28</ele>
        <time>2025-05-31T10:47:39.177Z</time>
      </trkpt>
      <trkpt lat="49.13596" lon="-0.50157">
        <ele>74.05</ele>
        <time>2025-05-31T10:47:45.081Z</time>
      </trkpt>
      <trkpt lat="49.13625" lon="-0.50175">
        <ele>74.82</ele>
        <time>2025-05-31T10:47:50.990Z</time>
      </trkpt>
      <trkpt lat="49.13655" lon="-0.50192">
        <ele>75.6</ele>
        <time>2025-05-31T10:47:56.904Z</time>
      </trkpt>
      <trkpt lat="49.13684" lon="-0.5021">
        <ele>76.32</ele>
        <time>2025-05-31T10:48:02.823Z</time>
      </trkpt>
      <trkpt lat="49.13698" lon="-0.50218">
        <ele>76.98</ele>
        <time>2025-05-31T10:48:08.744Z</time>
      </trkpt>
      <trkpt lat="49.13728" lon="-0.50234">
        <ele>77.65</ele>
        <time>2025-05-31T10:48:14.670Z</time>
      </trkpt>
      <trkpt lat="49.13757" lon="-0.50251">
        <ele>78.25</ele>
        <time>2025-05-31T10:48:20.601Z</time>
      </trkpt>
      <trkpt lat="49.13778" lon="-0.50262">
        <ele>78.8</ele>
        <time>2025-05-31T10:48:26.536Z</time>
      </trkpt>
      <trkpt lat="49.13801" lon="-0.50277">
        <ele>79.33</ele>
        <time>2025-05-31T10:48:32.475Z</time>
      </trkpt>
      <trkpt lat="49.13829" lon="-0.503">
        <ele>79.79</ele>
        <time>2025-05-31T10:48:38.419Z</time>
      </trkpt>
      <trkpt lat="49.13839" lon="-0.50308">
        <ele>80.27</ele>
        <time>2025-05-31T10:48:44.365Z</time>
      </trkpt>
      <trkpt lat="49.13867" lon="-0.50331">
        <ele>80.68</ele>
        <time>2025-05-31T10:48:50.316Z</time>
      </trkpt>
      <trkpt lat="49.13871" lon="-0.50335">
        <ele>81.09</ele>
        <time>2025-05-31T10:48:56.268Z</time>
      </trkpt>
      <trkpt lat="49.13899" lon="-0.50358">
        <ele>81.47</ele>
        <time>2025-05-31T10:49:02.225Z</time>
      </trkpt>
      <trkpt lat="49.13915" lon="-0.50372">
        <ele>81.87</ele>
        <time>2025-05-31T10:49:08.185Z</time>
      </trkpt>
      <trkpt lat="49.13923" lon="-0.50377">
        <ele>82.22</ele>
        <time>2025-05-31T10:49:14.146Z</time>
      </trkpt>
      <trkpt lat="49.13954" lon="-0.50388">
        <ele>82.6</ele>
        <time>2025-05-31T10:49:20.112Z</time>
      </trkpt>
      <trkpt lat="49.13963" lon="-0.50392">
        <ele>82.94</ele>
        <time>2025-05-31T10:49:26.080Z</time>
      </trkpt>
      <trkpt lat="49.13991" lon="-0.50395">
        <ele>83.23</ele>
        <time>2025-05-31T10:49:32.052Z</time>
      </trkpt>
      <trkpt lat="49.14022" lon="-0.50397">
        <ele>83.49</ele>
        <time>2025-05-31T10:49:38.029Z</time>
      </trkpt>
      <trkpt lat="49.14054" lon="-0.50398">
        <ele>83.75</ele>
        <time>2025-05-31T10:49:44.011Z</time>
      </trkpt>
      <trkpt lat="49.1407" lon="-0.50399">
        <ele>83.99</ele>
        <time>2025-05-31T10:49:49.996Z</time>
      </trkpt>
      <trkpt lat="49.14059" lon="-0.50444">
        <ele>84.23</ele>
        <time>2025-05-31T10:49:55.986Z</time>
      </trkpt>
      <trkpt lat="49.14048" lon="-0.50489">
        <ele>84.45</ele>
        <time>2025-05-31T10:50:01.981Z</time>
      </trkpt>
      <trkpt lat="49.14037" lon="-0.50534">
        <ele>84.69</ele>
        <time>2025-05-31T10:50:07.981Z</time>
      </trkpt>
      <trkpt lat="49.14026" lon="-0.50579">
        <ele>84.98</ele>
        <time>2025-05-31T10:50:13.986Z</time>
      </trkpt>
      <trkpt lat="49.14015" lon="-0.50624">
        <ele>85.16</ele>
        <time>2025-05-31T10:50:19.996Z</time>
      </trkpt>
      <trkpt lat="49.14005" lon="-0.50667">
        <ele>85.35</ele>
        <time>2025-05-31T10:50:26.011Z</time>
      </trkpt>
      <trkpt lat="49.13994" lon="-0.50712">
        <ele>85.54</ele>
        <time>2025-05-31T10:50:32.031Z</time>
      </trkpt>
      <trkpt lat="49.13983" lon="-0.50757">
        <ele>85.79</ele>
        <time>2025-05-31T10:50:38.056Z</time>
      </trkpt>
      <trkpt lat="49.13978" lon="-0.50777">
        <ele>85.99</ele>
        <time>2025-05-31T10:50:44.083Z</time>
      </trkpt>
      <trkpt lat="49.13968" lon="-0.50822">
        <ele>86.22</ele>
        <time>2025-05-31T10:50:50.115Z</time>
      </trkpt>
      <trkpt lat="49.13957" lon="-0.50867">
        <ele>86.43</ele>
        <time>2025-05-31T10:50:56.152Z</time>
      </trkpt>
      <trkpt lat="49.13947" lon="-0.50913">
        <ele>86.59</ele>
        <time>2025-05-31T10:51:02.194Z</time>
      </trkpt>
      <trkpt lat="49.13936" lon="-0.50958">
        <ele>86.77</ele>
        <time>2025-05-31T10:51:08.241Z</time>
      </trkpt>
      <trkpt lat="49.13926" lon="-0.51003">
        <ele>87</ele>
        <time>2025-05-31T10:51:14.294Z</time>
      </trkpt>
      <trkpt lat="49.13915" lon="-0.51048">
        <ele>87.19</ele>
        <time>2025-05-31T10:51:20.352Z</time>
      </trkpt>
      <trkpt lat="49.13905" lon="-0.51094">
        <ele>87.41</ele>
        <time>2025-05-31T10:51:26.415Z</time>
      </trkpt>
      <trkpt lat="49.13901" lon="-0.5111">
        <ele>87.64</ele>
        <time>2025-05-31T10:51:32.479Z</time>
      </trkpt>
      <trkpt lat="49.13892" lon="-0.51156">
        <ele>87.88</ele>
        <time>2025-05-31T10:51:38.548Z</time>
      </trkpt>
      <trkpt lat="49.13889" lon="-0.51168">
        <ele>88.1</ele>
        <time>2025-05-31T10:51:44.619Z</time>
      </trkpt>
      <trkpt lat="49.13878" lon="-0.51213">
        <ele>88.28</ele>
        <time>2025-05-31T10:51:50.695Z</time>
      </trkpt>
      <trkpt lat="49.13868" lon="-0.51258">
        <ele>88.54</ele>
        <time>2025-05-31T10:51:56.776Z</time>
      </trkpt>
      <trkpt lat="49.13857" lon="-0.51303">
        <ele>88.76</ele>
        <time>2025-05-31T10:52:02.862Z</time>
      </trkpt>
      <trkpt lat="49.13846" lon="-0.51348">
        <ele>89.03</ele>
        <time>2025-05-31T10:52:08.953Z</time>
      </trkpt>
      <trkpt lat="49.13838" lon="-0.51383">
        <ele>89.35</ele>
        <time>2025-05-31T10:52:15.048Z</time>
      </trkpt>
      <trkpt lat="49.13828" lon="-0.51424">
        <ele>89.67</ele>
        <time>2025-05-31T10:52:21.147Z</time>
      </trkpt>
      <trkpt lat="49.1384" lon="-0.51429">
        <ele>89.96</ele>
        <time>2025-05-31T10:52:27.248Z</time>
      </trkpt>
      <trkpt lat="49.13871" lon="-0.51439">
        <ele>90.3</ele>
        <time>2025-05-31T10:52:33.354Z</time>
      </trkpt>
      <trkpt lat="49.13893" lon="-0.51447">
        <ele>90.6</ele>
        <time>2025-05-31T10:52:39.464Z</time>
      </trkpt>
      <trkpt lat="49.13913" lon="-0.51456">
        <ele>90.91</ele>
        <time>2025-05-31T10:52:45.577Z</time>
      </trkpt>
      <trkpt lat="49.13916" lon="-0.51455">
        <ele>91.24</ele>
        <time>2025-05-31T10:52:51.691Z</time>
      </trkpt>
      <trkpt lat="49.1392" lon="-0.51457">
        <ele>91.57</ele>
        <time>2025-05-31T10:52:57.806Z</time>
      </trkpt>
      <trkpt lat="49.1392" lon="-0.51462">
        <ele>91.91</ele>
        <time>2025-05-31T10:53:03.921Z</time>
      </trkpt>
      <trkpt lat="49.13919" lon="-0.51467">
        <ele>92.26</ele>
        <time>2025-05-31T10:53:10.037Z</time>
      </trkpt>
      <trkpt lat="49.13916" lon="-0.51469">
        <ele>92.61</ele>
        <time>2025-05-31T10:53:16.153Z</time>
      </trkpt>
      <trkpt lat="49.13913" lon="-0.51468">
        <ele>92.98</ele>
        <time>2025-05-31T10:53:22.270Z</time>
      </trkpt>
      <trkpt lat="49.13916" lon="-0.51475">
        <ele>93.35</ele>
        <time>2025-05-31T10:53:28.388Z</time>
      </trkpt>
      <trkpt lat="49.13926" lon="-0.51498">
        <ele>93.76</ele>
        <time>2025-05-31T10:53:34.508Z</time>
      </trkpt>
      <trkpt lat="49.13933" lon="-0.51519">
        <ele>94.2</ele>
        <time>2025-05-31T10:53:40.631Z</time>
      </trkpt>
      <trkpt lat="49.13941" lon="-0.51562">
        <ele>94.67</ele>
        <time>2025-05-31T10:53:46.759Z</time>
      </trkpt>
      <trkpt lat="49.13944" lon="-0.5161">
        <ele>95.07</ele>
        <time>2025-05-31T10:53:52.892Z</time>
      </trkpt>
      <trkpt lat="49.13946" lon="-0.51657">
        <ele>95.44</ele>
        <time>2025-05-31T10:53:59.030Z</time>
      </trkpt>
      <trkpt lat="49.13956" lon="-0.51702">
        <ele>95.85</ele>
        <time>2025-05-31T10:54:05.173Z</time>
      </trkpt>
      <trkpt lat="49.13967" lon="-0.51747">
        <ele>96.27</ele>
        <time>2025-05-31T10:54:11.321Z</time>
      </trkpt>
      <trkpt lat="49.13967" lon="-0.51748">
        <ele>96.65</ele>
        <time>2025-05-31T10:54:17.469Z</time>
      </trkpt>
      <trkpt lat="49.13974" lon="-0.51795">
        <ele>97.08</ele>
        <time>2025-05-31T10:54:23.622Z</time>
      </trkpt>
      <trkpt lat="49.13976" lon="-0.5181">
        <ele>97.44</ele>
        <time>2025-05-31T10:54:29.776Z</time>
      </trkpt>
      <trkpt lat="49.13985" lon="-0.51856">
        <ele>97.81</ele>
        <time>2025-05-31T10:54:35.936Z</time>
      </trkpt>
      <trkpt lat="49.13988" lon="-0.51868">
        <ele>98.16</ele>
        <time>2025-05-31T10:54:42.097Z</time>
      </trkpt>
      <trkpt lat="49.13999" lon="-0.51913">
        <ele>98.51</ele>
        <time>2025-05-31T10:54:48.263Z</time>
      </trkpt>
      <trkpt lat="49.14002" lon="-0.51923">
        <ele>98.83</ele>
        <time>2025-05-31T10:54:54.430Z</time>
      </trkpt>
      <trkpt lat="49.14014" lon="-0.51967">
        <ele>99.16</ele>
        <time>2025-05-31T10:55:00.602Z</time>
      </trkpt>
      <trkpt lat="49.14017" lon="-0.51978">
        <ele>99.47</ele>
        <time>2025-05-31T10:55:06.775Z</time>
      </trkpt>
      <trkpt lat="49.14023" lon="-0.52003">
        <ele>99.76</ele>
        <time>2025-05-31T10:55:12.951Z</time>
      </trkpt>
      <trkpt lat="49.14028" lon="-0.5201">
        <ele>100.04</ele>
        <time>2025-05-31T10:55:19.128Z</time>
      </trkpt>
      <trkpt lat="49.14038" lon="-0.52018">
        <ele>100.32</ele>
        <time>2025-05-31T10:55:25.307Z</time>
      </trkpt>
      <trkpt lat="49.14053" lon="-0.5203">
        <ele>100.61</ele>
        <time>2025-05-31T10:55:31.489Z</time>
      </trkpt>
      <trkpt lat="49.14067" lon="-0.5205">
        <ele>100.89</ele>
        <time>2025-05-31T10:55:37.674Z</time>
      </trkpt>
      <trkpt lat="49.14074" lon="-0.52073">
        <ele>101.12</ele>
        <time>2025-05-31T10:55:43.861Z</time>
      </trkpt>
      <trkpt lat="49.14076" lon="-0.52094">
        <ele>101.32</ele>
        <time>2025-05-31T10:55:50.051Z</time>
      </trkpt>
      <trkpt lat="49.14081" lon="-0.5213">
        <ele>101.5</ele>
        <time>2025-05-31T10:55:56.245Z</time>
      </trkpt>
      <trkpt lat="49.14085" lon="-0.52147">
        <ele>101.7</ele>
        <time>2025-05-31T10:56:02.440Z</time>
      </trkpt>
      <trkpt lat="49.14093" lon="-0.5216">
        <ele>101.9</ele>
        <time>2025-05-31T10:56:08.637Z</time>
      </trkpt>
      <trkpt lat="49.14102" lon="-0.5217">
        <ele>102.09</ele>
        <time>2025-05-31T10:56:14.836Z</time>
      </trkpt>
      <trkpt lat="49.14116" lon="-0.52178">
        <ele>102.29</ele>
        <time>2025-05-31T10:56:21.038Z</time>
      </trkpt>
      <trkpt lat="49.14131" lon="-0.52183">
        <ele>102.47</ele>
        <time>2025-05-31T10:56:27.242Z</time>
      </trkpt>
      <trkpt lat="49.14139" lon="-0.5219">
        <ele>102.64</ele>
        <time>2025-05-31T10:56:33.447Z</time>
      </trkpt>
      <trkpt lat="49.14156" lon="-0.52214">
        <ele>102.83</ele>
        <time>2025-05-31T10:56:39.656Z</time>
      </trkpt>
      <trkpt lat="49.1417" lon="-0.5224">
        <ele>103.02</ele>
        <time>2025-05-31T10:56:45.869Z</time>
      </trkpt>
      <trkpt lat="49.14191" lon="-0.52276">
        <ele>103.21</ele>
        <time>2025-05-31T10:56:52.087Z</time>
      </trkpt>
      <trkpt lat="49.14198" lon="-0.52287">
        <ele>103.37</ele>
        <time>2025-05-31T10:56:58.306Z</time>
      </trkpt>
      <trkpt lat="49.14219" lon="-0.52323">
        <ele>103.47</ele>
        <time>2025-05-31T10:57:04.530Z</time>
      </trkpt>
      <trkpt lat="49.1422" lon="-0.52324">
        <ele>103.6</ele>
        <time>2025-05-31T10:57:10.755Z</time>
      </trkpt>
      <trkpt lat="49.14228" lon="-0.52343">
        <ele>103.72</ele>
        <time>2025-05-31T10:57:16.982Z</time>
      </trkpt>
      <trkpt lat="49.14235" lon="-0.52379">
        <ele>103.82</ele>
        <time>2025-05-31T10:57:23.213Z</time>
      </trkpt>
      <trkpt lat="49.14235" lon="-0.52401">
        <ele>103.96</ele>
        <time>2025-05-31T10:57:29.446Z</time>
      </trkpt>
      <trkpt lat="49.14233" lon="-0.52423">
        <ele>104.15</ele>
        <time>2025-05-31T10:57:35.682Z</time>
      </trkpt>
      <trkpt lat="49.14226" lon="-0.52449">
        <ele>104.34</ele>
        <time>2025-05-31T10:57:41.921Z</time>
      </trkpt>
      <trkpt lat="49.14215" lon="-0.52493">
        <ele>104.54</ele>
        <time>2025-05-31T10:57:48.164Z</time>
      </trkpt>
      <trkpt lat="49.14205" lon="-0.52539">
        <ele>104.66</ele>
        <time>2025-05-31T10:57:54.413Z</time>
      </trkpt>
      <trkpt lat="49.14202" lon="-0.52555">
        <ele>104.84</ele>
        <time>2025-05-31T10:58:00.663Z</time>
      </trkpt>
      <trkpt lat="49.142" lon="-0.52603">
        <ele>105</ele>
        <time>2025-05-31T10:58:06.918Z</time>
      </trkpt>
      <trkpt lat="49.14198" lon="-0.52651">
        <ele>105.17</ele>
        <time>2025-05-31T10:58:13.178Z</time>
      </trkpt>
      <trkpt lat="49.14197" lon="-0.52664">
        <ele>105.38</ele>
        <time>2025-05-31T10:58:19.440Z</time>
      </trkpt>
      <trkpt lat="49.14196" lon="-0.52712">
        <ele>105.62</ele>
        <time>2025-05-31T10:58:25.707Z</time>
      </trkpt>
      <trkpt lat="49.14196" lon="-0.5272">
        <ele>105.85</ele>
        <time>2025-05-31T10:58:31.975Z</time>
      </trkpt>
      <trkpt lat="49.14197" lon="-0.52768">
        <ele>106.16</ele>
        <time>2025-05-31T10:58:38.248Z</time>
      </trkpt>
      <trkpt lat="49.14199" lon="-0.52816">
        <ele>106.41</ele>
        <time>2025-05-31T10:58:44.526Z</time>
      </trkpt>
      <trkpt lat="49.14199" lon="-0.52816">
        <ele>106.66</ele>
        <time>2025-05-31T10:58:50.804Z</time>
      </trkpt>
      <trkpt lat="49.14201" lon="-0.52827">
        <ele>106.9</ele>
        <time>2025-05-31T10:58:57.083Z</time>
      </trkpt>
      <trkpt lat="49.14219" lon="-0.52859">
        <ele>107.19</ele>
        <time>2025-05-31T10:59:03.366Z</time>
      </trkpt>
      <trkpt lat="49.14243" lon="-0.5289">
        <ele>107.46</ele>
        <time>2025-05-31T10:59:09.654Z</time>
      </trkpt>
      <trkpt lat="49.14247" lon="-0.52896">
        <ele>107.75</ele>
        <time>2025-05-31T10:59:15.943Z</time>
      </trkpt>
      <trkpt lat="49.14273" lon="-0.52923">
        <ele>108.08</ele>
        <time>2025-05-31T10:59:22.237Z</time>
      </trkpt>
      <trkpt lat="49.14292" lon="-0.52942">
        <ele>108.37</ele>
        <time>2025-05-31T10:59:28.535Z</time>
      </trkpt>
      <trkpt lat="49.14283" lon="-0.52988">
        <ele>108.66</ele>
        <time>2025-05-31T10:59:34.838Z</time>
      </trkpt>
      <trkpt lat="49.14282" lon="-0.52995">
        <ele>108.94</ele>
        <time>2025-05-31T10:59:41.142Z</time>
      </trkpt>
      <trkpt lat="49.14278" lon="-0.53036">
        <ele>109.23</ele>
        <time>2025-05-31T10:59:47.450Z</time>
      </trkpt>
      <trkpt lat="49.14272" lon="-0.53083">
        <ele>109.52</ele>
        <time>2025-05-31T10:59:53.763Z</time>
      </trkpt>
      <trkpt lat="49.14266" lon="-0.5313">
        <ele>109.84</ele>
        <time>2025-05-31T11:00:00.081Z</time>
      </trkpt>
      <trkpt lat="49.14265" lon="-0.53137">
        <ele>110.14</ele>
        <time>2025-05-31T11:00:06.400Z</time>
      </trkpt>
      <trkpt lat="49.14256" lon="-0.53183">
        <ele>110.45</ele>
        <time>2025-05-31T11:00:12.724Z</time>
      </trkpt>
      <trkpt lat="49.14254" lon="-0.53195">
        <ele>110.73</ele>
        <time>2025-05-31T11:00:19.049Z</time>
      </trkpt>
      <trkpt lat="49.14242" lon="-0.53239">
        <ele>111</ele>
        <time>2025-05-31T11:00:25.379Z</time>
      </trkpt>
      <trkpt lat="49.1423" lon="-0.53284">
        <ele>111.34</ele>
        <time>2025-05-31T11:00:31.714Z</time>
      </trkpt>
      <trkpt lat="49.14219" lon="-0.53328">
        <ele>111.7</ele>
        <time>2025-05-31T11:00:38.054Z</time>
      </trkpt>
      <trkpt lat="49.14212" lon="-0.53354">
        <ele>111.98</ele>
        <time>2025-05-31T11:00:44.397Z</time>
      </trkpt>
      <trkpt lat="49.14202" lon="-0.53399">
        <ele>112.23</ele>
        <time>2025-05-31T11:00:50.745Z</time>
      </trkpt>
      <trkpt lat="49.14191" lon="-0.53445">
        <ele>112.45</ele>
        <time>2025-05-31T11:00:57.098Z</time>
      </trkpt>
      <trkpt lat="49.14191" lon="-0.53446">
        <ele>112.7</ele>
        <time>2025-05-31T11:01:03.452Z</time>
      </trkpt>
      <trkpt lat="49.14182" lon="-0.53492">
        <ele>112.9</ele>
        <time>2025-05-31T11:01:09.811Z</time>
      </trkpt>
      <trkpt lat="49.14181" lon="-0.535">
        <ele>113.13</ele>
        <time>2025-05-31T11:01:16.170Z</time>
      </trkpt>
      <trkpt lat="49.14176" lon="-0.53535">
        <ele>113.36</ele>
        <time>2025-05-31T11:01:22.533Z</time>
      </trkpt>
      <trkpt lat="49.14169" lon="-0.53582">
        <ele>113.62</ele>
        <time>2025-05-31T11:01:28.901Z</time>
      </trkpt>
      <trkpt lat="49.14163" lon="-0.53629">
        <ele>113.86</ele>
        <time>2025-05-31T11:01:35.274Z</time>
      </trkpt>
      <trkpt lat="49.14161" lon="-0.53641">
        <ele>114.06</ele>
        <time>2025-05-31T11:01:41.649Z</time>
      </trkpt>
      <trkpt lat="49.14157" lon="-0.5366">
        <ele>114.25</ele>
        <time>2025-05-31T11:01:48.026Z</time>
      </trkpt>
      <trkpt lat="49.14146" lon="-0.53705">
        <ele>114.44</ele>
        <time>2025-05-31T11:01:54.408Z</time>
      </trkpt>
      <trkpt lat="49.14143" lon="-0.5372">
        <ele>114.63</ele>
        <time>2025-05-31T11:02:00.791Z</time>
      </trkpt>
      <trkpt lat="49.14139" lon="-0.53735">
        <ele>114.81</ele>
        <time>2025-05-31T11:02:07.176Z</time>
      </trkpt>
      <trkpt lat="49.14123" lon="-0.53765">
        <ele>114.97</ele>
        <time>2025-05-31T11:02:13.565Z</time>
      </trkpt>
      <trkpt lat="49.14114" lon="-0.53773">
        <ele>115.11</ele>
        <time>2025-05-31T11:02:19.956Z</time>
      </trkpt>
      <trkpt lat="49.14108" lon="-0.53775">
        <ele>115.25</ele>
        <time>2025-05-31T11:02:26.348Z</time>
      </trkpt>
      <trkpt lat="49.14121" lon="-0.53813">
        <ele>115.41</ele>
        <time>2025-05-31T11:02:32.744Z</time>
      </trkpt>
      <trkpt lat="49.14134" lon="-0.53834">
        <ele>115.55</ele>
        <time>2025-05-31T11:02:39.143Z</time>
      </trkpt>
      <trkpt lat="49.14149" lon="-0.53853">
        <ele>115.67</ele>
        <time>2025-05-31T11:02:45.545Z</time>
      </trkpt>
      <trkpt lat="49.14173" lon="-0.53875">
        <ele>115.81</ele>
        <time>2025-05-31T11:02:51.952Z</time>
      </trkpt>
      <trkpt lat="49.14189" lon="-0.53889">
        <ele>115.94</ele>
        <time>2025-05-31T11:02:58.362Z</time>
      </trkpt>
      <trkpt lat="49.142" lon="-0.53898">
        <ele>116.06</ele>
        <time>2025-05-31T11:03:04.774Z</time>
      </trkpt>
      <trkpt lat="49.14227" lon="-0.53922">
        <ele>116.17</ele>
        <time>2025-05-31T11:03:11.191Z</time>
      </trkpt>
      <trkpt lat="49.14244" lon="-0.53937">
        <ele>116.26</ele>
        <time>2025-05-31T11:03:17.611Z</time>
      </trkpt>
      <trkpt lat="49.14252" lon="-0.53947">
        <ele>116.35</ele>
        <time>2025-05-31T11:03:24.033Z</time>
      </trkpt>
      <trkpt lat="49.14268" lon="-0.53979">
        <ele>116.41</ele>
        <time>2025-05-31T11:03:30.459Z</time>
      </trkpt>
      <trkpt lat="49.14275" lon="-0.5401">
        <ele>116.48</ele>
        <time>2025-05-31T11:03:36.888Z</time>
      </trkpt>
      <trkpt lat="49.14277" lon="-0.54037">
        <ele>116.55</ele>
        <time>2025-05-31T11:03:43.320Z</time>
      </trkpt>
      <trkpt lat="49.14275" lon="-0.54062">
        <ele>116.62</ele>
        <time>2025-05-31T11:03:49.755Z</time>
      </trkpt>
      <trkpt lat="49.1427" lon="-0.54087">
        <ele>116.7</ele>
        <time>2025-05-31T11:03:56.193Z</time>
      </trkpt>
      <trkpt lat="49.14253" lon="-0.54127">
        <ele>116.75</ele>
        <time>2025-05-31T11:04:02.636Z</time>
      </trkpt>
      <trkpt lat="49.14237" lon="-0.54164">
        <ele>116.84</ele>
        <time>2025-05-31T11:04:09.083Z</time>
      </trkpt>
      <trkpt lat="49.14228" lon="-0.54187">
        <ele>116.92</ele>
        <time>2025-05-31T11:04:15.533Z</time>
      </trkpt>
      <trkpt lat="49.14218" lon="-0.54231">
        <ele>117.03</ele>
        <time>2025-05-31T11:04:21.988Z</time>
      </trkpt>
      <trkpt lat="49.14217" lon="-0.54267">
        <ele>117.1</ele>
        <time>2025-05-31T11:04:28.447Z</time>
      </trkpt>
      <trkpt lat="49.14222" lon="-0.54314">
        <ele>117.14</ele>
        <time>2025-05-31T11:04:34.911Z</time>
      </trkpt>
      <trkpt lat="49.14222" lon="-0.54316">
        <ele>117.2</ele>
        <time>2025-05-31T11:04:41.375Z</time>
      </trkpt>
      <trkpt lat="49.14232" lon="-0.54362">
        <ele>117.25</ele>
        <time>2025-05-31T11:04:47.844Z</time>
      </trkpt>
      <trkpt lat="49.14241" lon="-0.54407">
        <ele>117.35</ele>
        <time>2025-05-31T11:04:54.318Z</time>
      </trkpt>
      <trkpt lat="49.14251" lon="-0.54453">
        <ele>117.38</ele>
        <time>2025-05-31T11:05:00.797Z</time>
      </trkpt>
      <trkpt lat="49.14254" lon="-0.54468">
        <ele>117.45</ele>
        <time>2025-05-31T11:05:07.278Z</time>
      </trkpt>
      <trkpt lat="49.14263" lon="-0.54514">
        <ele>117.5</ele>
        <time>2025-05-31T11:05:13.764Z</time>
      </trkpt>
      <trkpt lat="49.14272" lon="-0.5456">
        <ele>117.56</ele>
        <time>2025-05-31T11:05:20.255Z</time>
      </trkpt>
      <trkpt lat="49.14281" lon="-0.54606">
        <ele>117.66</ele>
        <time>2025-05-31T11:05:26.751Z</time>
      </trkpt>
      <trkpt lat="49.14285" lon="-0.54626">
        <ele>117.74</ele>
        <time>2025-05-31T11:05:33.249Z</time>
      </trkpt>
      <trkpt lat="49.14295" lon="-0.54672">
        <ele>117.81</ele>
        <time>2025-05-31T11:05:39.752Z</time>
      </trkpt>
      <trkpt lat="49.14304" lon="-0.54717">
        <ele>117.92</ele>
        <time>2025-05-31T11:05:46.260Z</time>
      </trkpt>
      <trkpt lat="49.14311" lon="-0.54749">
        <ele>117.99</ele>
        <time>2025-05-31T11:05:52.772Z</time>
      </trkpt>
      <trkpt lat="49.14322" lon="-0.5478">
        <ele>118.05</ele>
        <time>2025-05-31T11:05:59.287Z</time>
      </trkpt>
      <trkpt lat="49.14339" lon="-0.5482">
        <ele>118.1</ele>
        <time>2025-05-31T11:06:05.807Z</time>
      </trkpt>
      <trkpt lat="49.14357" lon="-0.5486">
        <ele>118.22</ele>
        <time>2025-05-31T11:06:12.332Z</time>
      </trkpt>
      <trkpt lat="49.14362" lon="-0.54873">
        <ele>118.32</ele>
        <time>2025-05-31T11:06:18.859Z</time>
      </trkpt>
      <trkpt lat="49.1438" lon="-0.54913">
        <ele>118.38</ele>
        <time>2025-05-31T11:06:25.391Z</time>
      </trkpt>
      <trkpt lat="49.14397" lon="-0.54952">
        <ele>118.51</ele>
        <time>2025-05-31T11:06:31.928Z</time>
      </trkpt>
      <trkpt lat="49.14415" lon="-0.54992">
        <ele>118.62</ele>
        <time>2025-05-31T11:06:38.470Z</time>
      </trkpt>
      <trkpt lat="49.14427" lon="-0.55019">
        <ele>118.71</ele>
        <time>2025-05-31T11:06:45.016Z</time>
      </trkpt>
      <trkpt lat="49.14445" lon="-0.55058">
        <ele>118.86</ele>
        <time>2025-05-31T11:06:51.567Z</time>
      </trkpt>
      <trkpt lat="49.14464" lon="-0.55097">
        <ele>118.94</ele>
        <time>2025-05-31T11:06:58.123Z</time>
      </trkpt>
      <trkpt lat="49.14474" lon="-0.55119">
        <ele>119.07</ele>
        <time>2025-05-31T11:07:04.682Z</time>
      </trkpt>
      <trkpt lat="49.14493" lon="-0.55157">
        <ele>119.22</ele>
        <time>2025-05-31T11:07:11.246Z</time>
      </trkpt>
      <trkpt lat="49.14513" lon="-0.55195">
        <ele>119.35</ele>
        <time>2025-05-31T11:07:17.815Z</time>
      </trkpt>
      <trkpt lat="49.14532" lon="-0.55232">
        <ele>119.48</ele>
        <time>2025-05-31T11:07:24.389Z</time>
      </trkpt>
      <trkpt lat="49.14551" lon="-0.5527">
        <ele>119.61</ele>
        <time>2025-05-31T11:07:30.968Z</time>
      </trkpt>
      <trkpt lat="49.14571" lon="-0.55308">
        <ele>119.69</ele>
        <time>2025-05-31T11:07:37.552Z</time>
      </trkpt>
      <trkpt lat="49.1459" lon="-0.55346">
        <ele>119.86</ele>
        <time>2025-05-31T11:07:44.141Z</time>
      </trkpt>
      <trkpt lat="49.14608" lon="-0.55381">
        <ele>120.03</ele>
        <time>2025-05-31T11:07:50.734Z</time>
      </trkpt>
      <trkpt lat="49.14627" lon="-0.55419">
        <ele>120.18</ele>
        <time>2025-05-31T11:07:57.332Z</time>
      </trkpt>
      <trkpt lat="49.14646" lon="-0.55458">
        <ele>120.31</ele>
        <time>2025-05-31T11:08:03.936Z</time>
      </trkpt>
      <trkpt lat="49.14648" lon="-0.55462">
        <ele>120.41</ele>
        <time>2025-05-31T11:08:10.540Z</time>
      </trkpt>
      <trkpt lat="49.14654" lon="-0.55469">
        <ele>120.49</ele>
        <time>2025-05-31T11:08:17.145Z</time>
      </trkpt>
      <trkpt lat="49.14662" lon="-0.55478">
        <ele>120.57</ele>
        <time>2025-05-31T11:08:23.752Z</time>
      </trkpt>
      <trkpt lat="49.14692" lon="-0.55494">
        <ele>120.63</ele>
        <time>2025-05-31T11:08:30.364Z</time>
      </trkpt>
      <trkpt lat="49.14721" lon="-0.55511">
        <ele>120.7</ele>
        <time>2025-05-31T11:08:36.981Z</time>
      </trkpt>
      <trkpt lat="49.14751" lon="-0.55527">
        <ele>120.75</ele>
        <time>2025-05-31T11:08:43.603Z</time>
      </trkpt>
      <trkpt lat="49.1478" lon="-0.55543">
        <ele>120.8</ele>
        <time>2025-05-31T11:08:50.230Z</time>
      </trkpt>
      <trkpt lat="49.1481" lon="-0.5556">
        <ele>120.81</ele>
        <time>2025-05-31T11:08:56.862Z</time>
      </trkpt>
      <trkpt lat="49.14823" lon="-0.55567">
        <ele>120.79</ele>
        <time>2025-05-31T11:09:03.496Z</time>
      </trkpt>
      <trkpt lat="49.14841" lon="-0.55577">
        <ele>120.77</ele>
        <time>2025-05-31T11:09:10.133Z</time>
      </trkpt>
      <trkpt lat="49.1487" lon="-0.55594">
        <ele>120.71</ele>
        <time>2025-05-31T11:09:16.775Z</time>
      </trkpt>
      <trkpt lat="49.14873" lon="-0.55596">
        <ele>120.65</ele>
        <time>2025-05-31T11:09:23.418Z</time>
      </trkpt>
      <trkpt lat="49.14903" lon="-0.55612">
        <ele>120.56</ele>
        <time>2025-05-31T11:09:30.066Z</time>
      </trkpt>
      <trkpt lat="49.14932" lon="-0.55629">
        <ele>120.47</ele>
        <time>2025-05-31T11:09:36.719Z</time>
      </trkpt>
      <trkpt lat="49.14962" lon="-0.55645">
        <ele>120.36</ele>
        <time>2025-05-31T11:09:43.377Z</time>
      </trkpt>
      <trkpt lat="49.14991" lon="-0.55661">
        <ele>120.24</ele>
        <time>2025-05-31T11:09:50.040Z</time>
      </trkpt>
      <trkpt lat="49.15021" lon="-0.55678">
        <ele>120.05</ele>
        <time>2025-05-31T11:09:56.708Z</time>
      </trkpt>
      <trkpt lat="49.15051" lon="-0.55694">
        <ele>119.87</ele>
        <time>2025-05-31T11:10:03.381Z</time>
      </trkpt>
      <trkpt lat="49.15078" lon="-0.55709">
        <ele>119.67</ele>
        <time>2025-05-31T11:10:10.059Z</time>
      </trkpt>
      <trkpt lat="49.15108" lon="-0.55725">
        <ele>119.44</ele>
        <time>2025-05-31T11:10:16.742Z</time>
      </trkpt>
      <trkpt lat="49.15137" lon="-0.55741">
        <ele>119.19</ele>
        <time>2025-05-31T11:10:23.430Z</time>
      </trkpt>
      <trkpt lat="49.15167" lon="-0.55757">
        <ele>118.95</ele>
        <time>2025-05-31T11:10:30.123Z</time>
      </trkpt>
      <trkpt lat="49.15197" lon="-0.55773">
        <ele>118.7</ele>
        <time>2025-05-31T11:10:36.821Z</time>
      </trkpt>
      <trkpt lat="49.15226" lon="-0.5579">
        <ele>118.36</ele>
        <time>2025-05-31T11:10:43.524Z</time>
      </trkpt>
      <trkpt lat="49.15256" lon="-0.55806">
        <ele>117.98</ele>
        <time>2025-05-31T11:10:50.232Z</time>
      </trkpt>
      <trkpt lat="49.15285" lon="-0.55822">
        <ele>117.61</ele>
        <time>2025-05-31T11:10:56.945Z</time>
      </trkpt>
      <trkpt lat="49.15315" lon="-0.55839">
        <ele>117.24</ele>
        <time>2025-05-31T11:11:03.663Z</time>
      </trkpt>
      <trkpt lat="49.15345" lon="-0.55855">
        <ele>116.85</ele>
        <time>2025-05-31T11:11:10.386Z</time>
      </trkpt>
      <trkpt lat="49.15374" lon="-0.55871">
        <ele>116.44</ele>
        <time>2025-05-31T11:11:17.114Z</time>
      </trkpt>
      <trkpt lat="49.15404" lon="-0.55887">
        <ele>116.03</ele>
        <time>2025-05-31T11:11:23.847Z</time>
      </trkpt>
      <trkpt lat="49.15432" lon="-0.55903">
        <ele>115.51</ele>
        <time>2025-05-31T11:11:30.585Z</time>
      </trkpt>
      <trkpt lat="49.15461" lon="-0.5592">
        <ele>115.03</ele>
        <time>2025-05-31T11:11:37.328Z</time>
      </trkpt>
      <trkpt lat="49.1549" lon="-0.55936">
        <ele>114.54</ele>
        <time>2025-05-31T11:11:44.076Z</time>
      </trkpt>
      <trkpt lat="49.15511" lon="-0.55954">
        <ele>114.07</ele>
        <time>2025-05-31T11:11:50.828Z</time>
      </trkpt>
      <trkpt lat="49.15533" lon="-0.5598">
        <ele>113.51</ele>
        <time>2025-05-31T11:11:57.584Z</time>
      </trkpt>
      <trkpt lat="49.15557" lon="-0.56012">
        <ele>113.01</ele>
        <time>2025-05-31T11:12:04.345Z</time>
      </trkpt>
      <trkpt lat="49.1558" lon="-0.56043">
        <ele>112.55</ele>
        <time>2025-05-31T11:12:11.111Z</time>
      </trkpt>
      <trkpt lat="49.15604" lon="-0.56075">
        <ele>112.14</ele>
        <time>2025-05-31T11:12:17.882Z</time>
      </trkpt>
      <trkpt lat="49.15609" lon="-0.56082">
        <ele>111.69</ele>
        <time>2025-05-31T11:12:24.654Z</time>
      </trkpt>
      <trkpt lat="49.15633" lon="-0.56114">
        <ele>111.24</ele>
        <time>2025-05-31T11:12:31.432Z</time>
      </trkpt>
      <trkpt lat="49.15656" lon="-0.56145">
        <ele>110.78</ele>
        <time>2025-05-31T11:12:38.215Z</time>
      </trkpt>
      <trkpt lat="49.15677" lon="-0.56172">
        <ele>110.32</ele>
        <time>2025-05-31T11:12:45.002Z</time>
      </trkpt>
      <trkpt lat="49.15704" lon="-0.56197">
        <ele>109.86</ele>
        <time>2025-05-31T11:12:51.794Z</time>
      </trkpt>
      <trkpt lat="49.15704" lon="-0.56197">
        <ele>109.46</ele>
        <time>2025-05-31T11:12:58.586Z</time>
      </trkpt>
      <trkpt lat="49.15732" lon="-0.56218">
        <ele>109.08</ele>
        <time>2025-05-31T11:13:05.383Z</time>
      </trkpt>
      <trkpt lat="49.15748" lon="-0.56229">
        <ele>108.71</ele>
        <time>2025-05-31T11:13:12.183Z</time>
      </trkpt>
      <trkpt lat="49.15777" lon="-0.56249">
        <ele>108.3</ele>
        <time>2025-05-31T11:13:18.988Z</time>
      </trkpt>
      <trkpt lat="49.15805" lon="-0.56269">
        <ele>107.96</ele>
        <time>2025-05-31T11:13:25.798Z</time>
      </trkpt>
      <trkpt lat="49.15834" lon="-0.56289">
        <ele>107.64</ele>
        <time>2025-05-31T11:13:32.613Z</time>
      </trkpt>
      <trkpt lat="49.15862" lon="-0.56309">
        <ele>107.32</ele>
        <time>2025-05-31T11:13:39.433Z</time>
      </trkpt>
      <trkpt lat="49.15873" lon="-0.56317">
        <ele>107.02</ele>
        <time>2025-05-31T11:13:46.255Z</time>
      </trkpt>
      <trkpt lat="49.15902" lon="-0.56337">
        <ele>106.74</ele>
        <time>2025-05-31T11:13:53.082Z</time>
      </trkpt>
      <trkpt lat="49.1593" lon="-0.56357">
        <ele>106.47</ele>
        <time>2025-05-31T11:13:59.914Z</time>
      </trkpt>
      <trkpt lat="49.15959" lon="-0.56378">
        <ele>106.2</ele>
        <time>2025-05-31T11:14:06.751Z</time>
      </trkpt>
      <trkpt lat="49.15987" lon="-0.56398">
        <ele>105.94</ele>
        <time>2025-05-31T11:14:13.593Z</time>
      </trkpt>
      <trkpt lat="49.16016" lon="-0.56418">
        <ele>105.76</ele>
        <time>2025-05-31T11:14:20.440Z</time>
      </trkpt>
      <trkpt lat="49.16044" lon="-0.56438">
        <ele>105.59</ele>
        <time>2025-05-31T11:14:27.292Z</time>
      </trkpt>
      <trkpt lat="49.16073" lon="-0.56458">
        <ele>105.36</ele>
        <time>2025-05-31T11:14:34.149Z</time>
      </trkpt>
      <trkpt lat="49.16101" lon="-0.56478">
        <ele>105.16</ele>
        <time>2025-05-31T11:14:41.011Z</time>
      </trkpt>
      <trkpt lat="49.1613" lon="-0.56499">
        <ele>104.98</ele>
        <time>2025-05-31T11:14:47.878Z</time>
      </trkpt>
      <trkpt lat="49.16159" lon="-0.56519">
        <ele>104.76</ele>
        <time>2025-05-31T11:14:54.750Z</time>
      </trkpt>
      <trkpt lat="49.16173" lon="-0.56529">
        <ele>104.57</ele>
        <time>2025-05-31T11:15:01.625Z</time>
      </trkpt>
      <trkpt lat="49.16202" lon="-0.56549">
        <ele>104.38</ele>
        <time>2025-05-31T11:15:08.505Z</time>
      </trkpt>
      <trkpt lat="49.16217" lon="-0.5656">
        <ele>104.23</ele>
        <time>2025-05-31T11:15:15.388Z</time>
      </trkpt>
      <trkpt lat="49.16246" lon="-0.56578">
        <ele>104.11</ele>
        <time>2025-05-31T11:15:22.276Z</time>
      </trkpt>
      <trkpt lat="49.16252" lon="-0.56581">
        <ele>103.96</ele>
        <time>2025-05-31T11:15:29.165Z</time>
      </trkpt>
      <trkpt lat="49.1628" lon="-0.56603">
        <ele>103.78</ele>
        <time>2025-05-31T11:15:36.059Z</time>
      </trkpt>
      <trkpt lat="49.16282" lon="-0.56604">
        <ele>103.63</ele>
        <time>2025-05-31T11:15:42.953Z</time>
      </trkpt>
      <trkpt lat="49.1631" lon="-0.56625">
        <ele>103.46</ele>
        <time>2025-05-31T11:15:49.852Z</time>
      </trkpt>
      <trkpt lat="49.16339" lon="-0.56645">
        <ele>103.25</ele>
        <time>2025-05-31T11:15:56.756Z</time>
      </trkpt>
      <trkpt lat="49.16367" lon="-0.56666">
        <ele>103.04</ele>
        <time>2025-05-31T11:16:03.665Z</time>
      </trkpt>
      <trkpt lat="49.16392" lon="-0.56684">
        <ele>102.87</ele>
        <time>2025-05-31T11:16:10.578Z</time>
      </trkpt>
      <trkpt lat="49.16412" lon="-0.56704">
        <ele>102.69</ele>
        <time>2025-05-31T11:16:17.495Z</time>
      </trkpt>
      <trkpt lat="49.16437" lon="-0.56729">
        <ele>102.58</ele>
        <time>2025-05-31T11:16:24.417Z</time>
      </trkpt>
      <trkpt lat="49.16462" lon="-0.56757">
        <ele>102.42</ele>
        <time>2025-05-31T11:16:31.344Z</time>
      </trkpt>
      <trkpt lat="49.16488" lon="-0.56786">
        <ele>102.14</ele>
        <time>2025-05-31T11:16:38.276Z</time>
      </trkpt>
      <trkpt lat="49.16504" lon="-0.56804">
        <ele>101.91</ele>
        <time>2025-05-31T11:16:45.211Z</time>
      </trkpt>
      <trkpt lat="49.1653" lon="-0.5683">
        <ele>101.64</ele>
        <time>2025-05-31T11:16:52.151Z</time>
      </trkpt>
      <trkpt lat="49.16557" lon="-0.56857">
        <ele>101.4</ele>
        <time>2025-05-31T11:16:59.096Z</time>
      </trkpt>
      <trkpt lat="49.16575" lon="-0.56875">
        <ele>101.17</ele>
        <time>2025-05-31T11:17:06.045Z</time>
      </trkpt>
      <trkpt lat="49.16575" lon="-0.56874">
        <ele>100.92</ele>
        <time>2025-05-31T11:17:12.994Z</time>
      </trkpt>
      <trkpt lat="49.16602" lon="-0.569">
        <ele>100.67</ele>
        <time>2025-05-31T11:17:19.948Z</time>
      </trkpt>
      <trkpt lat="49.16604" lon="-0.56902">
        <ele>100.4</ele>
        <time>2025-05-31T11:17:26.903Z</time>
      </trkpt>
      <trkpt lat="49.1663" lon="-0.5693">
        <ele>100.11</ele>
        <time>2025-05-31T11:17:33.863Z</time>
      </trkpt>
      <trkpt lat="49.16649" lon="-0.5695">
        <ele>99.81</ele>
        <time>2025-05-31T11:17:40.826Z</time>
      </trkpt>
      <trkpt lat="49.16674" lon="-0.56979">
        <ele>99.48</ele>
        <time>2025-05-31T11:17:47.794Z</time>
      </trkpt>
      <trkpt lat="49.16699" lon="-0.57008">
        <ele>99.17</ele>
        <time>2025-05-31T11:17:54.767Z</time>
      </trkpt>
      <trkpt lat="49.167" lon="-0.57009">
        <ele>98.87</ele>
        <time>2025-05-31T11:18:01.741Z</time>
      </trkpt>
      <trkpt lat="49.16724" lon="-0.57041">
        <ele>98.54</ele>
        <time>2025-05-31T11:18:08.720Z</time>
      </trkpt>
      <trkpt lat="49.16747" lon="-0.57072">
        <ele>98.18</ele>
        <time>2025-05-31T11:18:15.704Z</time>
      </trkpt>
      <trkpt lat="49.16754" lon="-0.57081">
        <ele>97.84</ele>
        <time>2025-05-31T11:18:22.689Z</time>
      </trkpt>
      <trkpt lat="49.16777" lon="-0.57114">
        <ele>97.47</ele>
        <time>2025-05-31T11:18:29.679Z</time>
      </trkpt>
      <trkpt lat="49.16788" lon="-0.57129">
        <ele>97.13</ele>
        <time>2025-05-31T11:18:36.672Z</time>
      </trkpt>
      <trkpt lat="49.16811" lon="-0.57162">
        <ele>96.78</ele>
        <time>2025-05-31T11:18:43.670Z</time>
      </trkpt>
      <trkpt lat="49.16833" lon="-0.57196">
        <ele>96.44</ele>
        <time>2025-05-31T11:18:50.673Z</time>
      </trkpt>
      <trkpt lat="49.16842" lon="-0.57209">
        <ele>96.06</ele>
        <time>2025-05-31T11:18:57.678Z</time>
      </trkpt>
      <trkpt lat="49.16863" lon="-0.57245">
        <ele>95.68</ele>
        <time>2025-05-31T11:19:04.688Z</time>
      </trkpt>
      <trkpt lat="49.16883" lon="-0.57281">
        <ele>95.27</ele>
        <time>2025-05-31T11:19:11.703Z</time>
      </trkpt>
      <trkpt lat="49.16904" lon="-0.57317">
        <ele>94.93</ele>
        <time>2025-05-31T11:19:18.723Z</time>
      </trkpt>
      <trkpt lat="49.16913" lon="-0.57333">
        <ele>94.6</ele>
        <time>2025-05-31T11:19:25.745Z</time>
      </trkpt>
      <trkpt lat="49.16935" lon="-0.57367">
        <ele>94.24</ele>
        <time>2025-05-31T11:19:32.772Z</time>
      </trkpt>
      <trkpt lat="49.16959" lon="-0.57398">
        <ele>93.87</ele>
        <time>2025-05-31T11:19:39.804Z</time>
      </trkpt>
      <trkpt lat="49.16966" lon="-0.57406">
        <ele>93.52</ele>
        <time>2025-05-31T11:19:46.837Z</time>
      </trkpt>
      <trkpt lat="49.16974" lon="-0.57419">
        <ele>93.16</ele>
        <time>2025-05-31T11:19:53.872Z</time>
      </trkpt>
      <trkpt lat="49.16998" lon="-0.57449">
        <ele>92.77</ele>
        <time>2025-05-31T11:20:00.912Z</time>
      </trkpt>
      <trkpt lat="49.17023" lon="-0.5748">
        <ele>92.36</ele>
        <time>2025-05-31T11:20:07.957Z</time>
      </trkpt>
      <trkpt lat="49.17047" lon="-0.5751">
        <ele>91.97</ele>
        <time>2025-05-31T11:20:15.007Z</time>
      </trkpt>
      <trkpt lat="49.17071" lon="-0.57541">
        <ele>91.6</ele>
        <time>2025-05-31T11:20:22.062Z</time>
      </trkpt>
      <trkpt lat="49.17087" lon="-0.5756">
        <ele>91.25</ele>
        <time>2025-05-31T11:20:29.121Z</time>
      </trkpt>
      <trkpt lat="49.17112" lon="-0.5759">
        <ele>90.89</ele>
        <time>2025-05-31T11:20:36.185Z</time>
      </trkpt>
      <trkpt lat="49.17136" lon="-0.5762">
        <ele>90.56</ele>
        <time>2025-05-31T11:20:43.254Z</time>
      </trkpt>
      <trkpt lat="49.1714" lon="-0.57624">
        <ele>90.25</ele>
        <time>2025-05-31T11:20:50.323Z</time>
      </trkpt>
      <trkpt lat="49.17166" lon="-0.57651">
        <ele>89.93</ele>
        <time>2025-05-31T11:20:57.397Z</time>
      </trkpt>
      <trkpt lat="49.1717" lon="-0.57655">
        <ele>89.62</ele>
        <time>2025-05-31T11:21:04.472Z</time>
      </trkpt>
      <trkpt lat="49.17197" lon="-0.57679">
        <ele>89.32</ele>
        <time>2025-05-31T11:21:11.552Z</time>
      </trkpt>
      <trkpt lat="49.17202" lon="-0.57683">
        <ele>89.03</ele>
        <time>2025-05-31T11:21:18.633Z</time>
      </trkpt>
      <trkpt lat="49.17211" lon="-0.57685">
        <ele>88.76</ele>
        <time>2025-05-31T11:21:25.716Z</time>
      </trkpt>
      <trkpt lat="49.17214" lon="-0.57704">
        <ele>88.49</ele>
        <time>2025-05-31T11:21:32.801Z</time>
      </trkpt>
      <trkpt lat="49.17222" lon="-0.5775">
        <ele>88.2</ele>
        <time>2025-05-31T11:21:39.891Z</time>
      </trkpt>
      <trkpt lat="49.1723" lon="-0.57797">
        <ele>87.94</ele>
        <time>2025-05-31T11:21:46.986Z</time>
      </trkpt>
      <trkpt lat="49.17238" lon="-0.57843">
        <ele>87.69</ele>
        <time>2025-05-31T11:21:54.086Z</time>
      </trkpt>
      <trkpt lat="49.17246" lon="-0.5789">
        <ele>87.4</ele>
        <time>2025-05-31T11:22:01.191Z</time>
      </trkpt>
      <trkpt lat="49.17252" lon="-0.57927">
        <ele>87.2</ele>
        <time>2025-05-31T11:22:08.300Z</time>
      </trkpt>
      <trkpt lat="49.1726" lon="-0.57974">
        <ele>87.04</ele>
        <time>2025-05-31T11:22:15.414Z</time>
      </trkpt>
      <trkpt lat="49.17267" lon="-0.5802">
        <ele>86.89</ele>
        <time>2025-05-31T11:22:22.533Z</time>
      </trkpt>
      <trkpt lat="49.17275" lon="-0.58067">
        <ele>86.71</ele>
        <time>2025-05-31T11:22:29.657Z</time>
      </trkpt>
      <trkpt lat="49.17283" lon="-0.58113">
        <ele>86.5</ele>
        <time>2025-05-31T11:22:36.786Z</time>
      </trkpt>
      <trkpt lat="49.17291" lon="-0.5816">
        <ele>86.3</ele>
        <time>2025-05-31T11:22:43.920Z</time>
      </trkpt>
      <trkpt lat="49.17298" lon="-0.58206">
        <ele>86.16</ele>
        <time>2025-05-31T11:22:51.059Z</time>
      </trkpt>
      <trkpt lat="49.17306" lon="-0.58253">
        <ele>86.01</ele>
        <time>2025-05-31T11:22:58.203Z</time>
      </trkpt>
      <trkpt lat="49.17314" lon="-0.58299">
        <ele>85.88</ele>
        <time>2025-05-31T11:23:05.352Z</time>
      </trkpt>
      <trkpt lat="49.17322" lon="-0.58346">
        <ele>85.73</ele>
        <time>2025-05-31T11:23:12.506Z</time>
      </trkpt>
      <trkpt lat="49.17322" lon="-0.58348">
        <ele>85.56</ele>
        <time>2025-05-31T11:23:19.660Z</time>
      </trkpt>
      <trkpt lat="49.17326" lon="-0.58371">
        <ele>85.37</ele>
        <time>2025-05-31T11:23:26.817Z</time>
      </trkpt>
      <trkpt lat="49.17329" lon="-0.58389">
        <ele>85.19</ele>
        <time>2025-05-31T11:23:33.976Z</time>
      </trkpt>
      <trkpt lat="49.17335" lon="-0.58391">
        <ele>85.03</ele>
        <time>2025-05-31T11:23:41.136Z</time>
      </trkpt>
      <trkpt lat="49.17347" lon="-0.58397">
        <ele>84.88</ele>
        <time>2025-05-31T11:23:48.298Z</time>
      </trkpt>
      <trkpt lat="49.17375" lon="-0.58418">
        <ele>84.69</ele>
        <time>2025-05-31T11:23:55.465Z</time>
      </trkpt>
      <trkpt lat="49.17391" lon="-0.58429">
        <ele>84.53</ele>
        <time>2025-05-31T11:24:02.635Z</time>
      </trkpt>
      <trkpt lat="49.17417" lon="-0.58457">
        <ele>84.34</ele>
        <time>2025-05-31T11:24:09.810Z</time>
      </trkpt>
      <trkpt lat="49.17432" lon="-0.58473">
        <ele>84.17</ele>
        <time>2025-05-31T11:24:16.988Z</time>
      </trkpt>
      <trkpt lat="49.17458" lon="-0.585">
        <ele>84.05</ele>
        <time>2025-05-31T11:24:24.171Z</time>
      </trkpt>
      <trkpt lat="49.17464" lon="-0.58506">
        <ele>83.9</ele>
        <time>2025-05-31T11:24:31.355Z</time>
      </trkpt>
      <trkpt lat="49.17493" lon="-0.58526">
        <ele>83.75</ele>
        <time>2025-05-31T11:24:38.544Z</time>
      </trkpt>
      <trkpt lat="49.17507" lon="-0.58536">
        <ele>83.6</ele>
        <time>2025-05-31T11:24:45.735Z</time>
      </trkpt>
      <trkpt lat="49.17536" lon="-0.58555">
        <ele>83.44</ele>
        <time>2025-05-31T11:24:52.932Z</time>
      </trkpt>
      <trkpt lat="49.17565" lon="-0.58574">
        <ele>83.25</ele>
        <time>2025-05-31T11:25:00.134Z</time>
      </trkpt>
      <trkpt lat="49.17594" lon="-0.58593">
        <ele>83.13</ele>
        <time>2025-05-31T11:25:07.341Z</time>
      </trkpt>
      <trkpt lat="49.17623" lon="-0.58612">
        <ele>83.02</ele>
        <time>2025-05-31T11:25:14.553Z</time>
      </trkpt>
      <trkpt lat="49.17626" lon="-0.58614">
        <ele>82.93</ele>
        <time>2025-05-31T11:25:21.765Z</time>
      </trkpt>
      <trkpt lat="49.17655" lon="-0.58633">
        <ele>82.86</ele>
        <time>2025-05-31T11:25:28.982Z</time>
      </trkpt>
      <trkpt lat="49.17684" lon="-0.58652">
        <ele>82.72</ele>
        <time>2025-05-31T11:25:36.204Z</time>
      </trkpt>
      <trkpt lat="49.17713" lon="-0.58671">
        <ele>82.7</ele>
        <time>2025-05-31T11:25:43.431Z</time>
      </trkpt>
      <trkpt lat="49.17741" lon="-0.58691">
        <ele>82.72</ele>
        <time>2025-05-31T11:25:50.663Z</time>
      </trkpt>
      <trkpt lat="49.1777" lon="-0.5871">
        <ele>82.68</ele>
        <time>2025-05-31T11:25:57.900Z</time>
      </trkpt>
      <trkpt lat="49.17799" lon="-0.58729">
        <ele>82.71</ele>
        <time>2025-05-31T11:26:05.142Z</time>
      </trkpt>
      <trkpt lat="49.17828" lon="-0.58748">
        <ele>82.75</ele>
        <time>2025-05-31T11:26:12.390Z</time>
      </trkpt>
      <trkpt lat="49.1784" lon="-0.58756">
        <ele>82.81</ele>
        <time>2025-05-31T11:26:19.640Z</time>
      </trkpt>
      <trkpt lat="49.17869" lon="-0.58775">
        <ele>82.93</ele>
        <time>2025-05-31T11:26:26.895Z</time>
      </trkpt>
      <trkpt lat="49.17898" lon="-0.58793">
        <ele>83.09</ele>
        <time>2025-05-31T11:26:34.155Z</time>
      </trkpt>
      <trkpt lat="49.17927" lon="-0.58812">
        <ele>83.25</ele>
        <time>2025-05-31T11:26:41.420Z</time>
      </trkpt>
      <trkpt lat="49.17956" lon="-0.58831">
        <ele>83.47</ele>
        <time>2025-05-31T11:26:48.690Z</time>
      </trkpt>
      <trkpt lat="49.17956" lon="-0.58831">
        <ele>83.7</ele>
        <time>2025-05-31T11:26:55.960Z</time>
      </trkpt>
      <trkpt lat="49.17985" lon="-0.5885">
        <ele>83.98</ele>
        <time>2025-05-31T11:27:03.235Z</time>
      </trkpt>
      <trkpt lat="49.18014" lon="-0.5887">
        <ele>84.27</ele>
        <time>2025-05-31T11:27:10.515Z</time>
      </trkpt>
      <trkpt lat="49.18021" lon="-0.58875">
        <ele>84.6</ele>
        <time>2025-05-31T11:27:17.796Z</time>
      </trkpt>
      <trkpt lat="49.1805" lon="-0.58893">
        <ele>84.92</ele>
        <time>2025-05-31T11:27:25.082Z</time>
      </trkpt>
      <trkpt lat="49.18054" lon="-0.58896">
        <ele>85.32</ele>
        <time>2025-05-31T11:27:32.369Z</time>
      </trkpt>
      <trkpt lat="49.18084" lon="-0.5891">
        <ele>85.77</ele>
        <time>2025-05-31T11:27:39.661Z</time>
      </trkpt>
      <trkpt lat="49.18092" lon="-0.58914">
        <ele>86.23</ele>
        <time>2025-05-31T11:27:46.954Z</time>
      </trkpt>
      <trkpt lat="49.18122" lon="-0.58926">
        <ele>86.78</ele>
        <time>2025-05-31T11:27:54.252Z</time>
      </trkpt>
      <trkpt lat="49.18139" lon="-0.58933">
        <ele>87.37</ele>
        <time>2025-05-31T11:28:01.553Z</time>
      </trkpt>
      <trkpt lat="49.18162" lon="-0.58941">
        <ele>87.99</ele>
        <time>2025-05-31T11:28:08.858Z</time>
      </trkpt>
      <trkpt lat="49.18193" lon="-0.5895">
        <ele>88.64</ele>
        <time>2025-05-31T11:28:16.168Z</time>
      </trkpt>
      <trkpt lat="49.18224" lon="-0.58958">
        <ele>89.3</ele>
        <time>2025-05-31T11:28:23.483Z</time>
      </trkpt>
      <trkpt lat="49.18255" lon="-0.58967">
        <ele>89.96</ele>
        <time>2025-05-31T11:28:30.803Z</time>
      </trkpt>
      <trkpt lat="49.18269" lon="-0.58971">
        <ele>90.6</ele>
        <time>2025-05-31T11:28:38.125Z</time>
      </trkpt>
      <trkpt lat="49.183" lon="-0.58979">
        <ele>91.25</ele>
        <time>2025-05-31T11:28:45.452Z</time>
      </trkpt>
      <trkpt lat="49.18331" lon="-0.58987">
        <ele>91.95</ele>
        <time>2025-05-31T11:28:52.784Z</time>
      </trkpt>
      <trkpt lat="49.18337" lon="-0.58989">
        <ele>92.64</ele>
        <time>2025-05-31T11:29:00.117Z</time>
      </trkpt>
      <trkpt lat="49.18349" lon="-0.58997">
        <ele>93.36</ele>
        <time>2025-05-31T11:29:07.452Z</time>
      </trkpt>
      <trkpt lat="49.18375" lon="-0.59023">
        <ele>94.1</ele>
        <time>2025-05-31T11:29:14.792Z</time>
      </trkpt>
      <trkpt lat="49.18396" lon="-0.59044">
        <ele>94.82</ele>
        <time>2025-05-31T11:29:22.136Z</time>
      </trkpt>
      <trkpt lat="49.18412" lon="-0.5906">
        <ele>95.54</ele>
        <time>2025-05-31T11:29:29.483Z</time>
      </trkpt>
      <trkpt lat="49.18439" lon="-0.59085">
        <ele>96.29</ele>
        <time>2025-05-31T11:29:36.836Z</time>
      </trkpt>
      <trkpt lat="49.18465" lon="-0.59111">
        <ele>97.08</ele>
        <time>2025-05-31T11:29:44.194Z</time>
      </trkpt>
      <trkpt lat="49.18473" lon="-0.59118">
        <ele>97.81</ele>
        <time>2025-05-31T11:29:51.553Z</time>
      </trkpt>
      <trkpt lat="49.1849" lon="-0.59135">
        <ele>98.55</ele>
        <time>2025-05-31T11:29:58.915Z</time>
      </trkpt>
      <trkpt lat="49.18505" lon="-0.59155">
        <ele>99.26</ele>
        <time>2025-05-31T11:30:06.280Z</time>
      </trkpt>
      <trkpt lat="49.18526" lon="-0.5919">
        <ele>99.91</ele>
        <time>2025-05-31T11:30:13.650Z</time>
      </trkpt>
      <trkpt lat="49.18537" lon="-0.59208">
        <ele>100.6</ele>
        <time>2025-05-31T11:30:21.023Z</time>
      </trkpt>
      <trkpt lat="49.1856" lon="-0.59241">
        <ele>101.28</ele>
        <time>2025-05-31T11:30:28.401Z</time>
      </trkpt>
      <trkpt lat="49.18574" lon="-0.59263">
        <ele>101.91</ele>
        <time>2025-05-31T11:30:35.782Z</time>
      </trkpt>
      <trkpt lat="49.18601" lon="-0.59288">
        <ele>102.49</ele>
        <time>2025-05-31T11:30:43.168Z</time>
      </trkpt>
      <trkpt lat="49.18605" lon="-0.59292">
        <ele>103.04</ele>
        <time>2025-05-31T11:30:50.555Z</time>
      </trkpt>
      <trkpt lat="49.18619" lon="-0.59301">
        <ele>103.57</ele>
        <time>2025-05-31T11:30:57.945Z</time>
      </trkpt>
      <trkpt lat="49.18646" lon="-0.59276">
        <ele>104.09</ele>
        <time>2025-05-31T11:31:05.340Z</time>
      </trkpt>
      <trkpt lat="49.18672" lon="-0.5925">
        <ele>104.6</ele>
        <time>2025-05-31T11:31:12.740Z</time>
      </trkpt>
      <trkpt lat="49.18699" lon="-0.59225">
        <ele>105.08</ele>
        <time>2025-05-31T11:31:20.145Z</time>
      </trkpt>
      <trkpt lat="49.18726" lon="-0.592">
        <ele>105.52</ele>
        <time>2025-05-31T11:31:27.555Z</time>
      </trkpt>
      <trkpt lat="49.18733" lon="-0.59193">
        <ele>105.89</ele>
        <time>2025-05-31T11:31:34.966Z</time>
      </trkpt>
      <trkpt lat="49.1876" lon="-0.5917">
        <ele>106.22</ele>
        <time>2025-05-31T11:31:42.382Z</time>
      </trkpt>
      <trkpt lat="49.18788" lon="-0.59146">
        <ele>106.56</ele>
        <time>2025-05-31T11:31:49.803Z</time>
      </trkpt>
      <trkpt lat="49.18793" lon="-0.59142">
        <ele>106.82</ele>
        <time>2025-05-31T11:31:57.225Z</time>
      </trkpt>
      <trkpt lat="49.18821" lon="-0.5912">
        <ele>107.05</ele>
        <time>2025-05-31T11:32:04.652Z</time>
      </trkpt>
      <trkpt lat="49.18841" lon="-0.59105">
        <ele>107.23</ele>
        <time>2025-05-31T11:32:12.083Z</time>
      </trkpt>
      <trkpt lat="49.18866" lon="-0.59087">
        <ele>107.35</ele>
        <time>2025-05-31T11:32:19.518Z</time>
      </trkpt>
      <trkpt lat="49.18873" lon="-0.5908">
        <ele>107.45</ele>
        <time>2025-05-31T11:32:26.954Z</time>
      </trkpt>
      <trkpt lat="49.18873" lon="-0.5912">
        <ele>107.52</ele>
        <time>2025-05-31T11:32:34.395Z</time>
      </trkpt>
      <trkpt lat="49.18874" lon="-0.59131">
        <ele>107.56</ele>
        <time>2025-05-31T11:32:41.837Z</time>
      </trkpt>
      <trkpt lat="49.18879" lon="-0.59159">
        <ele>107.55</ele>
        <time>2025-05-31T11:32:49.282Z</time>
      </trkpt>
      <trkpt lat="49.18889" lon="-0.59205">
        <ele>107.55</ele>
        <time>2025-05-31T11:32:56.732Z</time>
      </trkpt>
      <trkpt lat="49.18899" lon="-0.5925">
        <ele>107.51</ele>
        <time>2025-05-31T11:33:04.187Z</time>
      </trkpt>
      <trkpt lat="49.18909" lon="-0.59296">
        <ele>107.39</ele>
        <time>2025-05-31T11:33:11.647Z</time>
      </trkpt>
      <trkpt lat="49.18915" lon="-0.59325">
        <ele>107.31</ele>
        <time>2025-05-31T11:33:19.110Z</time>
      </trkpt>
      <trkpt lat="49.18921" lon="-0.59367">
        <ele>107.25</ele>
        <time>2025-05-31T11:33:26.578Z</time>
      </trkpt>
      <trkpt lat="49.18932" lon="-0.59412">
        <ele>107.1</ele>
        <time>2025-05-31T11:33:34.051Z</time>
      </trkpt>
      <trkpt lat="49.18943" lon="-0.59457">
        <ele>106.89</ele>
        <time>2025-05-31T11:33:41.529Z</time>
      </trkpt>
      <trkpt lat="49.18951" lon="-0.59491">
        <ele>106.68</ele>
        <time>2025-05-31T11:33:49.011Z</time>
      </trkpt>
      <trkpt lat="49.18955" lon="-0.59496">
        <ele>106.47</ele>
        <time>2025-05-31T11:33:56.493Z</time>
      </trkpt>
      <trkpt lat="49.18962" lon="-0.59501">
        <ele>106.24</ele>
        <time>2025-05-31T11:34:03.977Z</time>
      </trkpt>
      <trkpt lat="49.18979" lon="-0.59501">
        <ele>106.01</ele>
        <time>2025-05-31T11:34:11.463Z</time>
      </trkpt>
      <trkpt lat="49.1901" lon="-0.595">
        <ele>105.74</ele>
        <time>2025-05-31T11:34:18.954Z</time>
      </trkpt>
      <trkpt lat="49.19034" lon="-0.595">
        <ele>105.46</ele>
        <time>2025-05-31T11:34:26.449Z</time>
      </trkpt>
      <trkpt lat="49.19064" lon="-0.59515">
        <ele>105.14</ele>
        <time>2025-05-31T11:34:33.949Z</time>
      </trkpt>
      <trkpt lat="49.19067" lon="-0.59516">
        <ele>104.88</ele>
        <time>2025-05-31T11:34:41.450Z</time>
      </trkpt>
      <trkpt lat="49.19096" lon="-0.59534">
        <ele>104.62</ele>
        <time>2025-05-31T11:34:48.956Z</time>
      </trkpt>
      <trkpt lat="49.19126" lon="-0.59551">
        <ele>104.41</ele>
        <time>2025-05-31T11:34:56.467Z</time>
      </trkpt>
      <trkpt lat="49.19138" lon="-0.59559">
        <ele>104.17</ele>
        <time>2025-05-31T11:35:03.980Z</time>
      </trkpt>
      <trkpt lat="49.19152" lon="-0.59573">
        <ele>103.92</ele>
        <time>2025-05-31T11:35:11.496Z</time>
      </trkpt>
      <trkpt lat="49.19163" lon="-0.59588">
        <ele>103.66</ele>
        <time>2025-05-31T11:35:19.014Z</time>
      </trkpt>
      <trkpt lat="49.19173" lon="-0.59611">
        <ele>103.41</ele>
        <time>2025-05-31T11:35:26.535Z</time>
      </trkpt>
      <trkpt lat="49.19187" lon="-0.59654">
        <ele>103.2</ele>
        <time>2025-05-31T11:35:34.061Z</time>
      </trkpt>
      <trkpt lat="49.19194" lon="-0.59676">
        <ele>102.97</ele>
        <time>2025-05-31T11:35:41.589Z</time>
      </trkpt>
      <trkpt lat="49.192" lon="-0.59699">
        <ele>102.73</ele>
        <time>2025-05-31T11:35:49.120Z</time>
      </trkpt>
      <trkpt lat="49.19207" lon="-0.59711">
        <ele>102.5</ele>
        <time>2025-05-31T11:35:56.653Z</time>
      </trkpt>
      <trkpt lat="49.19218" lon="-0.59723">
        <ele>102.31</ele>
        <time>2025-05-31T11:36:04.188Z</time>
      </trkpt>
      <trkpt lat="49.1922" lon="-0.59722">
        <ele>102.13</ele>
        <time>2025-05-31T11:36:11.723Z</time>
      </trkpt>
      <trkpt lat="49.19231" lon="-0.59721">
        <ele>101.97</ele>
        <time>2025-05-31T11:36:19.260Z</time>
      </trkpt>
      <trkpt lat="49.19238" lon="-0.59717">
        <ele>101.82</ele>
        <time>2025-05-31T11:36:26.798Z</time>
      </trkpt>
      <trkpt lat="49.19267" lon="-0.59697">
        <ele>101.7</ele>
        <time>2025-05-31T11:36:34.341Z</time>
      </trkpt>
      <trkpt lat="49.19287" lon="-0.59683">
        <ele>101.5</ele>
        <time>2025-05-31T11:36:41.888Z</time>
      </trkpt>
      <trkpt lat="49.19316" lon="-0.59663">
        <ele>101.32</ele>
        <time>2025-05-31T11:36:49.440Z</time>
      </trkpt>
      <trkpt lat="49.19344" lon="-0.59643">
        <ele>101.19</ele>
        <time>2025-05-31T11:36:56.997Z</time>
      </trkpt>
      <trkpt lat="49.19373" lon="-0.59623">
        <ele>101.05</ele>
        <time>2025-05-31T11:37:04.559Z</time>
      </trkpt>
      <trkpt lat="49.19384" lon="-0.59615">
        <ele>100.95</ele>
        <time>2025-05-31T11:37:12.123Z</time>
      </trkpt>
      <trkpt lat="49.19395" lon="-0.59615">
        <ele>100.84</ele>
        <time>2025-05-31T11:37:19.689Z</time>
      </trkpt>
      <trkpt lat="49.19408" lon="-0.59623">
        <ele>100.75</ele>
        <time>2025-05-31T11:37:27.257Z</time>
      </trkpt>
      <trkpt lat="49.19418" lon="-0.59641">
        <ele>100.71</ele>
        <time>2025-05-31T11:37:34.827Z</time>
      </trkpt>
      <trkpt lat="49.19435" lon="-0.59682">
        <ele>100.72</ele>
        <time>2025-05-31T11:37:42.402Z</time>
      </trkpt>
      <trkpt lat="49.19438" lon="-0.5969">
        <ele>100.71</ele>
        <time>2025-05-31T11:37:49.978Z</time>
      </trkpt>
      <trkpt lat="49.19453" lon="-0.59721">
        <ele>100.73</ele>
        <time>2025-05-31T11:37:57.559Z</time>
      </trkpt>
      <trkpt lat="49.19475" lon="-0.59755">
        <ele>100.78</ele>
        <time>2025-05-31T11:38:05.145Z</time>
      </trkpt>
      <trkpt lat="49.19489" lon="-0.59776">
        <ele>100.86</ele>
        <time>2025-05-31T11:38:12.734Z</time>
      </trkpt>
      <trkpt lat="49.19508" lon="-0.59799">
        <ele>100.9</ele>
        <time>2025-05-31T11:38:20.327Z</time>
      </trkpt>
      <trkpt lat="49.19534" lon="-0.59825">
        <ele>100.87</ele>
        <time>2025-05-31T11:38:27.925Z</time>
      </trkpt>
      <trkpt lat="49.19546" lon="-0.59837">
        <ele>100.89</ele>
        <time>2025-05-31T11:38:35.525Z</time>
      </trkpt>
      <trkpt lat="49.1955" lon="-0.5985">
        <ele>100.93</ele>
        <time>2025-05-31T11:38:43.126Z</time>
      </trkpt>
      <trkpt lat="49.19557" lon="-0.59897">
        <ele>100.98</ele>
        <time>2025-05-31T11:38:50.732Z</time>
      </trkpt>
      <trkpt lat="49.19563" lon="-0.59932">
        <ele>101.11</ele>
        <time>2025-05-31T11:38:58.342Z</time>
      </trkpt>
      <trkpt lat="49.1957" lon="-0.59979">
        <ele>101.23</ele>
        <time>2025-05-31T11:39:05.957Z</time>
      </trkpt>
      <trkpt lat="49.19578" lon="-0.60025">
        <ele>101.23</ele>
        <time>2025-05-31T11:39:13.577Z</time>
      </trkpt>
      <trkpt lat="49.19579" lon="-0.60034">
        <ele>101.26</ele>
        <time>2025-05-31T11:39:21.198Z</time>
      </trkpt>
      <trkpt lat="49.19584" lon="-0.60081">
        <ele>101.25</ele>
        <time>2025-05-31T11:39:28.824Z</time>
      </trkpt>
      <trkpt lat="49.19585" lon="-0.60096">
        <ele>101.26</ele>
        <time>2025-05-31T11:39:36.452Z</time>
      </trkpt>
      <trkpt lat="49.19586" lon="-0.60111">
        <ele>101.24</ele>
        <time>2025-05-31T11:39:44.081Z</time>
      </trkpt>
      <trkpt lat="49.19586" lon="-0.60121">
        <ele>101.24</ele>
        <time>2025-05-31T11:39:51.711Z</time>
      </trkpt>
      <trkpt lat="49.19605" lon="-0.60119">
        <ele>101.23</ele>
        <time>2025-05-31T11:39:59.344Z</time>
      </trkpt>
      <trkpt lat="49.19636" lon="-0.60118">
        <ele>101.21</ele>
        <time>2025-05-31T11:40:06.983Z</time>
      </trkpt>
      <trkpt lat="49.19645" lon="-0.60118">
        <ele>101.18</ele>
        <time>2025-05-31T11:40:14.623Z</time>
      </trkpt>
      <trkpt lat="49.19676" lon="-0.60121">
        <ele>101.14</ele>
        <time>2025-05-31T11:40:22.268Z</time>
      </trkpt>
      <trkpt lat="49.19706" lon="-0.60123">
        <ele>101.04</ele>
        <time>2025-05-31T11:40:29.918Z</time>
      </trkpt>
      <trkpt lat="49.19737" lon="-0.60126">
        <ele>100.93</ele>
        <time>2025-05-31T11:40:37.573Z</time>
      </trkpt>
      <trkpt lat="49.19755" lon="-0.60127">
        <ele>100.87</ele>
        <time>2025-05-31T11:40:45.231Z</time>
      </trkpt>
      <trkpt lat="49.19786" lon="-0.60123">
        <ele>100.74</ele>
        <time>2025-05-31T11:40:52.894Z</time>
      </trkpt>
      <trkpt lat="49.19805" lon="-0.6012">
        <ele>100.61</ele>
        <time>2025-05-31T11:41:00.560Z</time>
      </trkpt>
      <trkpt lat="49.19821" lon="-0.60116">
        <ele>100.46</ele>
        <time>2025-05-31T11:41:08.228Z</time>
      </trkpt>
      <trkpt lat="49.19836" lon="-0.60105">
        <ele>100.3</ele>
        <time>2025-05-31T11:41:15.899Z</time>
      </trkpt>
      <trkpt lat="49.19859" lon="-0.60073">
        <ele>100.14</ele>
        <time>2025-05-31T11:41:23.575Z</time>
      </trkpt>
      <trkpt lat="49.19872" lon="-0.60056">
        <ele>99.98</ele>
        <time>2025-05-31T11:41:31.254Z</time>
      </trkpt>
      <trkpt lat="49.19898" lon="-0.60031">
        <ele>99.78</ele>
        <time>2025-05-31T11:41:38.937Z</time>
      </trkpt>
      <trkpt lat="49.19925" lon="-0.60006">
        <ele>99.53</ele>
        <time>2025-05-31T11:41:46.626Z</time>
      </trkpt>
      <trkpt lat="49.19941" lon="-0.59992">
        <ele>99.29</ele>
        <time>2025-05-31T11:41:54.317Z</time>
      </trkpt>
      <trkpt lat="49.1997" lon="-0.59972">
        <ele>99.04</ele>
        <time>2025-05-31T11:42:02.014Z</time>
      </trkpt>
      <trkpt lat="49.19998" lon="-0.59951">
        <ele>98.73</ele>
        <time>2025-05-31T11:42:09.716Z</time>
      </trkpt>
      <trkpt lat="49.20014" lon="-0.5994">
        <ele>98.42</ele>
        <time>2025-05-31T11:42:17.420Z</time>
      </trkpt>
      <trkpt lat="49.20043" lon="-0.59921">
        <ele>98.11</ele>
        <time>2025-05-31T11:42:25.129Z</time>
      </trkpt>
      <trkpt lat="49.20049" lon="-0.59917">
        <ele>97.77</ele>
        <time>2025-05-31T11:42:32.839Z</time>
      </trkpt>
      <trkpt lat="49.20076" lon="-0.59892">
        <ele>97.41</ele>
        <time>2025-05-31T11:42:40.555Z</time>
      </trkpt>
      <trkpt lat="49.20082" lon="-0.59887">
        <ele>97.03</ele>
        <time>2025-05-31T11:42:48.272Z</time>
      </trkpt>
      <trkpt lat="49.20107" lon="-0.59858">
        <ele>96.65</ele>
        <time>2025-05-31T11:42:55.994Z</time>
      </trkpt>
      <trkpt lat="49.20128" lon="-0.59833">
        <ele>96.2</ele>
        <time>2025-05-31T11:43:03.720Z</time>
      </trkpt>
      <trkpt lat="49.20147" lon="-0.59819">
        <ele>95.72</ele>
        <time>2025-05-31T11:43:11.449Z</time>
      </trkpt>
      <trkpt lat="49.20163" lon="-0.59815">
        <ele>95.21</ele>
        <time>2025-05-31T11:43:19.181Z</time>
      </trkpt>
      <trkpt lat="49.20179" lon="-0.59813">
        <ele>94.67</ele>
        <time>2025-05-31T11:43:26.915Z</time>
      </trkpt>
      <trkpt lat="49.2021" lon="-0.59811">
        <ele>94.11</ele>
        <time>2025-05-31T11:43:34.655Z</time>
      </trkpt>
      <trkpt lat="49.2022" lon="-0.59811">
        <ele>93.53</ele>
        <time>2025-05-31T11:43:42.396Z</time>
      </trkpt>
      <trkpt lat="49.20251" lon="-0.59807">
        <ele>92.89</ele>
        <time>2025-05-31T11:43:50.142Z</time>
      </trkpt>
      <trkpt lat="49.2028" lon="-0.59803">
        <ele>92.24</ele>
        <time>2025-05-31T11:43:57.893Z</time>
      </trkpt>
      <trkpt lat="49.20301" lon="-0.598">
        <ele>91.61</ele>
        <time>2025-05-31T11:44:05.647Z</time>
      </trkpt>
      <trkpt lat="49.20332" lon="-0.59794">
        <ele>90.87</ele>
        <time>2025-05-31T11:44:13.406Z</time>
      </trkpt>
      <trkpt lat="49.2036" lon="-0.59789">
        <ele>90.1</ele>
        <time>2025-05-31T11:44:21.170Z</time>
      </trkpt>
      <trkpt lat="49.20391" lon="-0.59778">
        <ele>89.33</ele>
        <time>2025-05-31T11:44:28.939Z</time>
      </trkpt>
      <trkpt lat="49.204" lon="-0.59774">
        <ele>88.63</ele>
        <time>2025-05-31T11:44:36.709Z</time>
      </trkpt>
      <trkpt lat="49.20426" lon="-0.59762">
        <ele>87.89</ele>
        <time>2025-05-31T11:44:44.484Z</time>
      </trkpt>
      <trkpt lat="49.20456" lon="-0.59748">
        <ele>87.12</ele>
        <time>2025-05-31T11:44:52.264Z</time>
      </trkpt>
      <trkpt lat="49.20486" lon="-0.59733">
        <ele>86.35</ele>
        <time>2025-05-31T11:45:00.049Z</time>
      </trkpt>
      <trkpt lat="49.20493" lon="-0.5973">
        <ele>85.61</ele>
        <time>2025-05-31T11:45:07.835Z</time>
      </trkpt>
      <trkpt lat="49.20513" lon="-0.59719">
        <ele>84.84</ele>
        <time>2025-05-31T11:45:15.624Z</time>
      </trkpt>
      <trkpt lat="49.20541" lon="-0.59697">
        <ele>84.09</ele>
        <time>2025-05-31T11:45:23.418Z</time>
      </trkpt>
      <trkpt lat="49.20551" lon="-0.59689">
        <ele>83.35</ele>
        <time>2025-05-31T11:45:31.214Z</time>
      </trkpt>
      <trkpt lat="49.20563" lon="-0.59677">
        <ele>82.59</ele>
        <time>2025-05-31T11:45:39.012Z</time>
      </trkpt>
      <trkpt lat="49.2058" lon="-0.5966">
        <ele>81.82</ele>
        <time>2025-05-31T11:45:46.814Z</time>
      </trkpt>
      <trkpt lat="49.20594" lon="-0.5964">
        <ele>81.04</ele>
        <time>2025-05-31T11:45:54.619Z</time>
      </trkpt>
      <trkpt lat="49.20614" lon="-0.59603">
        <ele>80.3</ele>
        <time>2025-05-31T11:46:02.429Z</time>
      </trkpt>
      <trkpt lat="49.20615" lon="-0.596">
        <ele>79.59</ele>
        <time>2025-05-31T11:46:10.239Z</time>
      </trkpt>
      <trkpt lat="49.20638" lon="-0.59567">
        <ele>78.85</ele>
        <time>2025-05-31T11:46:18.054Z</time>
      </trkpt>
      <trkpt lat="49.2064" lon="-0.59564">
        <ele>78.15</ele>
        <time>2025-05-31T11:46:25.870Z</time>
      </trkpt>
      <trkpt lat="49.20666" lon="-0.59538">
        <ele>77.43</ele>
        <time>2025-05-31T11:46:33.691Z</time>
      </trkpt>
      <trkpt lat="49.20689" lon="-0.59516">
        <ele>76.76</ele>
        <time>2025-05-31T11:46:41.516Z</time>
      </trkpt>
      <trkpt lat="49.20711" lon="-0.59498">
        <ele>76.06</ele>
        <time>2025-05-31T11:46:49.345Z</time>
      </trkpt>
      <trkpt lat="49.20728" lon="-0.59489">
        <ele>75.34</ele>
        <time>2025-05-31T11:46:57.177Z</time>
      </trkpt>
      <trkpt lat="49.20748" lon="-0.59485">
        <ele>74.62</ele>
        <time>2025-05-31T11:47:05.012Z</time>
      </trkpt>
      <trkpt lat="49.20779" lon="-0.59474">
        <ele>73.93</ele>
        <time>2025-05-31T11:47:12.852Z</time>
      </trkpt>
      <trkpt lat="49.20784" lon="-0.59472">
        <ele>73.33</ele>
        <time>2025-05-31T11:47:20.693Z</time>
      </trkpt>
      <trkpt lat="49.20814" lon="-0.59458">
        <ele>72.72</ele>
        <time>2025-05-31T11:47:28.539Z</time>
      </trkpt>
      <trkpt lat="49.20844" lon="-0.59445">
        <ele>72.16</ele>
        <time>2025-05-31T11:47:36.390Z</time>
      </trkpt>
      <trkpt lat="49.20866" lon="-0.59435">
        <ele>71.61</ele>
        <time>2025-05-31T11:47:44.245Z</time>
      </trkpt>
      <trkpt lat="49.20897" lon="-0.59424">
        <ele>71.03</ele>
        <time>2025-05-31T11:47:52.105Z</time>
      </trkpt>
      <trkpt lat="49.20918" lon="-0.59416">
        <ele>70.52</ele>
        <time>2025-05-31T11:47:59.968Z</time>
      </trkpt>
      <trkpt lat="49.20948" lon="-0.59403">
        <ele>70.05</ele>
        <time>2025-05-31T11:48:07.836Z</time>
      </trkpt>
      <trkpt lat="49.20978" lon="-0.59387">
        <ele>69.6</ele>
        <time>2025-05-31T11:48:15.709Z</time>
      </trkpt>
      <trkpt lat="49.20998" lon="-0.59376">
        <ele>69.13</ele>
        <time>2025-05-31T11:48:23.586Z</time>
      </trkpt>
      <trkpt lat="49.21028" lon="-0.59362">
        <ele>68.66</ele>
        <time>2025-05-31T11:48:31.468Z</time>
      </trkpt>
      <trkpt lat="49.21049" lon="-0.59353">
        <ele>68.27</ele>
        <time>2025-05-31T11:48:39.353Z</time>
      </trkpt>
      <trkpt lat="49.21079" lon="-0.59339">
        <ele>67.87</ele>
        <time>2025-05-31T11:48:47.243Z</time>
      </trkpt>
      <trkpt lat="49.21083" lon="-0.59337">
        <ele>67.49</ele>
        <time>2025-05-31T11:48:55.134Z</time>
      </trkpt>
      <trkpt lat="49.21113" lon="-0.59323">
        <ele>67.08</ele>
        <time>2025-05-31T11:49:03.030Z</time>
      </trkpt>
      <trkpt lat="49.21143" lon="-0.59309">
        <ele>66.69</ele>
        <time>2025-05-31T11:49:10.931Z</time>
      </trkpt>
      <trkpt lat="49.21157" lon="-0.59303">
        <ele>66.37</ele>
        <time>2025-05-31T11:49:18.834Z</time>
      </trkpt>
      <trkpt lat="49.21181" lon="-0.59297">
        <ele>66.06</ele>
        <time>2025-05-31T11:49:26.741Z</time>
      </trkpt>
      <trkpt lat="49.212" lon="-0.59296">
        <ele>65.8</ele>
        <time>2025-05-31T11:49:34.651Z</time>
      </trkpt>
      <trkpt lat="49.21215" lon="-0.59296">
        <ele>65.56</ele>
        <time>2025-05-31T11:49:42.564Z</time>
      </trkpt>
      <trkpt lat="49.21221" lon="-0.59299">
        <ele>65.33</ele>
        <time>2025-05-31T11:49:50.478Z</time>
      </trkpt>
      <trkpt lat="49.2123" lon="-0.59303">
        <ele>65.12</ele>
        <time>2025-05-31T11:49:58.393Z</time>
      </trkpt>
      <trkpt lat="49.2124" lon="-0.5931">
        <ele>64.92</ele>
        <time>2025-05-31T11:50:06.310Z</time>
      </trkpt>
      <trkpt lat="49.21266" lon="-0.59338">
        <ele>64.76</ele>
        <time>2025-05-31T11:50:14.232Z</time>
      </trkpt>
      <trkpt lat="49.21282" lon="-0.59356">
        <ele>64.64</ele>
        <time>2025-05-31T11:50:22.157Z</time>
      </trkpt>
      <trkpt lat="49.21309" lon="-0.5938">
        <ele>64.54</ele>
        <time>2025-05-31T11:50:30.087Z</time>
      </trkpt>
      <trkpt lat="49.21337" lon="-0.59403">
        <ele>64.44</ele>
        <time>2025-05-31T11:50:38.022Z</time>
      </trkpt>
      <trkpt lat="49.21349" lon="-0.59414">
        <ele>64.33</ele>
        <time>2025-05-31T11:50:45.959Z</time>
      </trkpt>
      <trkpt lat="49.21376" lon="-0.59438">
        <ele>64.22</ele>
        <time>2025-05-31T11:50:53.902Z</time>
      </trkpt>
      <trkpt lat="49.21404" lon="-0.59462">
        <ele>64.03</ele>
        <time>2025-05-31T11:51:01.850Z</time>
      </trkpt>
      <trkpt lat="49.21431" lon="-0.59486">
        <ele>63.91</ele>
        <time>2025-05-31T11:51:09.803Z</time>
      </trkpt>
      <trkpt lat="49.21436" lon="-0.5949">
        <ele>63.8</ele>
        <time>2025-05-31T11:51:17.757Z</time>
      </trkpt>
      <trkpt lat="49.21455" lon="-0.59517">
        <ele>63.74</ele>
        <time>2025-05-31T11:51:25.715Z</time>
      </trkpt>
      <trkpt lat="49.21473" lon="-0.59557">
        <ele>63.66</ele>
        <time>2025-05-31T11:51:33.678Z</time>
      </trkpt>
      <trkpt lat="49.21475" lon="-0.59562">
        <ele>63.58</ele>
        <time>2025-05-31T11:51:41.641Z</time>
      </trkpt>
      <trkpt lat="49.21492" lon="-0.59603">
        <ele>63.5</ele>
        <time>2025-05-31T11:51:49.609Z</time>
      </trkpt>
      <trkpt lat="49.21509" lon="-0.59643">
        <ele>63.46</ele>
        <time>2025-05-31T11:51:57.582Z</time>
      </trkpt>
      <trkpt lat="49.21515" lon="-0.59658">
        <ele>63.38</ele>
        <time>2025-05-31T11:52:05.557Z</time>
      </trkpt>
      <trkpt lat="49.21521" lon="-0.59684">
        <ele>63.3</ele>
        <time>2025-05-31T11:52:13.535Z</time>
      </trkpt>
      <trkpt lat="49.21525" lon="-0.59717">
        <ele>63.25</ele>
        <time>2025-05-31T11:52:21.517Z</time>
      </trkpt>
      <trkpt lat="49.2153" lon="-0.59765">
        <ele>63.24</ele>
        <time>2025-05-31T11:52:29.504Z</time>
      </trkpt>
      <trkpt lat="49.21534" lon="-0.59812">
        <ele>63.19</ele>
        <time>2025-05-31T11:52:37.496Z</time>
      </trkpt>
      <trkpt lat="49.21537" lon="-0.5984">
        <ele>63.17</ele>
        <time>2025-05-31T11:52:45.491Z</time>
      </trkpt>
      <trkpt lat="49.21537" lon="-0.59866">
        <ele>63.16</ele>
        <time>2025-05-31T11:52:53.488Z</time>
      </trkpt>
      <trkpt lat="49.21532" lon="-0.59913">
        <ele>63.12</ele>
        <time>2025-05-31T11:53:01.491Z</time>
      </trkpt>
      <trkpt lat="49.21527" lon="-0.59956">
        <ele>63.11</ele>
        <time>2025-05-31T11:53:09.498Z</time>
      </trkpt>
      <trkpt lat="49.2152" lon="-0.60003">
        <ele>63.1</ele>
        <time>2025-05-31T11:53:17.510Z</time>
      </trkpt>
      <trkpt lat="49.21513" lon="-0.6005">
        <ele>63.08</ele>
        <time>2025-05-31T11:53:25.527Z</time>
      </trkpt>
      <trkpt lat="49.2151" lon="-0.60066">
        <ele>63.08</ele>
        <time>2025-05-31T11:53:33.546Z</time>
      </trkpt>
      <trkpt lat="49.21505" lon="-0.60113">
        <ele>63.07</ele>
        <time>2025-05-31T11:53:41.570Z</time>
      </trkpt>
      <trkpt lat="49.215" lon="-0.60159">
        <ele>63.13</ele>
        <time>2025-05-31T11:53:49.599Z</time>
      </trkpt>
      <trkpt lat="49.21499" lon="-0.60185">
        <ele>63.23</ele>
        <time>2025-05-31T11:53:57.631Z</time>
      </trkpt>
      <trkpt lat="49.21503" lon="-0.60208">
        <ele>63.34</ele>
        <time>2025-05-31T11:54:05.665Z</time>
      </trkpt>
      <trkpt lat="49.21505" lon="-0.60217">
        <ele>63.47</ele>
        <time>2025-05-31T11:54:13.700Z</time>
      </trkpt>
      <trkpt lat="49.21518" lon="-0.60242">
        <ele>63.61</ele>
        <time>2025-05-31T11:54:21.738Z</time>
      </trkpt>
      <trkpt lat="49.21541" lon="-0.60275">
        <ele>63.74</ele>
        <time>2025-05-31T11:54:29.781Z</time>
      </trkpt>
      <trkpt lat="49.21559" lon="-0.60301">
        <ele>63.96</ele>
        <time>2025-05-31T11:54:37.828Z</time>
      </trkpt>
      <trkpt lat="49.21582" lon="-0.60334">
        <ele>64.23</ele>
        <time>2025-05-31T11:54:45.880Z</time>
      </trkpt>
      <trkpt lat="49.21605" lon="-0.60367">
        <ele>64.55</ele>
        <time>2025-05-31T11:54:53.937Z</time>
      </trkpt>
      <trkpt lat="49.21628" lon="-0.60399">
        <ele>64.9</ele>
        <time>2025-05-31T11:55:02.000Z</time>
      </trkpt>
      <trkpt lat="49.2163" lon="-0.60402">
        <ele>65.3</ele>
        <time>2025-05-31T11:55:10.063Z</time>
      </trkpt>
      <trkpt lat="49.21653" lon="-0.60435">
        <ele>65.74</ele>
        <time>2025-05-31T11:55:18.131Z</time>
      </trkpt>
      <trkpt lat="49.21676" lon="-0.60468">
        <ele>66.23</ele>
        <time>2025-05-31T11:55:26.204Z</time>
      </trkpt>
      <trkpt lat="49.21699" lon="-0.60501">
        <ele>66.74</ele>
        <time>2025-05-31T11:55:34.282Z</time>
      </trkpt>
      <trkpt lat="49.21722" lon="-0.60534">
        <ele>67.32</ele>
        <time>2025-05-31T11:55:42.365Z</time>
      </trkpt>
      <trkpt lat="49.21744" lon="-0.60567">
        <ele>67.92</ele>
        <time>2025-05-31T11:55:50.453Z</time>
      </trkpt>
      <trkpt lat="49.21767" lon="-0.606">
        <ele>68.59</ele>
        <time>2025-05-31T11:55:58.546Z</time>
      </trkpt>
      <trkpt lat="49.2179" lon="-0.60633">
        <ele>69.28</ele>
        <time>2025-05-31T11:56:06.644Z</time>
      </trkpt>
      <trkpt lat="49.21813" lon="-0.60666">
        <ele>70.01</ele>
        <time>2025-05-31T11:56:14.747Z</time>
      </trkpt>
      <trkpt lat="49.21836" lon="-0.60699">
        <ele>70.81</ele>
        <time>2025-05-31T11:56:22.855Z</time>
      </trkpt>
      <trkpt lat="49.21854" lon="-0.60725">
        <ele>71.64</ele>
        <time>2025-05-31T11:56:30.967Z</time>
      </trkpt>
      <trkpt lat="49.21878" lon="-0.60757">
        <ele>72.61</ele>
        <time>2025-05-31T11:56:39.084Z</time>
      </trkpt>
      <trkpt lat="49.21901" lon="-0.60789">
        <ele>73.64</ele>
        <time>2025-05-31T11:56:47.206Z</time>
      </trkpt>
      <trkpt lat="49.21907" lon="-0.60797">
        <ele>74.6</ele>
        <time>2025-05-31T11:56:55.330Z</time>
      </trkpt>
      <trkpt lat="49.21927" lon="-0.60819">
        <ele>75.59</ele>
        <time>2025-05-31T11:57:03.458Z</time>
      </trkpt>
      <trkpt lat="49.21954" lon="-0.60844">
        <ele>76.64</ele>
        <time>2025-05-31T11:57:11.591Z</time>
      </trkpt>
      <trkpt lat="49.21954" lon="-0.60844">
        <ele>77.5</ele>
        <time>2025-05-31T11:57:19.724Z</time>
      </trkpt>
      <trkpt lat="49.21978" lon="-0.60862">
        <ele>78.56</ele>
        <time>2025-05-31T11:57:27.861Z</time>
      </trkpt>
      <trkpt lat="49.22007" lon="-0.60881">
        <ele>79.58</ele>
        <time>2025-05-31T11:57:36.003Z</time>
      </trkpt>
      <trkpt lat="49.2203" lon="-0.60896">
        <ele>80.5</ele>
        <time>2025-05-31T11:57:44.149Z</time>
      </trkpt>
      <trkpt lat="49.2204" lon="-0.60901">
        <ele>81.26</ele>
        <time>2025-05-31T11:57:52.297Z</time>
      </trkpt>
      <trkpt lat="49.22055" lon="-0.60908">
        <ele>81.92</ele>
        <time>2025-05-31T11:58:00.447Z</time>
      </trkpt>
      <trkpt lat="49.22072" lon="-0.60913">
        <ele>82.48</ele>
        <time>2025-05-31T11:58:08.600Z</time>
      </trkpt>
      <trkpt lat="49.2208" lon="-0.60914">
        <ele>82.99</ele>
        <time>2025-05-31T11:58:16.754Z</time>
      </trkpt>
      <trkpt lat="49.22099" lon="-0.60911">
        <ele>83.39</ele>
        <time>2025-05-31T11:58:24.911Z</time>
      </trkpt>
      <trkpt lat="49.2213" lon="-0.60902">
        <ele>83.74</ele>
        <time>2025-05-31T11:58:33.073Z</time>
      </trkpt>
      <trkpt lat="49.22151" lon="-0.60896">
        <ele>84.03</ele>
        <time>2025-05-31T11:58:41.239Z</time>
      </trkpt>
      <trkpt lat="49.22171" lon="-0.60894">
        <ele>84.23</ele>
        <time>2025-05-31T11:58:49.408Z</time>
      </trkpt>
      <trkpt lat="49.22189" lon="-0.60899">
        <ele>84.38</ele>
        <time>2025-05-31T11:58:57.580Z</time>
      </trkpt>
      <trkpt lat="49.22203" lon="-0.60909">
        <ele>84.51</ele>
        <time>2025-05-31T11:59:05.754Z</time>
      </trkpt>
      <trkpt lat="49.22209" lon="-0.60918">
        <ele>84.58</ele>
        <time>2025-05-31T11:59:13.930Z</time>
      </trkpt>
      <trkpt lat="49.22219" lon="-0.60934">
        <ele>84.59</ele>
        <time>2025-05-31T11:59:22.108Z</time>
      </trkpt>
      <trkpt lat="49.22231" lon="-0.60966">
        <ele>84.52</ele>
        <time>2025-05-31T11:59:30.290Z</time>
      </trkpt>
      <trkpt lat="49.22248" lon="-0.61007">
        <ele>84.36</ele>
        <time>2025-05-31T11:59:38.477Z</time>
      </trkpt>
      <trkpt lat="49.22265" lon="-0.61047">
        <ele>84.17</ele>
        <time>2025-05-31T11:59:46.669Z</time>
      </trkpt>
      <trkpt lat="49.22281" lon="-0.61088">
        <ele>83.93</ele>
        <time>2025-05-31T11:59:54.866Z</time>
      </trkpt>
      <trkpt lat="49.22285" lon="-0.61097">
        <ele>83.62</ele>
        <time>2025-05-31T12:00:03.064Z</time>
      </trkpt>
      <trkpt lat="49.22301" lon="-0.61139">
        <ele>83.26</ele>
        <time>2025-05-31T12:00:11.267Z</time>
      </trkpt>
      <trkpt lat="49.22312" lon="-0.61169">
        <ele>82.84</ele>
        <time>2025-05-31T12:00:19.474Z</time>
      </trkpt>
      <trkpt lat="49.22323" lon="-0.61206">
        <ele>82.37</ele>
        <time>2025-05-31T12:00:27.685Z</time>
      </trkpt>
      <trkpt lat="49.22336" lon="-0.61249">
        <ele>81.79</ele>
        <time>2025-05-31T12:00:35.901Z</time>
      </trkpt>
      <trkpt lat="49.22346" lon="-0.6128">
        <ele>81.15</ele>
        <time>2025-05-31T12:00:44.121Z</time>
      </trkpt>
      <trkpt lat="49.22362" lon="-0.61321">
        <ele>80.49</ele>
        <time>2025-05-31T12:00:52.346Z</time>
      </trkpt>
      <trkpt lat="49.22364" lon="-0.61327">
        <ele>79.84</ele>
        <time>2025-05-31T12:01:00.571Z</time>
      </trkpt>
      <trkpt lat="49.22372" lon="-0.61335">
        <ele>79.15</ele>
        <time>2025-05-31T12:01:08.798Z</time>
      </trkpt>
      <trkpt lat="49.22379" lon="-0.61337">
        <ele>78.42</ele>
        <time>2025-05-31T12:01:17.026Z</time>
      </trkpt>
      <trkpt lat="49.22394" lon="-0.61331">
        <ele>77.65</ele>
        <time>2025-05-31T12:01:25.257Z</time>
      </trkpt>
      <trkpt lat="49.22423" lon="-0.61312">
        <ele>76.83</ele>
        <time>2025-05-31T12:01:33.493Z</time>
      </trkpt>
      <trkpt lat="49.22438" lon="-0.61302">
        <ele>75.99</ele>
        <time>2025-05-31T12:01:41.731Z</time>
      </trkpt>
      <trkpt lat="49.22467" lon="-0.61282">
        <ele>75.08</ele>
        <time>2025-05-31T12:01:49.974Z</time>
      </trkpt>
      <trkpt lat="49.22476" lon="-0.61276">
        <ele>74.17</ele>
        <time>2025-05-31T12:01:58.219Z</time>
      </trkpt>
      <trkpt lat="49.22486" lon="-0.61267">
        <ele>73.24</ele>
        <time>2025-05-31T12:02:06.466Z</time>
      </trkpt>
      <trkpt lat="49.22499" lon="-0.61243">
        <ele>72.3</ele>
        <time>2025-05-31T12:02:14.716Z</time>
      </trkpt>
      <trkpt lat="49.22513" lon="-0.61217">
        <ele>71.37</ele>
        <time>2025-05-31T12:02:22.970Z</time>
      </trkpt>
      <trkpt lat="49.22523" lon="-0.61202">
        <ele>70.43</ele>
        <time>2025-05-31T12:02:31.226Z</time>
      </trkpt>
      <trkpt lat="49.2253" lon="-0.61194">
        <ele>69.5</ele>
        <time>2025-05-31T12:02:39.483Z</time>
      </trkpt>
      <trkpt lat="49.22542" lon="-0.61239">
        <ele>68.51</ele>
        <time>2025-05-31T12:02:47.745Z</time>
      </trkpt>
      <trkpt lat="49.22546" lon="-0.61255">
        <ele>67.57</ele>
        <time>2025-05-31T12:02:56.009Z</time>
      </trkpt>
      <trkpt lat="49.22555" lon="-0.61301">
        <ele>66.59</ele>
        <time>2025-05-31T12:03:04.278Z</time>
      </trkpt>
      <trkpt lat="49.22556" lon="-0.61304">
        <ele>65.71</ele>
        <time>2025-05-31T12:03:12.548Z</time>
      </trkpt>
      <trkpt lat="49.22566" lon="-0.61335">
        <ele>64.83</ele>
        <time>2025-05-31T12:03:20.821Z</time>
      </trkpt>
      <trkpt lat="49.22576" lon="-0.61348">
        <ele>63.95</ele>
        <time>2025-05-31T12:03:29.096Z</time>
      </trkpt>
      <trkpt lat="49.22594" lon="-0.61366">
        <ele>63.1</ele>
        <time>2025-05-31T12:03:37.375Z</time>
      </trkpt>
      <trkpt lat="49.22606" lon="-0.61381">
        <ele>62.29</ele>
        <time>2025-05-31T12:03:45.656Z</time>
      </trkpt>
      <trkpt lat="49.22628" lon="-0.61415">
        <ele>61.46</ele>
        <time>2025-05-31T12:03:53.942Z</time>
      </trkpt>
      <trkpt lat="49.22639" lon="-0.61436">
        <ele>60.74</ele>
        <time>2025-05-31T12:04:02.231Z</time>
      </trkpt>
      <trkpt lat="49.22651" lon="-0.61481">
        <ele>60.04</ele>
        <time>2025-05-31T12:04:10.525Z</time>
      </trkpt>
      <trkpt lat="49.22652" lon="-0.61485">
        <ele>59.41</ele>
        <time>2025-05-31T12:04:18.820Z</time>
      </trkpt>
      <trkpt lat="49.22658" lon="-0.61502">
        <ele>58.8</ele>
        <time>2025-05-31T12:04:27.117Z</time>
      </trkpt>
      <trkpt lat="49.22674" lon="-0.61524">
        <ele>58.29</ele>
        <time>2025-05-31T12:04:35.417Z</time>
      </trkpt>
      <trkpt lat="49.22688" lon="-0.61534">
        <ele>57.81</ele>
        <time>2025-05-31T12:04:43.720Z</time>
      </trkpt>
      <trkpt lat="49.22699" lon="-0.61535">
        <ele>57.36</ele>
        <time>2025-05-31T12:04:52.024Z</time>
      </trkpt>
      <trkpt lat="49.22716" lon="-0.6153">
        <ele>56.96</ele>
        <time>2025-05-31T12:05:00.331Z</time>
      </trkpt>
      <trkpt lat="49.22727" lon="-0.61526">
        <ele>56.57</ele>
        <time>2025-05-31T12:05:08.640Z</time>
      </trkpt>
      <trkpt lat="49.22757" lon="-0.61511">
        <ele>56.27</ele>
        <time>2025-05-31T12:05:16.954Z</time>
      </trkpt>
      <trkpt lat="49.22758" lon="-0.61511">
        <ele>55.94</ele>
        <time>2025-05-31T12:05:25.268Z</time>
      </trkpt>
      <trkpt lat="49.22773" lon="-0.61506">
        <ele>55.66</ele>
        <time>2025-05-31T12:05:33.585Z</time>
      </trkpt>
      <trkpt lat="49.2279" lon="-0.61502">
        <ele>55.37</ele>
        <time>2025-05-31T12:05:41.904Z</time>
      </trkpt>
      <trkpt lat="49.22806" lon="-0.615">
        <ele>55.09</ele>
        <time>2025-05-31T12:05:50.226Z</time>
      </trkpt>
      <trkpt lat="49.22827" lon="-0.61502">
        <ele>54.81</ele>
        <time>2025-05-31T12:05:58.551Z</time>
      </trkpt>
      <trkpt lat="49.22858" lon="-0.61506">
        <ele>54.56</ele>
        <time>2025-05-31T12:06:06.881Z</time>
      </trkpt>
      <trkpt lat="49.2289" lon="-0.61511">
        <ele>54.34</ele>
        <time>2025-05-31T12:06:15.216Z</time>
      </trkpt>
      <trkpt lat="49.22921" lon="-0.61515">
        <ele>54.13</ele>
        <time>2025-05-31T12:06:23.556Z</time>
      </trkpt>
      <trkpt lat="49.22946" lon="-0.61519">
        <ele>54</ele>
        <time>2025-05-31T12:06:31.900Z</time>
      </trkpt>
      <trkpt lat="49.22977" lon="-0.61524">
        <ele>53.87</ele>
        <time>2025-05-31T12:06:40.249Z</time>
      </trkpt>
      <trkpt lat="49.22991" lon="-0.61526">
        <ele>53.82</ele>
        <time>2025-05-31T12:06:48.601Z</time>
      </trkpt>
      <trkpt lat="49.23022" lon="-0.61531">
        <ele>53.79</ele>
        <time>2025-05-31T12:06:56.958Z</time>
      </trkpt>
      <trkpt lat="49.23054" lon="-0.61535">
        <ele>53.83</ele>
        <time>2025-05-31T12:07:05.320Z</time>
      </trkpt>
      <trkpt lat="49.23058" lon="-0.61536">
        <ele>53.86</ele>
        <time>2025-05-31T12:07:13.682Z</time>
      </trkpt>
      <trkpt lat="49.23089" lon="-0.61542">
        <ele>53.92</ele>
        <time>2025-05-31T12:07:22.049Z</time>
      </trkpt>
      <trkpt lat="49.2312" lon="-0.61548">
        <ele>53.97</ele>
        <time>2025-05-31T12:07:30.421Z</time>
      </trkpt>
      <trkpt lat="49.23131" lon="-0.6155">
        <ele>54.05</ele>
        <time>2025-05-31T12:07:38.795Z</time>
      </trkpt>
      <trkpt lat="49.23151" lon="-0.61558">
        <ele>54.13</ele>
        <time>2025-05-31T12:07:47.172Z</time>
      </trkpt>
      <trkpt lat="49.23168" lon="-0.61567">
        <ele>54.23</ele>
        <time>2025-05-31T12:07:55.552Z</time>
      </trkpt>
      <trkpt lat="49.23196" lon="-0.61587">
        <ele>54.3</ele>
        <time>2025-05-31T12:08:03.937Z</time>
      </trkpt>
      <trkpt lat="49.23207" lon="-0.61595">
        <ele>54.4</ele>
        <time>2025-05-31T12:08:12.324Z</time>
      </trkpt>
      <trkpt lat="49.23232" lon="-0.61617">
        <ele>54.52</ele>
        <time>2025-05-31T12:08:20.716Z</time>
      </trkpt>
      <trkpt lat="49.2326" lon="-0.6164">
        <ele>54.73</ele>
        <time>2025-05-31T12:08:29.113Z</time>
      </trkpt>
      <trkpt lat="49.23287" lon="-0.61664">
        <ele>54.88</ele>
        <time>2025-05-31T12:08:37.515Z</time>
      </trkpt>
      <trkpt lat="49.23315" lon="-0.61687">
        <ele>54.99</ele>
        <time>2025-05-31T12:08:45.922Z</time>
      </trkpt>
      <trkpt lat="49.23342" lon="-0.6171">
        <ele>55.16</ele>
        <time>2025-05-31T12:08:54.334Z</time>
      </trkpt>
      <trkpt lat="49.2337" lon="-0.61733">
        <ele>55.33</ele>
        <time>2025-05-31T12:09:02.751Z</time>
      </trkpt>
      <trkpt lat="49.2338" lon="-0.61742">
        <ele>55.43</ele>
        <time>2025-05-31T12:09:11.170Z</time>
      </trkpt>
      <trkpt lat="49.23408" lon="-0.61765">
        <ele>55.55</ele>
        <time>2025-05-31T12:09:19.594Z</time>
      </trkpt>
      <trkpt lat="49.23414" lon="-0.6177">
        <ele>55.63</ele>
        <time>2025-05-31T12:09:28.019Z</time>
      </trkpt>
      <trkpt lat="49.23441" lon="-0.61795">
        <ele>55.72</ele>
        <time>2025-05-31T12:09:36.449Z</time>
      </trkpt>
      <trkpt lat="49.23459" lon="-0.61811">
        <ele>55.8</ele>
        <time>2025-05-31T12:09:44.883Z</time>
      </trkpt>
      <trkpt lat="49.23471" lon="-0.6183">
        <ele>55.84</ele>
        <time>2025-05-31T12:09:53.319Z</time>
      </trkpt>
      <trkpt lat="49.23486" lon="-0.61871">
        <ele>55.93</ele>
        <time>2025-05-31T12:10:01.760Z</time>
      </trkpt>
      <trkpt lat="49.23494" lon="-0.61904">
        <ele>55.9</ele>
        <time>2025-05-31T12:10:10.205Z</time>
      </trkpt>
      <trkpt lat="49.23497" lon="-0.6191">
        <ele>55.9</ele>
        <time>2025-05-31T12:10:18.651Z</time>
      </trkpt>
      <trkpt lat="49.23505" lon="-0.6192">
        <ele>55.86</ele>
        <time>2025-05-31T12:10:27.098Z</time>
      </trkpt>
      <trkpt lat="49.23514" lon="-0.61923">
        <ele>55.82</ele>
        <time>2025-05-31T12:10:35.547Z</time>
      </trkpt>
      <trkpt lat="49.23532" lon="-0.61922">
        <ele>55.79</ele>
        <time>2025-05-31T12:10:43.999Z</time>
      </trkpt>
      <trkpt lat="49.23563" lon="-0.61914">
        <ele>55.76</ele>
        <time>2025-05-31T12:10:52.456Z</time>
      </trkpt>
      <trkpt lat="49.23569" lon="-0.61912">
        <ele>55.69</ele>
        <time>2025-05-31T12:11:00.914Z</time>
      </trkpt>
      <trkpt lat="49.23584" lon="-0.6191">
        <ele>55.6</ele>
        <time>2025-05-31T12:11:09.374Z</time>
      </trkpt>
      <trkpt lat="49.23601" lon="-0.61911">
        <ele>55.48</ele>
        <time>2025-05-31T12:11:17.837Z</time>
      </trkpt>
      <trkpt lat="49.23619" lon="-0.6192">
        <ele>55.37</ele>
        <time>2025-05-31T12:11:26.303Z</time>
      </trkpt>
      <trkpt lat="49.23637" lon="-0.61934">
        <ele>55.24</ele>
        <time>2025-05-31T12:11:34.772Z</time>
      </trkpt>
      <trkpt lat="49.2365" lon="-0.61938">
        <ele>55.1</ele>
        <time>2025-05-31T12:11:43.243Z</time>
      </trkpt>
      <trkpt lat="49.23656" lon="-0.61938">
        <ele>54.96</ele>
        <time>2025-05-31T12:11:51.715Z</time>
      </trkpt>
      <trkpt lat="49.23679" lon="-0.61926">
        <ele>54.78</ele>
        <time>2025-05-31T12:12:00.191Z</time>
      </trkpt>
      <trkpt lat="49.23687" lon="-0.61931">
        <ele>54.63</ele>
        <time>2025-05-31T12:12:08.669Z</time>
      </trkpt>
      <trkpt lat="49.23695" lon="-0.6195">
        <ele>54.48</ele>
        <time>2025-05-31T12:12:17.149Z</time>
      </trkpt>
      <trkpt lat="49.2371" lon="-0.61993">
        <ele>54.28</ele>
        <time>2025-05-31T12:12:25.634Z</time>
      </trkpt>
      <trkpt lat="49.23714" lon="-0.62005">
        <ele>54.12</ele>
        <time>2025-05-31T12:12:34.120Z</time>
      </trkpt>
      <trkpt lat="49.23722" lon="-0.62014">
        <ele>53.98</ele>
        <time>2025-05-31T12:12:42.608Z</time>
      </trkpt>
      <trkpt lat="49.2373" lon="-0.62018">
        <ele>53.86</ele>
        <time>2025-05-31T12:12:51.097Z</time>
      </trkpt>
      <trkpt lat="49.23744" lon="-0.62019">
        <ele>53.73</ele>
        <time>2025-05-31T12:12:59.589Z</time>
      </trkpt>
      <trkpt lat="49.23758" lon="-0.62016">
        <ele>53.63</ele>
        <time>2025-05-31T12:13:08.083Z</time>
      </trkpt>
      <trkpt lat="49.23786" lon="-0.62007">
        <ele>53.56</ele>
        <time>2025-05-31T12:13:16.581Z</time>
      </trkpt>
      <trkpt lat="49.23806" lon="-0.61992">
        <ele>53.46</ele>
        <time>2025-05-31T12:13:25.083Z</time>
      </trkpt>
      <trkpt lat="49.23818" lon="-0.61975">
        <ele>53.34</ele>
        <time>2025-05-31T12:13:33.588Z</time>
      </trkpt>
      <trkpt lat="49.23825" lon="-0.61961">
        <ele>53.26</ele>
        <time>2025-05-31T12:13:42.094Z</time>
      </trkpt>
      <trkpt lat="49.2384" lon="-0.61918">
        <ele>53.12</ele>
        <time>2025-05-31T12:13:50.606Z</time>
      </trkpt>
      <trkpt lat="49.2385" lon="-0.61888">
        <ele>53.03</ele>
        <time>2025-05-31T12:13:59.121Z</time>
      </trkpt>
      <trkpt lat="49.23863" lon="-0.61857">
        <ele>52.96</ele>
        <time>2025-05-31T12:14:07.640Z</time>
      </trkpt>
      <trkpt lat="49.2388" lon="-0.61836">
        <ele>52.91</ele>
        <time>2025-05-31T12:14:16.162Z</time>
      </trkpt>
      <trkpt lat="49.23887" lon="-0.61831">
        <ele>52.88</ele>
        <time>2025-05-31T12:14:24.686Z</time>
      </trkpt>
      <trkpt lat="49.23904" lon="-0.61814">
        <ele>52.9</ele>
        <time>2025-05-31T12:14:33.213Z</time>
      </trkpt>
      <trkpt lat="49.23929" lon="-0.61793">
        <ele>52.93</ele>
        <time>2025-05-31T12:14:41.745Z</time>
      </trkpt>
      <trkpt lat="49.2395" lon="-0.61773">
        <ele>52.94</ele>
        <time>2025-05-31T12:14:50.281Z</time>
      </trkpt>
      <trkpt lat="49.23963" lon="-0.61763">
        <ele>52.96</ele>
        <time>2025-05-31T12:14:58.819Z</time>
      </trkpt>
      <trkpt lat="49.23974" lon="-0.6176">
        <ele>52.96</ele>
        <time>2025-05-31T12:15:07.359Z</time>
      </trkpt>
      <trkpt lat="49.23999" lon="-0.61766">
        <ele>52.96</ele>
        <time>2025-05-31T12:15:15.903Z</time>
      </trkpt>
      <trkpt lat="49.2401" lon="-0.6177">
        <ele>52.98</ele>
        <time>2025-05-31T12:15:24.449Z</time>
      </trkpt>
      <trkpt lat="49.2404" lon="-0.61783">
        <ele>52.94</ele>
        <time>2025-05-31T12:15:33.000Z</time>
      </trkpt>
      <trkpt lat="49.24044" lon="-0.61784">
        <ele>53.02</ele>
        <time>2025-05-31T12:15:41.551Z</time>
      </trkpt>
      <trkpt lat="49.24062" lon="-0.61792">
        <ele>53.09</ele>
        <time>2025-05-31T12:15:50.105Z</time>
      </trkpt>
      <trkpt lat="49.24068" lon="-0.61798">
        <ele>53.21</ele>
        <time>2025-05-31T12:15:58.660Z</time>
      </trkpt>
      <trkpt lat="49.24095" lon="-0.61822">
        <ele>53.38</ele>
        <time>2025-05-31T12:16:07.220Z</time>
      </trkpt>
      <trkpt lat="49.24107" lon="-0.61833">
        <ele>53.59</ele>
        <time>2025-05-31T12:16:15.783Z</time>
      </trkpt>
      <trkpt lat="49.24135" lon="-0.61854">
        <ele>53.87</ele>
        <time>2025-05-31T12:16:24.351Z</time>
      </trkpt>
      <trkpt lat="49.24162" lon="-0.61874">
        <ele>54.15</ele>
        <time>2025-05-31T12:16:32.923Z</time>
      </trkpt>
      <trkpt lat="49.24191" lon="-0.61893">
        <ele>54.37</ele>
        <time>2025-05-31T12:16:41.500Z</time>
      </trkpt>
      <trkpt lat="49.24191" lon="-0.61893">
        <ele>54.61</ele>
        <time>2025-05-31T12:16:50.077Z</time>
      </trkpt>
      <trkpt lat="49.24221" lon="-0.61909">
        <ele>54.86</ele>
        <time>2025-05-31T12:16:58.659Z</time>
      </trkpt>
      <trkpt lat="49.2424" lon="-0.6192">
        <ele>55.14</ele>
        <time>2025-05-31T12:17:07.245Z</time>
      </trkpt>
      <trkpt lat="49.24268" lon="-0.61936">
        <ele>55.48</ele>
        <time>2025-05-31T12:17:15.836Z</time>
      </trkpt>
      <trkpt lat="49.24297" lon="-0.61955">
        <ele>55.79</ele>
        <time>2025-05-31T12:17:24.432Z</time>
      </trkpt>
      <trkpt lat="49.24304" lon="-0.6196">
        <ele>56.08</ele>
        <time>2025-05-31T12:17:33.029Z</time>
      </trkpt>
      <trkpt lat="49.24333" lon="-0.61977">
        <ele>56.44</ele>
        <time>2025-05-31T12:17:41.631Z</time>
      </trkpt>
      <trkpt lat="49.24336" lon="-0.61979">
        <ele>56.75</ele>
        <time>2025-05-31T12:17:50.233Z</time>
      </trkpt>
      <trkpt lat="49.24365" lon="-0.61999">
        <ele>57.1</ele>
        <time>2025-05-31T12:17:58.840Z</time>
      </trkpt>
      <trkpt lat="49.24393" lon="-0.62018">
        <ele>57.41</ele>
        <time>2025-05-31T12:18:07.452Z</time>
      </trkpt>
      <trkpt lat="49.24422" lon="-0.62038">
        <ele>57.7</ele>
        <time>2025-05-31T12:18:16.069Z</time>
      </trkpt>
      <trkpt lat="49.24432" lon="-0.62045">
        <ele>58.03</ele>
        <time>2025-05-31T12:18:24.688Z</time>
      </trkpt>
      <trkpt lat="49.2446" lon="-0.62066">
        <ele>58.4</ele>
        <time>2025-05-31T12:18:33.312Z</time>
      </trkpt>
      <trkpt lat="49.24468" lon="-0.62071">
        <ele>58.72</ele>
        <time>2025-05-31T12:18:41.938Z</time>
      </trkpt>
      <trkpt lat="49.24496" lon="-0.62093">
        <ele>59.04</ele>
        <time>2025-05-31T12:18:50.569Z</time>
      </trkpt>
      <trkpt lat="49.24514" lon="-0.62108">
        <ele>59.31</ele>
        <time>2025-05-31T12:18:59.203Z</time>
      </trkpt>
      <trkpt lat="49.24541" lon="-0.62133">
        <ele>59.59</ele>
        <time>2025-05-31T12:19:07.842Z</time>
      </trkpt>
      <trkpt lat="49.24551" lon="-0.62142">
        <ele>59.86</ele>
        <time>2025-05-31T12:19:16.483Z</time>
      </trkpt>
      <trkpt lat="49.24577" lon="-0.62169">
        <ele>60.14</ele>
        <time>2025-05-31T12:19:25.129Z</time>
      </trkpt>
      <trkpt lat="49.24603" lon="-0.62195">
        <ele>60.42</ele>
        <time>2025-05-31T12:19:33.780Z</time>
      </trkpt>
      <trkpt lat="49.24613" lon="-0.62205">
        <ele>60.71</ele>
        <time>2025-05-31T12:19:42.433Z</time>
      </trkpt>
      <trkpt lat="49.24623" lon="-0.62215">
        <ele>60.98</ele>
        <time>2025-05-31T12:19:51.088Z</time>
      </trkpt>
      <trkpt lat="49.24651" lon="-0.62236">
        <ele>61.29</ele>
        <time>2025-05-31T12:19:59.748Z</time>
      </trkpt>
      <trkpt lat="49.24652" lon="-0.62236">
        <ele>61.56</ele>
        <time>2025-05-31T12:20:08.408Z</time>
      </trkpt>
      <trkpt lat="49.24681" lon="-0.62254">
        <ele>61.83</ele>
        <time>2025-05-31T12:20:17.073Z</time>
      </trkpt>
      <trkpt lat="49.24683" lon="-0.62255">
        <ele>62.09</ele>
        <time>2025-05-31T12:20:25.738Z</time>
      </trkpt>
      <trkpt lat="49.24702" lon="-0.62262">
        <ele>62.35</ele>
        <time>2025-05-31T12:20:34.406Z</time>
      </trkpt>
      <trkpt lat="49.24733" lon="-0.62269">
        <ele>62.56</ele>
        <time>2025-05-31T12:20:43.079Z</time>
      </trkpt>
      <trkpt lat="49.24762" lon="-0.62276">
        <ele>62.83</ele>
        <time>2025-05-31T12:20:51.757Z</time>
      </trkpt>
      <trkpt lat="49.24793" lon="-0.62282">
        <ele>63.08</ele>
        <time>2025-05-31T12:21:00.440Z</time>
      </trkpt>
      <trkpt lat="49.24804" lon="-0.62284">
        <ele>63.32</ele>
        <time>2025-05-31T12:21:09.125Z</time>
      </trkpt>
      <trkpt lat="49.24824" lon="-0.62285">
        <ele>63.55</ele>
        <time>2025-05-31T12:21:17.813Z</time>
      </trkpt>
      <trkpt lat="49.24839" lon="-0.62277">
        <ele>63.8</ele>
        <time>2025-05-31T12:21:26.503Z</time>
      </trkpt>
      <trkpt lat="49.24839" lon="-0.62273">
        <ele>64.02</ele>
        <time>2025-05-31T12:21:35.194Z</time>
      </trkpt>
      <trkpt lat="49.2484" lon="-0.62269">
        <ele>64.25</ele>
        <time>2025-05-31T12:21:43.885Z</time>
      </trkpt>
      <trkpt lat="49.24844" lon="-0.62262">
        <ele>64.47</ele>
        <time>2025-05-31T12:21:52.577Z</time>
      </trkpt>
      <trkpt lat="49.24849" lon="-0.62259">
        <ele>64.68</ele>
        <time>2025-05-31T12:22:01.270Z</time>
      </trkpt>
      <trkpt lat="49.24855" lon="-0.6226">
        <ele>64.9</ele>
        <time>2025-05-31T12:22:09.964Z</time>
      </trkpt>
      <trkpt lat="49.2486" lon="-0.62264">
        <ele>65.1</ele>
        <time>2025-05-31T12:22:18.659Z</time>
      </trkpt>
      <trkpt lat="49.24862" lon="-0.62268">
        <ele>65.3</ele>
        <time>2025-05-31T12:22:27.355Z</time>
      </trkpt>
      <trkpt lat="49.24881" lon="-0.6226">
        <ele>65.5</ele>
        <time>2025-05-31T12:22:36.054Z</time>
      </trkpt>
      <trkpt lat="49.24906" lon="-0.62243">
        <ele>65.68</ele>
        <time>2025-05-31T12:22:44.757Z</time>
      </trkpt>
      <trkpt lat="49.24935" lon="-0.62223">
        <ele>65.88</ele>
        <time>2025-05-31T12:22:53.465Z</time>
      </trkpt>
      <trkpt lat="49.24941" lon="-0.62219">
        <ele>66.04</ele>
        <time>2025-05-31T12:23:02.174Z</time>
      </trkpt>
      <trkpt lat="49.24969" lon="-0.62205">
        <ele>66.19</ele>
        <time>2025-05-31T12:23:10.888Z</time>
      </trkpt>
      <trkpt lat="49.24994" lon="-0.62197">
        <ele>66.36</ele>
        <time>2025-05-31T12:23:19.606Z</time>
      </trkpt>
      <trkpt lat="49.25016" lon="-0.62195">
        <ele>66.48</ele>
        <time>2025-05-31T12:23:28.328Z</time>
      </trkpt>
      <trkpt lat="49.25039" lon="-0.62194">
        <ele>66.55</ele>
        <time>2025-05-31T12:23:37.053Z</time>
      </trkpt>
      <trkpt lat="49.25061" lon="-0.62196">
        <ele>66.63</ele>
        <time>2025-05-31T12:23:45.782Z</time>
      </trkpt>
      <trkpt lat="49.25079" lon="-0.62199">
        <ele>66.7</ele>
        <time>2025-05-31T12:23:54.514Z</time>
      </trkpt>
      <trkpt lat="49.2511" lon="-0.6221">
        <ele>66.79</ele>
        <time>2025-05-31T12:24:03.251Z</time>
      </trkpt>
      <trkpt lat="49.25114" lon="-0.62211">
        <ele>66.82</ele>
        <time>2025-05-31T12:24:11.988Z</time>
      </trkpt>
      <trkpt lat="49.25138" lon="-0.62223">
        <ele>66.85</ele>
        <time>2025-05-31T12:24:20.730Z</time>
      </trkpt>
      <trkpt lat="49.25166" lon="-0.62245">
        <ele>66.87</ele>
        <time>2025-05-31T12:24:29.477Z</time>
      </trkpt>
      <trkpt lat="49.25179" lon="-0.62255">
        <ele>66.88</ele>
        <time>2025-05-31T12:24:38.226Z</time>
      </trkpt>
      <trkpt lat="49.25207" lon="-0.62278">
        <ele>66.89</ele>
        <time>2025-05-31T12:24:46.980Z</time>
      </trkpt>
      <trkpt lat="49.25222" lon="-0.6229">
        <ele>66.81</ele>
        <time>2025-05-31T12:24:55.737Z</time>
      </trkpt>
      <trkpt lat="49.25249" lon="-0.62314">
        <ele>66.66</ele>
        <time>2025-05-31T12:25:04.499Z</time>
      </trkpt>
      <trkpt lat="49.25277" lon="-0.62337">
        <ele>66.47</ele>
        <time>2025-05-31T12:25:13.266Z</time>
      </trkpt>
      <trkpt lat="49.25304" lon="-0.62361">
        <ele>66.36</ele>
        <time>2025-05-31T12:25:22.038Z</time>
      </trkpt>
      <trkpt lat="49.25307" lon="-0.62363">
        <ele>66.23</ele>
        <time>2025-05-31T12:25:30.810Z</time>
      </trkpt>
      <trkpt lat="49.25335" lon="-0.62386">
        <ele>66.09</ele>
        <time>2025-05-31T12:25:39.587Z</time>
      </trkpt>
      <trkpt lat="49.25362" lon="-0.62408">
        <ele>65.91</ele>
        <time>2025-05-31T12:25:48.369Z</time>
      </trkpt>
      <trkpt lat="49.25368" lon="-0.62413">
        <ele>65.71</ele>
        <time>2025-05-31T12:25:57.152Z</time>
      </trkpt>
      <trkpt lat="49.25389" lon="-0.62428">
        <ele>65.48</ele>
        <time>2025-05-31T12:26:05.939Z</time>
      </trkpt>
      <trkpt lat="49.25406" lon="-0.62438">
        <ele>65.23</ele>
        <time>2025-05-31T12:26:14.729Z</time>
      </trkpt>
      <trkpt lat="49.25429" lon="-0.62449">
        <ele>64.98</ele>
        <time>2025-05-31T12:26:23.523Z</time>
      </trkpt>
      <trkpt lat="49.25452" lon="-0.62456">
        <ele>64.75</ele>
        <time>2025-05-31T12:26:32.321Z</time>
      </trkpt>
      <trkpt lat="49.25474" lon="-0.6246">
        <ele>64.49</ele>
        <time>2025-05-31T12:26:41.122Z</time>
      </trkpt>
      <trkpt lat="49.25495" lon="-0.62462">
        <ele>64.19</ele>
        <time>2025-05-31T12:26:49.927Z</time>
      </trkpt>
      <trkpt lat="49.25526" lon="-0.62458">
        <ele>63.81</ele>
        <time>2025-05-31T12:26:58.737Z</time>
      </trkpt>
      <trkpt lat="49.25529" lon="-0.62458">
        <ele>63.45</ele>
        <time>2025-05-31T12:27:07.547Z</time>
      </trkpt>
      <trkpt lat="49.2556" lon="-0.62448">
        <ele>63.02</ele>
        <time>2025-05-31T12:27:16.362Z</time>
      </trkpt>
      <trkpt lat="49.25577" lon="-0.62443">
        <ele>62.62</ele>
        <time>2025-05-31T12:27:25.180Z</time>
      </trkpt>
      <trkpt lat="49.25608" lon="-0.62433">
        <ele>62.19</ele>
        <time>2025-05-31T12:27:34.003Z</time>
      </trkpt>
      <trkpt lat="49.25639" lon="-0.62423">
        <ele>61.69</ele>
        <time>2025-05-31T12:27:42.831Z</time>
      </trkpt>
      <trkpt lat="49.25669" lon="-0.62412">
        <ele>61.18</ele>
        <time>2025-05-31T12:27:51.664Z</time>
      </trkpt>
      <trkpt lat="49.25695" lon="-0.62404">
        <ele>60.66</ele>
        <time>2025-05-31T12:28:00.501Z</time>
      </trkpt>
      <trkpt lat="49.25726" lon="-0.62394">
        <ele>60.13</ele>
        <time>2025-05-31T12:28:09.343Z</time>
      </trkpt>
      <trkpt lat="49.2575" lon="-0.62386">
        <ele>59.53</ele>
        <time>2025-05-31T12:28:18.189Z</time>
      </trkpt>
      <trkpt lat="49.25781" lon="-0.62375">
        <ele>58.89</ele>
        <time>2025-05-31T12:28:27.040Z</time>
      </trkpt>
      <trkpt lat="49.25806" lon="-0.62366">
        <ele>58.25</ele>
        <time>2025-05-31T12:28:35.895Z</time>
      </trkpt>
      <trkpt lat="49.25836" lon="-0.62354">
        <ele>57.62</ele>
        <time>2025-05-31T12:28:44.755Z</time>
      </trkpt>
      <trkpt lat="49.25867" lon="-0.62342">
        <ele>56.96</ele>
        <time>2025-05-31T12:28:53.621Z</time>
      </trkpt>
      <trkpt lat="49.25869" lon="-0.62341">
        <ele>56.26</ele>
        <time>2025-05-31T12:29:02.487Z</time>
      </trkpt>
      <trkpt lat="49.25899" lon="-0.62326">
        <ele>55.51</ele>
        <time>2025-05-31T12:29:11.358Z</time>
      </trkpt>
      <trkpt lat="49.25929" lon="-0.62311">
        <ele>54.71</ele>
        <time>2025-05-31T12:29:20.234Z</time>
      </trkpt>
      <trkpt lat="49.25959" lon="-0.62296">
        <ele>53.89</ele>
        <time>2025-05-31T12:29:29.115Z</time>
      </trkpt>
      <trkpt lat="49.25988" lon="-0.6228">
        <ele>53.03</ele>
        <time>2025-05-31T12:29:38.001Z</time>
      </trkpt>
      <trkpt lat="49.26001" lon="-0.62274">
        <ele>52.16</ele>
        <time>2025-05-31T12:29:46.889Z</time>
      </trkpt>
      <trkpt lat="49.2601" lon="-0.6232">
        <ele>51.25</ele>
        <time>2025-05-31T12:29:55.782Z</time>
      </trkpt>
      <trkpt lat="49.26017" lon="-0.6236">
        <ele>50.33</ele>
        <time>2025-05-31T12:30:04.679Z</time>
      </trkpt>
      <trkpt lat="49.26025" lon="-0.62406">
        <ele>49.36</ele>
        <time>2025-05-31T12:30:13.582Z</time>
      </trkpt>
      <trkpt lat="49.26033" lon="-0.62453">
        <ele>48.3</ele>
        <time>2025-05-31T12:30:22.490Z</time>
      </trkpt>
      <trkpt lat="49.26041" lon="-0.62499">
        <ele>47.27</ele>
        <time>2025-05-31T12:30:31.403Z</time>
      </trkpt>
      <trkpt lat="49.26049" lon="-0.62544">
        <ele>46.17</ele>
        <time>2025-05-31T12:30:40.320Z</time>
      </trkpt>
      <trkpt lat="49.26056" lon="-0.62572">
        <ele>45.07</ele>
        <time>2025-05-31T12:30:49.241Z</time>
      </trkpt>
      <trkpt lat="49.26066" lon="-0.62597">
        <ele>43.98</ele>
        <time>2025-05-31T12:30:58.165Z</time>
      </trkpt>
      <trkpt lat="49.26083" lon="-0.62638">
        <ele>42.85</ele>
        <time>2025-05-31T12:31:07.094Z</time>
      </trkpt>
      <trkpt lat="49.26084" lon="-0.6264">
        <ele>41.79</ele>
        <time>2025-05-31T12:31:16.023Z</time>
      </trkpt>
      <trkpt lat="49.26102" lon="-0.62679">
        <ele>40.6</ele>
        <time>2025-05-31T12:31:24.957Z</time>
      </trkpt>
      <trkpt lat="49.26121" lon="-0.62718">
        <ele>39.45</ele>
        <time>2025-05-31T12:31:33.896Z</time>
      </trkpt>
      <trkpt lat="49.26121" lon="-0.62718">
        <ele>38.41</ele>
        <time>2025-05-31T12:31:42.835Z</time>
      </trkpt>
      <trkpt lat="49.26136" lon="-0.62757">
        <ele>37.28</ele>
        <time>2025-05-31T12:31:51.779Z</time>
      </trkpt>
      <trkpt lat="49.26144" lon="-0.62781">
        <ele>36.26</ele>
        <time>2025-05-31T12:32:00.726Z</time>
      </trkpt>
      <trkpt lat="49.26125" lon="-0.62805">
        <ele>35.29</ele>
        <time>2025-05-31T12:32:09.677Z</time>
      </trkpt>
      <trkpt lat="49.26108" lon="-0.62823">
        <ele>34.31</ele>
        <time>2025-05-31T12:32:18.631Z</time>
      </trkpt>
      <trkpt lat="49.26102" lon="-0.62829">
        <ele>33.38</ele>
        <time>2025-05-31T12:32:27.586Z</time>
      </trkpt>
      <trkpt lat="49.26101" lon="-0.62837">
        <ele>32.5</ele>
        <time>2025-05-31T12:32:36.542Z</time>
      </trkpt>
      <trkpt lat="49.26095" lon="-0.6287">
        <ele>31.69</ele>
        <time>2025-05-31T12:32:45.502Z</time>
      </trkpt>
      <trkpt lat="49.26096" lon="-0.62897">
        <ele>30.92</ele>
        <time>2025-05-31T12:32:54.464Z</time>
      </trkpt>
      <trkpt lat="49.26102" lon="-0.62944">
        <ele>30.02</ele>
        <time>2025-05-31T12:33:03.431Z</time>
      </trkpt>
      <trkpt lat="49.26104" lon="-0.62959">
        <ele>29.25</ele>
        <time>2025-05-31T12:33:12.400Z</time>
      </trkpt>
      <trkpt lat="49.26103" lon="-0.62971">
        <ele>28.55</ele>
        <time>2025-05-31T12:33:21.370Z</time>
      </trkpt>
      <trkpt lat="49.26097" lon="-0.62985">
        <ele>27.91</ele>
        <time>2025-05-31T12:33:30.342Z</time>
      </trkpt>
      <trkpt lat="49.26074" lon="-0.63017">
        <ele>27.33</ele>
        <time>2025-05-31T12:33:39.319Z</time>
      </trkpt>
      <trkpt lat="49.26072" lon="-0.6302">
        <ele>26.86</ele>
        <time>2025-05-31T12:33:48.296Z</time>
      </trkpt>
      <trkpt lat="49.26054" lon="-0.6304">
        <ele>26.46</ele>
        <time>2025-05-31T12:33:57.277Z</time>
      </trkpt>
      <trkpt lat="49.26044" lon="-0.63048">
        <ele>26.11</ele>
        <time>2025-05-31T12:34:06.260Z</time>
      </trkpt>
      <trkpt lat="49.26038" lon="-0.63053">
        <ele>25.84</ele>
        <time>2025-05-31T12:34:15.244Z</time>
      </trkpt>
      <trkpt lat="49.26037" lon="-0.63059">
        <ele>25.64</ele>
        <time>2025-05-31T12:34:24.229Z</time>
      </trkpt>
      <trkpt lat="49.26037" lon="-0.63063">
        <ele>25.52</ele>
        <time>2025-05-31T12:34:33.214Z</time>
      </trkpt>
      <trkpt lat="49.26037" lon="-0.63101">
        <ele>25.45</ele>
        <time>2025-05-31T12:34:42.203Z</time>
      </trkpt>
      <trkpt lat="49.26038" lon="-0.63112">
        <ele>25.48</ele>
        <time>2025-05-31T12:34:51.193Z</time>
      </trkpt>
      <trkpt lat="49.26043" lon="-0.63134">
        <ele>25.59</ele>
        <time>2025-05-31T12:35:00.186Z</time>
      </trkpt>
      <trkpt lat="49.26056" lon="-0.63178">
        <ele>25.79</ele>
        <time>2025-05-31T12:35:09.184Z</time>
      </trkpt>
      <trkpt lat="49.26058" lon="-0.63184">
        <ele>26.07</ele>
        <time>2025-05-31T12:35:18.182Z</time>
      </trkpt>
      <trkpt lat="49.2607" lon="-0.63229">
        <ele>26.39</ele>
        <time>2025-05-31T12:35:27.185Z</time>
      </trkpt>
      <trkpt lat="49.26074" lon="-0.63246">
        <ele>26.81</ele>
        <time>2025-05-31T12:35:36.190Z</time>
      </trkpt>
      <trkpt lat="49.26082" lon="-0.63292">
        <ele>27.37</ele>
        <time>2025-05-31T12:35:45.200Z</time>
      </trkpt>
      <trkpt lat="49.26084" lon="-0.63301">
        <ele>27.96</ele>
        <time>2025-05-31T12:35:54.211Z</time>
      </trkpt>
      <trkpt lat="49.26089" lon="-0.63326">
        <ele>28.59</ele>
        <time>2025-05-31T12:36:03.225Z</time>
      </trkpt>
      <trkpt lat="49.2609" lon="-0.63368">
        <ele>29.36</ele>
        <time>2025-05-31T12:36:12.243Z</time>
      </trkpt>
      <trkpt lat="49.26089" lon="-0.63416">
        <ele>30.22</ele>
        <time>2025-05-31T12:36:21.266Z</time>
      </trkpt>
      <trkpt lat="49.26088" lon="-0.63437">
        <ele>31.07</ele>
        <time>2025-05-31T12:36:30.292Z</time>
      </trkpt>
      <trkpt lat="49.26087" lon="-0.63485">
        <ele>32.03</ele>
        <time>2025-05-31T12:36:39.323Z</time>
      </trkpt>
      <trkpt lat="49.26087" lon="-0.63532">
        <ele>33.02</ele>
        <time>2025-05-31T12:36:48.359Z</time>
      </trkpt>
      <trkpt lat="49.2609" lon="-0.63567">
        <ele>34.07</ele>
        <time>2025-05-31T12:36:57.398Z</time>
      </trkpt>
      <trkpt lat="49.26096" lon="-0.63594">
        <ele>35.13</ele>
        <time>2025-05-31T12:37:06.440Z</time>
      </trkpt>
      <trkpt lat="49.26104" lon="-0.63634">
        <ele>36.18</ele>
        <time>2025-05-31T12:37:15.487Z</time>
      </trkpt>
      <trkpt lat="49.26116" lon="-0.63678">
        <ele>37.16</ele>
        <time>2025-05-31T12:37:24.539Z</time>
      </trkpt>
      <trkpt lat="49.26121" lon="-0.63694">
        <ele>38.18</ele>
        <time>2025-05-31T12:37:33.593Z</time>
      </trkpt>
      <trkpt lat="49.26138" lon="-0.63734">
        <ele>39.22</ele>
        <time>2025-05-31T12:37:42.652Z</time>
      </trkpt>
      <trkpt lat="49.26152" lon="-0.63766">
        <ele>40.3</ele>
        <time>2025-05-31T12:37:51.715Z</time>
      </trkpt>
      <trkpt lat="49.26161" lon="-0.63789">
        <ele>41.39</ele>
        <time>2025-05-31T12:38:00.780Z</time>
      </trkpt>
      <trkpt lat="49.26173" lon="-0.63833">
        <ele>42.58</ele>
        <time>2025-05-31T12:38:09.850Z</time>
      </trkpt>
      <trkpt lat="49.26185" lon="-0.63878">
        <ele>43.77</ele>
        <time>2025-05-31T12:38:18.925Z</time>
      </trkpt>
      <trkpt lat="49.26192" lon="-0.63902">
        <ele>44.89</ele>
        <time>2025-05-31T12:38:28.003Z</time>
      </trkpt>
      <trkpt lat="49.26197" lon="-0.63915">
        <ele>45.95</ele>
        <time>2025-05-31T12:38:37.083Z</time>
      </trkpt>
      <trkpt lat="49.2621" lon="-0.63925">
        <ele>47</ele>
        <time>2025-05-31T12:38:46.165Z</time>
      </trkpt>
      <trkpt lat="49.26233" lon="-0.63946">
        <ele>47.98</ele>
        <time>2025-05-31T12:38:55.251Z</time>
      </trkpt>
      <trkpt lat="49.26245" lon="-0.63965">
        <ele>48.97</ele>
        <time>2025-05-31T12:39:04.340Z</time>
      </trkpt>
      <trkpt lat="49.26264" lon="-0.64003">
        <ele>49.93</ele>
        <time>2025-05-31T12:39:13.434Z</time>
      </trkpt>
      <trkpt lat="49.26265" lon="-0.64005">
        <ele>50.82</ele>
        <time>2025-05-31T12:39:22.528Z</time>
      </trkpt>
      <trkpt lat="49.26281" lon="-0.64046">
        <ele>51.68</ele>
        <time>2025-05-31T12:39:31.628Z</time>
      </trkpt>
      <trkpt lat="49.2629" lon="-0.6407">
        <ele>52.49</ele>
        <time>2025-05-31T12:39:40.730Z</time>
      </trkpt>
      <trkpt lat="49.26304" lon="-0.64113">
        <ele>53.31</ele>
        <time>2025-05-31T12:39:49.837Z</time>
      </trkpt>
      <trkpt lat="49.26311" lon="-0.64137">
        <ele>54.09</ele>
        <time>2025-05-31T12:39:58.947Z</time>
      </trkpt>
      <trkpt lat="49.26318" lon="-0.64156">
        <ele>54.82</ele>
        <time>2025-05-31T12:40:08.059Z</time>
      </trkpt>
      <trkpt lat="49.26327" lon="-0.6419">
        <ele>55.49</ele>
        <time>2025-05-31T12:40:17.175Z</time>
      </trkpt>
      <trkpt lat="49.26339" lon="-0.64235">
        <ele>56.14</ele>
        <time>2025-05-31T12:40:26.296Z</time>
      </trkpt>
      <trkpt lat="49.2635" lon="-0.64279">
        <ele>56.79</ele>
        <time>2025-05-31T12:40:35.422Z</time>
      </trkpt>
      <trkpt lat="49.26364" lon="-0.64322">
        <ele>57.39</ele>
        <time>2025-05-31T12:40:44.553Z</time>
      </trkpt>
      <trkpt lat="49.26377" lon="-0.64366">
        <ele>57.97</ele>
        <time>2025-05-31T12:40:53.689Z</time>
      </trkpt>
      <trkpt lat="49.26384" lon="-0.64388">
        <ele>58.55</ele>
        <time>2025-05-31T12:41:02.828Z</time>
      </trkpt>
      <trkpt lat="49.26396" lon="-0.64432">
        <ele>59.14</ele>
        <time>2025-05-31T12:41:11.972Z</time>
      </trkpt>
      <trkpt lat="49.26408" lon="-0.64473">
        <ele>59.67</ele>
        <time>2025-05-31T12:41:21.121Z</time>
      </trkpt>
      <trkpt lat="49.26416" lon="-0.64504">
        <ele>60.15</ele>
        <time>2025-05-31T12:41:30.273Z</time>
      </trkpt>
      <trkpt lat="49.26429" lon="-0.64548">
        <ele>60.64</ele>
        <time>2025-05-31T12:41:39.430Z</time>
      </trkpt>
      <trkpt lat="49.26431" lon="-0.64554">
        <ele>61.08</ele>
        <time>2025-05-31T12:41:48.588Z</time>
      </trkpt>
      <trkpt lat="49.26444" lon="-0.64548">
        <ele>61.52</ele>
        <time>2025-05-31T12:41:57.748Z</time>
      </trkpt>
      <trkpt lat="49.26474" lon="-0.64534">
        <ele>61.96</ele>
        <time>2025-05-31T12:42:06.913Z</time>
      </trkpt>
      <trkpt lat="49.26482" lon="-0.6453">
        <ele>62.35</ele>
        <time>2025-05-31T12:42:16.080Z</time>
      </trkpt>
      <trkpt lat="49.26512" lon="-0.64514">
        <ele>62.72</ele>
        <time>2025-05-31T12:42:25.252Z</time>
      </trkpt>
      <trkpt lat="49.26539" lon="-0.64499">
        <ele>63.06</ele>
        <time>2025-05-31T12:42:34.428Z</time>
      </trkpt>
      <trkpt lat="49.26568" lon="-0.64481">
        <ele>63.36</ele>
        <time>2025-05-31T12:42:43.609Z</time>
      </trkpt>
      <trkpt lat="49.26592" lon="-0.64467">
        <ele>63.7</ele>
        <time>2025-05-31T12:42:52.794Z</time>
      </trkpt>
      <trkpt lat="49.2662" lon="-0.64452">
        <ele>64.03</ele>
        <time>2025-05-31T12:43:01.984Z</time>
      </trkpt>
      <trkpt lat="49.2665" lon="-0.64467">
        <ele>64.42</ele>
        <time>2025-05-31T12:43:11.179Z</time>
      </trkpt>
      <trkpt lat="49.26671" lon="-0.64478">
        <ele>64.79</ele>
        <time>2025-05-31T12:43:20.378Z</time>
      </trkpt>
      <trkpt lat="49.26701" lon="-0.64494">
        <ele>65.15</ele>
        <time>2025-05-31T12:43:29.582Z</time>
      </trkpt>
      <trkpt lat="49.26711" lon="-0.645">
        <ele>65.45</ele>
        <time>2025-05-31T12:43:38.787Z</time>
      </trkpt>
      <trkpt lat="49.2674" lon="-0.64519">
        <ele>65.74</ele>
        <time>2025-05-31T12:43:47.998Z</time>
      </trkpt>
      <trkpt lat="49.26769" lon="-0.64537">
        <ele>66.02</ele>
        <time>2025-05-31T12:43:57.214Z</time>
      </trkpt>
      <trkpt lat="49.26772" lon="-0.64539">
        <ele>66.3</ele>
        <time>2025-05-31T12:44:06.430Z</time>
      </trkpt>
      <trkpt lat="49.26801" lon="-0.64558">
        <ele>66.59</ele>
        <time>2025-05-31T12:44:15.651Z</time>
      </trkpt>
      <trkpt lat="49.26821" lon="-0.64572">
        <ele>66.92</ele>
        <time>2025-05-31T12:44:24.876Z</time>
      </trkpt>
      <trkpt lat="49.26834" lon="-0.64582">
        <ele>67.2</ele>
        <time>2025-05-31T12:44:34.103Z</time>
      </trkpt>
      <trkpt lat="49.26834" lon="-0.64586">
        <ele>67.41</ele>
        <time>2025-05-31T12:44:43.330Z</time>
      </trkpt>
      <trkpt lat="49.26835" lon="-0.64614">
        <ele>67.65</ele>
        <time>2025-05-31T12:44:52.560Z</time>
      </trkpt>
      <trkpt lat="49.26861" lon="-0.64619">
        <ele>67.85</ele>
        <time>2025-05-31T12:45:01.795Z</time>
      </trkpt>
      <trkpt lat="49.26889" lon="-0.64627">
        <ele>67.99</ele>
        <time>2025-05-31T12:45:11.034Z</time>
      </trkpt>
      <trkpt lat="49.26913" lon="-0.6464">
        <ele>68.12</ele>
        <time>2025-05-31T12:45:20.277Z</time>
      </trkpt>
      <trkpt lat="49.26933" lon="-0.64654">
        <ele>68.28</ele>
        <time>2025-05-31T12:45:29.524Z</time>
      </trkpt>
      <trkpt lat="49.26961" lon="-0.64676">
        <ele>68.41</ele>
        <time>2025-05-31T12:45:38.776Z</time>
      </trkpt>
      <trkpt lat="49.2698" lon="-0.64692">
        <ele>68.48</ele>
        <time>2025-05-31T12:45:48.031Z</time>
      </trkpt>
      <trkpt lat="49.27007" lon="-0.64716">
        <ele>68.48</ele>
        <time>2025-05-31T12:45:57.291Z</time>
      </trkpt>
      <trkpt lat="49.27029" lon="-0.64734">
        <ele>68.49</ele>
        <time>2025-05-31T12:46:06.555Z</time>
      </trkpt>
      <trkpt lat="49.27057" lon="-0.64756">
        <ele>68.49</ele>
        <time>2025-05-31T12:46:15.824Z</time>
      </trkpt>
      <trkpt lat="49.27085" lon="-0.64779">
        <ele>68.49</ele>
        <time>2025-05-31T12:46:25.098Z</time>
      </trkpt>
      <trkpt lat="49.27113" lon="-0.64801">
        <ele>68.47</ele>
        <time>2025-05-31T12:46:34.377Z</time>
      </trkpt>
      <trkpt lat="49.27118" lon="-0.64805">
        <ele>68.41</ele>
        <time>2025-05-31T12:46:43.657Z</time>
      </trkpt>
      <trkpt lat="49.27129" lon="-0.64815">
        <ele>68.33</ele>
        <time>2025-05-31T12:46:52.939Z</time>
      </trkpt>
      <trkpt lat="49.2715" lon="-0.64829">
        <ele>68.26</ele>
        <time>2025-05-31T12:47:02.225Z</time>
      </trkpt>
      <trkpt lat="49.27179" lon="-0.64846">
        <ele>68.17</ele>
        <time>2025-05-31T12:47:11.516Z</time>
      </trkpt>
      <trkpt lat="49.27185" lon="-0.64849">
        <ele>68.03</ele>
        <time>2025-05-31T12:47:20.808Z</time>
      </trkpt>
      <trkpt lat="49.27214" lon="-0.64866">
        <ele>67.82</ele>
        <time>2025-05-31T12:47:30.105Z</time>
      </trkpt>
      <trkpt lat="49.27218" lon="-0.64868">
        <ele>67.63</ele>
        <time>2025-05-31T12:47:39.403Z</time>
      </trkpt>
      <trkpt lat="49.27226" lon="-0.64869">
        <ele>67.41</ele>
        <time>2025-05-31T12:47:48.702Z</time>
      </trkpt>
      <trkpt lat="49.27238" lon="-0.64871">
        <ele>67.16</ele>
        <time>2025-05-31T12:47:58.003Z</time>
      </trkpt>
      <trkpt lat="49.27253" lon="-0.64874">
        <ele>66.91</ele>
        <time>2025-05-31T12:48:07.306Z</time>
      </trkpt>
      <trkpt lat="49.27262" lon="-0.64884">
        <ele>66.67</ele>
        <time>2025-05-31T12:48:16.611Z</time>
      </trkpt>
      <trkpt lat="49.27272" lon="-0.6489">
        <ele>66.43</ele>
        <time>2025-05-31T12:48:25.918Z</time>
      </trkpt>
      <trkpt lat="49.27292" lon="-0.64905">
        <ele>66.11</ele>
        <time>2025-05-31T12:48:35.228Z</time>
      </trkpt>
      <trkpt lat="49.27304" lon="-0.64915">
        <ele>65.86</ele>
        <time>2025-05-31T12:48:44.541Z</time>
      </trkpt>
      <trkpt lat="49.27334" lon="-0.6493">
        <ele>65.58</ele>
        <time>2025-05-31T12:48:53.859Z</time>
      </trkpt>
      <trkpt lat="49.27335" lon="-0.6493">
        <ele>65.33</ele>
        <time>2025-05-31T12:49:03.177Z</time>
      </trkpt>
      <trkpt lat="49.27365" lon="-0.64945">
        <ele>65.07</ele>
        <time>2025-05-31T12:49:12.500Z</time>
      </trkpt>
      <trkpt lat="49.27395" lon="-0.64961">
        <ele>64.72</ele>
        <time>2025-05-31T12:49:21.828Z</time>
      </trkpt>
      <trkpt lat="49.27403" lon="-0.64965">
        <ele>64.5</ele>
        <time>2025-05-31T12:49:31.157Z</time>
      </trkpt>
      <trkpt lat="49.27418" lon="-0.64973">
        <ele>64.35</ele>
        <time>2025-05-31T12:49:40.489Z</time>
      </trkpt>
      <trkpt lat="49.27445" lon="-0.64984">
        <ele>64.21</ele>
        <time>2025-05-31T12:49:49.825Z</time>
      </trkpt>
      <trkpt lat="49.27476" lon="-0.64994">
        <ele>63.92</ele>
        <time>2025-05-31T12:49:59.166Z</time>
      </trkpt>
      <trkpt lat="49.27487" lon="-0.64997">
        <ele>63.73</ele>
        <time>2025-05-31T12:50:08.509Z</time>
      </trkpt>
      <trkpt lat="49.27492" lon="-0.64998">
        <ele>63.55</ele>
        <time>2025-05-31T12:50:17.853Z</time>
      </trkpt>
      <trkpt lat="49.27523" lon="-0.65003">
        <ele>63.38</ele>
        <time>2025-05-31T12:50:27.202Z</time>
      </trkpt>
      <trkpt lat="49.27537" lon="-0.65005">
        <ele>63.27</ele>
        <time>2025-05-31T12:50:36.553Z</time>
      </trkpt>
      <trkpt lat="49.27568" lon="-0.65009">
        <ele>63.08</ele>
        <time>2025-05-31T12:50:45.909Z</time>
      </trkpt>
      <trkpt lat="49.27593" lon="-0.65013">
        <ele>62.89</ele>
        <time>2025-05-31T12:50:55.269Z</time>
      </trkpt>
      <trkpt lat="49.27623" lon="-0.65013">
        <ele>62.71</ele>
        <time>2025-05-31T12:51:04.634Z</time>
      </trkpt>
      <trkpt lat="49.27633" lon="-0.65009">
        <ele>62.57</ele>
        <time>2025-05-31T12:51:14.001Z</time>
      </trkpt>
      <trkpt lat="49.27662" lon="-0.64989">
        <ele>62.46</ele>
        <time>2025-05-31T12:51:23.373Z</time>
      </trkpt>
      <trkpt lat="49.27689" lon="-0.64969">
        <ele>62.48</ele>
        <time>2025-05-31T12:51:32.750Z</time>
      </trkpt>
      <trkpt lat="49.27706" lon="-0.64956">
        <ele>62.52</ele>
        <time>2025-05-31T12:51:42.130Z</time>
      </trkpt>
      <trkpt lat="49.27724" lon="-0.64947">
        <ele>62.57</ele>
        <time>2025-05-31T12:51:51.513Z</time>
      </trkpt>
      <trkpt lat="49.2773" lon="-0.64946">
        <ele>62.56</ele>
        <time>2025-05-31T12:52:00.897Z</time>
      </trkpt>
      <trkpt lat="49.27742" lon="-0.64948">
        <ele>62.57</ele>
        <time>2025-05-31T12:52:10.283Z</time>
      </trkpt>
      <trkpt lat="49.27754" lon="-0.64954">
        <ele>62.56</ele>
        <time>2025-05-31T12:52:19.671Z</time>
      </trkpt>
      <trkpt lat="49.2775" lon="-0.64976">
        <ele>62.54</ele>
        <time>2025-05-31T12:52:29.061Z</time>
      </trkpt>
      <trkpt lat="49.27742" lon="-0.65023">
        <ele>62.51</ele>
        <time>2025-05-31T12:52:38.456Z</time>
      </trkpt>
      <trkpt lat="49.27734" lon="-0.65069">
        <ele>62.46</ele>
        <time>2025-05-31T12:52:47.856Z</time>
      </trkpt>
      <trkpt lat="49.27731" lon="-0.65089">
        <ele>62.39</ele>
        <time>2025-05-31T12:52:57.258Z</time>
      </trkpt>
      <trkpt lat="49.27727" lon="-0.65137">
        <ele>62.3</ele>
        <time>2025-05-31T12:53:06.665Z</time>
      </trkpt>
      <trkpt lat="49.27725" lon="-0.65167">
        <ele>62.2</ele>
        <time>2025-05-31T12:53:16.075Z</time>
      </trkpt>
      <trkpt lat="49.27723" lon="-0.65215">
        <ele>62.08</ele>
        <time>2025-05-31T12:53:25.490Z</time>
      </trkpt>
      <trkpt lat="49.27721" lon="-0.6525">
        <ele>61.91</ele>
        <time>2025-05-31T12:53:34.909Z</time>
      </trkpt>
      <trkpt lat="49.27733" lon="-0.65263">
        <ele>61.75</ele>
        <time>2025-05-31T12:53:44.330Z</time>
      </trkpt>
      <trkpt lat="49.27764" lon="-0.65263">
        <ele>61.53</ele>
        <time>2025-05-31T12:53:53.757Z</time>
      </trkpt>
      <trkpt lat="49.27769" lon="-0.65263">
        <ele>61.34</ele>
        <time>2025-05-31T12:54:03.184Z</time>
      </trkpt>
      <trkpt lat="49.278" lon="-0.65257">
        <ele>61.15</ele>
        <time>2025-05-31T12:54:12.616Z</time>
      </trkpt>
      <trkpt lat="49.27811" lon="-0.65255">
        <ele>60.94</ele>
        <time>2025-05-31T12:54:22.050Z</time>
      </trkpt>
      <trkpt lat="49.27839" lon="-0.65246">
        <ele>60.69</ele>
        <time>2025-05-31T12:54:31.489Z</time>
      </trkpt>
      <trkpt lat="49.27869" lon="-0.65232">
        <ele>60.43</ele>
        <time>2025-05-31T12:54:40.933Z</time>
      </trkpt>
      <trkpt lat="49.27881" lon="-0.65226">
        <ele>60.18</ele>
        <time>2025-05-31T12:54:50.379Z</time>
      </trkpt>
      <trkpt lat="49.27909" lon="-0.65204">
        <ele>59.93</ele>
        <time>2025-05-31T12:54:59.830Z</time>
      </trkpt>
      <trkpt lat="49.27937" lon="-0.65182">
        <ele>59.67</ele>
        <time>2025-05-31T12:55:09.286Z</time>
      </trkpt>
      <trkpt lat="49.27965" lon="-0.6516">
        <ele>59.36</ele>
        <time>2025-05-31T12:55:18.747Z</time>
      </trkpt>
      <trkpt lat="49.27968" lon="-0.65157">
        <ele>59.09</ele>
        <time>2025-05-31T12:55:28.208Z</time>
      </trkpt>
      <trkpt lat="49.27996" lon="-0.65136">
        <ele>58.75</ele>
        <time>2025-05-31T12:55:37.674Z</time>
      </trkpt>
      <trkpt lat="49.28024" lon="-0.65115">
        <ele>58.5</ele>
        <time>2025-05-31T12:55:47.145Z</time>
      </trkpt>
      <trkpt lat="49.28053" lon="-0.65093">
        <ele>58.25</ele>
        <time>2025-05-31T12:55:56.621Z</time>
      </trkpt>
      <trkpt lat="49.28081" lon="-0.65072">
        <ele>58</ele>
        <time>2025-05-31T12:56:06.102Z</time>
      </trkpt>
      <trkpt lat="49.28081" lon="-0.65072">
        <ele>57.78</ele>
        <time>2025-05-31T12:56:15.584Z</time>
      </trkpt>
      <trkpt lat="49.2811" lon="-0.65053">
        <ele>57.57</ele>
        <time>2025-05-31T12:56:25.071Z</time>
      </trkpt>
      <trkpt lat="49.28119" lon="-0.65047">
        <ele>57.38</ele>
        <time>2025-05-31T12:56:34.559Z</time>
      </trkpt>
      <trkpt lat="49.2815" lon="-0.65039">
        <ele>57.17</ele>
        <time>2025-05-31T12:56:44.052Z</time>
      </trkpt>
      <trkpt lat="49.28181" lon="-0.6503">
        <ele>56.94</ele>
        <time>2025-05-31T12:56:53.550Z</time>
      </trkpt>
      <trkpt lat="49.28189" lon="-0.65028">
        <ele>56.82</ele>
        <time>2025-05-31T12:57:03.050Z</time>
      </trkpt>
      <trkpt lat="49.2822" lon="-0.6502">
        <ele>56.72</ele>
        <time>2025-05-31T12:57:12.555Z</time>
      </trkpt>
      <trkpt lat="49.28241" lon="-0.65014">
        <ele>56.72</ele>
        <time>2025-05-31T12:57:22.063Z</time>
      </trkpt>
      <trkpt lat="49.28272" lon="-0.65009">
        <ele>56.78</ele>
        <time>2025-05-31T12:57:31.576Z</time>
      </trkpt>
      <trkpt lat="49.28282" lon="-0.65007">
        <ele>56.86</ele>
        <time>2025-05-31T12:57:41.091Z</time>
      </trkpt>
      <trkpt lat="49.28313" lon="-0.65002">
        <ele>57.01</ele>
        <time>2025-05-31T12:57:50.611Z</time>
      </trkpt>
      <trkpt lat="49.28325" lon="-0.65">
        <ele>57.17</ele>
        <time>2025-05-31T12:58:00.133Z</time>
      </trkpt>
      <trkpt lat="49.28356" lon="-0.64998">
        <ele>57.39</ele>
        <time>2025-05-31T12:58:09.660Z</time>
      </trkpt>
      <trkpt lat="49.2836" lon="-0.64998">
        <ele>57.59</ele>
        <time>2025-05-31T12:58:19.187Z</time>
      </trkpt>
      <trkpt lat="49.28388" lon="-0.64999">
        <ele>57.83</ele>
        <time>2025-05-31T12:58:28.719Z</time>
      </trkpt>
      <trkpt lat="49.28414" lon="-0.65007">
        <ele>58.09</ele>
        <time>2025-05-31T12:58:38.255Z</time>
      </trkpt>
      <trkpt lat="49.28431" lon="-0.65016">
        <ele>58.39</ele>
        <time>2025-05-31T12:58:47.794Z</time>
      </trkpt>
      <trkpt lat="49.28448" lon="-0.65026">
        <ele>58.74</ele>
        <time>2025-05-31T12:58:57.336Z</time>
      </trkpt>
      <trkpt lat="49.28476" lon="-0.65048">
        <ele>59.18</ele>
        <time>2025-05-31T12:59:06.883Z</time>
      </trkpt>
      <trkpt lat="49.28504" lon="-0.65069">
        <ele>59.66</ele>
        <time>2025-05-31T12:59:16.435Z</time>
      </trkpt>
      <trkpt lat="49.28512" lon="-0.65075">
        <ele>60.1</ele>
        <time>2025-05-31T12:59:25.988Z</time>
      </trkpt>
      <trkpt lat="49.2854" lon="-0.65096">
        <ele>60.63</ele>
        <time>2025-05-31T12:59:35.546Z</time>
      </trkpt>
      <trkpt lat="49.28569" lon="-0.65117">
        <ele>61.13</ele>
        <time>2025-05-31T12:59:45.109Z</time>
      </trkpt>
      <trkpt lat="49.28597" lon="-0.65138">
        <ele>61.64</ele>
        <time>2025-05-31T12:59:54.677Z</time>
      </trkpt>
      <trkpt lat="49.28625" lon="-0.65159">
        <ele>62.16</ele>
        <time>2025-05-31T13:00:04.250Z</time>
      </trkpt>
      <trkpt lat="49.28626" lon="-0.6516">
        <ele>62.63</ele>
        <time>2025-05-31T13:00:13.823Z</time>
      </trkpt>
      <trkpt lat="49.28651" lon="-0.65188">
        <ele>63.12</ele>
        <time>2025-05-31T13:00:23.401Z</time>
      </trkpt>
      <trkpt lat="49.28672" lon="-0.65211">
        <ele>63.6</ele>
        <time>2025-05-31T13:00:32.984Z</time>
      </trkpt>
      <trkpt lat="49.28686" lon="-0.65227">
        <ele>64.11</ele>
        <time>2025-05-31T13:00:42.569Z</time>
      </trkpt>
      <trkpt lat="49.28699" lon="-0.65243">
        <ele>64.58</ele>
        <time>2025-05-31T13:00:52.157Z</time>
      </trkpt>
      <trkpt lat="49.28708" lon="-0.65269">
        <ele>65</ele>
        <time>2025-05-31T13:01:01.748Z</time>
      </trkpt>
      <trkpt lat="49.28721" lon="-0.65313">
        <ele>65.42</ele>
        <time>2025-05-31T13:01:11.344Z</time>
      </trkpt>
      <trkpt lat="49.28733" lon="-0.65357">
        <ele>65.8</ele>
        <time>2025-05-31T13:01:20.945Z</time>
      </trkpt>
      <trkpt lat="49.28735" lon="-0.65363">
        <ele>66.18</ele>
        <time>2025-05-31T13:01:30.547Z</time>
      </trkpt>
      <trkpt lat="49.28741" lon="-0.65372">
        <ele>66.55</ele>
        <time>2025-05-31T13:01:40.150Z</time>
      </trkpt>
      <trkpt lat="49.28748" lon="-0.65375">
        <ele>66.9</ele>
        <time>2025-05-31T13:01:49.754Z</time>
      </trkpt>
      <trkpt lat="49.2877" lon="-0.65382">
        <ele>67.26</ele>
        <time>2025-05-31T13:01:59.362Z</time>
      </trkpt>
      <trkpt lat="49.28784" lon="-0.65388">
        <ele>67.57</ele>
        <time>2025-05-31T13:02:08.972Z</time>
      </trkpt>
      <trkpt lat="49.28798" lon="-0.65403">
        <ele>67.84</ele>
        <time>2025-05-31T13:02:18.585Z</time>
      </trkpt>
      <trkpt lat="49.28816" lon="-0.65442">
        <ele>68.06</ele>
        <time>2025-05-31T13:02:28.203Z</time>
      </trkpt>
      <trkpt lat="49.28835" lon="-0.65481">
        <ele>68.23</ele>
        <time>2025-05-31T13:02:37.826Z</time>
      </trkpt>
      <trkpt lat="49.28853" lon="-0.6552">
        <ele>68.49</ele>
        <time>2025-05-31T13:02:47.454Z</time>
      </trkpt>
      <trkpt lat="49.28856" lon="-0.65526">
        <ele>68.67</ele>
        <time>2025-05-31T13:02:57.083Z</time>
      </trkpt>
      <trkpt lat="49.28879" lon="-0.65559">
        <ele>68.82</ele>
        <time>2025-05-31T13:03:06.717Z</time>
      </trkpt>
      <trkpt lat="49.28901" lon="-0.65592">
        <ele>68.86</ele>
        <time>2025-05-31T13:03:16.356Z</time>
      </trkpt>
      <trkpt lat="49.28908" lon="-0.65602">
        <ele>68.95</ele>
        <time>2025-05-31T13:03:25.996Z</time>
      </trkpt>
      <trkpt lat="49.28931" lon="-0.65635">
        <ele>69</ele>
        <time>2025-05-31T13:03:35.641Z</time>
      </trkpt>
      <trkpt lat="49.28953" lon="-0.65669">
        <ele>69.04</ele>
        <time>2025-05-31T13:03:45.291Z</time>
      </trkpt>
      <trkpt lat="49.28964" lon="-0.65685">
        <ele>69.04</ele>
        <time>2025-05-31T13:03:54.944Z</time>
      </trkpt>
      <trkpt lat="49.2898" lon="-0.65643">
        <ele>69</ele>
        <time>2025-05-31T13:04:04.602Z</time>
      </trkpt>
      <trkpt lat="49.28995" lon="-0.65601">
        <ele>68.95</ele>
        <time>2025-05-31T13:04:14.265Z</time>
      </trkpt>
      <trkpt lat="49.29002" lon="-0.65583">
        <ele>68.86</ele>
        <time>2025-05-31T13:04:23.930Z</time>
      </trkpt>
      <trkpt lat="49.29018" lon="-0.65541">
        <ele>68.74</ele>
        <time>2025-05-31T13:04:33.600Z</time>
      </trkpt>
      <trkpt lat="49.29021" lon="-0.65533">
        <ele>68.57</ele>
        <time>2025-05-31T13:04:43.271Z</time>
      </trkpt>
      <trkpt lat="49.29038" lon="-0.65496">
        <ele>68.32</ele>
        <time>2025-05-31T13:04:52.947Z</time>
      </trkpt>
      <trkpt lat="49.29057" lon="-0.65457">
        <ele>68.05</ele>
        <time>2025-05-31T13:05:02.628Z</time>
      </trkpt>
      <trkpt lat="49.29075" lon="-0.65418">
        <ele>67.72</ele>
        <time>2025-05-31T13:05:12.314Z</time>
      </trkpt>
      <trkpt lat="49.29084" lon="-0.654">
        <ele>67.43</ele>
        <time>2025-05-31T13:05:22.002Z</time>
      </trkpt>
      <trkpt lat="49.29093" lon="-0.65378">
        <ele>67.1</ele>
        <time>2025-05-31T13:05:31.693Z</time>
      </trkpt>
      <trkpt lat="49.29107" lon="-0.65335">
        <ele>66.71</ele>
        <time>2025-05-31T13:05:41.389Z</time>
      </trkpt>
      <trkpt lat="49.2912" lon="-0.65291">
        <ele>66.31</ele>
        <time>2025-05-31T13:05:51.090Z</time>
      </trkpt>
      <trkpt lat="49.29132" lon="-0.65255">
        <ele>65.89</ele>
        <time>2025-05-31T13:06:00.795Z</time>
      </trkpt>
      <trkpt lat="49.29144" lon="-0.6521">
        <ele>65.43</ele>
        <time>2025-05-31T13:06:10.506Z</time>
      </trkpt>
      <trkpt lat="49.29156" lon="-0.65166">
        <ele>64.95</ele>
        <time>2025-05-31T13:06:20.222Z</time>
      </trkpt>
      <trkpt lat="49.29168" lon="-0.65122">
        <ele>64.35</ele>
        <time>2025-05-31T13:06:29.943Z</time>
      </trkpt>
      <trkpt lat="49.29171" lon="-0.6511">
        <ele>63.8</ele>
        <time>2025-05-31T13:06:39.665Z</time>
      </trkpt>
      <trkpt lat="49.29185" lon="-0.65067">
        <ele>63.2</ele>
        <time>2025-05-31T13:06:49.392Z</time>
      </trkpt>
      <trkpt lat="49.29199" lon="-0.65024">
        <ele>62.63</ele>
        <time>2025-05-31T13:06:59.124Z</time>
      </trkpt>
      <trkpt lat="49.29213" lon="-0.6498">
        <ele>62</ele>
        <time>2025-05-31T13:07:08.861Z</time>
      </trkpt>
      <trkpt lat="49.29226" lon="-0.64937">
        <ele>61.33</ele>
        <time>2025-05-31T13:07:18.603Z</time>
      </trkpt>
      <trkpt lat="49.29233" lon="-0.64917">
        <ele>60.69</ele>
        <time>2025-05-31T13:07:28.347Z</time>
      </trkpt>
      <trkpt lat="49.29247" lon="-0.64874">
        <ele>60.03</ele>
        <time>2025-05-31T13:07:38.096Z</time>
      </trkpt>
      <trkpt lat="49.29262" lon="-0.64832">
        <ele>59.35</ele>
        <time>2025-05-31T13:07:47.851Z</time>
      </trkpt>
      <trkpt lat="49.29276" lon="-0.64789">
        <ele>58.69</ele>
        <time>2025-05-31T13:07:57.611Z</time>
      </trkpt>
      <trkpt lat="49.2929" lon="-0.64749">
        <ele>58.02</ele>
        <time>2025-05-31T13:08:07.375Z</time>
      </trkpt>
      <trkpt lat="49.29307" lon="-0.64708">
        <ele>57.29</ele>
        <time>2025-05-31T13:08:17.144Z</time>
      </trkpt>
      <trkpt lat="49.29323" lon="-0.64667">
        <ele>56.58</ele>
        <time>2025-05-31T13:08:26.918Z</time>
      </trkpt>
      <trkpt lat="49.29332" lon="-0.64646">
        <ele>55.9</ele>
        <time>2025-05-31T13:08:36.695Z</time>
      </trkpt>
      <trkpt lat="49.29337" lon="-0.64627">
        <ele>55.22</ele>
        <time>2025-05-31T13:08:46.474Z</time>
      </trkpt>
      <trkpt lat="49.29337" lon="-0.64613">
        <ele>54.53</ele>
        <time>2025-05-31T13:08:56.255Z</time>
      </trkpt>
      <trkpt lat="49.29352" lon="-0.64598">
        <ele>53.83</ele>
        <time>2025-05-31T13:09:06.038Z</time>
      </trkpt>
      <trkpt lat="49.29369" lon="-0.64558">
        <ele>53.1</ele>
        <time>2025-05-31T13:09:15.827Z</time>
      </trkpt>
      <trkpt lat="49.29386" lon="-0.64517">
        <ele>52.37</ele>
        <time>2025-05-31T13:09:25.621Z</time>
      </trkpt>
      <trkpt lat="49.2939" lon="-0.64508">
        <ele>51.67</ele>
        <time>2025-05-31T13:09:35.416Z</time>
      </trkpt>
      <trkpt lat="49.29408" lon="-0.64469">
        <ele>50.93</ele>
        <time>2025-05-31T13:09:45.216Z</time>
      </trkpt>
      <trkpt lat="49.29426" lon="-0.64429">
        <ele>50.27</ele>
        <time>2025-05-31T13:09:55.021Z</time>
      </trkpt>
      <trkpt lat="49.29442" lon="-0.64395">
        <ele>49.62</ele>
        <time>2025-05-31T13:10:04.830Z</time>
      </trkpt>
      <trkpt lat="49.2946" lon="-0.64356">
        <ele>48.97</ele>
        <time>2025-05-31T13:10:14.644Z</time>
      </trkpt>
      <trkpt lat="49.29461" lon="-0.64354">
        <ele>48.31</ele>
        <time>2025-05-31T13:10:24.458Z</time>
      </trkpt>
      <trkpt lat="49.29475" lon="-0.64311">
        <ele>47.56</ele>
        <time>2025-05-31T13:10:34.277Z</time>
      </trkpt>
      <trkpt lat="49.29482" lon="-0.64292">
        <ele>46.86</ele>
        <time>2025-05-31T13:10:44.099Z</time>
      </trkpt>
      <trkpt lat="49.29491" lon="-0.64246">
        <ele>46.11</ele>
        <time>2025-05-31T13:10:53.926Z</time>
      </trkpt>
      <trkpt lat="49.29497" lon="-0.64218">
        <ele>45.47</ele>
        <time>2025-05-31T13:11:03.756Z</time>
      </trkpt>
      <trkpt lat="49.29503" lon="-0.64171">
        <ele>44.84</ele>
        <time>2025-05-31T13:11:13.591Z</time>
      </trkpt>
      <trkpt lat="49.2951" lon="-0.64124">
        <ele>44.27</ele>
        <time>2025-05-31T13:11:23.431Z</time>
      </trkpt>
      <trkpt lat="49.29511" lon="-0.64114">
        <ele>43.76</ele>
        <time>2025-05-31T13:11:33.272Z</time>
      </trkpt>
      <trkpt lat="49.29518" lon="-0.64067">
        <ele>43.2</ele>
        <time>2025-05-31T13:11:43.118Z</time>
      </trkpt>
      <trkpt lat="49.29525" lon="-0.6402">
        <ele>42.67</ele>
        <time>2025-05-31T13:11:52.969Z</time>
      </trkpt>
      <trkpt lat="49.29532" lon="-0.63973">
        <ele>42.29</ele>
        <time>2025-05-31T13:12:02.825Z</time>
      </trkpt>
      <trkpt lat="49.29539" lon="-0.63926">
        <ele>41.98</ele>
        <time>2025-05-31T13:12:12.686Z</time>
      </trkpt>
      <trkpt lat="49.29546" lon="-0.63879">
        <ele>41.57</ele>
        <time>2025-05-31T13:12:22.552Z</time>
      </trkpt>
      <trkpt lat="49.29553" lon="-0.63832">
        <ele>41.18</ele>
        <time>2025-05-31T13:12:32.423Z</time>
      </trkpt>
      <trkpt lat="49.29553" lon="-0.6383">
        <ele>40.88</ele>
        <time>2025-05-31T13:12:42.294Z</time>
      </trkpt>
      <trkpt lat="49.2956" lon="-0.63783">
        <ele>40.64</ele>
        <time>2025-05-31T13:12:52.171Z</time>
      </trkpt>
      <trkpt lat="49.29567" lon="-0.63736">
        <ele>40.39</ele>
        <time>2025-05-31T13:13:02.053Z</time>
      </trkpt>
      <trkpt lat="49.29574" lon="-0.63689">
        <ele>40.18</ele>
        <time>2025-05-31T13:13:11.940Z</time>
      </trkpt>
      <trkpt lat="49.29581" lon="-0.63642">
        <ele>40.06</ele>
        <time>2025-05-31T13:13:21.832Z</time>
      </trkpt>
      <trkpt lat="49.29588" lon="-0.63595">
        <ele>39.89</ele>
        <time>2025-05-31T13:13:31.729Z</time>
      </trkpt>
      <trkpt lat="49.29595" lon="-0.63548">
        <ele>39.75</ele>
        <time>2025-05-31T13:13:41.631Z</time>
      </trkpt>
      <trkpt lat="49.29602" lon="-0.63501">
        <ele>39.66</ele>
        <time>2025-05-31T13:13:51.538Z</time>
      </trkpt>
      <trkpt lat="49.29609" lon="-0.63455">
        <ele>39.54</ele>
        <time>2025-05-31T13:14:01.450Z</time>
      </trkpt>
      <trkpt lat="49.29611" lon="-0.63438">
        <ele>39.42</ele>
        <time>2025-05-31T13:14:11.364Z</time>
      </trkpt>
      <trkpt lat="49.29615" lon="-0.6339">
        <ele>39.29</ele>
        <time>2025-05-31T13:14:21.283Z</time>
      </trkpt>
      <trkpt lat="49.29617" lon="-0.63363">
        <ele>39.21</ele>
        <time>2025-05-31T13:14:31.204Z</time>
      </trkpt>
      <trkpt lat="49.29621" lon="-0.63315">
        <ele>39.18</ele>
        <time>2025-05-31T13:14:41.131Z</time>
      </trkpt>
      <trkpt lat="49.29625" lon="-0.63267">
        <ele>39.09</ele>
        <time>2025-05-31T13:14:51.063Z</time>
      </trkpt>
      <trkpt lat="49.29627" lon="-0.6324">
        <ele>38.98</ele>
        <time>2025-05-31T13:15:00.997Z</time>
      </trkpt>
      <trkpt lat="49.29635" lon="-0.63193">
        <ele>38.88</ele>
        <time>2025-05-31T13:15:10.937Z</time>
      </trkpt>
      <trkpt lat="49.29642" lon="-0.63152">
        <ele>38.83</ele>
        <time>2025-05-31T13:15:20.881Z</time>
      </trkpt>
      <trkpt lat="49.29652" lon="-0.63106">
        <ele>38.75</ele>
        <time>2025-05-31T13:15:30.830Z</time>
      </trkpt>
      <trkpt lat="49.29661" lon="-0.6306">
        <ele>38.62</ele>
        <time>2025-05-31T13:15:40.784Z</time>
      </trkpt>
      <trkpt lat="49.29671" lon="-0.63015">
        <ele>38.52</ele>
        <time>2025-05-31T13:15:50.743Z</time>
      </trkpt>
      <trkpt lat="49.29679" lon="-0.62978">
        <ele>38.42</ele>
        <time>2025-05-31T13:16:00.706Z</time>
      </trkpt>
      <trkpt lat="49.29689" lon="-0.62932">
        <ele>38.34</ele>
        <time>2025-05-31T13:16:10.674Z</time>
      </trkpt>
      <trkpt lat="49.29699" lon="-0.62887">
        <ele>38.19</ele>
        <time>2025-05-31T13:16:20.647Z</time>
      </trkpt>
      <trkpt lat="49.29708" lon="-0.62841">
        <ele>38.04</ele>
        <time>2025-05-31T13:16:30.625Z</time>
      </trkpt>
      <trkpt lat="49.2971" lon="-0.62833">
        <ele>37.91</ele>
        <time>2025-05-31T13:16:40.604Z</time>
      </trkpt>
      <trkpt lat="49.29719" lon="-0.62787">
        <ele>37.79</ele>
        <time>2025-05-31T13:16:50.588Z</time>
      </trkpt>
      <trkpt lat="49.29728" lon="-0.62741">
        <ele>37.63</ele>
        <time>2025-05-31T13:17:00.577Z</time>
      </trkpt>
      <trkpt lat="49.29738" lon="-0.62695">
        <ele>37.45</ele>
        <time>2025-05-31T13:17:10.571Z</time>
      </trkpt>
      <trkpt lat="49.29747" lon="-0.62649">
        <ele>37.26</ele>
        <time>2025-05-31T13:17:20.570Z</time>
      </trkpt>
      <trkpt lat="49.29756" lon="-0.62603">
        <ele>37.07</ele>
        <time>2025-05-31T13:17:30.574Z</time>
      </trkpt>
      <trkpt lat="49.29765" lon="-0.62557">
        <ele>36.86</ele>
        <time>2025-05-31T13:17:40.583Z</time>
      </trkpt>
      <trkpt lat="49.29769" lon="-0.62537">
        <ele>36.63</ele>
        <time>2025-05-31T13:17:50.595Z</time>
      </trkpt>
      <trkpt lat="49.29779" lon="-0.62491">
        <ele>36.39</ele>
        <time>2025-05-31T13:18:00.612Z</time>
      </trkpt>
      <trkpt lat="49.29788" lon="-0.62445">
        <ele>36.13</ele>
        <time>2025-05-31T13:18:10.634Z</time>
      </trkpt>
      <trkpt lat="49.29798" lon="-0.624">
        <ele>35.86</ele>
        <time>2025-05-31T13:18:20.661Z</time>
      </trkpt>
      <trkpt lat="49.29808" lon="-0.62354">
        <ele>35.51</ele>
        <time>2025-05-31T13:18:30.693Z</time>
      </trkpt>
      <trkpt lat="49.2981" lon="-0.62342">
        <ele>35.2</ele>
        <time>2025-05-31T13:18:40.726Z</time>
      </trkpt>
      <trkpt lat="49.29822" lon="-0.62298">
        <ele>34.84</ele>
        <time>2025-05-31T13:18:50.764Z</time>
      </trkpt>
      <trkpt lat="49.2983" lon="-0.62269">
        <ele>34.5</ele>
        <time>2025-05-31T13:19:00.805Z</time>
      </trkpt>
      <trkpt lat="49.29844" lon="-0.62226">
        <ele>34.15</ele>
        <time>2025-05-31T13:19:10.851Z</time>
      </trkpt>
      <trkpt lat="49.29857" lon="-0.62188">
        <ele>33.8</ele>
        <time>2025-05-31T13:19:20.902Z</time>
      </trkpt>
      <trkpt lat="49.29875" lon="-0.62149">
        <ele>33.42</ele>
        <time>2025-05-31T13:19:30.958Z</time>
      </trkpt>
      <trkpt lat="49.29894" lon="-0.6211">
        <ele>33.01</ele>
        <time>2025-05-31T13:19:41.019Z</time>
      </trkpt>
      <trkpt lat="49.29909" lon="-0.62077">
        <ele>32.62</ele>
        <time>2025-05-31T13:19:51.084Z</time>
      </trkpt>
      <trkpt lat="49.29927" lon="-0.62038">
        <ele>32.23</ele>
        <time>2025-05-31T13:20:01.154Z</time>
      </trkpt>
      <trkpt lat="49.29931" lon="-0.62029">
        <ele>31.82</ele>
        <time>2025-05-31T13:20:11.225Z</time>
      </trkpt>
      <trkpt lat="49.29947" lon="-0.61988">
        <ele>31.37</ele>
        <time>2025-05-31T13:20:21.301Z</time>
      </trkpt>
      <trkpt lat="49.29948" lon="-0.61985">
        <ele>30.95</ele>
        <time>2025-05-31T13:20:31.378Z</time>
      </trkpt>
      <trkpt lat="49.29963" lon="-0.61943">
        <ele>30.48</ele>
        <time>2025-05-31T13:20:41.460Z</time>
      </trkpt>
      <trkpt lat="49.29963" lon="-0.61942">
        <ele>30.06</ele>
        <time>2025-05-31T13:20:51.542Z</time>
      </trkpt>
      <trkpt lat="49.29975" lon="-0.61897">
        <ele>29.65</ele>
        <time>2025-05-31T13:21:01.629Z</time>
      </trkpt>
      <trkpt lat="49.29978" lon="-0.61885">
        <ele>29.23</ele>
        <time>2025-05-31T13:21:11.717Z</time>
      </trkpt>
      <trkpt lat="49.29988" lon="-0.61839">
        <ele>28.81</ele>
        <time>2025-05-31T13:21:21.810Z</time>
      </trkpt>
      <trkpt lat="49.29998" lon="-0.61794">
        <ele>28.43</ele>
        <time>2025-05-31T13:21:31.908Z</time>
      </trkpt>
      <trkpt lat="49.30005" lon="-0.61764">
        <ele>28.06</ele>
        <time>2025-05-31T13:21:42.010Z</time>
      </trkpt>
      <trkpt lat="49.30014" lon="-0.61718">
        <ele>27.7</ele>
        <time>2025-05-31T13:21:52.117Z</time>
      </trkpt>
      <trkpt lat="49.30024" lon="-0.61672">
        <ele>27.32</ele>
        <time>2025-05-31T13:22:02.229Z</time>
      </trkpt>
      <trkpt lat="49.30029" lon="-0.61647">
        <ele>27.01</ele>
        <time>2025-05-31T13:22:12.343Z</time>
      </trkpt>
      <trkpt lat="49.30041" lon="-0.61603">
        <ele>26.75</ele>
        <time>2025-05-31T13:22:22.462Z</time>
      </trkpt>
      <trkpt lat="49.30053" lon="-0.61558">
        <ele>26.54</ele>
        <time>2025-05-31T13:22:32.586Z</time>
      </trkpt>
      <trkpt lat="49.30059" lon="-0.61536">
        <ele>26.39</ele>
        <time>2025-05-31T13:22:42.713Z</time>
      </trkpt>
      <trkpt lat="49.30074" lon="-0.61494">
        <ele>26.29</ele>
        <time>2025-05-31T13:22:52.845Z</time>
      </trkpt>
      <trkpt lat="49.30089" lon="-0.61452">
        <ele>26.21</ele>
        <time>2025-05-31T13:23:02.982Z</time>
      </trkpt>
      <trkpt lat="49.30095" lon="-0.61436">
        <ele>26.22</ele>
        <time>2025-05-31T13:23:13.121Z</time>
      </trkpt>
      <trkpt lat="49.30111" lon="-0.61394">
        <ele>26.28</ele>
        <time>2025-05-31T13:23:23.265Z</time>
      </trkpt>
      <trkpt lat="49.30124" lon="-0.61359">
        <ele>26.46</ele>
        <time>2025-05-31T13:23:33.413Z</time>
      </trkpt>
      <trkpt lat="49.30135" lon="-0.61314">
        <ele>26.64</ele>
        <time>2025-05-31T13:23:43.566Z</time>
      </trkpt>
      <trkpt lat="49.30139" lon="-0.613">
        <ele>26.88</ele>
        <time>2025-05-31T13:23:53.721Z</time>
      </trkpt>
      <trkpt lat="49.30142" lon="-0.61284">
        <ele>27.2</ele>
        <time>2025-05-31T13:24:03.878Z</time>
      </trkpt>
      <trkpt lat="49.30147" lon="-0.61237">
        <ele>27.55</ele>
        <time>2025-05-31T13:24:14.040Z</time>
      </trkpt>
      <trkpt lat="49.30149" lon="-0.61219">
        <ele>28.03</ele>
        <time>2025-05-31T13:24:24.203Z</time>
      </trkpt>
      <trkpt lat="49.30153" lon="-0.61171">
        <ele>28.59</ele>
        <time>2025-05-31T13:24:34.372Z</time>
      </trkpt>
      <trkpt lat="49.30157" lon="-0.61123">
        <ele>29.2</ele>
        <time>2025-05-31T13:24:44.546Z</time>
      </trkpt>
      <trkpt lat="49.30157" lon="-0.6112">
        <ele>29.86</ele>
        <time>2025-05-31T13:24:54.720Z</time>
      </trkpt>
      <trkpt lat="49.30163" lon="-0.61073">
        <ele>30.65</ele>
        <time>2025-05-31T13:25:04.899Z</time>
      </trkpt>
      <trkpt lat="49.30167" lon="-0.61039">
        <ele>31.48</ele>
        <time>2025-05-31T13:25:15.082Z</time>
      </trkpt>
      <trkpt lat="49.30172" lon="-0.60992">
        <ele>32.33</ele>
        <time>2025-05-31T13:25:25.270Z</time>
      </trkpt>
      <trkpt lat="49.30173" lon="-0.60985">
        <ele>33.22</ele>
        <time>2025-05-31T13:25:35.458Z</time>
      </trkpt>
      <trkpt lat="49.30176" lon="-0.60937">
        <ele>34.18</ele>
        <time>2025-05-31T13:25:45.651Z</time>
      </trkpt>
      <trkpt lat="49.30178" lon="-0.60889">
        <ele>35.16</ele>
        <time>2025-05-31T13:25:55.849Z</time>
      </trkpt>
      <trkpt lat="49.30179" lon="-0.60875">
        <ele>36.21</ele>
        <time>2025-05-31T13:26:06.049Z</time>
      </trkpt>
      <trkpt lat="49.30181" lon="-0.60827">
        <ele>37.33</ele>
        <time>2025-05-31T13:26:16.254Z</time>
      </trkpt>
      <trkpt lat="49.30183" lon="-0.60779">
        <ele>38.52</ele>
        <time>2025-05-31T13:26:26.464Z</time>
      </trkpt>
      <trkpt lat="49.30185" lon="-0.60731">
        <ele>39.79</ele>
        <time>2025-05-31T13:26:36.679Z</time>
      </trkpt>
      <trkpt lat="49.30187" lon="-0.60683">
        <ele>41.06</ele>
        <time>2025-05-31T13:26:46.899Z</time>
      </trkpt>
      <trkpt lat="49.30188" lon="-0.60662">
        <ele>42.24</ele>
        <time>2025-05-31T13:26:57.121Z</time>
      </trkpt>
      <trkpt lat="49.30191" lon="-0.60614">
        <ele>43.44</ele>
        <time>2025-05-31T13:27:07.348Z</time>
      </trkpt>
      <trkpt lat="49.30193" lon="-0.60566">
        <ele>44.68</ele>
        <time>2025-05-31T13:27:17.580Z</time>
      </trkpt>
      <trkpt lat="49.30194" lon="-0.60557">
        <ele>45.86</ele>
        <time>2025-05-31T13:27:27.813Z</time>
      </trkpt>
      <trkpt lat="49.30201" lon="-0.6051">
        <ele>47.14</ele>
        <time>2025-05-31T13:27:38.051Z</time>
      </trkpt>
      <trkpt lat="49.30203" lon="-0.60498">
        <ele>48.31</ele>
        <time>2025-05-31T13:27:48.291Z</time>
      </trkpt>
      <trkpt lat="49.30213" lon="-0.60459">
        <ele>49.53</ele>
        <time>2025-05-31T13:27:58.535Z</time>
      </trkpt>
      <trkpt lat="49.30226" lon="-0.60415">
        <ele>50.72</ele>
        <time>2025-05-31T13:28:08.784Z</time>
      </trkpt>
      <trkpt lat="49.30227" lon="-0.60411">
        <ele>51.79</ele>
        <time>2025-05-31T13:28:19.033Z</time>
      </trkpt>
      <trkpt lat="49.30239" lon="-0.60366">
        <ele>52.87</ele>
        <time>2025-05-31T13:28:29.288Z</time>
      </trkpt>
      <trkpt lat="49.30245" lon="-0.60343">
        <ele>53.85</ele>
        <time>2025-05-31T13:28:39.545Z</time>
      </trkpt>
      <trkpt lat="49.30256" lon="-0.60298">
        <ele>54.8</ele>
        <time>2025-05-31T13:28:49.807Z</time>
      </trkpt>
      <trkpt lat="49.30267" lon="-0.60253">
        <ele>55.72</ele>
        <time>2025-05-31T13:29:00.074Z</time>
      </trkpt>
      <trkpt lat="49.30267" lon="-0.60252">
        <ele>56.58</ele>
        <time>2025-05-31T13:29:10.341Z</time>
      </trkpt>
      <trkpt lat="49.30279" lon="-0.60208">
        <ele>57.36</ele>
        <time>2025-05-31T13:29:20.613Z</time>
      </trkpt>
      <trkpt lat="49.30292" lon="-0.60164">
        <ele>58.16</ele>
        <time>2025-05-31T13:29:30.890Z</time>
      </trkpt>
      <trkpt lat="49.30301" lon="-0.60131">
        <ele>58.9</ele>
        <time>2025-05-31T13:29:41.171Z</time>
      </trkpt>
      <trkpt lat="49.30316" lon="-0.60094">
        <ele>59.58</ele>
        <time>2025-05-31T13:29:51.457Z</time>
      </trkpt>
      <trkpt lat="49.30336" lon="-0.60058">
        <ele>60.23</ele>
        <time>2025-05-31T13:30:01.748Z</time>
      </trkpt>
      <trkpt lat="49.30361" lon="-0.60028">
        <ele>60.78</ele>
        <time>2025-05-31T13:30:12.044Z</time>
      </trkpt>
      <trkpt lat="49.30385" lon="-0.59998">
        <ele>61.32</ele>
        <time>2025-05-31T13:30:22.345Z</time>
      </trkpt>
      <trkpt lat="49.30405" lon="-0.59975">
        <ele>61.81</ele>
        <time>2025-05-31T13:30:32.650Z</time>
      </trkpt>
      <trkpt lat="49.3042" lon="-0.59955">
        <ele>62.26</ele>
        <time>2025-05-31T13:30:42.958Z</time>
      </trkpt>
      <trkpt lat="49.30436" lon="-0.59931">
        <ele>62.69</ele>
        <time>2025-05-31T13:30:53.269Z</time>
      </trkpt>
      <trkpt lat="49.30451" lon="-0.59896">
        <ele>63.11</ele>
        <time>2025-05-31T13:31:03.585Z</time>
      </trkpt>
      <trkpt lat="49.30464" lon="-0.5986">
        <ele>63.44</ele>
        <time>2025-05-31T13:31:13.905Z</time>
      </trkpt>
      <trkpt lat="49.30478" lon="-0.59817">
        <ele>63.64</ele>
        <time>2025-05-31T13:31:24.230Z</time>
      </trkpt>
      <trkpt lat="49.3049" lon="-0.59781">
        <ele>63.82</ele>
        <time>2025-05-31T13:31:34.559Z</time>
      </trkpt>
      <trkpt lat="49.30502" lon="-0.59737">
        <ele>64.03</ele>
        <time>2025-05-31T13:31:44.893Z</time>
      </trkpt>
      <trkpt lat="49.30512" lon="-0.59703">
        <ele>64.2</ele>
        <time>2025-05-31T13:31:55.231Z</time>
      </trkpt>
      <trkpt lat="49.30525" lon="-0.59667">
        <ele>64.31</ele>
        <time>2025-05-31T13:32:05.574Z</time>
      </trkpt>
      <trkpt lat="49.30546" lon="-0.59631">
        <ele>64.38</ele>
        <time>2025-05-31T13:32:15.922Z</time>
      </trkpt>
      <trkpt lat="49.30549" lon="-0.59626">
        <ele>64.45</ele>
        <time>2025-05-31T13:32:26.270Z</time>
      </trkpt>
      <trkpt lat="49.30571" lon="-0.59591">
        <ele>64.54</ele>
        <time>2025-05-31T13:32:36.623Z</time>
      </trkpt>
      <trkpt lat="49.30583" lon="-0.59571">
        <ele>64.55</ele>
        <time>2025-05-31T13:32:46.979Z</time>
      </trkpt>
      <trkpt lat="49.30602" lon="-0.59532">
        <ele>64.51</ele>
        <time>2025-05-31T13:32:57.340Z</time>
      </trkpt>
      <trkpt lat="49.30613" lon="-0.59509">
        <ele>64.5</ele>
        <time>2025-05-31T13:33:07.704Z</time>
      </trkpt>
      <trkpt lat="49.30629" lon="-0.59467">
        <ele>64.44</ele>
        <time>2025-05-31T13:33:18.073Z</time>
      </trkpt>
      <trkpt lat="49.30644" lon="-0.59425">
        <ele>64.39</ele>
        <time>2025-05-31T13:33:28.447Z</time>
      </trkpt>
      <trkpt lat="49.3066" lon="-0.59384">
        <ele>64.34</ele>
        <time>2025-05-31T13:33:38.827Z</time>
      </trkpt>
      <trkpt lat="49.30662" lon="-0.59378">
        <ele>64.25</ele>
        <time>2025-05-31T13:33:49.207Z</time>
      </trkpt>
      <trkpt lat="49.30676" lon="-0.59335">
        <ele>64.13</ele>
        <time>2025-05-31T13:33:59.592Z</time>
      </trkpt>
      <trkpt lat="49.30681" lon="-0.59321">
        <ele>64.01</ele>
        <time>2025-05-31T13:34:09.979Z</time>
      </trkpt>
      <trkpt lat="49.30693" lon="-0.59276">
        <ele>63.88</ele>
        <time>2025-05-31T13:34:20.371Z</time>
      </trkpt>
      <trkpt lat="49.30698" lon="-0.59257">
        <ele>63.78</ele>
        <time>2025-05-31T13:34:30.765Z</time>
      </trkpt>
      <trkpt lat="49.30704" lon="-0.59219">
        <ele>63.65</ele>
        <time>2025-05-31T13:34:41.163Z</time>
      </trkpt>
      <trkpt lat="49.30712" lon="-0.59172">
        <ele>63.5</ele>
        <time>2025-05-31T13:34:51.566Z</time>
      </trkpt>
      <trkpt lat="49.3072" lon="-0.59126">
        <ele>63.35</ele>
        <time>2025-05-31T13:35:01.974Z</time>
      </trkpt>
      <trkpt lat="49.30721" lon="-0.59119">
        <ele>63.21</ele>
        <time>2025-05-31T13:35:12.383Z</time>
      </trkpt>
      <trkpt lat="49.30724" lon="-0.59097">
        <ele>63.05</ele>
        <time>2025-05-31T13:35:22.794Z</time>
      </trkpt>
      <trkpt lat="49.30732" lon="-0.5905">
        <ele>62.9</ele>
        <time>2025-05-31T13:35:33.210Z</time>
      </trkpt>
      <trkpt lat="49.30735" lon="-0.59031">
        <ele>62.79</ele>
        <time>2025-05-31T13:35:43.629Z</time>
      </trkpt>
      <trkpt lat="49.30742" lon="-0.58984">
        <ele>62.67</ele>
        <time>2025-05-31T13:35:54.053Z</time>
      </trkpt>
      <trkpt lat="49.3075" lon="-0.58937">
        <ele>62.54</ele>
        <time>2025-05-31T13:36:04.482Z</time>
      </trkpt>
      <trkpt lat="49.30752" lon="-0.58923">
        <ele>62.39</ele>
        <time>2025-05-31T13:36:14.912Z</time>
      </trkpt>
      <trkpt lat="49.30758" lon="-0.58876">
        <ele>62.29</ele>
        <time>2025-05-31T13:36:25.347Z</time>
      </trkpt>
      <trkpt lat="49.30759" lon="-0.58863">
        <ele>62.16</ele>
        <time>2025-05-31T13:36:35.784Z</time>
      </trkpt>
      <trkpt lat="49.30767" lon="-0.58816">
        <ele>62.04</ele>
        <time>2025-05-31T13:36:46.226Z</time>
      </trkpt>
      <trkpt lat="49.30773" lon="-0.58776">
        <ele>61.87</ele>
        <time>2025-05-31T13:36:56.672Z</time>
      </trkpt>
      <trkpt lat="49.30784" lon="-0.58731">
        <ele>61.69</ele>
        <time>2025-05-31T13:37:07.123Z</time>
      </trkpt>
      <trkpt lat="49.3079" lon="-0.58708">
        <ele>61.51</ele>
        <time>2025-05-31T13:37:17.577Z</time>
      </trkpt>
      <trkpt lat="49.30806" lon="-0.58667">
        <ele>61.34</ele>
        <time>2025-05-31T13:37:28.036Z</time>
      </trkpt>
      <trkpt lat="49.30822" lon="-0.58625">
        <ele>61.19</ele>
        <time>2025-05-31T13:37:38.500Z</time>
      </trkpt>
      <trkpt lat="49.30839" lon="-0.58584">
        <ele>61.02</ele>
        <time>2025-05-31T13:37:48.969Z</time>
      </trkpt>
      <trkpt lat="49.30848" lon="-0.5856">
        <ele>60.86</ele>
        <time>2025-05-31T13:37:59.441Z</time>
      </trkpt>
      <trkpt lat="49.30864" lon="-0.58519">
        <ele>60.69</ele>
        <time>2025-05-31T13:38:09.918Z</time>
      </trkpt>
      <trkpt lat="49.30879" lon="-0.5848">
        <ele>60.53</ele>
        <time>2025-05-31T13:38:20.399Z</time>
      </trkpt>
      <trkpt lat="49.30896" lon="-0.5844">
        <ele>60.39</ele>
        <time>2025-05-31T13:38:30.885Z</time>
      </trkpt>
      <trkpt lat="49.30913" lon="-0.58399">
        <ele>60.26</ele>
        <time>2025-05-31T13:38:41.376Z</time>
      </trkpt>
      <trkpt lat="49.30915" lon="-0.58396">
        <ele>60.13</ele>
        <time>2025-05-31T13:38:51.868Z</time>
      </trkpt>
      <trkpt lat="49.30931" lon="-0.58355">
        <ele>59.99</ele>
        <time>2025-05-31T13:39:02.365Z</time>
      </trkpt>
      <trkpt lat="49.30948" lon="-0.58314">
        <ele>59.88</ele>
        <time>2025-05-31T13:39:12.867Z</time>
      </trkpt>
      <trkpt lat="49.30964" lon="-0.58272">
        <ele>59.8</ele>
        <time>2025-05-31T13:39:23.374Z</time>
      </trkpt>
      <trkpt lat="49.30975" lon="-0.58244">
        <ele>59.68</ele>
        <time>2025-05-31T13:39:33.884Z</time>
      </trkpt>
      <trkpt lat="49.30992" lon="-0.58204">
        <ele>59.59</ele>
        <time>2025-05-31T13:39:44.399Z</time>
      </trkpt>
      <trkpt lat="49.31009" lon="-0.58163">
        <ele>59.51</ele>
        <time>2025-05-31T13:39:54.920Z</time>
      </trkpt>
      <trkpt lat="49.31027" lon="-0.58123">
        <ele>59.47</ele>
        <time>2025-05-31T13:40:05.446Z</time>
      </trkpt>
      <trkpt lat="49.31033" lon="-0.58108">
        <ele>59.41</ele>
        <time>2025-05-31T13:40:15.973Z</time>
      </trkpt>
      <trkpt lat="49.31051" lon="-0.58068">
        <ele>59.33</ele>
        <time>2025-05-31T13:40:26.505Z</time>
      </trkpt>
      <trkpt lat="49.31068" lon="-0.58028">
        <ele>59.26</ele>
        <time>2025-05-31T13:40:37.043Z</time>
      </trkpt>
      <trkpt lat="49.31072" lon="-0.5802">
        <ele>59.21</ele>
        <time>2025-05-31T13:40:47.582Z</time>
      </trkpt>
      <trkpt lat="49.31086" lon="-0.57977">
        <ele>59.16</ele>
        <time>2025-05-31T13:40:58.126Z</time>
      </trkpt>
      <trkpt lat="49.31087" lon="-0.57973">
        <ele>59.13</ele>
        <time>2025-05-31T13:41:08.670Z</time>
      </trkpt>
      <trkpt lat="49.31093" lon="-0.57926">
        <ele>59.09</ele>
        <time>2025-05-31T13:41:19.219Z</time>
      </trkpt>
      <trkpt lat="49.31099" lon="-0.57878">
        <ele>59.1</ele>
        <time>2025-05-31T13:41:29.773Z</time>
      </trkpt>
      <trkpt lat="49.31104" lon="-0.57838">
        <ele>59.11</ele>
        <time>2025-05-31T13:41:40.331Z</time>
      </trkpt>
      <trkpt lat="49.31113" lon="-0.57792">
        <ele>59.18</ele>
        <time>2025-05-31T13:41:50.895Z</time>
      </trkpt>
      <trkpt lat="49.31122" lon="-0.57746">
        <ele>59.24</ele>
        <time>2025-05-31T13:42:01.464Z</time>
      </trkpt>
      <trkpt lat="49.31123" lon="-0.57742">
        <ele>59.23</ele>
        <time>2025-05-31T13:42:12.033Z</time>
      </trkpt>
      <trkpt lat="49.31135" lon="-0.57697">
        <ele>59.25</ele>
        <time>2025-05-31T13:42:22.607Z</time>
      </trkpt>
      <trkpt lat="49.31147" lon="-0.57653">
        <ele>59.23</ele>
        <time>2025-05-31T13:42:33.186Z</time>
      </trkpt>
      <trkpt lat="49.31158" lon="-0.57608">
        <ele>59.2</ele>
        <time>2025-05-31T13:42:43.770Z</time>
      </trkpt>
      <trkpt lat="49.3117" lon="-0.57564">
        <ele>59.13</ele>
        <time>2025-05-31T13:42:54.359Z</time>
      </trkpt>
      <trkpt lat="49.3118" lon="-0.57527">
        <ele>59.07</ele>
        <time>2025-05-31T13:43:04.952Z</time>
      </trkpt>
      <trkpt lat="49.31192" lon="-0.57483">
        <ele>59.08</ele>
        <time>2025-05-31T13:43:15.550Z</time>
      </trkpt>
      <trkpt lat="49.31203" lon="-0.57445">
        <ele>59.05</ele>
        <time>2025-05-31T13:43:26.153Z</time>
      </trkpt>
      <trkpt lat="49.31217" lon="-0.57402">
        <ele>59</ele>
        <time>2025-05-31T13:43:36.761Z</time>
      </trkpt>
      <trkpt lat="49.3123" lon="-0.57358">
        <ele>58.96</ele>
        <time>2025-05-31T13:43:47.374Z</time>
      </trkpt>
      <trkpt lat="49.3124" lon="-0.57326">
        <ele>58.94</ele>
        <time>2025-05-31T13:43:57.990Z</time>
      </trkpt>
      <trkpt lat="49.31257" lon="-0.57285">
        <ele>58.9</ele>
        <time>2025-05-31T13:44:08.611Z</time>
      </trkpt>
      <trkpt lat="49.31271" lon="-0.57252">
        <ele>58.86</ele>
        <time>2025-05-31T13:44:19.237Z</time>
      </trkpt>
      <trkpt lat="49.31289" lon="-0.57212">
        <ele>58.82</ele>
        <time>2025-05-31T13:44:29.868Z</time>
      </trkpt>
      <trkpt lat="49.31305" lon="-0.57175">
        <ele>58.75</ele>
        <time>2025-05-31T13:44:40.503Z</time>
      </trkpt>
      <trkpt lat="49.31322" lon="-0.57135">
        <ele>58.68</ele>
        <time>2025-05-31T13:44:51.143Z</time>
      </trkpt>
      <trkpt lat="49.31339" lon="-0.57094">
        <ele>58.59</ele>
        <time>2025-05-31T13:45:01.788Z</time>
      </trkpt>
      <trkpt lat="49.31351" lon="-0.57066">
        <ele>58.54</ele>
        <time>2025-05-31T13:45:12.437Z</time>
      </trkpt>
      <trkpt lat="49.3136" lon="-0.57033">
        <ele>58.5</ele>
        <time>2025-05-31T13:45:23.090Z</time>
      </trkpt>
      <trkpt lat="49.31371" lon="-0.56988">
        <ele>58.43</ele>
        <time>2025-05-31T13:45:33.748Z</time>
      </trkpt>
      <trkpt lat="49.31381" lon="-0.56942">
        <ele>58.3</ele>
        <time>2025-05-31T13:45:44.411Z</time>
      </trkpt>
      <trkpt lat="49.31389" lon="-0.56908">
        <ele>58.23</ele>
        <time>2025-05-31T13:45:55.078Z</time>
      </trkpt>
      <trkpt lat="49.31396" lon="-0.56861">
        <ele>58.17</ele>
        <time>2025-05-31T13:46:05.750Z</time>
      </trkpt>
      <trkpt lat="49.31403" lon="-0.56814">
        <ele>58.08</ele>
        <time>2025-05-31T13:46:16.427Z</time>
      </trkpt>
      <trkpt lat="49.31406" lon="-0.56797">
        <ele>57.99</ele>
        <time>2025-05-31T13:46:27.105Z</time>
      </trkpt>
      <trkpt lat="49.3141" lon="-0.56749">
        <ele>57.94</ele>
        <time>2025-05-31T13:46:37.789Z</time>
      </trkpt>
      <trkpt lat="49.31414" lon="-0.56709">
        <ele>57.85</ele>
        <time>2025-05-31T13:46:48.477Z</time>
      </trkpt>
      <trkpt lat="49.31416" lon="-0.56661">
        <ele>57.75</ele>
        <time>2025-05-31T13:46:59.170Z</time>
      </trkpt>
      <trkpt lat="49.31418" lon="-0.5663">
        <ele>57.65</ele>
        <time>2025-05-31T13:47:09.866Z</time>
      </trkpt>
      <trkpt lat="49.31419" lon="-0.56582">
        <ele>57.51</ele>
        <time>2025-05-31T13:47:20.567Z</time>
      </trkpt>
      <trkpt lat="49.31419" lon="-0.56534">
        <ele>57.4</ele>
        <time>2025-05-31T13:47:31.273Z</time>
      </trkpt>
      <trkpt lat="49.3142" lon="-0.56486">
        <ele>57.3</ele>
        <time>2025-05-31T13:47:41.984Z</time>
      </trkpt>
      <trkpt lat="49.31421" lon="-0.56437">
        <ele>57.16</ele>
        <time>2025-05-31T13:47:52.700Z</time>
      </trkpt>
      <trkpt lat="49.31421" lon="-0.56389">
        <ele>57.09</ele>
        <time>2025-05-31T13:48:03.421Z</time>
      </trkpt>
      <trkpt lat="49.31422" lon="-0.56345">
        <ele>56.99</ele>
        <time>2025-05-31T13:48:14.147Z</time>
      </trkpt>
      <trkpt lat="49.31391" lon="-0.5634">
        <ele>56.84</ele>
        <time>2025-05-31T13:48:24.878Z</time>
      </trkpt>
      <trkpt lat="49.31359" lon="-0.56335">
        <ele>56.66</ele>
        <time>2025-05-31T13:48:35.614Z</time>
      </trkpt>
      <trkpt lat="49.31328" lon="-0.5633">
        <ele>56.49</ele>
        <time>2025-05-31T13:48:46.355Z</time>
      </trkpt>
      <trkpt lat="49.31319" lon="-0.56328">
        <ele>56.37</ele>
        <time>2025-05-31T13:48:57.098Z</time>
      </trkpt>
      <trkpt lat="49.3135" lon="-0.56333">
        <ele>56.27</ele>
        <time>2025-05-31T13:49:07.846Z</time>
      </trkpt>
      <trkpt lat="49.31382" lon="-0.56338">
        <ele>56.19</ele>
        <time>2025-05-31T13:49:18.599Z</time>
      </trkpt>
      <trkpt lat="49.31413" lon="-0.56343">
        <ele>56.1</ele>
        <time>2025-05-31T13:49:29.357Z</time>
      </trkpt>
      <trkpt lat="49.31422" lon="-0.56345">
        <ele>56.99</ele>
        <time>2025-05-31T13:49:40.116Z</time>
      </trkpt>
      <trkpt lat="49.31423" lon="-0.56297">
        <ele>55.77</ele>
        <time>2025-05-31T13:49:50.880Z</time>
      </trkpt>
      <trkpt lat="49.31424" lon="-0.56249">
        <ele>55.58</ele>
        <time>2025-05-31T13:50:01.649Z</time>
      </trkpt>
      <trkpt lat="49.31424" lon="-0.56201">
        <ele>55.42</ele>
        <time>2025-05-31T13:50:12.423Z</time>
      </trkpt>
      <trkpt lat="49.31425" lon="-0.56153">
        <ele>55.26</ele>
        <time>2025-05-31T13:50:23.202Z</time>
      </trkpt>
      <trkpt lat="49.31426" lon="-0.56112">
        <ele>55.12</ele>
        <time>2025-05-31T13:50:33.986Z</time>
      </trkpt>
      <trkpt lat="49.31427" lon="-0.56064">
        <ele>54.96</ele>
        <time>2025-05-31T13:50:44.775Z</time>
      </trkpt>
      <trkpt lat="49.31427" lon="-0.56016">
        <ele>54.79</ele>
        <time>2025-05-31T13:50:55.569Z</time>
      </trkpt>
      <trkpt lat="49.31428" lon="-0.55968">
        <ele>54.58</ele>
        <time>2025-05-31T13:51:06.368Z</time>
      </trkpt>
      <trkpt lat="49.31428" lon="-0.55943">
        <ele>54.35</ele>
        <time>2025-05-31T13:51:17.169Z</time>
      </trkpt>
      <trkpt lat="49.31427" lon="-0.55895">
        <ele>54.12</ele>
        <time>2025-05-31T13:51:27.975Z</time>
      </trkpt>
      <trkpt lat="49.31426" lon="-0.55848">
        <ele>53.94</ele>
        <time>2025-05-31T13:51:38.786Z</time>
      </trkpt>
      <trkpt lat="49.31426" lon="-0.558">
        <ele>53.75</ele>
        <time>2025-05-31T13:51:49.602Z</time>
      </trkpt>
      <trkpt lat="49.3143" lon="-0.55761">
        <ele>53.55</ele>
        <time>2025-05-31T13:52:00.422Z</time>
      </trkpt>
      <trkpt lat="49.31436" lon="-0.55714">
        <ele>53.32</ele>
        <time>2025-05-31T13:52:11.247Z</time>
      </trkpt>
      <trkpt lat="49.31442" lon="-0.55666">
        <ele>53.07</ele>
        <time>2025-05-31T13:52:22.077Z</time>
      </trkpt>
      <trkpt lat="49.31448" lon="-0.55619">
        <ele>52.85</ele>
        <time>2025-05-31T13:52:32.912Z</time>
      </trkpt>
      <trkpt lat="49.3145" lon="-0.55603">
        <ele>52.63</ele>
        <time>2025-05-31T13:52:43.749Z</time>
      </trkpt>
      <trkpt lat="49.31458" lon="-0.55556">
        <ele>52.41</ele>
        <time>2025-05-31T13:52:54.591Z</time>
      </trkpt>
      <trkpt lat="49.31466" lon="-0.5551">
        <ele>52.16</ele>
        <time>2025-05-31T13:53:05.438Z</time>
      </trkpt>
      <trkpt lat="49.31474" lon="-0.55463">
        <ele>51.88</ele>
        <time>2025-05-31T13:53:16.290Z</time>
      </trkpt>
      <trkpt lat="49.31482" lon="-0.55417">
        <ele>51.63</ele>
        <time>2025-05-31T13:53:27.147Z</time>
      </trkpt>
      <trkpt lat="49.31483" lon="-0.55412">
        <ele>51.41</ele>
        <time>2025-05-31T13:53:38.005Z</time>
      </trkpt>
      <trkpt lat="49.31492" lon="-0.55366">
        <ele>51.23</ele>
        <time>2025-05-31T13:53:48.868Z</time>
      </trkpt>
      <trkpt lat="49.31501" lon="-0.5532">
        <ele>51.1</ele>
        <time>2025-05-31T13:53:59.736Z</time>
      </trkpt>
      <trkpt lat="49.31502" lon="-0.55313">
        <ele>50.89</ele>
        <time>2025-05-31T13:54:10.605Z</time>
      </trkpt>
      <trkpt lat="49.31507" lon="-0.55275">
        <ele>50.74</ele>
        <time>2025-05-31T13:54:21.478Z</time>
      </trkpt>
      <trkpt lat="49.3151" lon="-0.55227">
        <ele>50.55</ele>
        <time>2025-05-31T13:54:32.356Z</time>
      </trkpt>
      <trkpt lat="49.31511" lon="-0.55202">
        <ele>50.33</ele>
        <time>2025-05-31T13:54:43.236Z</time>
      </trkpt>
      <trkpt lat="49.31507" lon="-0.55162">
        <ele>50.05</ele>
        <time>2025-05-31T13:54:54.121Z</time>
      </trkpt>
      <trkpt lat="49.31498" lon="-0.55116">
        <ele>49.82</ele>
        <time>2025-05-31T13:55:05.011Z</time>
      </trkpt>
      <trkpt lat="49.3149" lon="-0.55076">
        <ele>49.61</ele>
        <time>2025-05-31T13:55:15.905Z</time>
      </trkpt>
      <trkpt lat="49.31486" lon="-0.5505">
        <ele>49.43</ele>
        <time>2025-05-31T13:55:26.802Z</time>
      </trkpt>
      <trkpt lat="49.3148" lon="-0.55003">
        <ele>49.21</ele>
        <time>2025-05-31T13:55:37.704Z</time>
      </trkpt>
      <trkpt lat="49.31478" lon="-0.54983">
        <ele>49.02</ele>
        <time>2025-05-31T13:55:48.608Z</time>
      </trkpt>
      <trkpt lat="49.31479" lon="-0.54959">
        <ele>48.82</ele>
        <time>2025-05-31T13:55:59.514Z</time>
      </trkpt>
      <trkpt lat="49.31502" lon="-0.5497">
        <ele>48.75</ele>
        <time>2025-05-31T13:56:10.424Z</time>
      </trkpt>
      <trkpt lat="49.31505" lon="-0.54931">
        <ele>48.57</ele>
        <time>2025-05-31T13:56:21.338Z</time>
      </trkpt>
      <trkpt lat="49.31501" lon="-0.54909">
        <ele>48.46</ele>
        <time>2025-05-31T13:56:32.255Z</time>
      </trkpt>
      <trkpt lat="49.31494" lon="-0.5488">
        <ele>48.36</ele>
        <time>2025-05-31T13:56:43.175Z</time>
      </trkpt>
      <trkpt lat="49.31492" lon="-0.54844">
        <ele>48.3</ele>
        <time>2025-05-31T13:56:54.099Z</time>
      </trkpt>
      <trkpt lat="49.3149" lon="-0.54822">
        <ele>48.27</ele>
        <time>2025-05-31T13:57:05.025Z</time>
      </trkpt>
      <trkpt lat="49.3148" lon="-0.548">
        <ele>48.26</ele>
        <time>2025-05-31T13:57:15.954Z</time>
      </trkpt>
      <trkpt lat="49.31466" lon="-0.54774">
        <ele>48.28</ele>
        <time>2025-05-31T13:57:26.887Z</time>
      </trkpt>
      <trkpt lat="49.31457" lon="-0.54746">
        <ele>48.28</ele>
        <time>2025-05-31T13:57:37.823Z</time>
      </trkpt>
      <trkpt lat="49.31447" lon="-0.547">
        <ele>48.28</ele>
        <time>2025-05-31T13:57:48.764Z</time>
      </trkpt>
      <trkpt lat="49.31442" lon="-0.54675">
        <ele>48.32</ele>
        <time>2025-05-31T13:57:59.708Z</time>
      </trkpt>
      <trkpt lat="49.31439" lon="-0.54654">
        <ele>48.37</ele>
        <time>2025-05-31T13:58:10.654Z</time>
      </trkpt>
      <trkpt lat="49.31462" lon="-0.54621">
        <ele>48.43</ele>
        <time>2025-05-31T13:58:21.605Z</time>
      </trkpt>
      <trkpt lat="49.31479" lon="-0.54596">
        <ele>48.5</ele>
        <time>2025-05-31T13:58:32.560Z</time>
      </trkpt>
      <trkpt lat="49.315" lon="-0.54562">
        <ele>48.58</ele>
        <time>2025-05-31T13:58:43.520Z</time>
      </trkpt>
      <trkpt lat="49.31505" lon="-0.54535">
        <ele>48.69</ele>
        <time>2025-05-31T13:58:54.483Z</time>
      </trkpt>
      <trkpt lat="49.31504" lon="-0.54487">
        <ele>48.82</ele>
        <time>2025-05-31T13:59:05.451Z</time>
      </trkpt>
      <trkpt lat="49.31502" lon="-0.54439">
        <ele>48.9</ele>
        <time>2025-05-31T13:59:16.424Z</time>
      </trkpt>
      <trkpt lat="49.31501" lon="-0.54398">
        <ele>49.01</ele>
        <time>2025-05-31T13:59:27.401Z</time>
      </trkpt>
      <trkpt lat="49.31499" lon="-0.5435">
        <ele>49.2</ele>
        <time>2025-05-31T13:59:38.383Z</time>
      </trkpt>
      <trkpt lat="49.31497" lon="-0.54302">
        <ele>49.38</ele>
        <time>2025-05-31T13:59:49.370Z</time>
      </trkpt>
      <trkpt lat="49.31495" lon="-0.54254">
        <ele>49.57</ele>
        <time>2025-05-31T14:00:00.362Z</time>
      </trkpt>
      <trkpt lat="49.31493" lon="-0.54206">
        <ele>49.72</ele>
        <time>2025-05-31T14:00:11.359Z</time>
      </trkpt>
      <trkpt lat="49.31493" lon="-0.54193">
        <ele>49.88</ele>
        <time>2025-05-31T14:00:22.357Z</time>
      </trkpt>
      <trkpt lat="49.31489" lon="-0.54167">
        <ele>50.04</ele>
        <time>2025-05-31T14:00:33.358Z</time>
      </trkpt>
      <trkpt lat="49.31474" lon="-0.54125">
        <ele>50.21</ele>
        <time>2025-05-31T14:00:44.364Z</time>
      </trkpt>
      <trkpt lat="49.31458" lon="-0.54083">
        <ele>50.39</ele>
        <time>2025-05-31T14:00:55.375Z</time>
      </trkpt>
      <trkpt lat="49.31443" lon="-0.54041">
        <ele>50.58</ele>
        <time>2025-05-31T14:01:06.391Z</time>
      </trkpt>
      <trkpt lat="49.31427" lon="-0.53999">
        <ele>50.74</ele>
        <time>2025-05-31T14:01:17.412Z</time>
      </trkpt>
      <trkpt lat="49.31412" lon="-0.53957">
        <ele>50.9</ele>
        <time>2025-05-31T14:01:28.438Z</time>
      </trkpt>
      <trkpt lat="49.31396" lon="-0.53916">
        <ele>51.08</ele>
        <time>2025-05-31T14:01:39.469Z</time>
      </trkpt>
      <trkpt lat="49.31393" lon="-0.53907">
        <ele>51.24</ele>
        <time>2025-05-31T14:01:50.501Z</time>
      </trkpt>
      <trkpt lat="49.31381" lon="-0.53862">
        <ele>51.32</ele>
        <time>2025-05-31T14:02:01.538Z</time>
      </trkpt>
      <trkpt lat="49.31369" lon="-0.53818">
        <ele>51.47</ele>
        <time>2025-05-31T14:02:12.581Z</time>
      </trkpt>
      <trkpt lat="49.31367" lon="-0.5381">
        <ele>51.62</ele>
        <time>2025-05-31T14:02:23.624Z</time>
      </trkpt>
      <trkpt lat="49.3136" lon="-0.53779">
        <ele>51.8</ele>
        <time>2025-05-31T14:02:34.671Z</time>
      </trkpt>
      <trkpt lat="49.3135" lon="-0.53733">
        <ele>51.92</ele>
        <time>2025-05-31T14:02:45.723Z</time>
      </trkpt>
      <trkpt lat="49.31341" lon="-0.53687">
        <ele>52.06</ele>
        <time>2025-05-31T14:02:56.780Z</time>
      </trkpt>
      <trkpt lat="49.31331" lon="-0.53642">
        <ele>52.21</ele>
        <time>2025-05-31T14:03:07.842Z</time>
      </trkpt>
      <trkpt lat="49.31321" lon="-0.53596">
        <ele>52.34</ele>
        <time>2025-05-31T14:03:18.909Z</time>
      </trkpt>
      <trkpt lat="49.31321" lon="-0.53595">
        <ele>52.46</ele>
        <time>2025-05-31T14:03:29.976Z</time>
      </trkpt>
      <trkpt lat="49.31319" lon="-0.53571">
        <ele>52.56</ele>
        <time>2025-05-31T14:03:41.046Z</time>
      </trkpt>
      <trkpt lat="49.31323" lon="-0.53541">
        <ele>52.66</ele>
        <time>2025-05-31T14:03:52.119Z</time>
      </trkpt>
      <trkpt lat="49.31333" lon="-0.53495">
        <ele>52.74</ele>
        <time>2025-05-31T14:04:03.197Z</time>
      </trkpt>
      <trkpt lat="49.31342" lon="-0.53449">
        <ele>52.81</ele>
        <time>2025-05-31T14:04:14.280Z</time>
      </trkpt>
      <trkpt lat="49.31352" lon="-0.53404">
        <ele>52.87</ele>
        <time>2025-05-31T14:04:25.368Z</time>
      </trkpt>
      <trkpt lat="49.31353" lon="-0.534">
        <ele>52.95</ele>
        <time>2025-05-31T14:04:36.456Z</time>
      </trkpt>
      <trkpt lat="49.3136" lon="-0.53353">
        <ele>53.03</ele>
        <time>2025-05-31T14:04:47.549Z</time>
      </trkpt>
      <trkpt lat="49.31367" lon="-0.53306">
        <ele>53.1</ele>
        <time>2025-05-31T14:04:58.647Z</time>
      </trkpt>
      <trkpt lat="49.31368" lon="-0.53302">
        <ele>53.18</ele>
        <time>2025-05-31T14:05:09.746Z</time>
      </trkpt>
      <trkpt lat="49.31371" lon="-0.53254">
        <ele>53.26</ele>
        <time>2025-05-31T14:05:20.850Z</time>
      </trkpt>
      <trkpt lat="49.31374" lon="-0.5322">
        <ele>53.32</ele>
        <time>2025-05-31T14:05:31.958Z</time>
      </trkpt>
      <trkpt lat="49.31377" lon="-0.53172">
        <ele>53.36</ele>
        <time>2025-05-31T14:05:43.071Z</time>
      </trkpt>
      <trkpt lat="49.31381" lon="-0.53124">
        <ele>53.44</ele>
        <time>2025-05-31T14:05:54.189Z</time>
      </trkpt>
      <trkpt lat="49.31384" lon="-0.53076">
        <ele>53.56</ele>
        <time>2025-05-31T14:06:05.312Z</time>
      </trkpt>
      <trkpt lat="49.31385" lon="-0.53063">
        <ele>53.61</ele>
        <time>2025-05-31T14:06:16.436Z</time>
      </trkpt>
      <trkpt lat="49.31383" lon="-0.53015">
        <ele>53.61</ele>
        <time>2025-05-31T14:06:27.565Z</time>
      </trkpt>
      <trkpt lat="49.31383" lon="-0.53013">
        <ele>53.66</ele>
        <time>2025-05-31T14:06:38.694Z</time>
      </trkpt>
      <trkpt lat="49.31376" lon="-0.52966">
        <ele>53.72</ele>
        <time>2025-05-31T14:06:49.828Z</time>
      </trkpt>
      <trkpt lat="49.31373" lon="-0.52946">
        <ele>53.78</ele>
        <time>2025-05-31T14:07:00.965Z</time>
      </trkpt>
      <trkpt lat="49.31363" lon="-0.529">
        <ele>53.81</ele>
        <time>2025-05-31T14:07:12.107Z</time>
      </trkpt>
      <trkpt lat="49.31353" lon="-0.52855">
        <ele>53.81</ele>
        <time>2025-05-31T14:07:23.254Z</time>
      </trkpt>
      <trkpt lat="49.31343" lon="-0.52809">
        <ele>53.83</ele>
        <time>2025-05-31T14:07:34.406Z</time>
      </trkpt>
      <trkpt lat="49.31337" lon="-0.52784">
        <ele>53.86</ele>
        <time>2025-05-31T14:07:45.560Z</time>
      </trkpt>
      <trkpt lat="49.31325" lon="-0.5274">
        <ele>53.91</ele>
        <time>2025-05-31T14:07:56.719Z</time>
      </trkpt>
      <trkpt lat="49.31324" lon="-0.52737">
        <ele>53.94</ele>
        <time>2025-05-31T14:08:07.879Z</time>
      </trkpt>
      <trkpt lat="49.3131" lon="-0.52694">
        <ele>53.96</ele>
        <time>2025-05-31T14:08:19.044Z</time>
      </trkpt>
      <trkpt lat="49.31297" lon="-0.5265">
        <ele>54.03</ele>
        <time>2025-05-31T14:08:30.214Z</time>
      </trkpt>
      <trkpt lat="49.31287" lon="-0.5262">
        <ele>54.04</ele>
        <time>2025-05-31T14:08:41.387Z</time>
      </trkpt>
      <trkpt lat="49.31273" lon="-0.52577">
        <ele>54.06</ele>
        <time>2025-05-31T14:08:52.565Z</time>
      </trkpt>
      <trkpt lat="49.3127" lon="-0.52568">
        <ele>54.06</ele>
        <time>2025-05-31T14:09:03.744Z</time>
      </trkpt>
      <trkpt lat="49.31263" lon="-0.5254">
        <ele>54.04</ele>
        <time>2025-05-31T14:09:14.927Z</time>
      </trkpt>
      <trkpt lat="49.31258" lon="-0.52492">
        <ele>54.02</ele>
        <time>2025-05-31T14:09:26.115Z</time>
      </trkpt>
      <trkpt lat="49.31253" lon="-0.52445">
        <ele>54.05</ele>
        <time>2025-05-31T14:09:37.308Z</time>
      </trkpt>
      <trkpt lat="49.31252" lon="-0.52432">
        <ele>54.06</ele>
        <time>2025-05-31T14:09:48.502Z</time>
      </trkpt>
      <trkpt lat="49.31247" lon="-0.52384">
        <ele>54.04</ele>
        <time>2025-05-31T14:09:59.701Z</time>
      </trkpt>
      <trkpt lat="49.31242" lon="-0.52337">
        <ele>54.03</ele>
        <time>2025-05-31T14:10:10.905Z</time>
      </trkpt>
      <trkpt lat="49.31237" lon="-0.52289">
        <ele>54</ele>
        <time>2025-05-31T14:10:22.114Z</time>
      </trkpt>
      <trkpt lat="49.31233" lon="-0.52242">
        <ele>53.97</ele>
        <time>2025-05-31T14:10:33.328Z</time>
      </trkpt>
      <trkpt lat="49.31232" lon="-0.52236">
        <ele>53.95</ele>
        <time>2025-05-31T14:10:44.543Z</time>
      </trkpt>
      <trkpt lat="49.31226" lon="-0.52189">
        <ele>53.94</ele>
        <time>2025-05-31T14:10:55.763Z</time>
      </trkpt>
      <trkpt lat="49.3122" lon="-0.52142">
        <ele>53.92</ele>
        <time>2025-05-31T14:11:06.988Z</time>
      </trkpt>
      <trkpt lat="49.31217" lon="-0.52119">
        <ele>53.93</ele>
        <time>2025-05-31T14:11:18.215Z</time>
      </trkpt>
      <trkpt lat="49.31212" lon="-0.52072">
        <ele>53.91</ele>
        <time>2025-05-31T14:11:29.447Z</time>
      </trkpt>
      <trkpt lat="49.31208" lon="-0.52041">
        <ele>53.88</ele>
        <time>2025-05-31T14:11:40.683Z</time>
      </trkpt>
      <trkpt lat="49.31206" lon="-0.51993">
        <ele>53.85</ele>
        <time>2025-05-31T14:11:51.924Z</time>
      </trkpt>
      <trkpt lat="49.31206" lon="-0.51988">
        <ele>53.82</ele>
        <time>2025-05-31T14:12:03.165Z</time>
      </trkpt>
      <trkpt lat="49.31207" lon="-0.5194">
        <ele>53.78</ele>
        <time>2025-05-31T14:12:14.411Z</time>
      </trkpt>
      <trkpt lat="49.31207" lon="-0.51892">
        <ele>53.74</ele>
        <time>2025-05-31T14:12:25.662Z</time>
      </trkpt>
      <trkpt lat="49.31208" lon="-0.51844">
        <ele>53.75</ele>
        <time>2025-05-31T14:12:36.918Z</time>
      </trkpt>
      <trkpt lat="49.31208" lon="-0.51795">
        <ele>53.68</ele>
        <time>2025-05-31T14:12:48.179Z</time>
      </trkpt>
      <trkpt lat="49.31209" lon="-0.51747">
        <ele>53.64</ele>
        <time>2025-05-31T14:12:59.445Z</time>
      </trkpt>
      <trkpt lat="49.31209" lon="-0.51726">
        <ele>53.6</ele>
        <time>2025-05-31T14:13:10.714Z</time>
      </trkpt>
      <trkpt lat="49.3121" lon="-0.51678">
        <ele>53.56</ele>
        <time>2025-05-31T14:13:21.988Z</time>
      </trkpt>
      <trkpt lat="49.3121" lon="-0.5163">
        <ele>53.48</ele>
        <time>2025-05-31T14:13:33.267Z</time>
      </trkpt>
      <trkpt lat="49.31211" lon="-0.51582">
        <ele>53.42</ele>
        <time>2025-05-31T14:13:44.551Z</time>
      </trkpt>
      <trkpt lat="49.31211" lon="-0.51533">
        <ele>53.36</ele>
        <time>2025-05-31T14:13:55.840Z</time>
      </trkpt>
      <trkpt lat="49.31212" lon="-0.51485">
        <ele>53.35</ele>
        <time>2025-05-31T14:14:07.134Z</time>
      </trkpt>
      <trkpt lat="49.31212" lon="-0.51456">
        <ele>53.29</ele>
        <time>2025-05-31T14:14:18.431Z</time>
      </trkpt>
      <trkpt lat="49.31215" lon="-0.51417">
        <ele>53.24</ele>
        <time>2025-05-31T14:14:29.732Z</time>
      </trkpt>
      <trkpt lat="49.31222" lon="-0.5137">
        <ele>53.17</ele>
        <time>2025-05-31T14:14:41.038Z</time>
      </trkpt>
      <trkpt lat="49.31222" lon="-0.5137">
        <ele>53.11</ele>
        <time>2025-05-31T14:14:52.344Z</time>
      </trkpt>
      <trkpt lat="49.31231" lon="-0.5133">
        <ele>53.02</ele>
        <time>2025-05-31T14:15:03.654Z</time>
      </trkpt>
      <trkpt lat="49.31243" lon="-0.51285">
        <ele>52.91</ele>
        <time>2025-05-31T14:15:14.969Z</time>
      </trkpt>
      <trkpt lat="49.3125" lon="-0.51258">
        <ele>52.86</ele>
        <time>2025-05-31T14:15:26.288Z</time>
      </trkpt>
      <trkpt lat="49.31264" lon="-0.51215">
        <ele>52.79</ele>
        <time>2025-05-31T14:15:37.612Z</time>
      </trkpt>
      <trkpt lat="49.3127" lon="-0.51195">
        <ele>52.71</ele>
        <time>2025-05-31T14:15:48.938Z</time>
      </trkpt>
      <trkpt lat="49.31276" lon="-0.51181">
        <ele>52.67</ele>
        <time>2025-05-31T14:16:00.266Z</time>
      </trkpt>
      <trkpt lat="49.31287" lon="-0.51161">
        <ele>52.61</ele>
        <time>2025-05-31T14:16:11.596Z</time>
      </trkpt>
      <trkpt lat="49.31311" lon="-0.5113">
        <ele>52.51</ele>
        <time>2025-05-31T14:16:22.931Z</time>
      </trkpt>
      <trkpt lat="49.31321" lon="-0.51118">
        <ele>52.43</ele>
        <time>2025-05-31T14:16:34.268Z</time>
      </trkpt>
      <trkpt lat="49.3133" lon="-0.51106">
        <ele>52.36</ele>
        <time>2025-05-31T14:16:45.607Z</time>
      </trkpt>
      <trkpt lat="49.31332" lon="-0.51099">
        <ele>52.3</ele>
        <time>2025-05-31T14:16:56.947Z</time>
      </trkpt>
      <trkpt lat="49.31332" lon="-0.51089">
        <ele>52.25</ele>
        <time>2025-05-31T14:17:08.288Z</time>
      </trkpt>
      <trkpt lat="49.31329" lon="-0.5107">
        <ele>52.19</ele>
        <time>2025-05-31T14:17:19.631Z</time>
      </trkpt>
      <trkpt lat="49.31315" lon="-0.51027">
        <ele>52.12</ele>
        <time>2025-05-31T14:17:30.979Z</time>
      </trkpt>
      <trkpt lat="49.31305" lon="-0.50997">
        <ele>52.05</ele>
        <time>2025-05-31T14:17:42.331Z</time>
      </trkpt>
      <trkpt lat="49.31292" lon="-0.50965">
        <ele>52.01</ele>
        <time>2025-05-31T14:17:53.687Z</time>
      </trkpt>
      <trkpt lat="49.31274" lon="-0.50932">
        <ele>51.99</ele>
        <time>2025-05-31T14:18:05.047Z</time>
      </trkpt>
      <trkpt lat="49.31257" lon="-0.50903">
        <ele>51.94</ele>
        <time>2025-05-31T14:18:16.411Z</time>
      </trkpt>
      <trkpt lat="49.31241" lon="-0.50881">
        <ele>51.92</ele>
        <time>2025-05-31T14:18:27.779Z</time>
      </trkpt>
      <trkpt lat="49.31231" lon="-0.50871">
        <ele>51.86</ele>
        <time>2025-05-31T14:18:39.149Z</time>
      </trkpt>
      <trkpt lat="49.31223" lon="-0.50854">
        <ele>51.82</ele>
        <time>2025-05-31T14:18:50.521Z</time>
      </trkpt>
      <trkpt lat="49.31206" lon="-0.50818">
        <ele>51.77</ele>
        <time>2025-05-31T14:19:01.898Z</time>
      </trkpt>
      <trkpt lat="49.31195" lon="-0.50787">
        <ele>51.71</ele>
        <time>2025-05-31T14:19:13.278Z</time>
      </trkpt>
      <trkpt lat="49.31183" lon="-0.50745">
        <ele>51.66</ele>
        <time>2025-05-31T14:19:24.663Z</time>
      </trkpt>
      <trkpt lat="49.31174" lon="-0.50699">
        <ele>51.59</ele>
        <time>2025-05-31T14:19:36.053Z</time>
      </trkpt>
      <trkpt lat="49.31173" lon="-0.50693">
        <ele>51.49</ele>
        <time>2025-05-31T14:19:47.444Z</time>
      </trkpt>
      <trkpt lat="49.31167" lon="-0.50646">
        <ele>51.32</ele>
        <time>2025-05-31T14:19:58.840Z</time>
      </trkpt>
      <trkpt lat="49.31163" lon="-0.5062">
        <ele>51.21</ele>
        <time>2025-05-31T14:20:10.239Z</time>
      </trkpt>
      <trkpt lat="49.31156" lon="-0.50573">
        <ele>51.14</ele>
        <time>2025-05-31T14:20:21.643Z</time>
      </trkpt>
      <trkpt lat="49.31151" lon="-0.50535">
        <ele>51.03</ele>
        <time>2025-05-31T14:20:33.051Z</time>
      </trkpt>
      <trkpt lat="49.31143" lon="-0.50489">
        <ele>50.91</ele>
        <time>2025-05-31T14:20:44.464Z</time>
      </trkpt>
      <trkpt lat="49.31139" lon="-0.50467">
        <ele>50.78</ele>
        <time>2025-05-31T14:20:55.879Z</time>
      </trkpt>
      <trkpt lat="49.31133" lon="-0.5042">
        <ele>50.6</ele>
        <time>2025-05-31T14:21:07.299Z</time>
      </trkpt>
      <trkpt lat="49.31131" lon="-0.50402">
        <ele>50.44</ele>
        <time>2025-05-31T14:21:18.721Z</time>
      </trkpt>
      <trkpt lat="49.31129" lon="-0.50354">
        <ele>50.26</ele>
        <time>2025-05-31T14:21:30.148Z</time>
      </trkpt>
      <trkpt lat="49.31127" lon="-0.50312">
        <ele>50.14</ele>
        <time>2025-05-31T14:21:41.579Z</time>
      </trkpt>
      <trkpt lat="49.31125" lon="-0.50264">
        <ele>49.99</ele>
        <time>2025-05-31T14:21:53.015Z</time>
      </trkpt>
      <trkpt lat="49.31125" lon="-0.50259">
        <ele>49.84</ele>
        <time>2025-05-31T14:22:04.452Z</time>
      </trkpt>
      <trkpt lat="49.31125" lon="-0.50211">
        <ele>49.71</ele>
        <time>2025-05-31T14:22:15.894Z</time>
      </trkpt>
      <trkpt lat="49.31125" lon="-0.50177">
        <ele>49.5</ele>
        <time>2025-05-31T14:22:27.340Z</time>
      </trkpt>
      <trkpt lat="49.31127" lon="-0.50129">
        <ele>49.26</ele>
        <time>2025-05-31T14:22:38.791Z</time>
      </trkpt>
      <trkpt lat="49.31127" lon="-0.50114">
        <ele>49.07</ele>
        <time>2025-05-31T14:22:50.243Z</time>
      </trkpt>
      <trkpt lat="49.31132" lon="-0.50069">
        <ele>48.9</ele>
        <time>2025-05-31T14:23:01.700Z</time>
      </trkpt>
      <trkpt lat="49.31141" lon="-0.50023">
        <ele>48.73</ele>
        <time>2025-05-31T14:23:13.162Z</time>
      </trkpt>
      <trkpt lat="49.31149" lon="-0.49976">
        <ele>48.53</ele>
        <time>2025-05-31T14:23:24.629Z</time>
      </trkpt>
      <trkpt lat="49.31158" lon="-0.4993">
        <ele>48.33</ele>
        <time>2025-05-31T14:23:36.101Z</time>
      </trkpt>
      <trkpt lat="49.31164" lon="-0.49895">
        <ele>48.19</ele>
        <time>2025-05-31T14:23:47.577Z</time>
      </trkpt>
      <trkpt lat="49.31172" lon="-0.49849">
        <ele>48.05</ele>
        <time>2025-05-31T14:23:59.058Z</time>
      </trkpt>
      <trkpt lat="49.31178" lon="-0.49818">
        <ele>47.88</ele>
        <time>2025-05-31T14:24:10.542Z</time>
      </trkpt>
      <trkpt lat="49.31188" lon="-0.49772">
        <ele>47.76</ele>
        <time>2025-05-31T14:24:22.031Z</time>
      </trkpt>
      <trkpt lat="49.31195" lon="-0.49742">
        <ele>47.67</ele>
        <time>2025-05-31T14:24:33.524Z</time>
      </trkpt>
      <trkpt lat="49.31204" lon="-0.49696">
        <ele>47.56</ele>
        <time>2025-05-31T14:24:45.022Z</time>
      </trkpt>
      <trkpt lat="49.31214" lon="-0.4965">
        <ele>47.44</ele>
        <time>2025-05-31T14:24:56.525Z</time>
      </trkpt>
      <trkpt lat="49.31223" lon="-0.49604">
        <ele>47.3</ele>
        <time>2025-05-31T14:25:08.033Z</time>
      </trkpt>
      <trkpt lat="49.31233" lon="-0.49558">
        <ele>47.2</ele>
        <time>2025-05-31T14:25:19.546Z</time>
      </trkpt>
      <trkpt lat="49.31236" lon="-0.49543">
        <ele>47.09</ele>
        <time>2025-05-31T14:25:31.060Z</time>
      </trkpt>
      <trkpt lat="49.31245" lon="-0.49497">
        <ele>46.99</ele>
        <time>2025-05-31T14:25:42.580Z</time>
      </trkpt>
      <trkpt lat="49.31254" lon="-0.49451">
        <ele>46.84</ele>
        <time>2025-05-31T14:25:54.105Z</time>
      </trkpt>
      <trkpt lat="49.31259" lon="-0.49428">
        <ele>46.7</ele>
        <time>2025-05-31T14:26:05.632Z</time>
      </trkpt>
      <trkpt lat="49.31261" lon="-0.49389">
        <ele>46.53</ele>
        <time>2025-05-31T14:26:17.163Z</time>
      </trkpt>
      <trkpt lat="49.31257" lon="-0.49341">
        <ele>46.41</ele>
        <time>2025-05-31T14:26:28.699Z</time>
      </trkpt>
      <trkpt lat="49.31256" lon="-0.49332">
        <ele>46.31</ele>
        <time>2025-05-31T14:26:40.236Z</time>
      </trkpt>
      <trkpt lat="49.31252" lon="-0.49296">
        <ele>46.23</ele>
        <time>2025-05-31T14:26:51.777Z</time>
      </trkpt>
      <trkpt lat="49.31253" lon="-0.49277">
        <ele>46.15</ele>
        <time>2025-05-31T14:27:03.320Z</time>
      </trkpt>
      <trkpt lat="49.31256" lon="-0.49252">
        <ele>46.08</ele>
        <time>2025-05-31T14:27:14.866Z</time>
      </trkpt>
      <trkpt lat="49.31252" lon="-0.49234">
        <ele>45.98</ele>
        <time>2025-05-31T14:27:26.414Z</time>
      </trkpt>
      <trkpt lat="49.31236" lon="-0.49193">
        <ele>45.85</ele>
        <time>2025-05-31T14:27:37.967Z</time>
      </trkpt>
      <trkpt lat="49.3122" lon="-0.49151">
        <ele>45.67</ele>
        <time>2025-05-31T14:27:49.525Z</time>
      </trkpt>
      <trkpt lat="49.3121" lon="-0.49125">
        <ele>45.54</ele>
        <time>2025-05-31T14:28:01.086Z</time>
      </trkpt>
      <trkpt lat="49.31194" lon="-0.49083">
        <ele>45.4</ele>
        <time>2025-05-31T14:28:12.652Z</time>
      </trkpt>
      <trkpt lat="49.31178" lon="-0.49042">
        <ele>45.25</ele>
        <time>2025-05-31T14:28:24.223Z</time>
      </trkpt>
      <trkpt lat="49.31162" lon="-0.49">
        <ele>45.09</ele>
        <time>2025-05-31T14:28:35.799Z</time>
      </trkpt>
      <trkpt lat="49.31162" lon="-0.49">
        <ele>44.96</ele>
        <time>2025-05-31T14:28:47.375Z</time>
      </trkpt>
      <trkpt lat="49.31145" lon="-0.48959">
        <ele>44.96</ele>
        <time>2025-05-31T14:28:58.956Z</time>
      </trkpt>
      <trkpt lat="49.31139" lon="-0.48944">
        <ele>44.86</ele>
        <time>2025-05-31T14:29:10.539Z</time>
      </trkpt>
      <trkpt lat="49.31135" lon="-0.48923">
        <ele>44.74</ele>
        <time>2025-05-31T14:29:22.124Z</time>
      </trkpt>
      <trkpt lat="49.31137" lon="-0.48913">
        <ele>44.58</ele>
        <time>2025-05-31T14:29:33.710Z</time>
      </trkpt>
      <trkpt lat="49.31147" lon="-0.48897">
        <ele>44.39</ele>
        <time>2025-05-31T14:29:45.299Z</time>
      </trkpt>
      <trkpt lat="49.31173" lon="-0.48869">
        <ele>44.17</ele>
        <time>2025-05-31T14:29:56.893Z</time>
      </trkpt>
      <trkpt lat="49.31174" lon="-0.48868">
        <ele>43.96</ele>
        <time>2025-05-31T14:30:08.487Z</time>
      </trkpt>
      <trkpt lat="49.31199" lon="-0.4884">
        <ele>43.66</ele>
        <time>2025-05-31T14:30:20.086Z</time>
      </trkpt>
      <trkpt lat="49.31225" lon="-0.48811">
        <ele>43.29</ele>
        <time>2025-05-31T14:30:31.690Z</time>
      </trkpt>
      <trkpt lat="49.3125" lon="-0.48783">
        <ele>42.92</ele>
        <time>2025-05-31T14:30:43.299Z</time>
      </trkpt>
      <trkpt lat="49.31255" lon="-0.48778">
        <ele>42.63</ele>
        <time>2025-05-31T14:30:54.909Z</time>
      </trkpt>
      <trkpt lat="49.31276" lon="-0.48755">
        <ele>42.31</ele>
        <time>2025-05-31T14:31:06.523Z</time>
      </trkpt>
      <trkpt lat="49.31274" lon="-0.48746">
        <ele>42.04</ele>
        <time>2025-05-31T14:31:18.138Z</time>
      </trkpt>
      <trkpt lat="49.31264" lon="-0.48712">
        <ele>41.77</ele>
        <time>2025-05-31T14:31:29.757Z</time>
      </trkpt>
      <trkpt lat="49.31254" lon="-0.48672">
        <ele>41.52</ele>
        <time>2025-05-31T14:31:41.381Z</time>
      </trkpt>
      <trkpt lat="49.31248" lon="-0.48627">
        <ele>41.26</ele>
        <time>2025-05-31T14:31:53.009Z</time>
      </trkpt>
      <trkpt lat="49.31245" lon="-0.48579">
        <ele>41</ele>
        <time>2025-05-31T14:32:04.642Z</time>
      </trkpt>
      <trkpt lat="49.31244" lon="-0.48557">
        <ele>40.65</ele>
        <time>2025-05-31T14:32:16.278Z</time>
      </trkpt>
      <trkpt lat="49.31241" lon="-0.48543">
        <ele>40.33</ele>
        <time>2025-05-31T14:32:27.915Z</time>
      </trkpt>
      <trkpt lat="49.31224" lon="-0.48502">
        <ele>39.97</ele>
        <time>2025-05-31T14:32:39.557Z</time>
      </trkpt>
      <trkpt lat="49.31211" lon="-0.48469">
        <ele>39.6</ele>
        <time>2025-05-31T14:32:51.203Z</time>
      </trkpt>
      <trkpt lat="49.31194" lon="-0.48428">
        <ele>39.23</ele>
        <time>2025-05-31T14:33:02.854Z</time>
      </trkpt>
      <trkpt lat="49.31185" lon="-0.48405">
        <ele>38.86</ele>
        <time>2025-05-31T14:33:14.508Z</time>
      </trkpt>
      <trkpt lat="49.31169" lon="-0.48374">
        <ele>38.48</ele>
        <time>2025-05-31T14:33:26.166Z</time>
      </trkpt>
      <trkpt lat="49.31151" lon="-0.48334">
        <ele>38.11</ele>
        <time>2025-05-31T14:33:37.829Z</time>
      </trkpt>
      <trkpt lat="49.31138" lon="-0.48305">
        <ele>37.75</ele>
        <time>2025-05-31T14:33:49.496Z</time>
      </trkpt>
      <trkpt lat="49.31119" lon="-0.48267">
        <ele>37.4</ele>
        <time>2025-05-31T14:34:01.168Z</time>
      </trkpt>
      <trkpt lat="49.31115" lon="-0.4826">
        <ele>37</ele>
        <time>2025-05-31T14:34:12.841Z</time>
      </trkpt>
      <trkpt lat="49.31098" lon="-0.48219">
        <ele>36.53</ele>
        <time>2025-05-31T14:34:24.519Z</time>
      </trkpt>
      <trkpt lat="49.3109" lon="-0.48198">
        <ele>36.05</ele>
        <time>2025-05-31T14:34:36.200Z</time>
      </trkpt>
      <trkpt lat="49.31077" lon="-0.48156">
        <ele>35.56</ele>
        <time>2025-05-31T14:34:47.886Z</time>
      </trkpt>
      <trkpt lat="49.31064" lon="-0.48112">
        <ele>35.08</ele>
        <time>2025-05-31T14:34:59.577Z</time>
      </trkpt>
      <trkpt lat="49.3106" lon="-0.48098">
        <ele>34.62</ele>
        <time>2025-05-31T14:35:11.269Z</time>
      </trkpt>
      <trkpt lat="49.31049" lon="-0.48074">
        <ele>34.15</ele>
        <time>2025-05-31T14:35:22.964Z</time>
      </trkpt>
      <trkpt lat="49.31036" lon="-0.48065">
        <ele>33.69</ele>
        <time>2025-05-31T14:35:34.662Z</time>
      </trkpt>
      <trkpt lat="49.31007" lon="-0.48047">
        <ele>33.21</ele>
        <time>2025-05-31T14:35:46.365Z</time>
      </trkpt>
      <trkpt lat="49.31005" lon="-0.48046">
        <ele>32.73</ele>
        <time>2025-05-31T14:35:58.068Z</time>
      </trkpt>
      <trkpt lat="49.30974" lon="-0.48034">
        <ele>32.37</ele>
        <time>2025-05-31T14:36:09.776Z</time>
      </trkpt>
      <trkpt lat="49.30944" lon="-0.48023">
        <ele>31.94</ele>
        <time>2025-05-31T14:36:21.489Z</time>
      </trkpt>
      <trkpt lat="49.30914" lon="-0.48011">
        <ele>31.39</ele>
        <time>2025-05-31T14:36:33.207Z</time>
      </trkpt>
      <trkpt lat="49.30883" lon="-0.47999">
        <ele>30.78</ele>
        <time>2025-05-31T14:36:44.930Z</time>
      </trkpt>
      <trkpt lat="49.30874" lon="-0.47995">
        <ele>30.18</ele>
        <time>2025-05-31T14:36:56.655Z</time>
      </trkpt>
      <trkpt lat="49.3085" lon="-0.47987">
        <ele>29.51</ele>
        <time>2025-05-31T14:37:08.384Z</time>
      </trkpt>
      <trkpt lat="49.30839" lon="-0.47986">
        <ele>28.9</ele>
        <time>2025-05-31T14:37:20.114Z</time>
      </trkpt>
      <trkpt lat="49.30808" lon="-0.47982">
        <ele>28.26</ele>
        <time>2025-05-31T14:37:31.849Z</time>
      </trkpt>
      <trkpt lat="49.30803" lon="-0.47981">
        <ele>27.63</ele>
        <time>2025-05-31T14:37:43.585Z</time>
      </trkpt>
      <trkpt lat="49.30772" lon="-0.47979">
        <ele>26.93</ele>
        <time>2025-05-31T14:37:55.326Z</time>
      </trkpt>
      <trkpt lat="49.30746" lon="-0.47978">
        <ele>26.24</ele>
        <time>2025-05-31T14:38:07.071Z</time>
      </trkpt>
      <trkpt lat="49.30715" lon="-0.47973">
        <ele>25.53</ele>
        <time>2025-05-31T14:38:18.821Z</time>
      </trkpt>
      <trkpt lat="49.30706" lon="-0.47972">
        <ele>24.87</ele>
        <time>2025-05-31T14:38:30.573Z</time>
      </trkpt>
      <trkpt lat="49.30675" lon="-0.47964">
        <ele>24.16</ele>
        <time>2025-05-31T14:38:42.330Z</time>
      </trkpt>
      <trkpt lat="49.30674" lon="-0.47964">
        <ele>23.48</ele>
        <time>2025-05-31T14:38:54.087Z</time>
      </trkpt>
      <trkpt lat="49.30643" lon="-0.47953">
        <ele>22.73</ele>
        <time>2025-05-31T14:39:05.849Z</time>
      </trkpt>
      <trkpt lat="49.30615" lon="-0.47943">
        <ele>22.02</ele>
        <time>2025-05-31T14:39:17.616Z</time>
      </trkpt>
      <trkpt lat="49.30584" lon="-0.47934">
        <ele>21.32</ele>
        <time>2025-05-31T14:39:29.388Z</time>
      </trkpt>
      <trkpt lat="49.30576" lon="-0.47932">
        <ele>20.63</ele>
        <time>2025-05-31T14:39:41.161Z</time>
      </trkpt>
      <trkpt lat="49.30559" lon="-0.47927">
        <ele>19.97</ele>
        <time>2025-05-31T14:39:52.937Z</time>
      </trkpt>
      <trkpt lat="49.30533" lon="-0.47926">
        <ele>19.33</ele>
        <time>2025-05-31T14:40:04.717Z</time>
      </trkpt>
      <trkpt lat="49.30502" lon="-0.4793">
        <ele>18.7</ele>
        <time>2025-05-31T14:40:16.502Z</time>
      </trkpt>
      <trkpt lat="49.30487" lon="-0.47932">
        <ele>18.09</ele>
        <time>2025-05-31T14:40:28.289Z</time>
      </trkpt>
      <trkpt lat="49.30469" lon="-0.47934">
        <ele>17.49</ele>
        <time>2025-05-31T14:40:40.079Z</time>
      </trkpt>
      <trkpt lat="49.30438" lon="-0.47936">
        <ele>16.87</ele>
        <time>2025-05-31T14:40:51.874Z</time>
      </trkpt>
      <trkpt lat="49.30418" lon="-0.47938">
        <ele>16.25</ele>
        <time>2025-05-31T14:41:03.672Z</time>
      </trkpt>
      <trkpt lat="49.30397" lon="-0.47937">
        <ele>15.65</ele>
        <time>2025-05-31T14:41:15.474Z</time>
      </trkpt>
      <trkpt lat="49.30379" lon="-0.47935">
        <ele>15.08</ele>
        <time>2025-05-31T14:41:27.279Z</time>
      </trkpt>
      <trkpt lat="49.30348" lon="-0.47926">
        <ele>14.55</ele>
        <time>2025-05-31T14:41:39.089Z</time>
      </trkpt>
      <trkpt lat="49.30339" lon="-0.47924">
        <ele>14.07</ele>
        <time>2025-05-31T14:41:50.900Z</time>
      </trkpt>
      <trkpt lat="49.30308" lon="-0.47918">
        <ele>13.59</ele>
        <time>2025-05-31T14:42:02.716Z</time>
      </trkpt>
      <trkpt lat="49.30283" lon="-0.47913">
        <ele>13.14</ele>
        <time>2025-05-31T14:42:14.536Z</time>
      </trkpt>
      <trkpt lat="49.30252" lon="-0.47909">
        <ele>12.72</ele>
        <time>2025-05-31T14:42:26.361Z</time>
      </trkpt>
      <trkpt lat="49.3024" lon="-0.47907">
        <ele>12.39</ele>
        <time>2025-05-31T14:42:38.188Z</time>
      </trkpt>
      <trkpt lat="49.30209" lon="-0.47906">
        <ele>12.08</ele>
        <time>2025-05-31T14:42:50.020Z</time>
      </trkpt>
      <trkpt lat="49.30177" lon="-0.47904">
        <ele>11.82</ele>
        <time>2025-05-31T14:43:01.857Z</time>
      </trkpt>
      <trkpt lat="49.30168" lon="-0.47904">
        <ele>11.59</ele>
        <time>2025-05-31T14:43:13.696Z</time>
      </trkpt>
      <trkpt lat="49.30137" lon="-0.47904">
        <ele>11.37</ele>
        <time>2025-05-31T14:43:25.540Z</time>
      </trkpt>
      <trkpt lat="49.30105" lon="-0.47903">
        <ele>11.22</ele>
        <time>2025-05-31T14:43:37.389Z</time>
      </trkpt>
      <trkpt lat="49.30096" lon="-0.47903">
        <ele>11.12</ele>
        <time>2025-05-31T14:43:49.239Z</time>
      </trkpt>
      <trkpt lat="49.3007" lon="-0.47904">
        <ele>11.05</ele>
        <time>2025-05-31T14:44:01.093Z</time>
      </trkpt>
      <trkpt lat="49.30039" lon="-0.4791">
        <ele>10.98</ele>
        <time>2025-05-31T14:44:12.952Z</time>
      </trkpt>
      <trkpt lat="49.30021" lon="-0.47914">
        <ele>10.94</ele>
        <time>2025-05-31T14:44:24.814Z</time>
      </trkpt>
      <trkpt lat="49.30017" lon="-0.47866">
        <ele>10.93</ele>
        <time>2025-05-31T14:44:36.681Z</time>
      </trkpt>
      <trkpt lat="49.30017" lon="-0.47863">
        <ele>10.99</ele>
        <time>2025-05-31T14:44:48.549Z</time>
      </trkpt>
      <trkpt lat="49.30013" lon="-0.47816">
        <ele>11.04</ele>
        <time>2025-05-31T14:45:00.422Z</time>
      </trkpt>
      <trkpt lat="49.30012" lon="-0.47768">
        <ele>11.18</ele>
        <time>2025-05-31T14:45:12.300Z</time>
      </trkpt>
      <trkpt lat="49.30012" lon="-0.47754">
        <ele>11.33</ele>
        <time>2025-05-31T14:45:24.179Z</time>
      </trkpt>
      <trkpt lat="49.30016" lon="-0.47706">
        <ele>11.55</ele>
        <time>2025-05-31T14:45:36.063Z</time>
      </trkpt>
      <trkpt lat="49.30016" lon="-0.47706">
        <ele>11.73</ele>
        <time>2025-05-31T14:45:47.947Z</time>
      </trkpt>
      <trkpt lat="49.30027" lon="-0.47663">
        <ele>12.01</ele>
        <time>2025-05-31T14:45:59.836Z</time>
      </trkpt>
      <trkpt lat="49.30046" lon="-0.47624">
        <ele>12.27</ele>
        <time>2025-05-31T14:46:11.730Z</time>
      </trkpt>
      <trkpt lat="49.30061" lon="-0.47593">
        <ele>12.47</ele>
        <time>2025-05-31T14:46:23.628Z</time>
      </trkpt>
      <trkpt lat="49.30074" lon="-0.47561">
        <ele>12.71</ele>
        <time>2025-05-31T14:46:35.530Z</time>
      </trkpt>
      <trkpt lat="49.30084" lon="-0.47529">
        <ele>12.97</ele>
        <time>2025-05-31T14:46:47.436Z</time>
      </trkpt>
      <trkpt lat="49.30095" lon="-0.47484">
        <ele>13.24</ele>
        <time>2025-05-31T14:46:59.347Z</time>
      </trkpt>
      <trkpt lat="49.30095" lon="-0.47483">
        <ele>13.38</ele>
        <time>2025-05-31T14:47:11.258Z</time>
      </trkpt>
      <trkpt lat="49.30101" lon="-0.47445">
        <ele>13.56</ele>
        <time>2025-05-31T14:47:23.173Z</time>
      </trkpt>
      <trkpt lat="49.30104" lon="-0.47409">
        <ele>13.68</ele>
        <time>2025-05-31T14:47:35.092Z</time>
      </trkpt>
      <trkpt lat="49.30105" lon="-0.47363">
        <ele>13.79</ele>
        <time>2025-05-31T14:47:47.016Z</time>
      </trkpt>
      <trkpt lat="49.30106" lon="-0.47315">
        <ele>13.83</ele>
        <time>2025-05-31T14:47:58.945Z</time>
      </trkpt>
      <trkpt lat="49.30107" lon="-0.47286">
        <ele>13.82</ele>
        <time>2025-05-31T14:48:10.877Z</time>
      </trkpt>
      <trkpt lat="49.30107" lon="-0.47238">
        <ele>13.68</ele>
        <time>2025-05-31T14:48:22.814Z</time>
      </trkpt>
      <trkpt lat="49.30108" lon="-0.4719">
        <ele>13.44</ele>
        <time>2025-05-31T14:48:34.756Z</time>
      </trkpt>
      <trkpt lat="49.30108" lon="-0.47183">
        <ele>13.29</ele>
        <time>2025-05-31T14:48:46.698Z</time>
      </trkpt>
      <trkpt lat="49.30108" lon="-0.47135">
        <ele>13</ele>
        <time>2025-05-31T14:48:58.645Z</time>
      </trkpt>
      <trkpt lat="49.30108" lon="-0.47087">
        <ele>12.77</ele>
        <time>2025-05-31T14:49:10.598Z</time>
      </trkpt>
      <trkpt lat="49.30108" lon="-0.47073">
        <ele>12.55</ele>
        <time>2025-05-31T14:49:22.552Z</time>
      </trkpt>
      <trkpt lat="49.30111" lon="-0.47025">
        <ele>12.25</ele>
        <time>2025-05-31T14:49:34.511Z</time>
      </trkpt>
      <trkpt lat="49.30111" lon="-0.47017">
        <ele>12.01</ele>
        <time>2025-05-31T14:49:46.471Z</time>
      </trkpt>
      <trkpt lat="49.30116" lon="-0.46995">
        <ele>11.75</ele>
        <time>2025-05-31T14:49:58.433Z</time>
      </trkpt>
      <trkpt lat="49.30129" lon="-0.46974">
        <ele>11.46</ele>
        <time>2025-05-31T14:50:10.398Z</time>
      </trkpt>
      <trkpt lat="49.30134" lon="-0.4696">
        <ele>11.2</ele>
        <time>2025-05-31T14:50:22.365Z</time>
      </trkpt>
      <trkpt lat="49.30127" lon="-0.46936">
        <ele>10.97</ele>
        <time>2025-05-31T14:50:34.335Z</time>
      </trkpt>
      <trkpt lat="49.30135" lon="-0.4689">
        <ele>10.66</ele>
        <time>2025-05-31T14:50:46.310Z</time>
      </trkpt>
      <trkpt lat="49.30144" lon="-0.46843">
        <ele>10.35</ele>
        <time>2025-05-31T14:50:58.290Z</time>
      </trkpt>
      <trkpt lat="49.30144" lon="-0.46842">
        <ele>10.08</ele>
        <time>2025-05-31T14:51:10.270Z</time>
      </trkpt>
      <trkpt lat="49.30147" lon="-0.46807">
        <ele>9.8</ele>
        <time>2025-05-31T14:51:22.254Z</time>
      </trkpt>
      <trkpt lat="49.30146" lon="-0.46775">
        <ele>9.57</ele>
        <time>2025-05-31T14:51:34.241Z</time>
      </trkpt>
      <trkpt lat="49.30139" lon="-0.46728">
        <ele>9.38</ele>
        <time>2025-05-31T14:51:46.233Z</time>
      </trkpt>
      <trkpt lat="49.30133" lon="-0.46681">
        <ele>9.21</ele>
        <time>2025-05-31T14:51:58.230Z</time>
      </trkpt>
      <trkpt lat="49.30132" lon="-0.46676">
        <ele>9.05</ele>
        <time>2025-05-31T14:52:10.228Z</time>
      </trkpt>
      <trkpt lat="49.3013" lon="-0.46645">
        <ele>8.92</ele>
        <time>2025-05-31T14:52:22.229Z</time>
      </trkpt>
      <trkpt lat="49.30131" lon="-0.46625">
        <ele>8.84</ele>
        <time>2025-05-31T14:52:34.232Z</time>
      </trkpt>
      <trkpt lat="49.30135" lon="-0.46577">
        <ele>8.78</ele>
        <time>2025-05-31T14:52:46.240Z</time>
      </trkpt>
      <trkpt lat="49.30136" lon="-0.46563">
        <ele>8.74</ele>
        <time>2025-05-31T14:52:58.250Z</time>
      </trkpt>
      <trkpt lat="49.30141" lon="-0.46544">
        <ele>8.74</ele>
        <time>2025-05-31T14:53:10.262Z</time>
      </trkpt>
      <trkpt lat="49.30149" lon="-0.46497">
        <ele>8.76</ele>
        <time>2025-05-31T14:53:22.279Z</time>
      </trkpt>
      <trkpt lat="49.30157" lon="-0.46451">
        <ele>8.86</ele>
        <time>2025-05-31T14:53:34.301Z</time>
      </trkpt>
      <trkpt lat="49.3016" lon="-0.46432">
        <ele>9.01</ele>
        <time>2025-05-31T14:53:46.325Z</time>
      </trkpt>
      <trkpt lat="49.30161" lon="-0.46418">
        <ele>9.21</ele>
        <time>2025-05-31T14:53:58.350Z</time>
      </trkpt>
      <trkpt lat="49.30157" lon="-0.46399">
        <ele>9.45</ele>
        <time>2025-05-31T14:54:10.377Z</time>
      </trkpt>
      <trkpt lat="49.30151" lon="-0.46376">
        <ele>9.77</ele>
        <time>2025-05-31T14:54:22.407Z</time>
      </trkpt>
      <trkpt lat="49.30144" lon="-0.46329">
        <ele>10.17</ele>
        <time>2025-05-31T14:54:34.442Z</time>
      </trkpt>
      <trkpt lat="49.30143" lon="-0.46325">
        <ele>10.62</ele>
        <time>2025-05-31T14:54:46.477Z</time>
      </trkpt>
      <trkpt lat="49.30142" lon="-0.46306">
        <ele>11.19</ele>
        <time>2025-05-31T14:54:58.514Z</time>
      </trkpt>
      <trkpt lat="49.30141" lon="-0.46305">
        <ele>11.77</ele>
        <time>2025-05-31T14:55:10.552Z</time>
      </trkpt>
      <trkpt lat="49.30141" lon="-0.46303">
        <ele>12.42</ele>
        <time>2025-05-31T14:55:22.590Z</time>
      </trkpt>
      <trkpt lat="49.3014" lon="-0.46302">
        <ele>13.14</ele>
        <time>2025-05-31T14:55:34.628Z</time>
      </trkpt>
      <trkpt lat="49.30139" lon="-0.46298">
        <ele>13.93</ele>
        <time>2025-05-31T14:55:46.666Z</time>
      </trkpt>
      <trkpt lat="49.30139" lon="-0.46295">
        <ele>14.78</ele>
        <time>2025-05-31T14:55:58.705Z</time>
      </trkpt>
      <trkpt lat="49.3014" lon="-0.46288">
        <ele>15.7</ele>
        <time>2025-05-31T14:56:10.745Z</time>
      </trkpt>
      <trkpt lat="49.30139" lon="-0.46246">
        <ele>16.73</ele>
        <time>2025-05-31T14:56:22.789Z</time>
      </trkpt>
      <trkpt lat="49.30138" lon="-0.46218">
        <ele>17.82</ele>
        <time>2025-05-31T14:56:34.836Z</time>
      </trkpt>
      <trkpt lat="49.30142" lon="-0.46176">
        <ele>18.96</ele>
        <time>2025-05-31T14:56:46.887Z</time>
      </trkpt>
      <trkpt lat="49.30146" lon="-0.4616">
        <ele>20.13</ele>
        <time>2025-05-31T14:56:58.940Z</time>
      </trkpt>
      <trkpt lat="49.30149" lon="-0.4615">
        <ele>21.35</ele>
        <time>2025-05-31T14:57:10.994Z</time>
      </trkpt>
      <trkpt lat="49.30159" lon="-0.46127">
        <ele>22.63</ele>
        <time>2025-05-31T14:57:23.051Z</time>
      </trkpt>
      <trkpt lat="49.30175" lon="-0.46091">
        <ele>24</ele>
        <time>2025-05-31T14:57:35.113Z</time>
      </trkpt>
      <trkpt lat="49.30194" lon="-0.46053">
        <ele>25.44</ele>
        <time>2025-05-31T14:57:47.180Z</time>
      </trkpt>
      <trkpt lat="49.30202" lon="-0.46036">
        <ele>26.86</ele>
        <time>2025-05-31T14:57:59.249Z</time>
      </trkpt>
      <trkpt lat="49.30212" lon="-0.46017">
        <ele>28.32</ele>
        <time>2025-05-31T14:58:11.320Z</time>
      </trkpt>
      <trkpt lat="49.30219" lon="-0.4599">
        <ele>29.83</ele>
        <time>2025-05-31T14:58:23.395Z</time>
      </trkpt>
      <trkpt lat="49.30223" lon="-0.45962">
        <ele>31.35</ele>
        <time>2025-05-31T14:58:35.473Z</time>
      </trkpt>
      <trkpt lat="49.30224" lon="-0.45914">
        <ele>32.89</ele>
        <time>2025-05-31T14:58:47.556Z</time>
      </trkpt>
      <trkpt lat="49.30224" lon="-0.45909">
        <ele>34.34</ele>
        <time>2025-05-31T14:58:59.639Z</time>
      </trkpt>
      <trkpt lat="49.3022" lon="-0.45861">
        <ele>35.87</ele>
        <time>2025-05-31T14:59:11.727Z</time>
      </trkpt>
      <trkpt lat="49.30216" lon="-0.45813">
        <ele>37.39</ele>
        <time>2025-05-31T14:59:23.820Z</time>
      </trkpt>
      <trkpt lat="49.30213" lon="-0.45772">
        <ele>38.89</ele>
        <time>2025-05-31T14:59:35.918Z</time>
      </trkpt>
      <trkpt lat="49.30211" lon="-0.45724">
        <ele>40.35</ele>
        <time>2025-05-31T14:59:48.021Z</time>
      </trkpt>
      <trkpt lat="49.30209" lon="-0.45676">
        <ele>41.74</ele>
        <time>2025-05-31T15:00:00.129Z</time>
      </trkpt>
      <trkpt lat="49.30209" lon="-0.45667">
        <ele>43.02</ele>
        <time>2025-05-31T15:00:12.238Z</time>
      </trkpt>
      <trkpt lat="49.30209" lon="-0.45619">
        <ele>44.28</ele>
        <time>2025-05-31T15:00:24.352Z</time>
      </trkpt>
      <trkpt lat="49.30209" lon="-0.45571">
        <ele>45.46</ele>
        <time>2025-05-31T15:00:36.471Z</time>
      </trkpt>
      <trkpt lat="49.30209" lon="-0.45534">
        <ele>46.56</ele>
        <time>2025-05-31T15:00:48.593Z</time>
      </trkpt>
      <trkpt lat="49.30211" lon="-0.45486">
        <ele>47.65</ele>
        <time>2025-05-31T15:01:00.721Z</time>
      </trkpt>
      <trkpt lat="49.30213" lon="-0.45438">
        <ele>48.69</ele>
        <time>2025-05-31T15:01:12.854Z</time>
      </trkpt>
      <trkpt lat="49.30215" lon="-0.4539">
        <ele>49.61</ele>
        <time>2025-05-31T15:01:24.992Z</time>
      </trkpt>
      <trkpt lat="49.30217" lon="-0.45342">
        <ele>50.44</ele>
        <time>2025-05-31T15:01:37.135Z</time>
      </trkpt>
      <trkpt lat="49.30219" lon="-0.45294">
        <ele>51.16</ele>
        <time>2025-05-31T15:01:49.283Z</time>
      </trkpt>
      <trkpt lat="49.30221" lon="-0.4525">
        <ele>51.81</ele>
        <time>2025-05-31T15:02:01.435Z</time>
      </trkpt>
      <trkpt lat="49.30223" lon="-0.45202">
        <ele>52.43</ele>
        <time>2025-05-31T15:02:13.592Z</time>
      </trkpt>
      <trkpt lat="49.30225" lon="-0.45154">
        <ele>52.96</ele>
        <time>2025-05-31T15:02:25.754Z</time>
      </trkpt>
      <trkpt lat="49.30227" lon="-0.45106">
        <ele>53.4</ele>
        <time>2025-05-31T15:02:37.921Z</time>
      </trkpt>
      <trkpt lat="49.30228" lon="-0.45078">
        <ele>53.76</ele>
        <time>2025-05-31T15:02:50.091Z</time>
      </trkpt>
      <trkpt lat="49.30229" lon="-0.4503">
        <ele>54</ele>
        <time>2025-05-31T15:03:02.266Z</time>
      </trkpt>
      <trkpt lat="49.30229" lon="-0.44982">
        <ele>54.19</ele>
        <time>2025-05-31T15:03:14.446Z</time>
      </trkpt>
      <trkpt lat="49.3023" lon="-0.44934">
        <ele>54.31</ele>
        <time>2025-05-31T15:03:26.631Z</time>
      </trkpt>
      <trkpt lat="49.3023" lon="-0.44909">
        <ele>54.36</ele>
        <time>2025-05-31T15:03:38.819Z</time>
      </trkpt>
      <trkpt lat="49.30232" lon="-0.44861">
        <ele>54.35</ele>
        <time>2025-05-31T15:03:51.012Z</time>
      </trkpt>
      <trkpt lat="49.30234" lon="-0.44821">
        <ele>54.23</ele>
        <time>2025-05-31T15:04:03.209Z</time>
      </trkpt>
      <trkpt lat="49.30239" lon="-0.44773">
        <ele>54.11</ele>
        <time>2025-05-31T15:04:15.411Z</time>
      </trkpt>
      <trkpt lat="49.30242" lon="-0.44738">
        <ele>53.9</ele>
        <time>2025-05-31T15:04:27.617Z</time>
      </trkpt>
      <trkpt lat="49.30248" lon="-0.44691">
        <ele>53.63</ele>
        <time>2025-05-31T15:04:39.828Z</time>
      </trkpt>
      <trkpt lat="49.30255" lon="-0.44644">
        <ele>53.31</ele>
        <time>2025-05-31T15:04:52.044Z</time>
      </trkpt>
      <trkpt lat="49.30255" lon="-0.4464">
        <ele>52.99</ele>
        <time>2025-05-31T15:05:04.261Z</time>
      </trkpt>
      <trkpt lat="49.30261" lon="-0.44593">
        <ele>52.62</ele>
        <time>2025-05-31T15:05:16.483Z</time>
      </trkpt>
      <trkpt lat="49.30267" lon="-0.44546">
        <ele>52.26</ele>
        <time>2025-05-31T15:05:28.710Z</time>
      </trkpt>
      <trkpt lat="49.30274" lon="-0.44499">
        <ele>51.86</ele>
        <time>2025-05-31T15:05:40.942Z</time>
      </trkpt>
      <trkpt lat="49.3028" lon="-0.44451">
        <ele>51.36</ele>
        <time>2025-05-31T15:05:53.179Z</time>
      </trkpt>
      <trkpt lat="49.30286" lon="-0.44404">
        <ele>50.88</ele>
        <time>2025-05-31T15:06:05.421Z</time>
      </trkpt>
      <trkpt lat="49.30293" lon="-0.44357">
        <ele>50.44</ele>
        <time>2025-05-31T15:06:17.668Z</time>
      </trkpt>
      <trkpt lat="49.30299" lon="-0.4431">
        <ele>50.03</ele>
        <time>2025-05-31T15:06:29.920Z</time>
      </trkpt>
      <trkpt lat="49.30305" lon="-0.44263">
        <ele>49.53</ele>
        <time>2025-05-31T15:06:42.177Z</time>
      </trkpt>
      <trkpt lat="49.30311" lon="-0.44216">
        <ele>49.04</ele>
        <time>2025-05-31T15:06:54.439Z</time>
      </trkpt>
      <trkpt lat="49.30312" lon="-0.4421">
        <ele>48.6</ele>
        <time>2025-05-31T15:07:06.701Z</time>
      </trkpt>
      <trkpt lat="49.30317" lon="-0.44162">
        <ele>48.14</ele>
        <time>2025-05-31T15:07:18.969Z</time>
      </trkpt>
      <trkpt lat="49.30322" lon="-0.44115">
        <ele>47.75</ele>
        <time>2025-05-31T15:07:31.242Z</time>
      </trkpt>
      <trkpt lat="49.30327" lon="-0.44067">
        <ele>47.35</ele>
        <time>2025-05-31T15:07:43.520Z</time>
      </trkpt>
      <trkpt lat="49.30327" lon="-0.44064">
        <ele>46.99</ele>
        <time>2025-05-31T15:07:55.798Z</time>
      </trkpt>
      <trkpt lat="49.3033" lon="-0.44016">
        <ele>46.65</ele>
        <time>2025-05-31T15:08:08.081Z</time>
      </trkpt>
      <trkpt lat="49.30333" lon="-0.43968">
        <ele>46.35</ele>
        <time>2025-05-31T15:08:20.369Z</time>
      </trkpt>
      <trkpt lat="49.30337" lon="-0.4392">
        <ele>46.1</ele>
        <time>2025-05-31T15:08:32.662Z</time>
      </trkpt>
      <trkpt lat="49.30338" lon="-0.43902">
        <ele>45.86</ele>
        <time>2025-05-31T15:08:44.957Z</time>
      </trkpt>
      <trkpt lat="49.3034" lon="-0.43854">
        <ele>45.72</ele>
        <time>2025-05-31T15:08:57.257Z</time>
      </trkpt>
      <trkpt lat="49.30341" lon="-0.4384">
        <ele>45.55</ele>
        <time>2025-05-31T15:09:09.559Z</time>
      </trkpt>
      <trkpt lat="49.30337" lon="-0.43824">
        <ele>45.42</ele>
        <time>2025-05-31T15:09:21.862Z</time>
      </trkpt>
      <trkpt lat="49.30335" lon="-0.43776">
        <ele>45.33</ele>
        <time>2025-05-31T15:09:34.170Z</time>
      </trkpt>
      <trkpt lat="49.30335" lon="-0.43766">
        <ele>45.25</ele>
        <time>2025-05-31T15:09:46.479Z</time>
      </trkpt>
      <trkpt lat="49.30332" lon="-0.43748">
        <ele>45.16</ele>
        <time>2025-05-31T15:09:58.790Z</time>
      </trkpt>
      <trkpt lat="49.30329" lon="-0.4374">
        <ele>45.13</ele>
        <time>2025-05-31T15:10:11.102Z</time>
      </trkpt>
      <trkpt lat="49.30325" lon="-0.43729">
        <ele>45.12</ele>
        <time>2025-05-31T15:10:23.416Z</time>
      </trkpt>
      <trkpt lat="49.30324" lon="-0.43713">
        <ele>45.14</ele>
        <time>2025-05-31T15:10:35.731Z</time>
      </trkpt>
      <trkpt lat="49.3033" lon="-0.43694">
        <ele>45.18</ele>
        <time>2025-05-31T15:10:48.049Z</time>
      </trkpt>
      <trkpt lat="49.30336" lon="-0.43687">
        <ele>45.25</ele>
        <time>2025-05-31T15:11:00.368Z</time>
      </trkpt>
      <trkpt lat="49.30345" lon="-0.43682">
        <ele>45.34</ele>
        <time>2025-05-31T15:11:12.688Z</time>
      </trkpt>
      <trkpt lat="49.30354" lon="-0.43667">
        <ele>45.45</ele>
        <time>2025-05-31T15:11:25.010Z</time>
      </trkpt>
      <trkpt lat="49.30358" lon="-0.43657">
        <ele>45.58</ele>
        <time>2025-05-31T15:11:37.334Z</time>
      </trkpt>
      <trkpt lat="49.30357" lon="-0.43632">
        <ele>45.72</ele>
        <time>2025-05-31T15:11:49.660Z</time>
      </trkpt>
      <trkpt lat="49.30356" lon="-0.43584">
        <ele>45.85</ele>
        <time>2025-05-31T15:12:01.991Z</time>
      </trkpt>
      <trkpt lat="49.30356" lon="-0.43576">
        <ele>46.03</ele>
        <time>2025-05-31T15:12:14.323Z</time>
      </trkpt>
      <trkpt lat="49.30359" lon="-0.43528">
        <ele>46.26</ele>
        <time>2025-05-31T15:12:26.660Z</time>
      </trkpt>
      <trkpt lat="49.30361" lon="-0.43492">
        <ele>46.46</ele>
        <time>2025-05-31T15:12:39.001Z</time>
      </trkpt>
      <trkpt lat="49.30364" lon="-0.43444">
        <ele>46.7</ele>
        <time>2025-05-31T15:12:51.347Z</time>
      </trkpt>
      <trkpt lat="49.30367" lon="-0.43396">
        <ele>46.93</ele>
        <time>2025-05-31T15:13:03.698Z</time>
      </trkpt>
      <trkpt lat="49.3037" lon="-0.43348">
        <ele>47.15</ele>
        <time>2025-05-31T15:13:16.054Z</time>
      </trkpt>
      <trkpt lat="49.30372" lon="-0.43309">
        <ele>47.39</ele>
        <time>2025-05-31T15:13:28.414Z</time>
      </trkpt>
      <trkpt lat="49.30375" lon="-0.43261">
        <ele>47.6</ele>
        <time>2025-05-31T15:13:40.779Z</time>
      </trkpt>
      <trkpt lat="49.30379" lon="-0.43213">
        <ele>47.85</ele>
        <time>2025-05-31T15:13:53.149Z</time>
      </trkpt>
      <trkpt lat="49.30382" lon="-0.43165">
        <ele>48.06</ele>
        <time>2025-05-31T15:14:05.524Z</time>
      </trkpt>
      <trkpt lat="49.30385" lon="-0.43122">
        <ele>48.23</ele>
        <time>2025-05-31T15:14:17.904Z</time>
      </trkpt>
      <trkpt lat="49.30388" lon="-0.43074">
        <ele>48.43</ele>
        <time>2025-05-31T15:14:30.289Z</time>
      </trkpt>
      <trkpt lat="49.30388" lon="-0.43067">
        <ele>48.6</ele>
        <time>2025-05-31T15:14:42.675Z</time>
      </trkpt>
      <trkpt lat="49.30391" lon="-0.43019">
        <ele>48.76</ele>
        <time>2025-05-31T15:14:55.066Z</time>
      </trkpt>
      <trkpt lat="49.30393" lon="-0.42995">
        <ele>48.93</ele>
        <time>2025-05-31T15:15:07.459Z</time>
      </trkpt>
      <trkpt lat="49.30396" lon="-0.42947">
        <ele>49.09</ele>
        <time>2025-05-31T15:15:19.857Z</time>
      </trkpt>
      <trkpt lat="49.30398" lon="-0.42906">
        <ele>49.24</ele>
        <time>2025-05-31T15:15:32.260Z</time>
      </trkpt>
      <trkpt lat="49.30402" lon="-0.42858">
        <ele>49.34</ele>
        <time>2025-05-31T15:15:44.668Z</time>
      </trkpt>
      <trkpt lat="49.30406" lon="-0.4281">
        <ele>49.42</ele>
        <time>2025-05-31T15:15:57.081Z</time>
      </trkpt>
      <trkpt lat="49.30408" lon="-0.42779">
        <ele>49.46</ele>
        <time>2025-05-31T15:16:09.497Z</time>
      </trkpt>
      <trkpt lat="49.30413" lon="-0.42731">
        <ele>49.43</ele>
        <time>2025-05-31T15:16:21.918Z</time>
      </trkpt>
      <trkpt lat="49.30417" lon="-0.42684">
        <ele>49.36</ele>
        <time>2025-05-31T15:16:34.344Z</time>
      </trkpt>
      <trkpt lat="49.30422" lon="-0.42636">
        <ele>49.26</ele>
        <time>2025-05-31T15:16:46.775Z</time>
      </trkpt>
      <trkpt lat="49.30427" lon="-0.42589">
        <ele>49.21</ele>
        <time>2025-05-31T15:16:59.211Z</time>
      </trkpt>
      <trkpt lat="49.30428" lon="-0.42574">
        <ele>49.14</ele>
        <time>2025-05-31T15:17:11.649Z</time>
      </trkpt>
      <trkpt lat="49.30429" lon="-0.42526">
        <ele>49.01</ele>
        <time>2025-05-31T15:17:24.092Z</time>
      </trkpt>
      <trkpt lat="49.3043" lon="-0.4251">
        <ele>48.92</ele>
        <time>2025-05-31T15:17:36.536Z</time>
      </trkpt>
      <trkpt lat="49.30431" lon="-0.42491">
        <ele>48.79</ele>
        <time>2025-05-31T15:17:48.982Z</time>
      </trkpt>
      <trkpt lat="49.30435" lon="-0.42443">
        <ele>48.72</ele>
        <time>2025-05-31T15:18:01.433Z</time>
      </trkpt>
      <trkpt lat="49.30439" lon="-0.42396">
        <ele>48.62</ele>
        <time>2025-05-31T15:18:13.889Z</time>
      </trkpt>
      <trkpt lat="49.30443" lon="-0.42348">
        <ele>48.42</ele>
        <time>2025-05-31T15:18:26.351Z</time>
      </trkpt>
      <trkpt lat="49.30447" lon="-0.423">
        <ele>48.25</ele>
        <time>2025-05-31T15:18:38.818Z</time>
      </trkpt>
      <trkpt lat="49.3045" lon="-0.42262">
        <ele>48.05</ele>
        <time>2025-05-31T15:18:51.289Z</time>
      </trkpt>
      <trkpt lat="49.30454" lon="-0.42214">
        <ele>47.8</ele>
        <time>2025-05-31T15:19:03.765Z</time>
      </trkpt>
      <trkpt lat="49.30457" lon="-0.42166">
        <ele>47.57</ele>
        <time>2025-05-31T15:19:16.246Z</time>
      </trkpt>
      <trkpt lat="49.30461" lon="-0.42119">
        <ele>47.41</ele>
        <time>2025-05-31T15:19:28.732Z</time>
      </trkpt>
      <trkpt lat="49.30464" lon="-0.42071">
        <ele>47.23</ele>
        <time>2025-05-31T15:19:41.223Z</time>
      </trkpt>
      <trkpt lat="49.30468" lon="-0.42023">
        <ele>47.04</ele>
        <time>2025-05-31T15:19:53.719Z</time>
      </trkpt>
      <trkpt lat="49.30472" lon="-0.41975">
        <ele>46.86</ele>
        <time>2025-05-31T15:20:06.220Z</time>
      </trkpt>
      <trkpt lat="49.30472" lon="-0.41971">
        <ele>46.68</ele>
        <time>2025-05-31T15:20:18.721Z</time>
      </trkpt>
      <trkpt lat="49.30476" lon="-0.41923">
        <ele>46.52</ele>
        <time>2025-05-31T15:20:31.227Z</time>
      </trkpt>
      <trkpt lat="49.30479" lon="-0.41875">
        <ele>46.31</ele>
        <time>2025-05-31T15:20:43.738Z</time>
      </trkpt>
      <trkpt lat="49.30483" lon="-0.41828">
        <ele>46.11</ele>
        <time>2025-05-31T15:20:56.254Z</time>
      </trkpt>
      <trkpt lat="49.30487" lon="-0.4178">
        <ele>45.94</ele>
        <time>2025-05-31T15:21:08.775Z</time>
      </trkpt>
      <trkpt lat="49.3049" lon="-0.41732">
        <ele>45.79</ele>
        <time>2025-05-31T15:21:21.301Z</time>
      </trkpt>
      <trkpt lat="49.30491" lon="-0.41721">
        <ele>45.58</ele>
        <time>2025-05-31T15:21:33.829Z</time>
      </trkpt>
      <trkpt lat="49.30491" lon="-0.41673">
        <ele>45.35</ele>
        <time>2025-05-31T15:21:46.362Z</time>
      </trkpt>
      <trkpt lat="49.30491" lon="-0.41625">
        <ele>45.09</ele>
        <time>2025-05-31T15:21:58.900Z</time>
      </trkpt>
      <trkpt lat="49.30491" lon="-0.41577">
        <ele>44.87</ele>
        <time>2025-05-31T15:22:11.443Z</time>
      </trkpt>
      <trkpt lat="49.30491" lon="-0.41574">
        <ele>44.65</ele>
        <time>2025-05-31T15:22:23.986Z</time>
      </trkpt>
      <trkpt lat="49.30491" lon="-0.41526">
        <ele>44.43</ele>
        <time>2025-05-31T15:22:36.534Z</time>
      </trkpt>
      <trkpt lat="49.3049" lon="-0.41478">
        <ele>44.24</ele>
        <time>2025-05-31T15:22:49.087Z</time>
      </trkpt>
      <trkpt lat="49.3049" lon="-0.4143">
        <ele>44.01</ele>
        <time>2025-05-31T15:23:01.645Z</time>
      </trkpt>
      <trkpt lat="49.30489" lon="-0.41382">
        <ele>43.8</ele>
        <time>2025-05-31T15:23:14.208Z</time>
      </trkpt>
      <trkpt lat="49.30489" lon="-0.41348">
        <ele>43.52</ele>
        <time>2025-05-31T15:23:26.775Z</time>
      </trkpt>
      <trkpt lat="49.30488" lon="-0.413">
        <ele>43.21</ele>
        <time>2025-05-31T15:23:39.347Z</time>
      </trkpt>
      <trkpt lat="49.30488" lon="-0.41298">
        <ele>42.96</ele>
        <time>2025-05-31T15:23:51.919Z</time>
      </trkpt>
      <trkpt lat="49.30486" lon="-0.41278">
        <ele>42.71</ele>
        <time>2025-05-31T15:24:04.493Z</time>
      </trkpt>
      <trkpt lat="49.30483" lon="-0.41247">
        <ele>42.5</ele>
        <time>2025-05-31T15:24:17.070Z</time>
      </trkpt>
      <trkpt lat="49.30476" lon="-0.41221">
        <ele>42.24</ele>
        <time>2025-05-31T15:24:29.650Z</time>
      </trkpt>
      <trkpt lat="49.30469" lon="-0.412">
        <ele>41.99</ele>
        <time>2025-05-31T15:24:42.233Z</time>
      </trkpt>
      <trkpt lat="49.30452" lon="-0.4116">
        <ele>41.68</ele>
        <time>2025-05-31T15:24:54.821Z</time>
      </trkpt>
      <trkpt lat="49.30445" lon="-0.41145">
        <ele>41.39</ele>
        <time>2025-05-31T15:25:07.411Z</time>
      </trkpt>
      <trkpt lat="49.30429" lon="-0.41103">
        <ele>41.1</ele>
        <time>2025-05-31T15:25:20.006Z</time>
      </trkpt>
      <trkpt lat="49.30426" lon="-0.41094">
        <ele>40.84</ele>
        <time>2025-05-31T15:25:32.602Z</time>
      </trkpt>
      <trkpt lat="49.30422" lon="-0.41069">
        <ele>40.56</ele>
        <time>2025-05-31T15:25:45.201Z</time>
      </trkpt>
      <trkpt lat="49.30423" lon="-0.41066">
        <ele>40.29</ele>
        <time>2025-05-31T15:25:57.800Z</time>
      </trkpt>
      <trkpt lat="49.30421" lon="-0.41018">
        <ele>39.97</ele>
        <time>2025-05-31T15:26:10.404Z</time>
      </trkpt>
      <trkpt lat="49.3042" lon="-0.40999">
        <ele>39.71</ele>
        <time>2025-05-31T15:26:23.010Z</time>
      </trkpt>
      <trkpt lat="49.30422" lon="-0.40951">
        <ele>39.38</ele>
        <time>2025-05-31T15:26:35.621Z</time>
      </trkpt>
      <trkpt lat="49.30425" lon="-0.40903">
        <ele>39.08</ele>
        <time>2025-05-31T15:26:48.237Z</time>
      </trkpt>
      <trkpt lat="49.30427" lon="-0.40859">
        <ele>38.85</ele>
        <time>2025-05-31T15:27:00.858Z</time>
      </trkpt>
      <trkpt lat="49.30427" lon="-0.40811">
        <ele>38.6</ele>
        <time>2025-05-31T15:27:13.484Z</time>
      </trkpt>
      <trkpt lat="49.30428" lon="-0.40763">
        <ele>38.36</ele>
        <time>2025-05-31T15:27:26.115Z</time>
      </trkpt>
      <trkpt lat="49.30428" lon="-0.40749">
        <ele>38.17</ele>
        <time>2025-05-31T15:27:38.747Z</time>
      </trkpt>
      <trkpt lat="49.30402" lon="-0.40721">
        <ele>37.98</ele>
        <time>2025-05-31T15:27:51.384Z</time>
      </trkpt>
      <trkpt lat="49.30377" lon="-0.40694">
        <ele>37.84</ele>
        <time>2025-05-31T15:28:04.026Z</time>
      </trkpt>
      <trkpt lat="49.30362" lon="-0.40678">
        <ele>37.77</ele>
        <time>2025-05-31T15:28:16.671Z</time>
      </trkpt>
      <trkpt lat="49.30337" lon="-0.4065">
        <ele>37.71</ele>
        <time>2025-05-31T15:28:29.321Z</time>
      </trkpt>
      <trkpt lat="49.30311" lon="-0.40621">
        <ele>37.69</ele>
        <time>2025-05-31T15:28:41.976Z</time>
      </trkpt>
      <trkpt lat="49.30304" lon="-0.40613">
        <ele>37.67</ele>
        <time>2025-05-31T15:28:54.633Z</time>
      </trkpt>
      <trkpt lat="49.30279" lon="-0.40585">
        <ele>37.69</ele>
        <time>2025-05-31T15:29:07.295Z</time>
      </trkpt>
      <trkpt lat="49.30253" lon="-0.40556">
        <ele>37.67</ele>
        <time>2025-05-31T15:29:19.962Z</time>
      </trkpt>
      <trkpt lat="49.30235" lon="-0.40536">
        <ele>37.66</ele>
        <time>2025-05-31T15:29:32.632Z</time>
      </trkpt>
      <trkpt lat="49.30209" lon="-0.40509">
        <ele>37.71</ele>
        <time>2025-05-31T15:29:45.307Z</time>
      </trkpt>
      <trkpt lat="49.30202" lon="-0.40501">
        <ele>37.76</ele>
        <time>2025-05-31T15:29:57.984Z</time>
      </trkpt>
      <trkpt lat="49.30175" lon="-0.40477">
        <ele>37.81</ele>
        <time>2025-05-31T15:30:10.666Z</time>
      </trkpt>
      <trkpt lat="49.30163" lon="-0.40466">
        <ele>37.89</ele>
        <time>2025-05-31T15:30:23.350Z</time>
      </trkpt>
      <trkpt lat="49.30142" lon="-0.40439">
        <ele>38.08</ele>
        <time>2025-05-31T15:30:36.038Z</time>
      </trkpt>
      <trkpt lat="49.30117" lon="-0.40411">
        <ele>38.24</ele>
        <time>2025-05-31T15:30:48.731Z</time>
      </trkpt>
      <trkpt lat="49.30107" lon="-0.404">
        <ele>38.35</ele>
        <time>2025-05-31T15:31:01.426Z</time>
      </trkpt>
      <trkpt lat="49.30079" lon="-0.40377">
        <ele>38.46</ele>
        <time>2025-05-31T15:31:14.126Z</time>
      </trkpt>
      <trkpt lat="49.30073" lon="-0.40372">
        <ele>38.57</ele>
        <time>2025-05-31T15:31:26.827Z</time>
      </trkpt>
      <trkpt lat="49.30042" lon="-0.40363">
        <ele>38.7</ele>
        <time>2025-05-31T15:31:39.533Z</time>
      </trkpt>
      <trkpt lat="49.3003" lon="-0.40359">
        <ele>38.84</ele>
        <time>2025-05-31T15:31:52.241Z</time>
      </trkpt>
      <trkpt lat="49.30017" lon="-0.40352">
        <ele>38.96</ele>
        <time>2025-05-31T15:32:04.952Z</time>
      </trkpt>
      <trkpt lat="49.30012" lon="-0.40335">
        <ele>39.03</ele>
        <time>2025-05-31T15:32:17.665Z</time>
      </trkpt>
      <trkpt lat="49.30015" lon="-0.40287">
        <ele>39.1</ele>
        <time>2025-05-31T15:32:30.383Z</time>
      </trkpt>
      <trkpt lat="49.30015" lon="-0.40282">
        <ele>39.17</ele>
        <time>2025-05-31T15:32:43.101Z</time>
      </trkpt>
      <trkpt lat="49.30015" lon="-0.40234">
        <ele>39.22</ele>
        <time>2025-05-31T15:32:55.824Z</time>
      </trkpt>
      <trkpt lat="49.30015" lon="-0.40229">
        <ele>39.27</ele>
        <time>2025-05-31T15:33:08.548Z</time>
      </trkpt>
      <trkpt lat="49.30006" lon="-0.40185">
        <ele>39.3</ele>
        <time>2025-05-31T15:33:21.277Z</time>
      </trkpt>
      <trkpt lat="49.29993" lon="-0.40141">
        <ele>39.3</ele>
        <time>2025-05-31T15:33:34.011Z</time>
      </trkpt>
      <trkpt lat="49.29984" lon="-0.40109">
        <ele>39.32</ele>
        <time>2025-05-31T15:33:46.748Z</time>
      </trkpt>
      <trkpt lat="49.29974" lon="-0.40076">
        <ele>39.32</ele>
        <time>2025-05-31T15:33:59.489Z</time>
      </trkpt>
      <trkpt lat="49.2996" lon="-0.40033">
        <ele>39.31</ele>
        <time>2025-05-31T15:34:12.235Z</time>
      </trkpt>
      <trkpt lat="49.29949" lon="-0.39999">
        <ele>39.25</ele>
        <time>2025-05-31T15:34:24.985Z</time>
      </trkpt>
      <trkpt lat="49.29933" lon="-0.39957">
        <ele>39.22</ele>
        <time>2025-05-31T15:34:37.740Z</time>
      </trkpt>
      <trkpt lat="49.29917" lon="-0.39916">
        <ele>39.18</ele>
        <time>2025-05-31T15:34:50.500Z</time>
      </trkpt>
      <trkpt lat="49.29902" lon="-0.39874">
        <ele>39.14</ele>
        <time>2025-05-31T15:35:03.265Z</time>
      </trkpt>
      <trkpt lat="49.29897" lon="-0.39862">
        <ele>39.09</ele>
        <time>2025-05-31T15:35:16.032Z</time>
      </trkpt>
      <trkpt lat="49.2988" lon="-0.39821">
        <ele>39.06</ele>
        <time>2025-05-31T15:35:28.804Z</time>
      </trkpt>
      <trkpt lat="49.29864" lon="-0.3978">
        <ele>38.96</ele>
        <time>2025-05-31T15:35:41.581Z</time>
      </trkpt>
      <trkpt lat="49.29847" lon="-0.3974">
        <ele>38.78</ele>
        <time>2025-05-31T15:35:54.363Z</time>
      </trkpt>
      <trkpt lat="49.29839" lon="-0.3972">
        <ele>38.66</ele>
        <time>2025-05-31T15:36:07.147Z</time>
      </trkpt>
      <trkpt lat="49.29823" lon="-0.39679">
        <ele>38.61</ele>
        <time>2025-05-31T15:36:19.936Z</time>
      </trkpt>
      <trkpt lat="49.2981" lon="-0.39645">
        <ele>38.55</ele>
        <time>2025-05-31T15:36:32.729Z</time>
      </trkpt>
      <trkpt lat="49.29795" lon="-0.39603">
        <ele>38.46</ele>
        <time>2025-05-31T15:36:45.527Z</time>
      </trkpt>
      <trkpt lat="49.29786" lon="-0.39577">
        <ele>38.34</ele>
        <time>2025-05-31T15:36:58.328Z</time>
      </trkpt>
      <trkpt lat="49.29772" lon="-0.39534">
        <ele>38.19</ele>
        <time>2025-05-31T15:37:11.134Z</time>
      </trkpt>
      <trkpt lat="49.29757" lon="-0.39491">
        <ele>38.05</ele>
        <time>2025-05-31T15:37:23.945Z</time>
      </trkpt>
      <trkpt lat="49.29743" lon="-0.39448">
        <ele>37.96</ele>
        <time>2025-05-31T15:37:36.762Z</time>
      </trkpt>
      <trkpt lat="49.29729" lon="-0.39406">
        <ele>37.85</ele>
        <time>2025-05-31T15:37:49.584Z</time>
      </trkpt>
      <trkpt lat="49.29726" lon="-0.39397">
        <ele>37.74</ele>
        <time>2025-05-31T15:38:02.407Z</time>
      </trkpt>
      <trkpt lat="49.29711" lon="-0.39354">
        <ele>37.63</ele>
        <time>2025-05-31T15:38:15.235Z</time>
      </trkpt>
      <trkpt lat="49.29697" lon="-0.39312">
        <ele>37.54</ele>
        <time>2025-05-31T15:38:28.068Z</time>
      </trkpt>
      <trkpt lat="49.29693" lon="-0.39301">
        <ele>37.42</ele>
        <time>2025-05-31T15:38:40.902Z</time>
      </trkpt>
      <trkpt lat="49.29675" lon="-0.39261">
        <ele>37.29</ele>
        <time>2025-05-31T15:38:53.741Z</time>
      </trkpt>
      <trkpt lat="49.29665" lon="-0.39239">
        <ele>37.17</ele>
        <time>2025-05-31T15:39:06.583Z</time>
      </trkpt>
      <trkpt lat="49.29646" lon="-0.392">
        <ele>37.02</ele>
        <time>2025-05-31T15:39:19.430Z</time>
      </trkpt>
      <trkpt lat="49.29627" lon="-0.39162">
        <ele>36.87</ele>
        <time>2025-05-31T15:39:32.282Z</time>
      </trkpt>
      <trkpt lat="49.29608" lon="-0.39123">
        <ele>36.7</ele>
        <time>2025-05-31T15:39:45.139Z</time>
      </trkpt>
      <trkpt lat="49.2959" lon="-0.39085">
        <ele>36.57</ele>
        <time>2025-05-31T15:39:58.001Z</time>
      </trkpt>
      <trkpt lat="49.29574" lon="-0.39053">
        <ele>36.45</ele>
        <time>2025-05-31T15:40:10.867Z</time>
      </trkpt>
      <trkpt lat="49.2957" lon="-0.39046">
        <ele>36.3</ele>
        <time>2025-05-31T15:40:23.734Z</time>
      </trkpt>
      <trkpt lat="49.29566" lon="-0.39043">
        <ele>36.14</ele>
        <time>2025-05-31T15:40:36.602Z</time>
      </trkpt>
      <trkpt lat="49.29561" lon="-0.39036">
        <ele>35.98</ele>
        <time>2025-05-31T15:40:49.471Z</time>
      </trkpt>
      <trkpt lat="49.29566" lon="-0.39027">
        <ele>35.82</ele>
        <time>2025-05-31T15:41:02.341Z</time>
      </trkpt>
      <trkpt lat="49.2956" lon="-0.39011">
        <ele>35.67</ele>
        <time>2025-05-31T15:41:15.213Z</time>
      </trkpt>
      <trkpt lat="49.29558" lon="-0.38992">
        <ele>35.48</ele>
        <time>2025-05-31T15:41:28.087Z</time>
      </trkpt>
      <trkpt lat="49.29555" lon="-0.38984">
        <ele>35.27</ele>
        <time>2025-05-31T15:41:40.962Z</time>
      </trkpt>
      <trkpt lat="49.29534" lon="-0.38949">
        <ele>34.99</ele>
        <time>2025-05-31T15:41:53.842Z</time>
      </trkpt>
      <trkpt lat="49.29518" lon="-0.38923">
        <ele>34.78</ele>
        <time>2025-05-31T15:42:06.726Z</time>
      </trkpt>
      <trkpt lat="49.29511" lon="-0.38918">
        <ele>34.56</ele>
        <time>2025-05-31T15:42:19.611Z</time>
      </trkpt>
      <trkpt lat="49.2949" lon="-0.38882">
        <ele>34.32</ele>
        <time>2025-05-31T15:42:32.501Z</time>
      </trkpt>
      <trkpt lat="49.29478" lon="-0.3886">
        <ele>34.04</ele>
        <time>2025-05-31T15:42:45.394Z</time>
      </trkpt>
      <trkpt lat="49.29456" lon="-0.38826">
        <ele>33.74</ele>
        <time>2025-05-31T15:42:58.292Z</time>
      </trkpt>
      <trkpt lat="49.29454" lon="-0.38823">
        <ele>33.5</ele>
        <time>2025-05-31T15:43:11.191Z</time>
      </trkpt>
      <trkpt lat="49.29452" lon="-0.38815">
        <ele>33.25</ele>
        <time>2025-05-31T15:43:24.090Z</time>
      </trkpt>
      <trkpt lat="49.29451" lon="-0.38804">
        <ele>33</ele>
        <time>2025-05-31T15:43:36.991Z</time>
      </trkpt>
      <trkpt lat="49.29456" lon="-0.38784">
        <ele>32.74</ele>
        <time>2025-05-31T15:43:49.894Z</time>
      </trkpt>
      <trkpt lat="49.29447" lon="-0.3876">
        <ele>32.46</ele>
        <time>2025-05-31T15:44:02.800Z</time>
      </trkpt>
      <trkpt lat="49.2944" lon="-0.38741">
        <ele>32.21</ele>
        <time>2025-05-31T15:44:15.708Z</time>
      </trkpt>
      <trkpt lat="49.29449" lon="-0.3873">
        <ele>31.93</ele>
        <time>2025-05-31T15:44:28.618Z</time>
      </trkpt>
      <trkpt lat="49.29472" lon="-0.38698">
        <ele>31.63</ele>
        <time>2025-05-31T15:44:41.533Z</time>
      </trkpt>
      <trkpt lat="49.29489" lon="-0.38675">
        <ele>31.36</ele>
        <time>2025-05-31T15:44:54.451Z</time>
      </trkpt>
      <trkpt lat="49.29501" lon="-0.38656">
        <ele>31.08</ele>
        <time>2025-05-31T15:45:07.372Z</time>
      </trkpt>
      <trkpt lat="49.29513" lon="-0.38617">
        <ele>30.81</ele>
        <time>2025-05-31T15:45:20.298Z</time>
      </trkpt>
      <trkpt lat="49.29529" lon="-0.3859">
        <ele>30.54</ele>
        <time>2025-05-31T15:45:33.228Z</time>
      </trkpt>
      <trkpt lat="49.29552" lon="-0.38558">
        <ele>30.27</ele>
        <time>2025-05-31T15:45:46.163Z</time>
      </trkpt>
      <trkpt lat="49.29553" lon="-0.38557">
        <ele>29.98</ele>
        <time>2025-05-31T15:45:59.098Z</time>
      </trkpt>
      <trkpt lat="49.29575" lon="-0.38523">
        <ele>29.69</ele>
        <time>2025-05-31T15:46:12.038Z</time>
      </trkpt>
      <trkpt lat="49.29553" lon="-0.38489">
        <ele>29.35</ele>
        <time>2025-05-31T15:46:24.983Z</time>
      </trkpt>
      <trkpt lat="49.29531" lon="-0.38455">
        <ele>29</ele>
        <time>2025-05-31T15:46:37.933Z</time>
      </trkpt>
      <trkpt lat="49.2951" lon="-0.38423">
        <ele>28.69</ele>
        <time>2025-05-31T15:46:50.888Z</time>
      </trkpt>
      <trkpt lat="49.29487" lon="-0.38389">
        <ele>28.36</ele>
        <time>2025-05-31T15:47:03.848Z</time>
      </trkpt>
      <trkpt lat="49.29477" lon="-0.38374">
        <ele>28.07</ele>
        <time>2025-05-31T15:47:16.810Z</time>
      </trkpt>
      <trkpt lat="49.29469" lon="-0.38364">
        <ele>27.76</ele>
        <time>2025-05-31T15:47:29.774Z</time>
      </trkpt>
      <trkpt lat="49.29472" lon="-0.38359">
        <ele>27.48</ele>
        <time>2025-05-31T15:47:42.738Z</time>
      </trkpt>
      <trkpt lat="49.29489" lon="-0.38319">
        <ele>27.23</ele>
        <time>2025-05-31T15:47:55.707Z</time>
      </trkpt>
      <trkpt lat="49.29507" lon="-0.38279">
        <ele>26.95</ele>
        <time>2025-05-31T15:48:08.681Z</time>
      </trkpt>
      <trkpt lat="49.29518" lon="-0.38253">
        <ele>26.67</ele>
        <time>2025-05-31T15:48:21.659Z</time>
      </trkpt>
      <trkpt lat="49.29535" lon="-0.38212">
        <ele>26.38</ele>
        <time>2025-05-31T15:48:34.642Z</time>
      </trkpt>
      <trkpt lat="49.29551" lon="-0.38171">
        <ele>26.1</ele>
        <time>2025-05-31T15:48:47.630Z</time>
      </trkpt>
      <trkpt lat="49.29556" lon="-0.3816">
        <ele>25.87</ele>
        <time>2025-05-31T15:49:00.619Z</time>
      </trkpt>
      <trkpt lat="49.29572" lon="-0.38119">
        <ele>25.72</ele>
        <time>2025-05-31T15:49:13.613Z</time>
      </trkpt>
      <trkpt lat="49.29579" lon="-0.38101">
        <ele>25.53</ele>
        <time>2025-05-31T15:49:26.609Z</time>
      </trkpt>
      <trkpt lat="49.29587" lon="-0.38065">
        <ele>25.31</ele>
        <time>2025-05-31T15:49:39.609Z</time>
      </trkpt>
      <trkpt lat="49.29595" lon="-0.38019">
        <ele>25.11</ele>
        <time>2025-05-31T15:49:52.614Z</time>
      </trkpt>
      <trkpt lat="49.29601" lon="-0.37986">
        <ele>24.91</ele>
        <time>2025-05-31T15:50:05.623Z</time>
      </trkpt>
      <trkpt lat="49.29608" lon="-0.37939">
        <ele>24.69</ele>
        <time>2025-05-31T15:50:18.637Z</time>
      </trkpt>
      <trkpt lat="49.29612" lon="-0.37917">
        <ele>24.5</ele>
        <time>2025-05-31T15:50:31.653Z</time>
      </trkpt>
      <trkpt lat="49.29619" lon="-0.3787">
        <ele>24.37</ele>
        <time>2025-05-31T15:50:44.674Z</time>
      </trkpt>
      <trkpt lat="49.29627" lon="-0.37823">
        <ele>24.22</ele>
        <time>2025-05-31T15:50:57.700Z</time>
      </trkpt>
      <trkpt lat="49.29634" lon="-0.37777">
        <ele>24.12</ele>
        <time>2025-05-31T15:51:10.731Z</time>
      </trkpt>
      <trkpt lat="49.29636" lon="-0.37765">
        <ele>24.02</ele>
        <time>2025-05-31T15:51:23.764Z</time>
      </trkpt>
      <trkpt lat="49.29642" lon="-0.37718">
        <ele>23.95</ele>
        <time>2025-05-31T15:51:36.802Z</time>
      </trkpt>
      <trkpt lat="49.29649" lon="-0.37671">
        <ele>23.85</ele>
        <time>2025-05-31T15:51:49.845Z</time>
      </trkpt>
      <trkpt lat="49.2965" lon="-0.37662">
        <ele>23.79</ele>
        <time>2025-05-31T15:52:02.889Z</time>
      </trkpt>
      <trkpt lat="49.29656" lon="-0.37617">
        <ele>23.68</ele>
        <time>2025-05-31T15:52:15.937Z</time>
      </trkpt>
      <trkpt lat="49.2967" lon="-0.37574">
        <ele>23.68</ele>
        <time>2025-05-31T15:52:28.991Z</time>
      </trkpt>
      <trkpt lat="49.29672" lon="-0.37568">
        <ele>23.69</ele>
        <time>2025-05-31T15:52:42.045Z</time>
      </trkpt>
      <trkpt lat="49.2968" lon="-0.3754">
        <ele>23.72</ele>
        <time>2025-05-31T15:52:55.102Z</time>
      </trkpt>
      <trkpt lat="49.29697" lon="-0.37525">
        <ele>23.77</ele>
        <time>2025-05-31T15:53:08.163Z</time>
      </trkpt>
      <trkpt lat="49.29679" lon="-0.37485">
        <ele>23.8</ele>
        <time>2025-05-31T15:53:21.229Z</time>
      </trkpt>
      <trkpt lat="49.29661" lon="-0.37446">
        <ele>23.85</ele>
        <time>2025-05-31T15:53:34.300Z</time>
      </trkpt>
      <trkpt lat="49.29653" lon="-0.37427">
        <ele>23.97</ele>
        <time>2025-05-31T15:53:47.373Z</time>
      </trkpt>
      <trkpt lat="49.29642" lon="-0.37413">
        <ele>24.11</ele>
        <time>2025-05-31T15:54:00.448Z</time>
      </trkpt>
      <trkpt lat="49.2962" lon="-0.37378">
        <ele>24.3</ele>
        <time>2025-05-31T15:54:13.528Z</time>
      </trkpt>
      <trkpt lat="49.29609" lon="-0.37361">
        <ele>24.51</ele>
        <time>2025-05-31T15:54:26.611Z</time>
      </trkpt>
      <trkpt lat="49.29585" lon="-0.3733">
        <ele>24.75</ele>
        <time>2025-05-31T15:54:39.699Z</time>
      </trkpt>
      <trkpt lat="49.29566" lon="-0.37307">
        <ele>25.02</ele>
        <time>2025-05-31T15:54:52.791Z</time>
      </trkpt>
      <trkpt lat="49.29542" lon="-0.37275">
        <ele>25.35</ele>
        <time>2025-05-31T15:55:05.888Z</time>
      </trkpt>
      <trkpt lat="49.29541" lon="-0.37273">
        <ele>25.61</ele>
        <time>2025-05-31T15:55:18.985Z</time>
      </trkpt>
      <trkpt lat="49.29522" lon="-0.37235">
        <ele>25.93</ele>
        <time>2025-05-31T15:55:32.087Z</time>
      </trkpt>
      <trkpt lat="49.29513" lon="-0.37217">
        <ele>26.2</ele>
        <time>2025-05-31T15:55:45.192Z</time>
      </trkpt>
      <trkpt lat="49.29498" lon="-0.37175">
        <ele>26.51</ele>
        <time>2025-05-31T15:55:58.302Z</time>
      </trkpt>
      <trkpt lat="49.29487" lon="-0.37143">
        <ele>26.85</ele>
        <time>2025-05-31T15:56:11.415Z</time>
      </trkpt>
      <trkpt lat="49.29473" lon="-0.371">
        <ele>27.26</ele>
        <time>2025-05-31T15:56:24.533Z</time>
      </trkpt>
      <trkpt lat="49.2946" lon="-0.37056">
        <ele>27.55</ele>
        <time>2025-05-31T15:56:37.656Z</time>
      </trkpt>
      <trkpt lat="49.29448" lon="-0.3702">
        <ele>27.77</ele>
        <time>2025-05-31T15:56:50.784Z</time>
      </trkpt>
      <trkpt lat="49.29437" lon="-0.36975">
        <ele>28.02</ele>
        <time>2025-05-31T15:57:03.917Z</time>
      </trkpt>
      <trkpt lat="49.29431" lon="-0.3695">
        <ele>28.33</ele>
        <time>2025-05-31T15:57:17.052Z</time>
      </trkpt>
      <trkpt lat="49.2942" lon="-0.36905">
        <ele>28.63</ele>
        <time>2025-05-31T15:57:30.193Z</time>
      </trkpt>
      <trkpt lat="49.29408" lon="-0.3686">
        <ele>29.05</ele>
        <time>2025-05-31T15:57:43.339Z</time>
      </trkpt>
      <trkpt lat="49.29404" lon="-0.36844">
        <ele>29.38</ele>
        <time>2025-05-31T15:57:56.486Z</time>
      </trkpt>
      <trkpt lat="49.29395" lon="-0.36798">
        <ele>29.74</ele>
        <time>2025-05-31T15:58:09.638Z</time>
      </trkpt>
      <trkpt lat="49.29385" lon="-0.36752">
        <ele>30.07</ele>
        <time>2025-05-31T15:58:22.795Z</time>
      </trkpt>
      <trkpt lat="49.29378" lon="-0.36718">
        <ele>30.35</ele>
        <time>2025-05-31T15:58:35.956Z</time>
      </trkpt>
      <trkpt lat="49.29381" lon="-0.36714">
        <ele>30.63</ele>
        <time>2025-05-31T15:58:49.118Z</time>
      </trkpt>
      <trkpt lat="49.29367" lon="-0.36671">
        <ele>30.92</ele>
        <time>2025-05-31T15:59:02.285Z</time>
      </trkpt>
      <trkpt lat="49.29353" lon="-0.36628">
        <ele>31.2</ele>
        <time>2025-05-31T15:59:15.457Z</time>
      </trkpt>
      <trkpt lat="49.29339" lon="-0.36585">
        <ele>31.47</ele>
        <time>2025-05-31T15:59:28.634Z</time>
      </trkpt>
      <trkpt lat="49.29336" lon="-0.36576">
        <ele>31.68</ele>
        <time>2025-05-31T15:59:41.812Z</time>
      </trkpt>
      <trkpt lat="49.29337" lon="-0.36572">
        <ele>31.88</ele>
        <time>2025-05-31T15:59:54.990Z</time>
      </trkpt>
      <trkpt lat="49.29339" lon="-0.36566">
        <ele>32.06</ele>
        <time>2025-05-31T16:00:08.169Z</time>
      </trkpt>
      <trkpt lat="49.29358" lon="-0.36527">
        <ele>32.21</ele>
        <time>2025-05-31T16:00:21.353Z</time>
      </trkpt>
      <trkpt lat="49.29376" lon="-0.36488">
        <ele>32.34</ele>
        <time>2025-05-31T16:00:34.542Z</time>
      </trkpt>
      <trkpt lat="49.29389" lon="-0.36462">
        <ele>32.45</ele>
        <time>2025-05-31T16:00:47.735Z</time>
      </trkpt>
      <trkpt lat="49.29388" lon="-0.36444">
        <ele>32.53</ele>
        <time>2025-05-31T16:01:00.930Z</time>
      </trkpt>
      <trkpt lat="49.29383" lon="-0.3643">
        <ele>32.61</ele>
        <time>2025-05-31T16:01:14.126Z</time>
      </trkpt>
      <trkpt lat="49.29364" lon="-0.36391">
        <ele>32.69</ele>
        <time>2025-05-31T16:01:27.327Z</time>
      </trkpt>
      <trkpt lat="49.29346" lon="-0.36353">
        <ele>32.71</ele>
        <time>2025-05-31T16:01:40.533Z</time>
      </trkpt>
      <trkpt lat="49.2933" lon="-0.3632">
        <ele>32.7</ele>
        <time>2025-05-31T16:01:53.744Z</time>
      </trkpt>
      <trkpt lat="49.29323" lon="-0.36314">
        <ele>32.65</ele>
        <time>2025-05-31T16:02:06.956Z</time>
      </trkpt>
      <trkpt lat="49.29318" lon="-0.36306">
        <ele>32.57</ele>
        <time>2025-05-31T16:02:20.169Z</time>
      </trkpt>
      <trkpt lat="49.29317" lon="-0.36291">
        <ele>32.47</ele>
        <time>2025-05-31T16:02:33.384Z</time>
      </trkpt>
      <trkpt lat="49.293" lon="-0.36252">
        <ele>32.33</ele>
        <time>2025-05-31T16:02:46.603Z</time>
      </trkpt>
      <trkpt lat="49.29284" lon="-0.3621">
        <ele>32.16</ele>
        <time>2025-05-31T16:02:59.828Z</time>
      </trkpt>
      <trkpt lat="49.29284" lon="-0.3621">
        <ele>32.01</ele>
        <time>2025-05-31T16:03:13.053Z</time>
      </trkpt>
      <trkpt lat="49.29271" lon="-0.36166">
        <ele>31.81</ele>
        <time>2025-05-31T16:03:26.283Z</time>
      </trkpt>
      <trkpt lat="49.29258" lon="-0.36122">
        <ele>31.65</ele>
        <time>2025-05-31T16:03:39.518Z</time>
      </trkpt>
      <trkpt lat="49.29245" lon="-0.36078">
        <ele>31.47</ele>
        <time>2025-05-31T16:03:52.758Z</time>
      </trkpt>
      <trkpt lat="49.29233" lon="-0.36037">
        <ele>31.23</ele>
        <time>2025-05-31T16:04:06.002Z</time>
      </trkpt>
      <trkpt lat="49.29221" lon="-0.35993">
        <ele>31.05</ele>
        <time>2025-05-31T16:04:19.252Z</time>
      </trkpt>
      <trkpt lat="49.29209" lon="-0.35952">
        <ele>30.82</ele>
        <time>2025-05-31T16:04:32.506Z</time>
      </trkpt>
      <trkpt lat="49.29196" lon="-0.35908">
        <ele>30.55</ele>
        <time>2025-05-31T16:04:45.765Z</time>
      </trkpt>
      <trkpt lat="49.29186" lon="-0.35874">
        <ele>30.28</ele>
        <time>2025-05-31T16:04:59.028Z</time>
      </trkpt>
      <trkpt lat="49.29174" lon="-0.35829">
        <ele>30.05</ele>
        <time>2025-05-31T16:05:12.296Z</time>
      </trkpt>
      <trkpt lat="49.29173" lon="-0.35825">
        <ele>29.8</ele>
        <time>2025-05-31T16:05:25.565Z</time>
      </trkpt>
      <trkpt lat="49.29181" lon="-0.35825">
        <ele>29.54</ele>
        <time>2025-05-31T16:05:38.835Z</time>
      </trkpt>
      <trkpt lat="49.29168" lon="-0.35781">
        <ele>29.29</ele>
        <time>2025-05-31T16:05:52.110Z</time>
      </trkpt>
      <trkpt lat="49.29155" lon="-0.35737">
        <ele>29.04</ele>
        <time>2025-05-31T16:06:05.390Z</time>
      </trkpt>
      <trkpt lat="49.29142" lon="-0.35693">
        <ele>28.71</ele>
        <time>2025-05-31T16:06:18.675Z</time>
      </trkpt>
      <trkpt lat="49.29139" lon="-0.35682">
        <ele>28.47</ele>
        <time>2025-05-31T16:06:31.961Z</time>
      </trkpt>
      <trkpt lat="49.29126" lon="-0.35638">
        <ele>28.2</ele>
        <time>2025-05-31T16:06:45.252Z</time>
      </trkpt>
      <trkpt lat="49.29121" lon="-0.3562">
        <ele>27.97</ele>
        <time>2025-05-31T16:06:58.545Z</time>
      </trkpt>
      <trkpt lat="49.29109" lon="-0.35576">
        <ele>27.74</ele>
        <time>2025-05-31T16:07:11.844Z</time>
      </trkpt>
      <trkpt lat="49.29097" lon="-0.35531">
        <ele>27.52</ele>
        <time>2025-05-31T16:07:25.148Z</time>
      </trkpt>
      <trkpt lat="49.29085" lon="-0.35487">
        <ele>27.32</ele>
        <time>2025-05-31T16:07:38.457Z</time>
      </trkpt>
      <trkpt lat="49.29073" lon="-0.35442">
        <ele>27.17</ele>
        <time>2025-05-31T16:07:51.771Z</time>
      </trkpt>
      <trkpt lat="49.29068" lon="-0.35425">
        <ele>27.03</ele>
        <time>2025-05-31T16:08:05.087Z</time>
      </trkpt>
      <trkpt lat="49.29056" lon="-0.35381">
        <ele>26.91</ele>
        <time>2025-05-31T16:08:18.408Z</time>
      </trkpt>
      <trkpt lat="49.29043" lon="-0.35337">
        <ele>26.74</ele>
        <time>2025-05-31T16:08:31.734Z</time>
      </trkpt>
      <trkpt lat="49.29031" lon="-0.35292">
        <ele>26.6</ele>
        <time>2025-05-31T16:08:45.065Z</time>
      </trkpt>
      <trkpt lat="49.2903" lon="-0.35289">
        <ele>26.47</ele>
        <time>2025-05-31T16:08:58.396Z</time>
      </trkpt>
      <trkpt lat="49.29018" lon="-0.35245">
        <ele>26.34</ele>
        <time>2025-05-31T16:09:11.732Z</time>
      </trkpt>
      <trkpt lat="49.29006" lon="-0.352">
        <ele>26.28</ele>
        <time>2025-05-31T16:09:25.073Z</time>
      </trkpt>
      <trkpt lat="49.28994" lon="-0.35156">
        <ele>26.15</ele>
        <time>2025-05-31T16:09:38.419Z</time>
      </trkpt>
      <trkpt lat="49.28982" lon="-0.35111">
        <ele>26.09</ele>
        <time>2025-05-31T16:09:51.770Z</time>
      </trkpt>
      <trkpt lat="49.28976" lon="-0.35091">
        <ele>26.03</ele>
        <time>2025-05-31T16:10:05.124Z</time>
      </trkpt>
      <trkpt lat="49.28963" lon="-0.35047">
        <ele>25.98</ele>
        <time>2025-05-31T16:10:18.483Z</time>
      </trkpt>
      <trkpt lat="49.28953" lon="-0.35016">
        <ele>25.88</ele>
        <time>2025-05-31T16:10:31.845Z</time>
      </trkpt>
      <trkpt lat="49.28944" lon="-0.34975">
        <ele>25.72</ele>
        <time>2025-05-31T16:10:45.212Z</time>
      </trkpt>
      <trkpt lat="49.28934" lon="-0.3493">
        <ele>25.6</ele>
        <time>2025-05-31T16:10:58.584Z</time>
      </trkpt>
      <trkpt lat="49.28928" lon="-0.34904">
        <ele>25.5</ele>
        <time>2025-05-31T16:11:11.959Z</time>
      </trkpt>
      <trkpt lat="49.28916" lon="-0.34859">
        <ele>25.39</ele>
        <time>2025-05-31T16:11:25.339Z</time>
      </trkpt>
      <trkpt lat="49.28913" lon="-0.34848">
        <ele>25.29</ele>
        <time>2025-05-31T16:11:38.720Z</time>
      </trkpt>
      <trkpt lat="49.289" lon="-0.34804">
        <ele>25.2</ele>
        <time>2025-05-31T16:11:52.106Z</time>
      </trkpt>
      <trkpt lat="49.28888" lon="-0.3476">
        <ele>25.11</ele>
        <time>2025-05-31T16:12:05.497Z</time>
      </trkpt>
      <trkpt lat="49.28875" lon="-0.34716">
        <ele>25.01</ele>
        <time>2025-05-31T16:12:18.893Z</time>
      </trkpt>
      <trkpt lat="49.28868" lon="-0.3469">
        <ele>24.92</ele>
        <time>2025-05-31T16:12:32.292Z</time>
      </trkpt>
      <trkpt lat="49.28864" lon="-0.34666">
        <ele>24.82</ele>
        <time>2025-05-31T16:12:45.694Z</time>
      </trkpt>
      <trkpt lat="49.28863" lon="-0.34643">
        <ele>24.72</ele>
        <time>2025-05-31T16:12:59.098Z</time>
      </trkpt>
      <trkpt lat="49.28859" lon="-0.34609">
        <ele>24.58</ele>
        <time>2025-05-31T16:13:12.506Z</time>
      </trkpt>
      <trkpt lat="49.28841" lon="-0.3457">
        <ele>24.46</ele>
        <time>2025-05-31T16:13:25.919Z</time>
      </trkpt>
      <trkpt lat="49.28838" lon="-0.34563">
        <ele>24.34</ele>
        <time>2025-05-31T16:13:39.333Z</time>
      </trkpt>
      <trkpt lat="49.28821" lon="-0.34523">
        <ele>24.18</ele>
        <time>2025-05-31T16:13:52.752Z</time>
      </trkpt>
      <trkpt lat="49.2882" lon="-0.34521">
        <ele>24.07</ele>
        <time>2025-05-31T16:14:06.171Z</time>
      </trkpt>
      <trkpt lat="49.28817" lon="-0.34503">
        <ele>23.96</ele>
        <time>2025-05-31T16:14:19.592Z</time>
      </trkpt>
      <trkpt lat="49.28815" lon="-0.34496">
        <ele>23.85</ele>
        <time>2025-05-31T16:14:33.014Z</time>
      </trkpt>
      <trkpt lat="49.28804" lon="-0.34451">
        <ele>23.74</ele>
        <time>2025-05-31T16:14:46.441Z</time>
      </trkpt>
      <trkpt lat="49.28792" lon="-0.34406">
        <ele>23.64</ele>
        <time>2025-05-31T16:14:59.873Z</time>
      </trkpt>
      <trkpt lat="49.28781" lon="-0.34362">
        <ele>23.52</ele>
        <time>2025-05-31T16:15:13.310Z</time>
      </trkpt>
      <trkpt lat="49.28769" lon="-0.34317">
        <ele>23.39</ele>
        <time>2025-05-31T16:15:26.752Z</time>
      </trkpt>
      <trkpt lat="49.28758" lon="-0.34272">
        <ele>23.28</ele>
        <time>2025-05-31T16:15:40.199Z</time>
      </trkpt>
      <trkpt lat="49.28746" lon="-0.34227">
        <ele>23.22</ele>
        <time>2025-05-31T16:15:53.651Z</time>
      </trkpt>
      <trkpt lat="49.28735" lon="-0.34182">
        <ele>23.13</ele>
        <time>2025-05-31T16:16:07.108Z</time>
      </trkpt>
      <trkpt lat="49.28732" lon="-0.34172">
        <ele>23.07</ele>
        <time>2025-05-31T16:16:20.566Z</time>
      </trkpt>
      <trkpt lat="49.28721" lon="-0.34127">
        <ele>23.07</ele>
        <time>2025-05-31T16:16:34.029Z</time>
      </trkpt>
      <trkpt lat="49.28709" lon="-0.34082">
        <ele>23.07</ele>
        <time>2025-05-31T16:16:47.497Z</time>
      </trkpt>
      <trkpt lat="49.28698" lon="-0.34037">
        <ele>22.99</ele>
        <time>2025-05-31T16:17:00.970Z</time>
      </trkpt>
      <trkpt lat="49.28687" lon="-0.33992">
        <ele>22.91</ele>
        <time>2025-05-31T16:17:14.448Z</time>
      </trkpt>
      <trkpt lat="49.28676" lon="-0.33947">
        <ele>22.89</ele>
        <time>2025-05-31T16:17:27.931Z</time>
      </trkpt>
      <trkpt lat="49.28664" lon="-0.33903">
        <ele>22.88</ele>
        <time>2025-05-31T16:17:41.419Z</time>
      </trkpt>
      <trkpt lat="49.28653" lon="-0.33858">
        <ele>22.86</ele>
        <time>2025-05-31T16:17:54.912Z</time>
      </trkpt>
      <trkpt lat="49.28642" lon="-0.33813">
        <ele>22.79</ele>
        <time>2025-05-31T16:18:08.410Z</time>
      </trkpt>
      <trkpt lat="49.2863" lon="-0.33768">
        <ele>22.73</ele>
        <time>2025-05-31T16:18:21.913Z</time>
      </trkpt>
      <trkpt lat="49.28628" lon="-0.33758">
        <ele>22.7</ele>
        <time>2025-05-31T16:18:35.417Z</time>
      </trkpt>
      <trkpt lat="49.28616" lon="-0.33713">
        <ele>22.69</ele>
        <time>2025-05-31T16:18:48.926Z</time>
      </trkpt>
      <trkpt lat="49.28604" lon="-0.33669">
        <ele>22.71</ele>
        <time>2025-05-31T16:19:02.441Z</time>
      </trkpt>
      <trkpt lat="49.28602" lon="-0.33661">
        <ele>22.7</ele>
        <time>2025-05-31T16:19:15.956Z</time>
      </trkpt>
      <trkpt lat="49.2859" lon="-0.33617">
        <ele>22.72</ele>
        <time>2025-05-31T16:19:29.476Z</time>
      </trkpt>
      <trkpt lat="49.28578" lon="-0.33572">
        <ele>22.73</ele>
        <time>2025-05-31T16:19:43.002Z</time>
      </trkpt>
      <trkpt lat="49.28568" lon="-0.33537">
        <ele>22.77</ele>
        <time>2025-05-31T16:19:56.532Z</time>
      </trkpt>
      <trkpt lat="49.28556" lon="-0.33493">
        <ele>22.77</ele>
        <time>2025-05-31T16:20:10.067Z</time>
      </trkpt>
      <trkpt lat="49.28544" lon="-0.33448">
        <ele>22.75</ele>
        <time>2025-05-31T16:20:23.607Z</time>
      </trkpt>
      <trkpt lat="49.28531" lon="-0.33404">
        <ele>22.72</ele>
        <time>2025-05-31T16:20:37.152Z</time>
      </trkpt>
      <trkpt lat="49.2853" lon="-0.33399">
        <ele>22.68</ele>
        <time>2025-05-31T16:20:50.697Z</time>
      </trkpt>
      <trkpt lat="49.28516" lon="-0.33356">
        <ele>22.61</ele>
        <time>2025-05-31T16:21:04.247Z</time>
      </trkpt>
      <trkpt lat="49.28506" lon="-0.33322">
        <ele>22.54</ele>
        <time>2025-05-31T16:21:17.801Z</time>
      </trkpt>
      <trkpt lat="49.28492" lon="-0.33279">
        <ele>22.48</ele>
        <time>2025-05-31T16:21:31.360Z</time>
      </trkpt>
      <trkpt lat="49.28478" lon="-0.33236">
        <ele>22.36</ele>
        <time>2025-05-31T16:21:44.924Z</time>
      </trkpt>
      <trkpt lat="49.28475" lon="-0.33225">
        <ele>22.26</ele>
        <time>2025-05-31T16:21:58.489Z</time>
      </trkpt>
      <trkpt lat="49.28467" lon="-0.3321">
        <ele>22.16</ele>
        <time>2025-05-31T16:22:12.056Z</time>
      </trkpt>
      <trkpt lat="49.28453" lon="-0.33167">
        <ele>22.08</ele>
        <time>2025-05-31T16:22:25.629Z</time>
      </trkpt>
      <trkpt lat="49.28452" lon="-0.33163">
        <ele>21.95</ele>
        <time>2025-05-31T16:22:39.202Z</time>
      </trkpt>
      <trkpt lat="49.28438" lon="-0.3312">
        <ele>21.78</ele>
        <time>2025-05-31T16:22:52.780Z</time>
      </trkpt>
      <trkpt lat="49.28424" lon="-0.33077">
        <ele>21.57</ele>
        <time>2025-05-31T16:23:06.363Z</time>
      </trkpt>
      <trkpt lat="49.2842" lon="-0.33064">
        <ele>21.4</ele>
        <time>2025-05-31T16:23:19.948Z</time>
      </trkpt>
      <trkpt lat="49.28407" lon="-0.3302">
        <ele>21.24</ele>
        <time>2025-05-31T16:23:33.538Z</time>
      </trkpt>
      <trkpt lat="49.28403" lon="-0.33007">
        <ele>21.06</ele>
        <time>2025-05-31T16:23:47.129Z</time>
      </trkpt>
      <trkpt lat="49.28391" lon="-0.32962">
        <ele>20.83</ele>
        <time>2025-05-31T16:24:00.725Z</time>
      </trkpt>
      <trkpt lat="49.2838" lon="-0.32917">
        <ele>20.59</ele>
        <time>2025-05-31T16:24:14.326Z</time>
      </trkpt>
      <trkpt lat="49.28379" lon="-0.32914">
        <ele>20.39</ele>
        <time>2025-05-31T16:24:27.928Z</time>
      </trkpt>
      <trkpt lat="49.28368" lon="-0.32869">
        <ele>20.21</ele>
        <time>2025-05-31T16:24:41.535Z</time>
      </trkpt>
      <trkpt lat="49.28358" lon="-0.32823">
        <ele>19.99</ele>
        <time>2025-05-31T16:24:55.147Z</time>
      </trkpt>
      <trkpt lat="49.28355" lon="-0.32811">
        <ele>19.76</ele>
        <time>2025-05-31T16:25:08.760Z</time>
      </trkpt>
      <trkpt lat="49.28354" lon="-0.32793">
        <ele>19.54</ele>
        <time>2025-05-31T16:25:22.375Z</time>
      </trkpt>
      <trkpt lat="49.28342" lon="-0.32748">
        <ele>19.32</ele>
        <time>2025-05-31T16:25:35.995Z</time>
      </trkpt>
      <trkpt lat="49.28331" lon="-0.32704">
        <ele>19.07</ele>
        <time>2025-05-31T16:25:49.620Z</time>
      </trkpt>
      <trkpt lat="49.28327" lon="-0.3269">
        <ele>18.87</ele>
        <time>2025-05-31T16:26:03.247Z</time>
      </trkpt>
      <trkpt lat="49.28315" lon="-0.32646">
        <ele>18.67</ele>
        <time>2025-05-31T16:26:16.879Z</time>
      </trkpt>
      <trkpt lat="49.28311" lon="-0.32632">
        <ele>18.47</ele>
        <time>2025-05-31T16:26:30.512Z</time>
      </trkpt>
      <trkpt lat="49.283" lon="-0.32587">
        <ele>18.3</ele>
        <time>2025-05-31T16:26:44.150Z</time>
      </trkpt>
      <trkpt lat="49.28288" lon="-0.32542">
        <ele>18.18</ele>
        <time>2025-05-31T16:26:57.793Z</time>
      </trkpt>
      <trkpt lat="49.28288" lon="-0.32542">
        <ele>18.03</ele>
        <time>2025-05-31T16:27:11.436Z</time>
      </trkpt>
      <trkpt lat="49.28277" lon="-0.32497">
        <ele>17.88</ele>
        <time>2025-05-31T16:27:25.084Z</time>
      </trkpt>
      <trkpt lat="49.28266" lon="-0.32452">
        <ele>17.73</ele>
        <time>2025-05-31T16:27:38.737Z</time>
      </trkpt>
      <trkpt lat="49.28258" lon="-0.32419">
        <ele>17.62</ele>
        <time>2025-05-31T16:27:52.394Z</time>
      </trkpt>
      <trkpt lat="49.28245" lon="-0.32375">
        <ele>17.55</ele>
        <time>2025-05-31T16:28:06.056Z</time>
      </trkpt>
      <trkpt lat="49.28243" lon="-0.32367">
        <ele>17.45</ele>
        <time>2025-05-31T16:28:19.719Z</time>
      </trkpt>
      <trkpt lat="49.28232" lon="-0.32322">
        <ele>17.36</ele>
        <time>2025-05-31T16:28:33.387Z</time>
      </trkpt>
      <trkpt lat="49.28221" lon="-0.32277">
        <ele>17.22</ele>
        <time>2025-05-31T16:28:47.060Z</time>
      </trkpt>
      <trkpt lat="49.28214" lon="-0.32247">
        <ele>17.15</ele>
        <time>2025-05-31T16:29:00.736Z</time>
      </trkpt>
      <trkpt lat="49.2821" lon="-0.32225">
        <ele>17.06</ele>
        <time>2025-05-31T16:29:14.415Z</time>
      </trkpt>
      <trkpt lat="49.28202" lon="-0.32192">
        <ele>16.96</ele>
        <time>2025-05-31T16:29:28.097Z</time>
      </trkpt>
      <trkpt lat="49.2819" lon="-0.32148">
        <ele>16.84</ele>
        <time>2025-05-31T16:29:41.784Z</time>
      </trkpt>
      <trkpt lat="49.2818" lon="-0.32114">
        <ele>16.75</ele>
        <time>2025-05-31T16:29:55.475Z</time>
      </trkpt>
      <trkpt lat="49.28166" lon="-0.32071">
        <ele>16.68</ele>
        <time>2025-05-31T16:30:09.171Z</time>
      </trkpt>
      <trkpt lat="49.28156" lon="-0.32042">
        <ele>16.59</ele>
        <time>2025-05-31T16:30:22.871Z</time>
      </trkpt>
      <trkpt lat="49.28143" lon="-0.31998">
        <ele>16.49</ele>
        <time>2025-05-31T16:30:36.576Z</time>
      </trkpt>
      <trkpt lat="49.2813" lon="-0.31954">
        <ele>16.35</ele>
        <time>2025-05-31T16:30:50.286Z</time>
      </trkpt>
      <trkpt lat="49.28129" lon="-0.31951">
        <ele>16.29</ele>
        <time>2025-05-31T16:31:03.996Z</time>
      </trkpt>
      <trkpt lat="49.28117" lon="-0.31906">
        <ele>16.21</ele>
        <time>2025-05-31T16:31:17.711Z</time>
      </trkpt>
      <trkpt lat="49.28106" lon="-0.31861">
        <ele>16.13</ele>
        <time>2025-05-31T16:31:31.431Z</time>
      </trkpt>
      <trkpt lat="49.28097" lon="-0.31827">
        <ele>16.1</ele>
        <time>2025-05-31T16:31:45.155Z</time>
      </trkpt>
      <trkpt lat="49.2808" lon="-0.31787">
        <ele>16.08</ele>
        <time>2025-05-31T16:31:58.884Z</time>
      </trkpt>
      <trkpt lat="49.28076" lon="-0.31778">
        <ele>16.07</ele>
        <time>2025-05-31T16:32:12.614Z</time>
      </trkpt>
      <trkpt lat="49.28089" lon="-0.31745">
        <ele>16.06</ele>
        <time>2025-05-31T16:32:26.348Z</time>
      </trkpt>
      <trkpt lat="49.28097" lon="-0.31727">
        <ele>16.06</ele>
        <time>2025-05-31T16:32:40.085Z</time>
      </trkpt>
      <trkpt lat="49.2809" lon="-0.31718">
        <ele>16.03</ele>
        <time>2025-05-31T16:32:53.823Z</time>
      </trkpt>
      <trkpt lat="49.28079" lon="-0.31707">
        <ele>16</ele>
        <time>2025-05-31T16:33:07.563Z</time>
      </trkpt>
      <trkpt lat="49.28068" lon="-0.31692">
        <ele>16</ele>
        <time>2025-05-31T16:33:21.306Z</time>
      </trkpt>
      <trkpt lat="49.28055" lon="-0.31648">
        <ele>15.98</ele>
        <time>2025-05-31T16:33:35.054Z</time>
      </trkpt>
      <trkpt lat="49.28043" lon="-0.31605">
        <ele>15.98</ele>
        <time>2025-05-31T16:33:48.807Z</time>
      </trkpt>
      <trkpt lat="49.28032" lon="-0.3156">
        <ele>15.93</ele>
        <time>2025-05-31T16:34:02.565Z</time>
      </trkpt>
      <trkpt lat="49.28022" lon="-0.31514">
        <ele>15.88</ele>
        <time>2025-05-31T16:34:16.328Z</time>
      </trkpt>
      <trkpt lat="49.28011" lon="-0.31469">
        <ele>15.84</ele>
        <time>2025-05-31T16:34:30.096Z</time>
      </trkpt>
      <trkpt lat="49.28011" lon="-0.31468">
        <ele>15.82</ele>
        <time>2025-05-31T16:34:43.864Z</time>
      </trkpt>
      <trkpt lat="49.28001" lon="-0.31423">
        <ele>15.81</ele>
        <time>2025-05-31T16:34:57.637Z</time>
      </trkpt>
      <trkpt lat="49.27992" lon="-0.31385">
        <ele>15.82</ele>
        <time>2025-05-31T16:35:11.414Z</time>
      </trkpt>
      <trkpt lat="49.2798" lon="-0.31341">
        <ele>15.83</ele>
        <time>2025-05-31T16:35:25.196Z</time>
      </trkpt>
      <trkpt lat="49.27968" lon="-0.31296">
        <ele>15.8</ele>
        <time>2025-05-31T16:35:38.983Z</time>
      </trkpt>
      <trkpt lat="49.27963" lon="-0.31278">
        <ele>15.77</ele>
        <time>2025-05-31T16:35:52.772Z</time>
      </trkpt>
      <trkpt lat="49.2795" lon="-0.31234">
        <ele>15.76</ele>
        <time>2025-05-31T16:36:06.566Z</time>
      </trkpt>
      <trkpt lat="49.27938" lon="-0.3119">
        <ele>15.73</ele>
        <time>2025-05-31T16:36:20.365Z</time>
      </trkpt>
      <trkpt lat="49.27936" lon="-0.31184">
        <ele>15.69</ele>
        <time>2025-05-31T16:36:34.165Z</time>
      </trkpt>
      <trkpt lat="49.27924" lon="-0.3114">
        <ele>15.62</ele>
        <time>2025-05-31T16:36:47.970Z</time>
      </trkpt>
      <trkpt lat="49.27912" lon="-0.31095">
        <ele>15.55</ele>
        <time>2025-05-31T16:37:01.780Z</time>
      </trkpt>
      <trkpt lat="49.27904" lon="-0.31066">
        <ele>15.49</ele>
        <time>2025-05-31T16:37:15.593Z</time>
      </trkpt>
      <trkpt lat="49.27892" lon="-0.31022">
        <ele>15.39</ele>
        <time>2025-05-31T16:37:29.411Z</time>
      </trkpt>
      <trkpt lat="49.2788" lon="-0.30977">
        <ele>15.3</ele>
        <time>2025-05-31T16:37:43.234Z</time>
      </trkpt>
      <trkpt lat="49.27868" lon="-0.30933">
        <ele>15.21</ele>
        <time>2025-05-31T16:37:57.062Z</time>
      </trkpt>
      <trkpt lat="49.27855" lon="-0.30889">
        <ele>15.13</ele>
        <time>2025-05-31T16:38:10.895Z</time>
      </trkpt>
      <trkpt lat="49.27843" lon="-0.30844">
        <ele>15.07</ele>
        <time>2025-05-31T16:38:24.734Z</time>
      </trkpt>
      <trkpt lat="49.27831" lon="-0.308">
        <ele>15.09</ele>
        <time>2025-05-31T16:38:38.578Z</time>
      </trkpt>
      <trkpt lat="49.27819" lon="-0.30755">
        <ele>15.05</ele>
        <time>2025-05-31T16:38:52.427Z</time>
      </trkpt>
      <trkpt lat="49.27807" lon="-0.30711">
        <ele>14.97</ele>
        <time>2025-05-31T16:39:06.281Z</time>
      </trkpt>
      <trkpt lat="49.27801" lon="-0.3069">
        <ele>14.91</ele>
        <time>2025-05-31T16:39:20.137Z</time>
      </trkpt>
      <trkpt lat="49.27791" lon="-0.30645">
        <ele>14.88</ele>
        <time>2025-05-31T16:39:33.998Z</time>
      </trkpt>
      <trkpt lat="49.2778" lon="-0.30599">
        <ele>14.85</ele>
        <time>2025-05-31T16:39:47.864Z</time>
      </trkpt>
      <trkpt lat="49.2777" lon="-0.30554">
        <ele>14.8</ele>
        <time>2025-05-31T16:40:01.735Z</time>
      </trkpt>
      <trkpt lat="49.27759" lon="-0.30508">
        <ele>14.79</ele>
        <time>2025-05-31T16:40:15.611Z</time>
      </trkpt>
      <trkpt lat="49.27755" lon="-0.3049">
        <ele>14.79</ele>
        <time>2025-05-31T16:40:29.489Z</time>
      </trkpt>
      <trkpt lat="49.27745" lon="-0.30445">
        <ele>14.74</ele>
        <time>2025-05-31T16:40:43.372Z</time>
      </trkpt>
      <trkpt lat="49.27743" lon="-0.30438">
        <ele>14.73</ele>
        <time>2025-05-31T16:40:57.256Z</time>
      </trkpt>
      <trkpt lat="49.27734" lon="-0.30394">
        <ele>14.69</ele>
        <time>2025-05-31T16:41:11.145Z</time>
      </trkpt>
      <trkpt lat="49.27735" lon="-0.30382">
        <ele>14.7</ele>
        <time>2025-05-31T16:41:25.035Z</time>
      </trkpt>
      <trkpt lat="49.27722" lon="-0.30369">
        <ele>14.72</ele>
        <time>2025-05-31T16:41:38.928Z</time>
      </trkpt>
      <trkpt lat="49.27711" lon="-0.30356">
        <ele>14.76</ele>
        <time>2025-05-31T16:41:52.823Z</time>
      </trkpt>
      <trkpt lat="49.27683" lon="-0.30334">
        <ele>14.84</ele>
        <time>2025-05-31T16:42:06.723Z</time>
      </trkpt>
      <trkpt lat="49.27655" lon="-0.30313">
        <ele>14.89</ele>
        <time>2025-05-31T16:42:20.628Z</time>
      </trkpt>
      <trkpt lat="49.27627" lon="-0.30291">
        <ele>14.97</ele>
        <time>2025-05-31T16:42:34.538Z</time>
      </trkpt>
      <trkpt lat="49.27618" lon="-0.30284">
        <ele>15.06</ele>
        <time>2025-05-31T16:42:48.450Z</time>
      </trkpt>
      <trkpt lat="49.2759" lon="-0.30262">
        <ele>15.14</ele>
        <time>2025-05-31T16:43:02.367Z</time>
      </trkpt>
      <trkpt lat="49.27563" lon="-0.3024">
        <ele>15.28</ele>
        <time>2025-05-31T16:43:16.288Z</time>
      </trkpt>
      <trkpt lat="49.27535" lon="-0.30219">
        <ele>15.38</ele>
        <time>2025-05-31T16:43:30.214Z</time>
      </trkpt>
      <trkpt lat="49.27511" lon="-0.30202">
        <ele>15.45</ele>
        <time>2025-05-31T16:43:44.145Z</time>
      </trkpt>
      <trkpt lat="49.275" lon="-0.30196">
        <ele>15.56</ele>
        <time>2025-05-31T16:43:58.078Z</time>
      </trkpt>
      <trkpt lat="49.2747" lon="-0.30183">
        <ele>15.73</ele>
        <time>2025-05-31T16:44:12.016Z</time>
      </trkpt>
      <trkpt lat="49.27453" lon="-0.30176">
        <ele>15.85</ele>
        <time>2025-05-31T16:44:25.956Z</time>
      </trkpt>
      <trkpt lat="49.27441" lon="-0.30178">
        <ele>15.98</ele>
        <time>2025-05-31T16:44:39.898Z</time>
      </trkpt>
      <trkpt lat="49.2741" lon="-0.30173">
        <ele>16.13</ele>
        <time>2025-05-31T16:44:53.845Z</time>
      </trkpt>
      <trkpt lat="49.274" lon="-0.30171">
        <ele>16.31</ele>
        <time>2025-05-31T16:45:07.794Z</time>
      </trkpt>
      <trkpt lat="49.27392" lon="-0.30167">
        <ele>16.48</ele>
        <time>2025-05-31T16:45:21.744Z</time>
      </trkpt>
      <trkpt lat="49.27361" lon="-0.30159">
        <ele>16.69</ele>
        <time>2025-05-31T16:45:35.699Z</time>
      </trkpt>
      <trkpt lat="49.27347" lon="-0.30156">
        <ele>16.89</ele>
        <time>2025-05-31T16:45:49.657Z</time>
      </trkpt>
      <trkpt lat="49.27328" lon="-0.30152">
        <ele>17.11</ele>
        <time>2025-05-31T16:46:03.618Z</time>
      </trkpt>
      <trkpt lat="49.27316" lon="-0.30141">
        <ele>17.31</ele>
        <time>2025-05-31T16:46:17.581Z</time>
      </trkpt>
      <trkpt lat="49.27311" lon="-0.30132">
        <ele>17.51</ele>
        <time>2025-05-31T16:46:31.545Z</time>
      </trkpt>
      <trkpt lat="49.27299" lon="-0.30101">
        <ele>17.69</ele>
        <time>2025-05-31T16:46:45.513Z</time>
      </trkpt>
      <trkpt lat="49.27283" lon="-0.30059">
        <ele>17.92</ele>
        <time>2025-05-31T16:46:59.486Z</time>
      </trkpt>
      <trkpt lat="49.27267" lon="-0.30018">
        <ele>18.25</ele>
        <time>2025-05-31T16:47:13.464Z</time>
      </trkpt>
      <trkpt lat="49.27255" lon="-0.29986">
        <ele>18.59</ele>
        <time>2025-05-31T16:47:27.446Z</time>
      </trkpt>
      <trkpt lat="49.27237" lon="-0.29947">
        <ele>18.92</ele>
        <time>2025-05-31T16:47:41.433Z</time>
      </trkpt>
      <trkpt lat="49.27223" lon="-0.29928">
        <ele>19.21</ele>
        <time>2025-05-31T16:47:55.423Z</time>
      </trkpt>
      <trkpt lat="49.27195" lon="-0.29907">
        <ele>19.48</ele>
        <time>2025-05-31T16:48:09.418Z</time>
      </trkpt>
      <trkpt lat="49.27189" lon="-0.29903">
        <ele>19.73</ele>
        <time>2025-05-31T16:48:23.414Z</time>
      </trkpt>
      <trkpt lat="49.27159" lon="-0.29886">
        <ele>19.91</ele>
        <time>2025-05-31T16:48:37.415Z</time>
      </trkpt>
      <trkpt lat="49.27148" lon="-0.2988">
        <ele>20.1</ele>
        <time>2025-05-31T16:48:51.418Z</time>
      </trkpt>
      <trkpt lat="49.27119" lon="-0.29863">
        <ele>20.28</ele>
        <time>2025-05-31T16:49:05.426Z</time>
      </trkpt>
      <trkpt lat="49.27089" lon="-0.29846">
        <ele>20.55</ele>
        <time>2025-05-31T16:49:19.439Z</time>
      </trkpt>
      <trkpt lat="49.2706" lon="-0.29828">
        <ele>20.8</ele>
        <time>2025-05-31T16:49:33.457Z</time>
      </trkpt>
      <trkpt lat="49.27056" lon="-0.29826">
        <ele>21.06</ele>
        <time>2025-05-31T16:49:47.476Z</time>
      </trkpt>
      <trkpt lat="49.27044" lon="-0.29825">
        <ele>21.3</ele>
        <time>2025-05-31T16:50:01.497Z</time>
      </trkpt>
      <trkpt lat="49.27015" lon="-0.29808">
        <ele>21.5</ele>
        <time>2025-05-31T16:50:15.523Z</time>
      </trkpt>
      <trkpt lat="49.27001" lon="-0.298">
        <ele>21.82</ele>
        <time>2025-05-31T16:50:29.551Z</time>
      </trkpt>
      <trkpt lat="49.26972" lon="-0.29782">
        <ele>22.14</ele>
        <time>2025-05-31T16:50:43.584Z</time>
      </trkpt>
      <trkpt lat="49.26964" lon="-0.29777">
        <ele>22.46</ele>
        <time>2025-05-31T16:50:57.618Z</time>
      </trkpt>
      <trkpt lat="49.26935" lon="-0.29758">
        <ele>22.82</ele>
        <time>2025-05-31T16:51:11.657Z</time>
      </trkpt>
      <trkpt lat="49.26935" lon="-0.29758">
        <ele>23.15</ele>
        <time>2025-05-31T16:51:25.696Z</time>
      </trkpt>
      <trkpt lat="49.2693" lon="-0.29754">
        <ele>23.49</ele>
        <time>2025-05-31T16:51:39.736Z</time>
      </trkpt>
      <trkpt lat="49.26926" lon="-0.29747">
        <ele>23.84</ele>
        <time>2025-05-31T16:51:53.777Z</time>
      </trkpt>
      <trkpt lat="49.26906" lon="-0.29736">
        <ele>24.21</ele>
        <time>2025-05-31T16:52:07.822Z</time>
      </trkpt>
      <trkpt lat="49.26877" lon="-0.29718">
        <ele>24.6</ele>
        <time>2025-05-31T16:52:21.872Z</time>
      </trkpt>
      <trkpt lat="49.26848" lon="-0.297">
        <ele>25.01</ele>
        <time>2025-05-31T16:52:35.927Z</time>
      </trkpt>
      <trkpt lat="49.26828" lon="-0.29688">
        <ele>25.43</ele>
        <time>2025-05-31T16:52:49.985Z</time>
      </trkpt>
      <trkpt lat="49.26799" lon="-0.29671">
        <ele>25.87</ele>
        <time>2025-05-31T16:53:04.048Z</time>
      </trkpt>
      <trkpt lat="49.26769" lon="-0.29653">
        <ele>26.33</ele>
        <time>2025-05-31T16:53:18.116Z</time>
      </trkpt>
      <trkpt lat="49.2676" lon="-0.29648">
        <ele>26.8</ele>
        <time>2025-05-31T16:53:32.186Z</time>
      </trkpt>
      <trkpt lat="49.26731" lon="-0.2963">
        <ele>27.33</ele>
        <time>2025-05-31T16:53:46.261Z</time>
      </trkpt>
      <trkpt lat="49.26702" lon="-0.29612">
        <ele>27.8</ele>
        <time>2025-05-31T16:54:00.341Z</time>
      </trkpt>
      <trkpt lat="49.26672" lon="-0.29595">
        <ele>28.26</ele>
        <time>2025-05-31T16:54:14.426Z</time>
      </trkpt>
      <trkpt lat="49.26643" lon="-0.29577">
        <ele>28.78</ele>
        <time>2025-05-31T16:54:28.516Z</time>
      </trkpt>
      <trkpt lat="49.26622" lon="-0.29564">
        <ele>29.3</ele>
        <time>2025-05-31T16:54:42.610Z</time>
      </trkpt>
      <trkpt lat="49.26593" lon="-0.29547">
        <ele>29.8</ele>
        <time>2025-05-31T16:54:56.709Z</time>
      </trkpt>
      <trkpt lat="49.26563" lon="-0.2953">
        <ele>30.24</ele>
        <time>2025-05-31T16:55:10.813Z</time>
      </trkpt>
      <trkpt lat="49.26534" lon="-0.29513">
        <ele>30.7</ele>
        <time>2025-05-31T16:55:24.922Z</time>
      </trkpt>
      <trkpt lat="49.2652" lon="-0.29505">
        <ele>31.21</ele>
        <time>2025-05-31T16:55:39.033Z</time>
      </trkpt>
      <trkpt lat="49.26491" lon="-0.29487">
        <ele>31.77</ele>
        <time>2025-05-31T16:55:53.149Z</time>
      </trkpt>
      <trkpt lat="49.26474" lon="-0.29476">
        <ele>32.27</ele>
        <time>2025-05-31T16:56:07.268Z</time>
      </trkpt>
      <trkpt lat="49.26446" lon="-0.29455">
        <ele>32.79</ele>
        <time>2025-05-31T16:56:21.392Z</time>
      </trkpt>
      <trkpt lat="49.26434" lon="-0.29446">
        <ele>33.26</ele>
        <time>2025-05-31T16:56:35.518Z</time>
      </trkpt>
      <trkpt lat="49.26407" lon="-0.29421">
        <ele>33.73</ele>
        <time>2025-05-31T16:56:49.649Z</time>
      </trkpt>
      <trkpt lat="49.2638" lon="-0.29396">
        <ele>34.24</ele>
        <time>2025-05-31T16:57:03.785Z</time>
      </trkpt>
      <trkpt lat="49.26372" lon="-0.29389">
        <ele>34.69</ele>
        <time>2025-05-31T16:57:17.923Z</time>
      </trkpt>
      <trkpt lat="49.26344" lon="-0.29367">
        <ele>35.2</ele>
        <time>2025-05-31T16:57:32.066Z</time>
      </trkpt>
      <trkpt lat="49.26331" lon="-0.29357">
        <ele>35.63</ele>
        <time>2025-05-31T16:57:46.211Z</time>
      </trkpt>
      <trkpt lat="49.26302" lon="-0.29338">
        <ele>36.01</ele>
        <time>2025-05-31T16:58:00.361Z</time>
      </trkpt>
      <trkpt lat="49.26292" lon="-0.29331">
        <ele>36.37</ele>
        <time>2025-05-31T16:58:14.513Z</time>
      </trkpt>
      <trkpt lat="49.26283" lon="-0.29323">
        <ele>36.69</ele>
        <time>2025-05-31T16:58:28.667Z</time>
      </trkpt>
      <trkpt lat="49.26265" lon="-0.293">
        <ele>37.04</ele>
        <time>2025-05-31T16:58:42.824Z</time>
      </trkpt>
      <trkpt lat="49.26261" lon="-0.29293">
        <ele>37.32</ele>
        <time>2025-05-31T16:58:56.982Z</time>
      </trkpt>
      <trkpt lat="49.26241" lon="-0.29256">
        <ele>37.59</ele>
        <time>2025-05-31T16:59:11.145Z</time>
      </trkpt>
      <trkpt lat="49.26241" lon="-0.29255">
        <ele>37.82</ele>
        <time>2025-05-31T16:59:25.308Z</time>
      </trkpt>
      <trkpt lat="49.26236" lon="-0.29236">
        <ele>38.03</ele>
        <time>2025-05-31T16:59:39.474Z</time>
      </trkpt>
      <trkpt lat="49.26234" lon="-0.29204">
        <ele>38.21</ele>
        <time>2025-05-31T16:59:53.643Z</time>
      </trkpt>
      <trkpt lat="49.26237" lon="-0.29177">
        <ele>38.36</ele>
        <time>2025-05-31T17:00:07.815Z</time>
      </trkpt>
      <trkpt lat="49.26243" lon="-0.2913">
        <ele>38.5</ele>
        <time>2025-05-31T17:00:21.992Z</time>
      </trkpt>
      <trkpt lat="49.26249" lon="-0.29083">
        <ele>38.62</ele>
        <time>2025-05-31T17:00:36.174Z</time>
      </trkpt>
      <trkpt lat="49.26249" lon="-0.29082">
        <ele>38.73</ele>
        <time>2025-05-31T17:00:50.356Z</time>
      </trkpt>
      <trkpt lat="49.26249" lon="-0.29069">
        <ele>38.82</ele>
        <time>2025-05-31T17:01:04.539Z</time>
      </trkpt>
      <trkpt lat="49.26241" lon="-0.29034">
        <ele>38.9</ele>
        <time>2025-05-31T17:01:18.726Z</time>
      </trkpt>
      <trkpt lat="49.26227" lon="-0.28991">
        <ele>38.97</ele>
        <time>2025-05-31T17:01:32.918Z</time>
      </trkpt>
      <trkpt lat="49.26212" lon="-0.28948">
        <ele>39.03</ele>
        <time>2025-05-31T17:01:47.115Z</time>
      </trkpt>
      <trkpt lat="49.26206" lon="-0.2893">
        <ele>39.07</ele>
        <time>2025-05-31T17:02:01.315Z</time>
      </trkpt>
      <trkpt lat="49.2619" lon="-0.28889">
        <ele>39.1</ele>
        <time>2025-05-31T17:02:15.520Z</time>
      </trkpt>
      <trkpt lat="49.26183" lon="-0.28871">
        <ele>39.13</ele>
        <time>2025-05-31T17:02:29.727Z</time>
      </trkpt>
      <trkpt lat="49.26164" lon="-0.28832">
        <ele>39.15</ele>
        <time>2025-05-31T17:02:43.939Z</time>
      </trkpt>
      <trkpt lat="49.26163" lon="-0.2883">
        <ele>39.17</ele>
        <time>2025-05-31T17:02:58.151Z</time>
      </trkpt>
      <trkpt lat="49.26144" lon="-0.28792">
        <ele>39.21</ele>
        <time>2025-05-31T17:03:12.368Z</time>
      </trkpt>
      <trkpt lat="49.26136" lon="-0.28777">
        <ele>39.21</ele>
        <time>2025-05-31T17:03:26.587Z</time>
      </trkpt>
      <trkpt lat="49.26119" lon="-0.28749">
        <ele>39.22</ele>
        <time>2025-05-31T17:03:40.810Z</time>
      </trkpt>
      <trkpt lat="49.26118" lon="-0.28749">
        <ele>39.23</ele>
        <time>2025-05-31T17:03:55.033Z</time>
      </trkpt>
      <trkpt lat="49.26117" lon="-0.28749">
        <ele>39.24</ele>
        <time>2025-05-31T17:04:09.256Z</time>
      </trkpt>
      <trkpt lat="49.26116" lon="-0.28749">
        <ele>39.25</ele>
        <time>2025-05-31T17:04:23.480Z</time>
      </trkpt>
      <trkpt lat="49.26114" lon="-0.28748">
        <ele>39.26</ele>
        <time>2025-05-31T17:04:37.704Z</time>
      </trkpt>
      <trkpt lat="49.26113" lon="-0.28745">
        <ele>39.27</ele>
        <time>2025-05-31T17:04:51.928Z</time>
      </trkpt>
      <trkpt lat="49.26113" lon="-0.28741">
        <ele>39.28</ele>
        <time>2025-05-31T17:05:06.153Z</time>
      </trkpt>
      <trkpt lat="49.26114" lon="-0.28739">
        <ele>39.29</ele>
        <time>2025-05-31T17:05:20.378Z</time>
      </trkpt>
      <trkpt lat="49.26114" lon="-0.28738">
        <ele>39.31</ele>
        <time>2025-05-31T17:05:34.603Z</time>
      </trkpt>
      <trkpt lat="49.26098" lon="-0.28722">
        <ele>39.33</ele>
        <time>2025-05-31T17:05:48.831Z</time>
      </trkpt>
      <trkpt lat="49.26074" lon="-0.28695">
        <ele>39.35</ele>
        <time>2025-05-31T17:06:03.064Z</time>
      </trkpt>
      <trkpt lat="49.26049" lon="-0.28665">
        <ele>39.43</ele>
        <time>2025-05-31T17:06:17.302Z</time>
      </trkpt>
      <trkpt lat="49.26034" lon="-0.28647">
        <ele>39.49</ele>
        <time>2025-05-31T17:06:31.543Z</time>
      </trkpt>
      <trkpt lat="49.26019" lon="-0.2863">
        <ele>39.5</ele>
        <time>2025-05-31T17:06:45.787Z</time>
      </trkpt>
      <trkpt lat="49.25999" lon="-0.28607">
        <ele>39.48</ele>
        <time>2025-05-31T17:07:00.035Z</time>
      </trkpt>
      <trkpt lat="49.25989" lon="-0.2859">
        <ele>39.47</ele>
        <time>2025-05-31T17:07:14.285Z</time>
      </trkpt>
      <trkpt lat="49.25969" lon="-0.28554">
        <ele>39.46</ele>
        <time>2025-05-31T17:07:28.540Z</time>
      </trkpt>
      <trkpt lat="49.25953" lon="-0.28526">
        <ele>39.48</ele>
        <time>2025-05-31T17:07:42.799Z</time>
      </trkpt>
      <trkpt lat="49.25948" lon="-0.28522">
        <ele>39.46</ele>
        <time>2025-05-31T17:07:57.059Z</time>
      </trkpt>
      <trkpt lat="49.25926" lon="-0.28487">
        <ele>39.4</ele>
        <time>2025-05-31T17:08:11.324Z</time>
      </trkpt>
      <trkpt lat="49.25924" lon="-0.28484">
        <ele>39.36</ele>
        <time>2025-05-31T17:08:25.590Z</time>
      </trkpt>
      <trkpt lat="49.25913" lon="-0.28474">
        <ele>39.31</ele>
        <time>2025-05-31T17:08:39.858Z</time>
      </trkpt>
      <trkpt lat="49.25884" lon="-0.28455">
        <ele>39.29</ele>
        <time>2025-05-31T17:08:54.131Z</time>
      </trkpt>
      <trkpt lat="49.2588" lon="-0.28452">
        <ele>39.24</ele>
        <time>2025-05-31T17:09:08.405Z</time>
      </trkpt>
      <trkpt lat="49.25869" lon="-0.28444">
        <ele>39.19</ele>
        <time>2025-05-31T17:09:22.680Z</time>
      </trkpt>
      <trkpt lat="49.2584" lon="-0.28425">
        <ele>39.13</ele>
        <time>2025-05-31T17:09:36.961Z</time>
      </trkpt>
      <trkpt lat="49.25829" lon="-0.28418">
        <ele>39.01</ele>
        <time>2025-05-31T17:09:51.243Z</time>
      </trkpt>
      <trkpt lat="49.258" lon="-0.284">
        <ele>38.82</ele>
        <time>2025-05-31T17:10:05.530Z</time>
      </trkpt>
      <trkpt lat="49.2577" lon="-0.28383">
        <ele>38.75</ele>
        <time>2025-05-31T17:10:19.823Z</time>
      </trkpt>
      <trkpt lat="49.25741" lon="-0.28365">
        <ele>38.6</ele>
        <time>2025-05-31T17:10:34.121Z</time>
      </trkpt>
      <trkpt lat="49.25712" lon="-0.28348">
        <ele>38.45</ele>
        <time>2025-05-31T17:10:48.424Z</time>
      </trkpt>
      <trkpt lat="49.25707" lon="-0.28345">
        <ele>38.31</ele>
        <time>2025-05-31T17:11:02.727Z</time>
      </trkpt>
      <trkpt lat="49.25677" lon="-0.2833">
        <ele>38.18</ele>
        <time>2025-05-31T17:11:17.035Z</time>
      </trkpt>
      <trkpt lat="49.25647" lon="-0.28314">
        <ele>38.06</ele>
        <time>2025-05-31T17:11:31.349Z</time>
      </trkpt>
      <trkpt lat="49.25622" lon="-0.28301">
        <ele>37.86</ele>
        <time>2025-05-31T17:11:45.667Z</time>
      </trkpt>
      <trkpt lat="49.25592" lon="-0.28286">
        <ele>37.66</ele>
        <time>2025-05-31T17:11:59.990Z</time>
      </trkpt>
      <trkpt lat="49.25562" lon="-0.2827">
        <ele>37.41</ele>
        <time>2025-05-31T17:12:14.318Z</time>
      </trkpt>
      <trkpt lat="49.25533" lon="-0.28255">
        <ele>37.18</ele>
        <time>2025-05-31T17:12:28.651Z</time>
      </trkpt>
      <trkpt lat="49.25511" lon="-0.28244">
        <ele>36.96</ele>
        <time>2025-05-31T17:12:42.988Z</time>
      </trkpt>
      <trkpt lat="49.25481" lon="-0.28228">
        <ele>36.72</ele>
        <time>2025-05-31T17:12:57.330Z</time>
      </trkpt>
      <trkpt lat="49.25452" lon="-0.28212">
        <ele>36.47</ele>
        <time>2025-05-31T17:13:11.677Z</time>
      </trkpt>
      <trkpt lat="49.25422" lon="-0.28197">
        <ele>36.25</ele>
        <time>2025-05-31T17:13:26.029Z</time>
      </trkpt>
      <trkpt lat="49.254" lon="-0.28185">
        <ele>36.02</ele>
        <time>2025-05-31T17:13:40.384Z</time>
      </trkpt>
      <trkpt lat="49.25371" lon="-0.28166">
        <ele>35.74</ele>
        <time>2025-05-31T17:13:54.744Z</time>
      </trkpt>
      <trkpt lat="49.25342" lon="-0.28146">
        <ele>35.41</ele>
        <time>2025-05-31T17:14:09.109Z</time>
      </trkpt>
      <trkpt lat="49.25314" lon="-0.28127">
        <ele>35.07</ele>
        <time>2025-05-31T17:14:23.480Z</time>
      </trkpt>
      <trkpt lat="49.25285" lon="-0.28107">
        <ele>34.74</ele>
        <time>2025-05-31T17:14:37.856Z</time>
      </trkpt>
      <trkpt lat="49.25276" lon="-0.28101">
        <ele>34.42</ele>
        <time>2025-05-31T17:14:52.233Z</time>
      </trkpt>
      <trkpt lat="49.25247" lon="-0.28081">
        <ele>34.11</ele>
        <time>2025-05-31T17:15:06.615Z</time>
      </trkpt>
      <trkpt lat="49.25219" lon="-0.28061">
        <ele>33.82</ele>
        <time>2025-05-31T17:15:21.002Z</time>
      </trkpt>
      <trkpt lat="49.2519" lon="-0.28041">
        <ele>33.53</ele>
        <time>2025-05-31T17:15:35.394Z</time>
      </trkpt>
      <trkpt lat="49.25171" lon="-0.28027">
        <ele>33.15</ele>
        <time>2025-05-31T17:15:49.790Z</time>
      </trkpt>
      <trkpt lat="49.25142" lon="-0.28009">
        <ele>32.75</ele>
        <time>2025-05-31T17:16:04.191Z</time>
      </trkpt>
      <trkpt lat="49.25135" lon="-0.28005">
        <ele>32.4</ele>
        <time>2025-05-31T17:16:18.593Z</time>
      </trkpt>
      <trkpt lat="49.25106" lon="-0.27987">
        <ele>32.04</ele>
        <time>2025-05-31T17:16:33.000Z</time>
      </trkpt>
      <trkpt lat="49.25091" lon="-0.27978">
        <ele>31.71</ele>
        <time>2025-05-31T17:16:47.409Z</time>
      </trkpt>
      <trkpt lat="49.25083" lon="-0.27975">
        <ele>31.36</ele>
        <time>2025-05-31T17:17:01.820Z</time>
      </trkpt>
      <trkpt lat="49.25074" lon="-0.27973">
        <ele>31</ele>
        <time>2025-05-31T17:17:16.232Z</time>
      </trkpt>
      <trkpt lat="49.25066" lon="-0.27976">
        <ele>30.64</ele>
        <time>2025-05-31T17:17:30.646Z</time>
      </trkpt>
      <trkpt lat="49.25042" lon="-0.27997">
        <ele>30.26</ele>
        <time>2025-05-31T17:17:45.064Z</time>
      </trkpt>
      <trkpt lat="49.25032" lon="-0.28002">
        <ele>29.9</ele>
        <time>2025-05-31T17:17:59.484Z</time>
      </trkpt>
      <trkpt lat="49.25013" lon="-0.28007">
        <ele>29.53</ele>
        <time>2025-05-31T17:18:13.907Z</time>
      </trkpt>
      <trkpt lat="49.25002" lon="-0.28007">
        <ele>29.17</ele>
        <time>2025-05-31T17:18:28.331Z</time>
      </trkpt>
      <trkpt lat="49.24974" lon="-0.28017">
        <ele>28.82</ele>
        <time>2025-05-31T17:18:42.760Z</time>
      </trkpt>
      <trkpt lat="49.24956" lon="-0.2802">
        <ele>28.47</ele>
        <time>2025-05-31T17:18:57.192Z</time>
      </trkpt>
      <trkpt lat="49.24927" lon="-0.2802">
        <ele>28.12</ele>
        <time>2025-05-31T17:19:11.629Z</time>
      </trkpt>
      <trkpt lat="49.24909" lon="-0.28023">
        <ele>27.79</ele>
        <time>2025-05-31T17:19:26.069Z</time>
      </trkpt>
      <trkpt lat="49.24887" lon="-0.28023">
        <ele>27.44</ele>
        <time>2025-05-31T17:19:40.512Z</time>
      </trkpt>
      <trkpt lat="49.24878" lon="-0.28026">
        <ele>27.11</ele>
        <time>2025-05-31T17:19:54.957Z</time>
      </trkpt>
      <trkpt lat="49.24871" lon="-0.28032">
        <ele>26.8</ele>
        <time>2025-05-31T17:20:09.403Z</time>
      </trkpt>
      <trkpt lat="49.24862" lon="-0.28048">
        <ele>26.5</ele>
        <time>2025-05-31T17:20:23.851Z</time>
      </trkpt>
      <trkpt lat="49.24852" lon="-0.28068">
        <ele>26.18</ele>
        <time>2025-05-31T17:20:38.302Z</time>
      </trkpt>
      <trkpt lat="49.24838" lon="-0.28111">
        <ele>25.86</ele>
        <time>2025-05-31T17:20:52.758Z</time>
      </trkpt>
      <trkpt lat="49.24825" lon="-0.28155">
        <ele>25.57</ele>
        <time>2025-05-31T17:21:07.219Z</time>
      </trkpt>
      <trkpt lat="49.24811" lon="-0.28198">
        <ele>25.23</ele>
        <time>2025-05-31T17:21:21.685Z</time>
      </trkpt>
      <trkpt lat="49.24798" lon="-0.28241">
        <ele>24.9</ele>
        <time>2025-05-31T17:21:36.156Z</time>
      </trkpt>
      <trkpt lat="49.24797" lon="-0.28243">
        <ele>24.61</ele>
        <time>2025-05-31T17:21:50.627Z</time>
      </trkpt>
      <trkpt lat="49.24796" lon="-0.28264">
        <ele>24.29</ele>
        <time>2025-05-31T17:22:05.100Z</time>
      </trkpt>
      <trkpt lat="49.24793" lon="-0.28285">
        <ele>23.99</ele>
        <time>2025-05-31T17:22:19.575Z</time>
      </trkpt>
      <trkpt lat="49.24793" lon="-0.28302">
        <ele>23.7</ele>
        <time>2025-05-31T17:22:34.052Z</time>
      </trkpt>
      <trkpt lat="49.24796" lon="-0.28321">
        <ele>23.42</ele>
        <time>2025-05-31T17:22:48.531Z</time>
      </trkpt>
      <trkpt lat="49.24799" lon="-0.28331">
        <ele>23.15</ele>
        <time>2025-05-31T17:23:03.011Z</time>
      </trkpt>
      <trkpt lat="49.24812" lon="-0.28361">
        <ele>22.89</ele>
        <time>2025-05-31T17:23:17.495Z</time>
      </trkpt>
      <trkpt lat="49.24823" lon="-0.28396">
        <ele>22.63</ele>
        <time>2025-05-31T17:23:31.983Z</time>
      </trkpt>
      <trkpt lat="49.24825" lon="-0.28429">
        <ele>22.34</ele>
        <time>2025-05-31T17:23:46.475Z</time>
      </trkpt>
      <trkpt lat="49.2482" lon="-0.28458">
        <ele>22.02</ele>
        <time>2025-05-31T17:24:00.970Z</time>
      </trkpt>
      <trkpt lat="49.24808" lon="-0.28483">
        <ele>21.7</ele>
        <time>2025-05-31T17:24:15.468Z</time>
      </trkpt>
      <trkpt lat="49.24797" lon="-0.28496">
        <ele>21.36</ele>
        <time>2025-05-31T17:24:29.968Z</time>
      </trkpt>
      <trkpt lat="49.24784" lon="-0.28502">
        <ele>20.99</ele>
        <time>2025-05-31T17:24:44.471Z</time>
      </trkpt>
      <trkpt lat="49.2477" lon="-0.28502">
        <ele>20.62</ele>
        <time>2025-05-31T17:24:58.976Z</time>
      </trkpt>
      <trkpt lat="49.24756" lon="-0.28494">
        <ele>20.28</ele>
        <time>2025-05-31T17:25:13.483Z</time>
      </trkpt>
      <trkpt lat="49.24746" lon="-0.28484">
        <ele>19.93</ele>
        <time>2025-05-31T17:25:27.992Z</time>
      </trkpt>
      <trkpt lat="49.24719" lon="-0.28464">
        <ele>19.54</ele>
        <time>2025-05-31T17:25:42.506Z</time>
      </trkpt>
      <trkpt lat="49.24691" lon="-0.28443">
        <ele>19.19</ele>
        <time>2025-05-31T17:25:57.025Z</time>
      </trkpt>
      <trkpt lat="49.2467" lon="-0.28427">
        <ele>18.79</ele>
        <time>2025-05-31T17:26:11.548Z</time>
      </trkpt>
      <trkpt lat="49.24642" lon="-0.28406">
        <ele>18.41</ele>
        <time>2025-05-31T17:26:26.076Z</time>
      </trkpt>
      <trkpt lat="49.24614" lon="-0.28384">
        <ele>18.06</ele>
        <time>2025-05-31T17:26:40.609Z</time>
      </trkpt>
      <trkpt lat="49.24612" lon="-0.28383">
        <ele>17.72</ele>
        <time>2025-05-31T17:26:55.142Z</time>
      </trkpt>
      <trkpt lat="49.24585" lon="-0.28359">
        <ele>17.4</ele>
        <time>2025-05-31T17:27:09.680Z</time>
      </trkpt>
      <trkpt lat="49.24565" lon="-0.28342">
        <ele>17.07</ele>
        <time>2025-05-31T17:27:24.222Z</time>
      </trkpt>
      <trkpt lat="49.24539" lon="-0.28315">
        <ele>16.67</ele>
        <time>2025-05-31T17:27:38.769Z</time>
      </trkpt>
      <trkpt lat="49.24513" lon="-0.28289">
        <ele>16.27</ele>
        <time>2025-05-31T17:27:53.321Z</time>
      </trkpt>
      <trkpt lat="49.24502" lon="-0.28278">
        <ele>15.93</ele>
        <time>2025-05-31T17:28:07.875Z</time>
      </trkpt>
      <trkpt lat="49.24477" lon="-0.28248">
        <ele>15.56</ele>
        <time>2025-05-31T17:28:22.434Z</time>
      </trkpt>
      <trkpt lat="49.24469" lon="-0.28238">
        <ele>15.21</ele>
        <time>2025-05-31T17:28:36.995Z</time>
      </trkpt>
      <trkpt lat="49.24448" lon="-0.28203">
        <ele>14.89</ele>
        <time>2025-05-31T17:28:51.561Z</time>
      </trkpt>
      <trkpt lat="49.2444" lon="-0.2819">
        <ele>14.58</ele>
        <time>2025-05-31T17:29:06.128Z</time>
      </trkpt>
      <trkpt lat="49.24421" lon="-0.28151">
        <ele>14.3</ele>
        <time>2025-05-31T17:29:20.700Z</time>
      </trkpt>
      <trkpt lat="49.24417" lon="-0.28142">
        <ele>14.02</ele>
        <time>2025-05-31T17:29:35.274Z</time>
      </trkpt>
      <trkpt lat="49.24404" lon="-0.28108">
        <ele>13.7</ele>
        <time>2025-05-31T17:29:49.852Z</time>
      </trkpt>
      <trkpt lat="49.24394" lon="-0.28072">
        <ele>13.41</ele>
        <time>2025-05-31T17:30:04.434Z</time>
      </trkpt>
      <trkpt lat="49.24383" lon="-0.28027">
        <ele>13.14</ele>
        <time>2025-05-31T17:30:19.021Z</time>
      </trkpt>
      <trkpt lat="49.24379" lon="-0.2801">
        <ele>12.88</ele>
        <time>2025-05-31T17:30:33.610Z</time>
      </trkpt>
      <trkpt lat="49.24374" lon="-0.27971">
        <ele>12.62</ele>
        <time>2025-05-31T17:30:48.203Z</time>
      </trkpt>
      <trkpt lat="49.24368" lon="-0.27924">
        <ele>12.29</ele>
        <time>2025-05-31T17:31:02.801Z</time>
      </trkpt>
      <trkpt lat="49.2436" lon="-0.27879">
        <ele>12.1</ele>
        <time>2025-05-31T17:31:17.404Z</time>
      </trkpt>
      <trkpt lat="49.24357" lon="-0.27864">
        <ele>11.92</ele>
        <time>2025-05-31T17:31:32.009Z</time>
      </trkpt>
      <trkpt lat="49.2435" lon="-0.27847">
        <ele>11.74</ele>
        <time>2025-05-31T17:31:46.616Z</time>
      </trkpt>
      <trkpt lat="49.24347" lon="-0.27844">
        <ele>11.52</ele>
        <time>2025-05-31T17:32:01.223Z</time>
      </trkpt>
      <trkpt lat="49.24342" lon="-0.27834">
        <ele>11.3</ele>
        <time>2025-05-31T17:32:15.832Z</time>
      </trkpt>
      <trkpt lat="49.24342" lon="-0.2782">
        <ele>11.08</ele>
        <time>2025-05-31T17:32:30.442Z</time>
      </trkpt>
      <trkpt lat="49.24344" lon="-0.27813">
        <ele>10.84</ele>
        <time>2025-05-31T17:32:45.053Z</time>
      </trkpt>
      <trkpt lat="49.24346" lon="-0.27799">
        <ele>10.59</ele>
        <time>2025-05-31T17:32:59.665Z</time>
      </trkpt>
      <trkpt lat="49.24343" lon="-0.27775">
        <ele>10.28</ele>
        <time>2025-05-31T17:33:14.280Z</time>
      </trkpt>
      <trkpt lat="49.24338" lon="-0.27746">
        <ele>10</ele>
        <time>2025-05-31T17:33:28.898Z</time>
      </trkpt>
      <trkpt lat="49.24326" lon="-0.27701">
        <ele>9.72</ele>
        <time>2025-05-31T17:33:43.521Z</time>
      </trkpt>
      <trkpt lat="49.24326" lon="-0.27701">
        <ele>9.48</ele>
        <time>2025-05-31T17:33:58.144Z</time>
      </trkpt>
      <trkpt lat="49.24312" lon="-0.27658">
        <ele>9.2</ele>
        <time>2025-05-31T17:34:12.772Z</time>
      </trkpt>
      <trkpt lat="49.243" lon="-0.27619">
        <ele>8.93</ele>
        <time>2025-05-31T17:34:27.405Z</time>
      </trkpt>
      <trkpt lat="49.24286" lon="-0.27576">
        <ele>8.65</ele>
        <time>2025-05-31T17:34:42.043Z</time>
      </trkpt>
      <trkpt lat="49.24276" lon="-0.27546">
        <ele>8.39</ele>
        <time>2025-05-31T17:34:56.684Z</time>
      </trkpt>
      <trkpt lat="49.24265" lon="-0.2751">
        <ele>8.12</ele>
        <time>2025-05-31T17:35:11.329Z</time>
      </trkpt>
      <trkpt lat="49.24254" lon="-0.27465">
        <ele>7.8</ele>
        <time>2025-05-31T17:35:25.979Z</time>
      </trkpt>
      <trkpt lat="49.24254" lon="-0.27463">
        <ele>7.54</ele>
        <time>2025-05-31T17:35:40.630Z</time>
      </trkpt>
      <trkpt lat="49.24241" lon="-0.27419">
        <ele>7.28</ele>
        <time>2025-05-31T17:35:55.286Z</time>
      </trkpt>
      <trkpt lat="49.24238" lon="-0.27411">
        <ele>7.02</ele>
        <time>2025-05-31T17:36:09.943Z</time>
      </trkpt>
      <trkpt lat="49.24224" lon="-0.27368">
        <ele>6.78</ele>
        <time>2025-05-31T17:36:24.605Z</time>
      </trkpt>
      <trkpt lat="49.24222" lon="-0.27362">
        <ele>6.52</ele>
        <time>2025-05-31T17:36:39.267Z</time>
      </trkpt>
      <trkpt lat="49.24208" lon="-0.27337">
        <ele>6.25</ele>
        <time>2025-05-31T17:36:53.933Z</time>
      </trkpt>
      <trkpt lat="49.24194" lon="-0.27313">
        <ele>5.94</ele>
        <time>2025-05-31T17:37:08.602Z</time>
      </trkpt>
      <trkpt lat="49.24191" lon="-0.27306">
        <ele>5.65</ele>
        <time>2025-05-31T17:37:23.272Z</time>
      </trkpt>
      <trkpt lat="49.24184" lon="-0.27297">
        <ele>5.36</ele>
        <time>2025-05-31T17:37:37.944Z</time>
      </trkpt>
      <trkpt lat="49.2418" lon="-0.27284">
        <ele>5.06</ele>
        <time>2025-05-31T17:37:52.617Z</time>
      </trkpt>
      <trkpt lat="49.2418" lon="-0.2728">
        <ele>4.77</ele>
        <time>2025-05-31T17:38:07.291Z</time>
      </trkpt>
      <trkpt lat="49.24173" lon="-0.27261">
        <ele>4.5</ele>
        <time>2025-05-31T17:38:21.967Z</time>
      </trkpt>
      <trkpt lat="49.24166" lon="-0.27239">
        <ele>4.23</ele>
        <time>2025-05-31T17:38:36.645Z</time>
      </trkpt>
      <trkpt lat="49.24156" lon="-0.27216">
        <ele>3.92</ele>
        <time>2025-05-31T17:38:51.326Z</time>
      </trkpt>
      <trkpt lat="49.24144" lon="-0.27172">
        <ele>3.61</ele>
        <time>2025-05-31T17:39:06.012Z</time>
      </trkpt>
      <trkpt lat="49.24138" lon="-0.27151">
        <ele>3.34</ele>
        <time>2025-05-31T17:39:20.701Z</time>
      </trkpt>
      <trkpt lat="49.24128" lon="-0.27106">
        <ele>3.12</ele>
        <time>2025-05-31T17:39:35.395Z</time>
      </trkpt>
      <trkpt lat="49.24117" lon="-0.2706">
        <ele>2.88</ele>
        <time>2025-05-31T17:39:50.094Z</time>
      </trkpt>
      <trkpt lat="49.24107" lon="-0.27015">
        <ele>2.6</ele>
        <time>2025-05-31T17:40:04.798Z</time>
      </trkpt>
      <trkpt lat="49.24096" lon="-0.2697">
        <ele>2.39</ele>
        <time>2025-05-31T17:40:19.507Z</time>
      </trkpt>
      <trkpt lat="49.24094" lon="-0.2696">
        <ele>2.18</ele>
        <time>2025-05-31T17:40:34.217Z</time>
      </trkpt>
      <trkpt lat="49.24089" lon="-0.26946">
        <ele>1.99</ele>
        <time>2025-05-31T17:40:48.929Z</time>
      </trkpt>
      <trkpt lat="49.24085" lon="-0.26938">
        <ele>1.81</ele>
        <time>2025-05-31T17:41:03.642Z</time>
      </trkpt>
      <trkpt lat="49.24083" lon="-0.26937">
        <ele>1.65</ele>
        <time>2025-05-31T17:41:18.355Z</time>
      </trkpt>
      <trkpt lat="49.24082" lon="-0.26936">
        <ele>1.5</ele>
        <time>2025-05-31T17:41:33.068Z</time>
      </trkpt>
      <trkpt lat="49.24079" lon="-0.26932">
        <ele>1.37</ele>
        <time>2025-05-31T17:41:47.782Z</time>
      </trkpt>
      <trkpt lat="49.24078" lon="-0.26916">
        <ele>1.27</ele>
        <time>2025-05-31T17:42:02.497Z</time>
      </trkpt>
      <trkpt lat="49.2408" lon="-0.2691">
        <ele>1.18</ele>
        <time>2025-05-31T17:42:17.213Z</time>
      </trkpt>
      <trkpt lat="49.24079" lon="-0.26889">
        <ele>1.12</ele>
        <time>2025-05-31T17:42:31.931Z</time>
      </trkpt>
      <trkpt lat="49.24076" lon="-0.26873">
        <ele>1.06</ele>
        <time>2025-05-31T17:42:46.651Z</time>
      </trkpt>
      <trkpt lat="49.24065" lon="-0.26828">
        <ele>1.01</ele>
        <time>2025-05-31T17:43:01.376Z</time>
      </trkpt>
      <trkpt lat="49.24055" lon="-0.26782">
        <ele>0.94</ele>
        <time>2025-05-31T17:43:16.106Z</time>
      </trkpt>
      <trkpt lat="49.24044" lon="-0.26737">
        <ele>0.83</ele>
        <time>2025-05-31T17:43:30.841Z</time>
      </trkpt>
      <trkpt lat="49.24043" lon="-0.26731">
        <ele>0.83</ele>
        <time>2025-05-31T17:43:45.577Z</time>
      </trkpt>
      <trkpt lat="49.24033" lon="-0.26686">
        <ele>0.75</ele>
        <time>2025-05-31T17:44:00.318Z</time>
      </trkpt>
      <trkpt lat="49.24022" lon="-0.2664">
        <ele>0.87</ele>
        <time>2025-05-31T17:44:15.064Z</time>
      </trkpt>
      <trkpt lat="49.24012" lon="-0.26595">
        <ele>1.17</ele>
        <time>2025-05-31T17:44:29.815Z</time>
      </trkpt>
      <trkpt lat="49.2401" lon="-0.26587">
        <ele>1.33</ele>
        <time>2025-05-31T17:44:44.567Z</time>
      </trkpt>
      <trkpt lat="49.23999" lon="-0.26542">
        <ele>1.59</ele>
        <time>2025-05-31T17:44:59.324Z</time>
      </trkpt>
      <trkpt lat="49.23988" lon="-0.26497">
        <ele>1.78</ele>
        <time>2025-05-31T17:45:14.086Z</time>
      </trkpt>
      <trkpt lat="49.23979" lon="-0.26459">
        <ele>1.88</ele>
        <time>2025-05-31T17:45:28.852Z</time>
      </trkpt>
      <trkpt lat="49.2396" lon="-0.2642">
        <ele>2.08</ele>
        <time>2025-05-31T17:45:43.623Z</time>
      </trkpt>
      <trkpt lat="49.23959" lon="-0.26417">
        <ele>2.34</ele>
        <time>2025-05-31T17:45:58.395Z</time>
      </trkpt>
      <trkpt lat="49.23953" lon="-0.2641">
        <ele>2.63</ele>
        <time>2025-05-31T17:46:13.168Z</time>
      </trkpt>
      <trkpt lat="49.23944" lon="-0.26404">
        <ele>2.96</ele>
        <time>2025-05-31T17:46:27.942Z</time>
      </trkpt>
      <trkpt lat="49.23939" lon="-0.26405">
        <ele>3.31</ele>
        <time>2025-05-31T17:46:42.717Z</time>
      </trkpt>
      <trkpt lat="49.23934" lon="-0.26405">
        <ele>3.69</ele>
        <time>2025-05-31T17:46:57.493Z</time>
      </trkpt>
      <trkpt lat="49.23926" lon="-0.264">
        <ele>4.11</ele>
        <time>2025-05-31T17:47:12.270Z</time>
      </trkpt>
      <trkpt lat="49.23919" lon="-0.26392">
        <ele>4.55</ele>
        <time>2025-05-31T17:47:27.049Z</time>
      </trkpt>
      <trkpt lat="49.23914" lon="-0.2637">
        <ele>5.04</ele>
        <time>2025-05-31T17:47:41.830Z</time>
      </trkpt>
      <trkpt lat="49.23913" lon="-0.26358">
        <ele>5.58</ele>
        <time>2025-05-31T17:47:56.613Z</time>
      </trkpt>
      <trkpt lat="49.23915" lon="-0.26345">
        <ele>6.14</ele>
        <time>2025-05-31T17:48:11.397Z</time>
      </trkpt>
      <trkpt lat="49.23921" lon="-0.26335">
        <ele>6.74</ele>
        <time>2025-05-31T17:48:26.182Z</time>
      </trkpt>
      <trkpt lat="49.23926" lon="-0.2633">
        <ele>7.38</ele>
        <time>2025-05-31T17:48:40.968Z</time>
      </trkpt>
      <trkpt lat="49.23931" lon="-0.26325">
        <ele>8.04</ele>
        <time>2025-05-31T17:48:55.755Z</time>
      </trkpt>
      <trkpt lat="49.23935" lon="-0.26308">
        <ele>8.74</ele>
        <time>2025-05-31T17:49:10.544Z</time>
      </trkpt>
      <trkpt lat="49.23939" lon="-0.26279">
        <ele>9.46</ele>
        <time>2025-05-31T17:49:25.336Z</time>
      </trkpt>
      <trkpt lat="49.2393" lon="-0.26233">
        <ele>10.21</ele>
        <time>2025-05-31T17:49:40.133Z</time>
      </trkpt>
      <trkpt lat="49.2393" lon="-0.26232">
        <ele>10.98</ele>
        <time>2025-05-31T17:49:54.930Z</time>
      </trkpt>
      <trkpt lat="49.23923" lon="-0.26185">
        <ele>11.78</ele>
        <time>2025-05-31T17:50:09.732Z</time>
      </trkpt>
      <trkpt lat="49.23923" lon="-0.26182">
        <ele>12.59</ele>
        <time>2025-05-31T17:50:24.535Z</time>
      </trkpt>
      <trkpt lat="49.23916" lon="-0.26135">
        <ele>13.57</ele>
        <time>2025-05-31T17:50:39.343Z</time>
      </trkpt>
      <trkpt lat="49.23914" lon="-0.26117">
        <ele>14.46</ele>
        <time>2025-05-31T17:50:54.153Z</time>
      </trkpt>
      <trkpt lat="49.23911" lon="-0.26087">
        <ele>15.36</ele>
        <time>2025-05-31T17:51:08.966Z</time>
      </trkpt>
      <trkpt lat="49.23909" lon="-0.26039">
        <ele>16.24</ele>
        <time>2025-05-31T17:51:23.784Z</time>
      </trkpt>
      <trkpt lat="49.23909" lon="-0.26032">
        <ele>17.06</ele>
        <time>2025-05-31T17:51:38.603Z</time>
      </trkpt>
      <trkpt lat="49.23911" lon="-0.25984">
        <ele>17.98</ele>
        <time>2025-05-31T17:51:53.427Z</time>
      </trkpt>
      <trkpt lat="49.23912" lon="-0.25967">
        <ele>18.82</ele>
        <time>2025-05-31T17:52:08.253Z</time>
      </trkpt>
      <trkpt lat="49.23915" lon="-0.25919">
        <ele>19.78</ele>
        <time>2025-05-31T17:52:23.084Z</time>
      </trkpt>
      <trkpt lat="49.23917" lon="-0.25885">
        <ele>20.6</ele>
        <time>2025-05-31T17:52:37.918Z</time>
      </trkpt>
      <trkpt lat="49.23922" lon="-0.25838">
        <ele>21.35</ele>
        <time>2025-05-31T17:52:52.757Z</time>
      </trkpt>
      <trkpt lat="49.23926" lon="-0.25803">
        <ele>22.02</ele>
        <time>2025-05-31T17:53:07.600Z</time>
      </trkpt>
      <trkpt lat="49.23934" lon="-0.25757">
        <ele>22.69</ele>
        <time>2025-05-31T17:53:22.448Z</time>
      </trkpt>
      <trkpt lat="49.23938" lon="-0.25734">
        <ele>23.27</ele>
        <time>2025-05-31T17:53:37.298Z</time>
      </trkpt>
      <trkpt lat="49.2395" lon="-0.25689">
        <ele>23.8</ele>
        <time>2025-05-31T17:53:52.153Z</time>
      </trkpt>
      <trkpt lat="49.23954" lon="-0.25673">
        <ele>24.28</ele>
        <time>2025-05-31T17:54:07.010Z</time>
      </trkpt>
      <trkpt lat="49.23962" lon="-0.25649">
        <ele>24.69</ele>
        <time>2025-05-31T17:54:21.870Z</time>
      </trkpt>
      <trkpt lat="49.23979" lon="-0.25608">
        <ele>25.07</ele>
        <time>2025-05-31T17:54:36.735Z</time>
      </trkpt>
      <trkpt lat="49.23986" lon="-0.25591">
        <ele>25.42</ele>
        <time>2025-05-31T17:54:51.602Z</time>
      </trkpt>
      <trkpt lat="49.24006" lon="-0.25554">
        <ele>25.72</ele>
        <time>2025-05-31T17:55:06.474Z</time>
      </trkpt>
      <trkpt lat="49.24012" lon="-0.25542">
        <ele>25.98</ele>
        <time>2025-05-31T17:55:21.348Z</time>
      </trkpt>
      <trkpt lat="49.24033" lon="-0.25506">
        <ele>26.17</ele>
        <time>2025-05-31T17:55:36.227Z</time>
      </trkpt>
      <trkpt lat="49.24037" lon="-0.25499">
        <ele>26.32</ele>
        <time>2025-05-31T17:55:51.107Z</time>
      </trkpt>
      <trkpt lat="49.24046" lon="-0.25486">
        <ele>26.41</ele>
        <time>2025-05-31T17:56:05.989Z</time>
      </trkpt>
      <trkpt lat="49.24072" lon="-0.2546">
        <ele>26.33</ele>
        <time>2025-05-31T17:56:20.876Z</time>
      </trkpt>
      <trkpt lat="49.2409" lon="-0.25442">
        <ele>26.39</ele>
        <time>2025-05-31T17:56:35.766Z</time>
      </trkpt>
      <trkpt lat="49.24118" lon="-0.2542">
        <ele>26.37</ele>
        <time>2025-05-31T17:56:50.661Z</time>
      </trkpt>
      <trkpt lat="49.24138" lon="-0.25405">
        <ele>26.34</ele>
        <time>2025-05-31T17:57:05.560Z</time>
      </trkpt>
      <trkpt lat="49.24167" lon="-0.25386">
        <ele>26.35</ele>
        <time>2025-05-31T17:57:20.464Z</time>
      </trkpt>
      <trkpt lat="49.24196" lon="-0.25368">
        <ele>26.36</ele>
        <time>2025-05-31T17:57:35.373Z</time>
      </trkpt>
      <trkpt lat="49.24225" lon="-0.25349">
        <ele>26.33</ele>
        <time>2025-05-31T17:57:50.287Z</time>
      </trkpt>
      <trkpt lat="49.2423" lon="-0.25346">
        <ele>26.27</ele>
        <time>2025-05-31T17:58:05.202Z</time>
      </trkpt>
      <trkpt lat="49.24259" lon="-0.25327">
        <ele>26.21</ele>
        <time>2025-05-31T17:58:20.122Z</time>
      </trkpt>
      <trkpt lat="49.24263" lon="-0.25324">
        <ele>26.14</ele>
        <time>2025-05-31T17:58:35.043Z</time>
      </trkpt>
      <trkpt lat="49.24292" lon="-0.25304">
        <ele>26.1</ele>
        <time>2025-05-31T17:58:49.969Z</time>
      </trkpt>
      <trkpt lat="49.2432" lon="-0.25284">
        <ele>26.07</ele>
        <time>2025-05-31T17:59:04.900Z</time>
      </trkpt>
      <trkpt lat="49.24349" lon="-0.25263">
        <ele>26.02</ele>
        <time>2025-05-31T17:59:19.836Z</time>
      </trkpt>
      <trkpt lat="49.24355" lon="-0.25259">
        <ele>25.95</ele>
        <time>2025-05-31T17:59:34.773Z</time>
      </trkpt>
      <trkpt lat="49.24384" lon="-0.25239">
        <ele>25.85</ele>
        <time>2025-05-31T17:59:49.715Z</time>
      </trkpt>
      <trkpt lat="49.24412" lon="-0.25219">
        <ele>25.79</ele>
        <time>2025-05-31T18:00:04.662Z</time>
      </trkpt>
      <trkpt lat="49.24441" lon="-0.25198">
        <ele>25.78</ele>
        <time>2025-05-31T18:00:19.614Z</time>
      </trkpt>
      <trkpt lat="49.24469" lon="-0.25178">
        <ele>25.77</ele>
        <time>2025-05-31T18:00:34.571Z</time>
      </trkpt>
      <trkpt lat="49.24481" lon="-0.2517">
        <ele>25.73</ele>
        <time>2025-05-31T18:00:49.530Z</time>
      </trkpt>
      <trkpt lat="49.24503" lon="-0.25155">
        <ele>25.7</ele>
        <time>2025-05-31T18:01:04.493Z</time>
      </trkpt>
      <trkpt lat="49.24513" lon="-0.25144">
        <ele>25.68</ele>
        <time>2025-05-31T18:01:19.458Z</time>
      </trkpt>
      <trkpt lat="49.24507" lon="-0.25118">
        <ele>25.68</ele>
        <time>2025-05-31T18:01:34.426Z</time>
      </trkpt>
      <trkpt lat="49.24497" lon="-0.25072">
        <ele>25.66</ele>
        <time>2025-05-31T18:01:49.399Z</time>
      </trkpt>
      <trkpt lat="49.24487" lon="-0.25027">
        <ele>25.7</ele>
        <time>2025-05-31T18:02:04.377Z</time>
      </trkpt>
      <trkpt lat="49.24477" lon="-0.24981">
        <ele>25.73</ele>
        <time>2025-05-31T18:02:19.360Z</time>
      </trkpt>
      <trkpt lat="49.24475" lon="-0.24973">
        <ele>25.79</ele>
        <time>2025-05-31T18:02:34.344Z</time>
      </trkpt>
      <trkpt lat="49.24466" lon="-0.24927">
        <ele>25.83</ele>
        <time>2025-05-31T18:02:49.333Z</time>
      </trkpt>
      <trkpt lat="49.24457" lon="-0.24881">
        <ele>26</ele>
        <time>2025-05-31T18:03:04.327Z</time>
      </trkpt>
      <trkpt lat="49.24448" lon="-0.24835">
        <ele>26.18</ele>
        <time>2025-05-31T18:03:19.326Z</time>
      </trkpt>
      <trkpt lat="49.24447" lon="-0.24829">
        <ele>26.35</ele>
        <time>2025-05-31T18:03:34.326Z</time>
      </trkpt>
      <trkpt lat="49.24438" lon="-0.24783">
        <ele>26.59</ele>
        <time>2025-05-31T18:03:49.331Z</time>
      </trkpt>
      <trkpt lat="49.24431" lon="-0.24749">
        <ele>26.84</ele>
        <time>2025-05-31T18:04:04.339Z</time>
      </trkpt>
      <trkpt lat="49.24424" lon="-0.24702">
        <ele>27.11</ele>
        <time>2025-05-31T18:04:19.353Z</time>
      </trkpt>
      <trkpt lat="49.24417" lon="-0.24655">
        <ele>27.45</ele>
        <time>2025-05-31T18:04:34.372Z</time>
      </trkpt>
      <trkpt lat="49.2441" lon="-0.24608">
        <ele>27.81</ele>
        <time>2025-05-31T18:04:49.396Z</time>
      </trkpt>
      <trkpt lat="49.24407" lon="-0.24589">
        <ele>28.13</ele>
        <time>2025-05-31T18:05:04.422Z</time>
      </trkpt>
      <trkpt lat="49.24402" lon="-0.24542">
        <ele>28.47</ele>
        <time>2025-05-31T18:05:19.453Z</time>
      </trkpt>
      <trkpt lat="49.24398" lon="-0.24508">
        <ele>28.85</ele>
        <time>2025-05-31T18:05:34.487Z</time>
      </trkpt>
      <trkpt lat="49.24394" lon="-0.2446">
        <ele>29.25</ele>
        <time>2025-05-31T18:05:49.526Z</time>
      </trkpt>
      <trkpt lat="49.2439" lon="-0.24413">
        <ele>29.66</ele>
        <time>2025-05-31T18:06:04.570Z</time>
      </trkpt>
      <trkpt lat="49.24388" lon="-0.24383">
        <ele>30.08</ele>
        <time>2025-05-31T18:06:19.617Z</time>
      </trkpt>
      <trkpt lat="49.24381" lon="-0.24336">
        <ele>30.5</ele>
        <time>2025-05-31T18:06:34.670Z</time>
      </trkpt>
      <trkpt lat="49.24374" lon="-0.24289">
        <ele>30.98</ele>
        <time>2025-05-31T18:06:49.728Z</time>
      </trkpt>
      <trkpt lat="49.24368" lon="-0.24242">
        <ele>31.54</ele>
        <time>2025-05-31T18:07:04.791Z</time>
      </trkpt>
      <trkpt lat="49.24365" lon="-0.24224">
        <ele>32.08</ele>
        <time>2025-05-31T18:07:19.856Z</time>
      </trkpt>
      <trkpt lat="49.24358" lon="-0.24199">
        <ele>32.65</ele>
        <time>2025-05-31T18:07:34.923Z</time>
      </trkpt>
      <trkpt lat="49.24342" lon="-0.24158">
        <ele>33.21</ele>
        <time>2025-05-31T18:07:49.995Z</time>
      </trkpt>
      <trkpt lat="49.24326" lon="-0.24116">
        <ele>33.76</ele>
        <time>2025-05-31T18:08:05.072Z</time>
      </trkpt>
      <trkpt lat="49.24315" lon="-0.24088">
        <ele>34.4</ele>
        <time>2025-05-31T18:08:20.153Z</time>
      </trkpt>
      <trkpt lat="49.24298" lon="-0.24047">
        <ele>35.06</ele>
        <time>2025-05-31T18:08:35.239Z</time>
      </trkpt>
      <trkpt lat="49.24293" lon="-0.24034">
        <ele>35.74</ele>
        <time>2025-05-31T18:08:50.327Z</time>
      </trkpt>
      <trkpt lat="49.24285" lon="-0.24004">
        <ele>36.45</ele>
        <time>2025-05-31T18:09:05.418Z</time>
      </trkpt>
      <trkpt lat="49.24283" lon="-0.23977">
        <ele>37.19</ele>
        <time>2025-05-31T18:09:20.512Z</time>
      </trkpt>
      <trkpt lat="49.24283" lon="-0.23946">
        <ele>37.93</ele>
        <time>2025-05-31T18:09:35.609Z</time>
      </trkpt>
      <trkpt lat="49.24285" lon="-0.23898">
        <ele>38.69</ele>
        <time>2025-05-31T18:09:50.711Z</time>
      </trkpt>
      <trkpt lat="49.24287" lon="-0.23867">
        <ele>39.44</ele>
        <time>2025-05-31T18:10:05.816Z</time>
      </trkpt>
      <trkpt lat="49.24288" lon="-0.23819">
        <ele>40.2</ele>
        <time>2025-05-31T18:10:20.926Z</time>
      </trkpt>
      <trkpt lat="49.24288" lon="-0.23812">
        <ele>41.01</ele>
        <time>2025-05-31T18:10:36.037Z</time>
      </trkpt>
      <trkpt lat="49.24287" lon="-0.23764">
        <ele>41.84</ele>
        <time>2025-05-31T18:10:51.153Z</time>
      </trkpt>
      <trkpt lat="49.24287" lon="-0.23716">
        <ele>42.71</ele>
        <time>2025-05-31T18:11:06.274Z</time>
      </trkpt>
      <trkpt lat="49.24286" lon="-0.23674">
        <ele>43.65</ele>
        <time>2025-05-31T18:11:21.400Z</time>
      </trkpt>
      <trkpt lat="49.24286" lon="-0.23626">
        <ele>44.63</ele>
        <time>2025-05-31T18:11:36.531Z</time>
      </trkpt>
      <trkpt lat="49.24286" lon="-0.23624">
        <ele>45.48</ele>
        <time>2025-05-31T18:11:51.662Z</time>
      </trkpt>
      <trkpt lat="49.24285" lon="-0.23592">
        <ele>46.4</ele>
        <time>2025-05-31T18:12:06.796Z</time>
      </trkpt>
      <trkpt lat="49.2428" lon="-0.23544">
        <ele>47.34</ele>
        <time>2025-05-31T18:12:21.935Z</time>
      </trkpt>
      <trkpt lat="49.24276" lon="-0.23497">
        <ele>48.17</ele>
        <time>2025-05-31T18:12:37.079Z</time>
      </trkpt>
      <trkpt lat="49.24272" lon="-0.23456">
        <ele>49.03</ele>
        <time>2025-05-31T18:12:52.228Z</time>
      </trkpt>
      <trkpt lat="49.24266" lon="-0.23409">
        <ele>49.97</ele>
        <time>2025-05-31T18:13:07.382Z</time>
      </trkpt>
      <trkpt lat="49.24265" lon="-0.23401">
        <ele>50.76</ele>
        <time>2025-05-31T18:13:22.537Z</time>
      </trkpt>
      <trkpt lat="49.24255" lon="-0.23392">
        <ele>51.53</ele>
        <time>2025-05-31T18:13:37.693Z</time>
      </trkpt>
      <trkpt lat="49.24246" lon="-0.23346">
        <ele>52.29</ele>
        <time>2025-05-31T18:13:52.854Z</time>
      </trkpt>
      <trkpt lat="49.24237" lon="-0.233">
        <ele>53</ele>
        <time>2025-05-31T18:14:08.020Z</time>
      </trkpt>
      <trkpt lat="49.24228" lon="-0.23254">
        <ele>53.69</ele>
        <time>2025-05-31T18:14:23.192Z</time>
      </trkpt>
      <trkpt lat="49.24226" lon="-0.23241">
        <ele>54.31</ele>
        <time>2025-05-31T18:14:38.365Z</time>
      </trkpt>
      <trkpt lat="49.24219" lon="-0.23215">
        <ele>54.89</ele>
        <time>2025-05-31T18:14:53.541Z</time>
      </trkpt>
      <trkpt lat="49.24202" lon="-0.23175">
        <ele>55.46</ele>
        <time>2025-05-31T18:15:08.722Z</time>
      </trkpt>
      <trkpt lat="49.24193" lon="-0.23154">
        <ele>55.97</ele>
        <time>2025-05-31T18:15:23.905Z</time>
      </trkpt>
      <trkpt lat="49.24186" lon="-0.23107">
        <ele>56.49</ele>
        <time>2025-05-31T18:15:39.094Z</time>
      </trkpt>
      <trkpt lat="49.2418" lon="-0.2306">
        <ele>56.94</ele>
        <time>2025-05-31T18:15:54.288Z</time>
      </trkpt>
      <trkpt lat="49.24179" lon="-0.23055">
        <ele>57.36</ele>
        <time>2025-05-31T18:16:09.482Z</time>
      </trkpt>
      <trkpt lat="49.24172" lon="-0.23008">
        <ele>57.76</ele>
        <time>2025-05-31T18:16:24.681Z</time>
      </trkpt>
      <trkpt lat="49.24165" lon="-0.22961">
        <ele>58.09</ele>
        <time>2025-05-31T18:16:39.885Z</time>
      </trkpt>
      <trkpt lat="49.24159" lon="-0.22914">
        <ele>58.38</ele>
        <time>2025-05-31T18:16:55.094Z</time>
      </trkpt>
      <trkpt lat="49.24152" lon="-0.22867">
        <ele>58.62</ele>
        <time>2025-05-31T18:17:10.308Z</time>
      </trkpt>
      <trkpt lat="49.24145" lon="-0.2282">
        <ele>58.87</ele>
        <time>2025-05-31T18:17:25.527Z</time>
      </trkpt>
      <trkpt lat="49.24142" lon="-0.228">
        <ele>59.11</ele>
        <time>2025-05-31T18:17:40.748Z</time>
      </trkpt>
      <trkpt lat="49.24138" lon="-0.22787">
        <ele>59.34</ele>
        <time>2025-05-31T18:17:55.971Z</time>
      </trkpt>
      <trkpt lat="49.24124" lon="-0.22766">
        <ele>59.57</ele>
        <time>2025-05-31T18:18:11.197Z</time>
      </trkpt>
      <trkpt lat="49.24102" lon="-0.22731">
        <ele>59.82</ele>
        <time>2025-05-31T18:18:26.428Z</time>
      </trkpt>
      <trkpt lat="49.241" lon="-0.22727">
        <ele>60</ele>
        <time>2025-05-31T18:18:41.660Z</time>
      </trkpt>
      <trkpt lat="49.24079" lon="-0.22691">
        <ele>60.22</ele>
        <time>2025-05-31T18:18:56.897Z</time>
      </trkpt>
      <trkpt lat="49.24065" lon="-0.22665">
        <ele>60.35</ele>
        <time>2025-05-31T18:19:12.137Z</time>
      </trkpt>
      <trkpt lat="49.24045" lon="-0.22628">
        <ele>60.46</ele>
        <time>2025-05-31T18:19:27.382Z</time>
      </trkpt>
      <trkpt lat="49.24042" lon="-0.22622">
        <ele>60.54</ele>
        <time>2025-05-31T18:19:42.628Z</time>
      </trkpt>
      <trkpt lat="49.24031" lon="-0.2261">
        <ele>60.61</ele>
        <time>2025-05-31T18:19:57.876Z</time>
      </trkpt>
      <trkpt lat="49.24021" lon="-0.22606">
        <ele>60.63</ele>
        <time>2025-05-31T18:20:13.126Z</time>
      </trkpt>
      <trkpt lat="49.24041" lon="-0.2258">
        <ele>60.62</ele>
        <time>2025-05-31T18:20:28.380Z</time>
      </trkpt>
      <trkpt lat="49.24056" lon="-0.22556">
        <ele>60.62</ele>
        <time>2025-05-31T18:20:43.638Z</time>
      </trkpt>
      <trkpt lat="49.24078" lon="-0.22522">
        <ele>60.6</ele>
        <time>2025-05-31T18:20:58.901Z</time>
      </trkpt>
      <trkpt lat="49.2409" lon="-0.22503">
        <ele>60.48</ele>
        <time>2025-05-31T18:21:14.166Z</time>
      </trkpt>
      <trkpt lat="49.24103" lon="-0.22471">
        <ele>60.33</ele>
        <time>2025-05-31T18:21:29.435Z</time>
      </trkpt>
      <trkpt lat="49.24112" lon="-0.22447">
        <ele>60.17</ele>
        <time>2025-05-31T18:21:44.707Z</time>
      </trkpt>
      <trkpt lat="49.24124" lon="-0.22402">
        <ele>59.99</ele>
        <time>2025-05-31T18:21:59.984Z</time>
      </trkpt>
      <trkpt lat="49.24125" lon="-0.22397">
        <ele>59.79</ele>
        <time>2025-05-31T18:22:15.262Z</time>
      </trkpt>
      <trkpt lat="49.24139" lon="-0.22354">
        <ele>59.54</ele>
        <time>2025-05-31T18:22:30.545Z</time>
      </trkpt>
      <trkpt lat="49.24145" lon="-0.22336">
        <ele>59.28</ele>
        <time>2025-05-31T18:22:45.830Z</time>
      </trkpt>
      <trkpt lat="49.2416" lon="-0.22294">
        <ele>58.98</ele>
        <time>2025-05-31T18:23:01.120Z</time>
      </trkpt>
      <trkpt lat="49.24175" lon="-0.22252">
        <ele>58.67</ele>
        <time>2025-05-31T18:23:16.415Z</time>
      </trkpt>
      <trkpt lat="49.24189" lon="-0.22214">
        <ele>58.4</ele>
        <time>2025-05-31T18:23:31.715Z</time>
      </trkpt>
      <trkpt lat="49.24201" lon="-0.22169">
        <ele>58.11</ele>
        <time>2025-05-31T18:23:47.020Z</time>
      </trkpt>
      <trkpt lat="49.24211" lon="-0.22131">
        <ele>57.73</ele>
        <time>2025-05-31T18:24:02.329Z</time>
      </trkpt>
      <trkpt lat="49.24226" lon="-0.2209">
        <ele>57.23</ele>
        <time>2025-05-31T18:24:17.643Z</time>
      </trkpt>
      <trkpt lat="49.24245" lon="-0.22051">
        <ele>56.72</ele>
        <time>2025-05-31T18:24:32.962Z</time>
      </trkpt>
      <trkpt lat="49.24264" lon="-0.22013">
        <ele>56.29</ele>
        <time>2025-05-31T18:24:48.286Z</time>
      </trkpt>
      <trkpt lat="49.2427" lon="-0.22">
        <ele>55.81</ele>
        <time>2025-05-31T18:25:03.612Z</time>
      </trkpt>
      <trkpt lat="49.24289" lon="-0.21962">
        <ele>55.26</ele>
        <time>2025-05-31T18:25:18.943Z</time>
      </trkpt>
      <trkpt lat="49.24309" lon="-0.21924">
        <ele>54.69</ele>
        <time>2025-05-31T18:25:34.279Z</time>
      </trkpt>
      <trkpt lat="49.24328" lon="-0.21887">
        <ele>54.14</ele>
        <time>2025-05-31T18:25:49.620Z</time>
      </trkpt>
      <trkpt lat="49.24337" lon="-0.2187">
        <ele>53.55</ele>
        <time>2025-05-31T18:26:04.963Z</time>
      </trkpt>
      <trkpt lat="49.24357" lon="-0.21833">
        <ele>52.97</ele>
        <time>2025-05-31T18:26:20.311Z</time>
      </trkpt>
      <trkpt lat="49.24376" lon="-0.21795">
        <ele>52.38</ele>
        <time>2025-05-31T18:26:35.664Z</time>
      </trkpt>
      <trkpt lat="49.24396" lon="-0.21758">
        <ele>51.72</ele>
        <time>2025-05-31T18:26:51.022Z</time>
      </trkpt>
      <trkpt lat="49.24416" lon="-0.2172">
        <ele>51.04</ele>
        <time>2025-05-31T18:27:06.385Z</time>
      </trkpt>
      <trkpt lat="49.24436" lon="-0.21683">
        <ele>50.37</ele>
        <time>2025-05-31T18:27:21.753Z</time>
      </trkpt>
      <trkpt lat="49.24455" lon="-0.21645">
        <ele>49.65</ele>
        <time>2025-05-31T18:27:37.126Z</time>
      </trkpt>
      <trkpt lat="49.24475" lon="-0.21608">
        <ele>48.89</ele>
        <time>2025-05-31T18:27:52.504Z</time>
      </trkpt>
      <trkpt lat="49.24495" lon="-0.2157">
        <ele>48.17</ele>
        <time>2025-05-31T18:28:07.887Z</time>
      </trkpt>
      <trkpt lat="49.24515" lon="-0.21533">
        <ele>47.52</ele>
        <time>2025-05-31T18:28:23.275Z</time>
      </trkpt>
      <trkpt lat="49.24534" lon="-0.21496">
        <ele>46.87</ele>
        <time>2025-05-31T18:28:38.669Z</time>
      </trkpt>
      <trkpt lat="49.24554" lon="-0.21458">
        <ele>46.23</ele>
        <time>2025-05-31T18:28:54.068Z</time>
      </trkpt>
      <trkpt lat="49.24574" lon="-0.21421">
        <ele>45.6</ele>
        <time>2025-05-31T18:29:09.472Z</time>
      </trkpt>
      <trkpt lat="49.24581" lon="-0.21407">
        <ele>44.98</ele>
        <time>2025-05-31T18:29:24.877Z</time>
      </trkpt>
      <trkpt lat="49.246" lon="-0.21369">
        <ele>44.36</ele>
        <time>2025-05-31T18:29:40.287Z</time>
      </trkpt>
      <trkpt lat="49.2462" lon="-0.21331">
        <ele>43.76</ele>
        <time>2025-05-31T18:29:55.703Z</time>
      </trkpt>
      <trkpt lat="49.24632" lon="-0.21307">
        <ele>43.11</ele>
        <time>2025-05-31T18:30:11.122Z</time>
      </trkpt>
      <trkpt lat="49.24651" lon="-0.21279">
        <ele>42.51</ele>
        <time>2025-05-31T18:30:26.545Z</time>
      </trkpt>
      <trkpt lat="49.24672" lon="-0.21253">
        <ele>41.94</ele>
        <time>2025-05-31T18:30:41.972Z</time>
      </trkpt>
      <trkpt lat="49.24701" lon="-0.21233">
        <ele>41.39</ele>
        <time>2025-05-31T18:30:57.404Z</time>
      </trkpt>
      <trkpt lat="49.24729" lon="-0.21213">
        <ele>40.87</ele>
        <time>2025-05-31T18:31:12.841Z</time>
      </trkpt>
      <trkpt lat="49.24758" lon="-0.21192">
        <ele>40.34</ele>
        <time>2025-05-31T18:31:28.283Z</time>
      </trkpt>
      <trkpt lat="49.24786" lon="-0.21172">
        <ele>39.79</ele>
        <time>2025-05-31T18:31:43.730Z</time>
      </trkpt>
      <trkpt lat="49.24802" lon="-0.21161">
        <ele>39.28</ele>
        <time>2025-05-31T18:31:59.180Z</time>
      </trkpt>
      <trkpt lat="49.24827" lon="-0.21146">
        <ele>38.8</ele>
        <time>2025-05-31T18:32:14.635Z</time>
      </trkpt>
      <trkpt lat="49.24856" lon="-0.21128">
        <ele>38.29</ele>
        <time>2025-05-31T18:32:30.095Z</time>
      </trkpt>
      <trkpt lat="49.24867" lon="-0.21121">
        <ele>37.88</ele>
        <time>2025-05-31T18:32:45.556Z</time>
      </trkpt>
      <trkpt lat="49.24897" lon="-0.21105">
        <ele>37.49</ele>
        <time>2025-05-31T18:33:01.023Z</time>
      </trkpt>
      <trkpt lat="49.24926" lon="-0.21089">
        <ele>37.2</ele>
        <time>2025-05-31T18:33:16.495Z</time>
      </trkpt>
      <trkpt lat="49.24947" lon="-0.21078">
        <ele>36.94</ele>
        <time>2025-05-31T18:33:31.970Z</time>
      </trkpt>
      <trkpt lat="49.24973" lon="-0.21057">
        <ele>36.64</ele>
        <time>2025-05-31T18:33:47.450Z</time>
      </trkpt>
      <trkpt lat="49.24998" lon="-0.2103">
        <ele>36.35</ele>
        <time>2025-05-31T18:34:02.935Z</time>
      </trkpt>
      <trkpt lat="49.25025" lon="-0.21005">
        <ele>36.11</ele>
        <time>2025-05-31T18:34:18.425Z</time>
      </trkpt>
      <trkpt lat="49.25041" lon="-0.20989">
        <ele>35.87</ele>
        <time>2025-05-31T18:34:33.918Z</time>
      </trkpt>
      <trkpt lat="49.25049" lon="-0.20984">
        <ele>35.66</ele>
        <time>2025-05-31T18:34:49.412Z</time>
      </trkpt>
      <trkpt lat="49.25037" lon="-0.2094">
        <ele>35.51</ele>
        <time>2025-05-31T18:35:04.911Z</time>
      </trkpt>
      <trkpt lat="49.25031" lon="-0.20918">
        <ele>35.37</ele>
        <time>2025-05-31T18:35:20.413Z</time>
      </trkpt>
      <trkpt lat="49.25019" lon="-0.20873">
        <ele>35.2</ele>
        <time>2025-05-31T18:35:35.920Z</time>
      </trkpt>
      <trkpt lat="49.25015" lon="-0.20856">
        <ele>35.06</ele>
        <time>2025-05-31T18:35:51.429Z</time>
      </trkpt>
      <trkpt lat="49.25004" lon="-0.20811">
        <ele>34.97</ele>
        <time>2025-05-31T18:36:06.943Z</time>
      </trkpt>
      <trkpt lat="49.24993" lon="-0.20766">
        <ele>34.87</ele>
        <time>2025-05-31T18:36:22.462Z</time>
      </trkpt>
      <trkpt lat="49.24982" lon="-0.20722">
        <ele>34.83</ele>
        <time>2025-05-31T18:36:37.986Z</time>
      </trkpt>
      <trkpt lat="49.24991" lon="-0.20719">
        <ele>34.82</ele>
        <time>2025-05-31T18:36:53.511Z</time>
      </trkpt>
      <trkpt lat="49.24992" lon="-0.20729">
        <ele>34.8</ele>
        <time>2025-05-31T18:37:09.037Z</time>
      </trkpt>
      <trkpt lat="49.24994" lon="-0.20741">
        <ele>34.8</ele>
        <time>2025-05-31T18:37:24.564Z</time>
      </trkpt>
      <trkpt lat="49.25005" lon="-0.20786">
        <ele>34.8</ele>
        <time>2025-05-31T18:37:40.097Z</time>
      </trkpt>
      <trkpt lat="49.25014" lon="-0.20823">
        <ele>34.79</ele>
        <time>2025-05-31T18:37:55.634Z</time>
      </trkpt>
      <trkpt lat="49.25026" lon="-0.20867">
        <ele>34.84</ele>
        <time>2025-05-31T18:38:11.176Z</time>
      </trkpt>
      <trkpt lat="49.25038" lon="-0.20912">
        <ele>34.89</ele>
        <time>2025-05-31T18:38:26.723Z</time>
      </trkpt>
      <trkpt lat="49.25045" lon="-0.20938">
        <ele>34.9</ele>
        <time>2025-05-31T18:38:42.273Z</time>
      </trkpt>
      <trkpt lat="49.25051" lon="-0.2095">
        <ele>34.92</ele>
        <time>2025-05-31T18:38:57.824Z</time>
      </trkpt>
      <trkpt lat="49.25058" lon="-0.20956">
        <ele>34.92</ele>
        <time>2025-05-31T18:39:13.377Z</time>
      </trkpt>
      <trkpt lat="49.25065" lon="-0.20956">
        <ele>34.9</ele>
        <time>2025-05-31T18:39:28.931Z</time>
      </trkpt>
      <trkpt lat="49.25077" lon="-0.2095">
        <ele>34.86</ele>
        <time>2025-05-31T18:39:44.487Z</time>
      </trkpt>
      <trkpt lat="49.25106" lon="-0.20931">
        <ele>34.86</ele>
        <time>2025-05-31T18:40:00.048Z</time>
      </trkpt>
      <trkpt lat="49.25135" lon="-0.20911">
        <ele>34.85</ele>
        <time>2025-05-31T18:40:15.614Z</time>
      </trkpt>
      <trkpt lat="49.25145" lon="-0.20904">
        <ele>34.84</ele>
        <time>2025-05-31T18:40:31.182Z</time>
      </trkpt>
      <trkpt lat="49.25175" lon="-0.20887">
        <ele>34.81</ele>
        <time>2025-05-31T18:40:46.755Z</time>
      </trkpt>
      <trkpt lat="49.25204" lon="-0.20871">
        <ele>34.76</ele>
        <time>2025-05-31T18:41:02.333Z</time>
      </trkpt>
      <trkpt lat="49.25234" lon="-0.20854">
        <ele>34.71</ele>
        <time>2025-05-31T18:41:17.916Z</time>
      </trkpt>
      <trkpt lat="49.25259" lon="-0.2084">
        <ele>34.62</ele>
        <time>2025-05-31T18:41:33.503Z</time>
      </trkpt>
      <trkpt lat="49.25281" lon="-0.20828">
        <ele>34.52</ele>
        <time>2025-05-31T18:41:49.094Z</time>
      </trkpt>
      <trkpt lat="49.25311" lon="-0.20812">
        <ele>34.43</ele>
        <time>2025-05-31T18:42:04.690Z</time>
      </trkpt>
      <trkpt lat="49.2534" lon="-0.20797">
        <ele>34.37</ele>
        <time>2025-05-31T18:42:20.291Z</time>
      </trkpt>
      <trkpt lat="49.25349" lon="-0.20792">
        <ele>34.25</ele>
        <time>2025-05-31T18:42:35.893Z</time>
      </trkpt>
      <trkpt lat="49.25378" lon="-0.20773">
        <ele>34.1</ele>
        <time>2025-05-31T18:42:51.500Z</time>
      </trkpt>
      <trkpt lat="49.25391" lon="-0.20765">
        <ele>33.89</ele>
        <time>2025-05-31T18:43:07.110Z</time>
      </trkpt>
      <trkpt lat="49.25419" lon="-0.20743">
        <ele>33.61</ele>
        <time>2025-05-31T18:43:22.725Z</time>
      </trkpt>
      <trkpt lat="49.25444" lon="-0.20723">
        <ele>33.37</ele>
        <time>2025-05-31T18:43:38.344Z</time>
      </trkpt>
      <trkpt lat="49.25463" lon="-0.20709">
        <ele>33.11</ele>
        <time>2025-05-31T18:43:53.967Z</time>
      </trkpt>
      <trkpt lat="49.25491" lon="-0.20688">
        <ele>32.83</ele>
        <time>2025-05-31T18:44:09.595Z</time>
      </trkpt>
      <trkpt lat="49.25498" lon="-0.20683">
        <ele>32.52</ele>
        <time>2025-05-31T18:44:25.224Z</time>
      </trkpt>
      <trkpt lat="49.25516" lon="-0.20664">
        <ele>32.19</ele>
        <time>2025-05-31T18:44:40.856Z</time>
      </trkpt>
      <trkpt lat="49.25539" lon="-0.20632">
        <ele>31.77</ele>
        <time>2025-05-31T18:44:56.493Z</time>
      </trkpt>
      <trkpt lat="49.2556" lon="-0.20603">
        <ele>31.32</ele>
        <time>2025-05-31T18:45:12.135Z</time>
      </trkpt>
      <trkpt lat="49.25575" lon="-0.20587">
        <ele>30.88</ele>
        <time>2025-05-31T18:45:27.780Z</time>
      </trkpt>
      <trkpt lat="49.25601" lon="-0.2056">
        <ele>30.46</ele>
        <time>2025-05-31T18:45:43.430Z</time>
      </trkpt>
      <trkpt lat="49.25607" lon="-0.20554">
        <ele>30.03</ele>
        <time>2025-05-31T18:45:59.081Z</time>
      </trkpt>
      <trkpt lat="49.25634" lon="-0.20529">
        <ele>29.58</ele>
        <time>2025-05-31T18:46:14.737Z</time>
      </trkpt>
      <trkpt lat="49.2565" lon="-0.20514">
        <ele>29.13</ele>
        <time>2025-05-31T18:46:30.396Z</time>
      </trkpt>
      <trkpt lat="49.25655" lon="-0.20529">
        <ele>28.66</ele>
        <time>2025-05-31T18:46:46.057Z</time>
      </trkpt>
      <trkpt lat="49.2568" lon="-0.205">
        <ele>28.16</ele>
        <time>2025-05-31T18:47:01.723Z</time>
      </trkpt>
      <trkpt lat="49.25694" lon="-0.20484">
        <ele>27.69</ele>
        <time>2025-05-31T18:47:17.392Z</time>
      </trkpt>
      <trkpt lat="49.25719" lon="-0.20454">
        <ele>27.24</ele>
        <time>2025-05-31T18:47:33.066Z</time>
      </trkpt>
      <trkpt lat="49.25743" lon="-0.20424">
        <ele>26.78</ele>
        <time>2025-05-31T18:47:48.745Z</time>
      </trkpt>
      <trkpt lat="49.25757" lon="-0.20407">
        <ele>26.24</ele>
        <time>2025-05-31T18:48:04.427Z</time>
      </trkpt>
      <trkpt lat="49.25771" lon="-0.2039">
        <ele>25.71</ele>
        <time>2025-05-31T18:48:20.111Z</time>
      </trkpt>
      <trkpt lat="49.25796" lon="-0.2036">
        <ele>25.17</ele>
        <time>2025-05-31T18:48:35.800Z</time>
      </trkpt>
      <trkpt lat="49.2582" lon="-0.2033">
        <ele>24.65</ele>
        <time>2025-05-31T18:48:51.494Z</time>
      </trkpt>
      <trkpt lat="49.25845" lon="-0.203">
        <ele>24.16</ele>
        <time>2025-05-31T18:49:07.194Z</time>
      </trkpt>
      <trkpt lat="49.25869" lon="-0.2027">
        <ele>23.67</ele>
        <time>2025-05-31T18:49:22.899Z</time>
      </trkpt>
      <trkpt lat="49.25877" lon="-0.20261">
        <ele>23.2</ele>
        <time>2025-05-31T18:49:38.605Z</time>
      </trkpt>
      <trkpt lat="49.25901" lon="-0.20231">
        <ele>22.71</ele>
        <time>2025-05-31T18:49:54.316Z</time>
      </trkpt>
      <trkpt lat="49.25926" lon="-0.202">
        <ele>22.22</ele>
        <time>2025-05-31T18:50:10.032Z</time>
      </trkpt>
      <trkpt lat="49.25944" lon="-0.20178">
        <ele>21.75</ele>
        <time>2025-05-31T18:50:25.752Z</time>
      </trkpt>
      <trkpt lat="49.25968" lon="-0.20146">
        <ele>21.31</ele>
        <time>2025-05-31T18:50:41.477Z</time>
      </trkpt>
      <trkpt lat="49.25991" lon="-0.20115">
        <ele>20.88</ele>
        <time>2025-05-31T18:50:57.207Z</time>
      </trkpt>
      <trkpt lat="49.26009" lon="-0.20091">
        <ele>20.53</ele>
        <time>2025-05-31T18:51:12.941Z</time>
      </trkpt>
      <trkpt lat="49.26031" lon="-0.20056">
        <ele>20.21</ele>
        <time>2025-05-31T18:51:28.680Z</time>
      </trkpt>
      <trkpt lat="49.26037" lon="-0.20046">
        <ele>19.87</ele>
        <time>2025-05-31T18:51:44.420Z</time>
      </trkpt>
      <trkpt lat="49.26058" lon="-0.2001">
        <ele>19.52</ele>
        <time>2025-05-31T18:52:00.165Z</time>
      </trkpt>
      <trkpt lat="49.26079" lon="-0.19975">
        <ele>19.23</ele>
        <time>2025-05-31T18:52:15.915Z</time>
      </trkpt>
      <trkpt lat="49.2609" lon="-0.19956">
        <ele>18.97</ele>
        <time>2025-05-31T18:52:31.668Z</time>
      </trkpt>
      <trkpt lat="49.26111" lon="-0.19921">
        <ele>18.73</ele>
        <time>2025-05-31T18:52:47.426Z</time>
      </trkpt>
      <trkpt lat="49.26133" lon="-0.19886">
        <ele>18.5</ele>
        <time>2025-05-31T18:53:03.189Z</time>
      </trkpt>
      <trkpt lat="49.26154" lon="-0.1985">
        <ele>18.25</ele>
        <time>2025-05-31T18:53:18.957Z</time>
      </trkpt>
      <trkpt lat="49.2616" lon="-0.19841">
        <ele>18.05</ele>
        <time>2025-05-31T18:53:34.726Z</time>
      </trkpt>
      <trkpt lat="49.26183" lon="-0.19808">
        <ele>17.88</ele>
        <time>2025-05-31T18:53:50.500Z</time>
      </trkpt>
      <trkpt lat="49.26193" lon="-0.19794">
        <ele>17.69</ele>
        <time>2025-05-31T18:54:06.277Z</time>
      </trkpt>
      <trkpt lat="49.26211" lon="-0.19774">
        <ele>17.51</ele>
        <time>2025-05-31T18:54:22.057Z</time>
      </trkpt>
      <trkpt lat="49.26238" lon="-0.1975">
        <ele>17.34</ele>
        <time>2025-05-31T18:54:37.842Z</time>
      </trkpt>
      <trkpt lat="49.26248" lon="-0.19742">
        <ele>17.18</ele>
        <time>2025-05-31T18:54:53.629Z</time>
      </trkpt>
      <trkpt lat="49.26269" lon="-0.19724">
        <ele>17.02</ele>
        <time>2025-05-31T18:55:09.420Z</time>
      </trkpt>
      <trkpt lat="49.26287" lon="-0.19712">
        <ele>16.88</ele>
        <time>2025-05-31T18:55:25.214Z</time>
      </trkpt>
      <trkpt lat="49.26317" lon="-0.19697">
        <ele>16.74</ele>
        <time>2025-05-31T18:55:41.013Z</time>
      </trkpt>
      <trkpt lat="49.26347" lon="-0.19682">
        <ele>16.56</ele>
        <time>2025-05-31T18:55:56.817Z</time>
      </trkpt>
      <trkpt lat="49.26377" lon="-0.19667">
        <ele>16.36</ele>
        <time>2025-05-31T18:56:12.626Z</time>
      </trkpt>
      <trkpt lat="49.26406" lon="-0.19653">
        <ele>16.19</ele>
        <time>2025-05-31T18:56:28.440Z</time>
      </trkpt>
      <trkpt lat="49.26436" lon="-0.19636">
        <ele>16.04</ele>
        <time>2025-05-31T18:56:44.259Z</time>
      </trkpt>
      <trkpt lat="49.26456" lon="-0.19625">
        <ele>15.93</ele>
        <time>2025-05-31T18:57:00.082Z</time>
      </trkpt>
      <trkpt lat="49.2648" lon="-0.19611">
        <ele>15.83</ele>
        <time>2025-05-31T18:57:15.909Z</time>
      </trkpt>
      <trkpt lat="49.26509" lon="-0.19591">
        <ele>15.75</ele>
        <time>2025-05-31T18:57:31.741Z</time>
      </trkpt>
      <trkpt lat="49.26515" lon="-0.19587">
        <ele>15.66</ele>
        <time>2025-05-31T18:57:47.574Z</time>
      </trkpt>
      <trkpt lat="49.26532" lon="-0.19571">
        <ele>15.59</ele>
        <time>2025-05-31T18:58:03.410Z</time>
      </trkpt>
      <trkpt lat="49.26556" lon="-0.19541">
        <ele>15.51</ele>
        <time>2025-05-31T18:58:19.251Z</time>
      </trkpt>
      <trkpt lat="49.26581" lon="-0.1951">
        <ele>15.41</ele>
        <time>2025-05-31T18:58:35.097Z</time>
      </trkpt>
      <trkpt lat="49.26585" lon="-0.19505">
        <ele>15.35</ele>
        <time>2025-05-31T18:58:50.944Z</time>
      </trkpt>
      <trkpt lat="49.26605" lon="-0.19484">
        <ele>15.29</ele>
        <time>2025-05-31T18:59:06.795Z</time>
      </trkpt>
      <trkpt lat="49.26632" lon="-0.19458">
        <ele>15.2</ele>
        <time>2025-05-31T18:59:22.651Z</time>
      </trkpt>
      <trkpt lat="49.26637" lon="-0.19453">
        <ele>15.15</ele>
        <time>2025-05-31T18:59:38.508Z</time>
      </trkpt>
      <trkpt lat="49.26665" lon="-0.19431">
        <ele>15.1</ele>
        <time>2025-05-31T18:59:54.370Z</time>
      </trkpt>
      <trkpt lat="49.26693" lon="-0.19409">
        <ele>15.06</ele>
        <time>2025-05-31T19:00:10.237Z</time>
      </trkpt>
      <trkpt lat="49.26721" lon="-0.19387">
        <ele>15.03</ele>
        <time>2025-05-31T19:00:26.109Z</time>
      </trkpt>
      <trkpt lat="49.26723" lon="-0.19385">
        <ele>14.97</ele>
        <time>2025-05-31T19:00:41.981Z</time>
      </trkpt>
      <trkpt lat="49.26751" lon="-0.19364">
        <ele>14.9</ele>
        <time>2025-05-31T19:00:57.858Z</time>
      </trkpt>
      <trkpt lat="49.2678" lon="-0.19343">
        <ele>14.83</ele>
        <time>2025-05-31T19:01:13.741Z</time>
      </trkpt>
      <trkpt lat="49.26808" lon="-0.19323">
        <ele>14.74</ele>
        <time>2025-05-31T19:01:29.629Z</time>
      </trkpt>
      <trkpt lat="49.2682" lon="-0.19314">
        <ele>14.64</ele>
        <time>2025-05-31T19:01:45.519Z</time>
      </trkpt>
      <trkpt lat="49.26848" lon="-0.19292">
        <ele>14.56</ele>
        <time>2025-05-31T19:02:01.414Z</time>
      </trkpt>
      <trkpt lat="49.26873" lon="-0.19273">
        <ele>14.46</ele>
        <time>2025-05-31T19:02:17.313Z</time>
      </trkpt>
      <trkpt lat="49.26901" lon="-0.1925">
        <ele>14.33</ele>
        <time>2025-05-31T19:02:33.217Z</time>
      </trkpt>
      <trkpt lat="49.26906" lon="-0.19246">
        <ele>14.16</ele>
        <time>2025-05-31T19:02:49.122Z</time>
      </trkpt>
      <trkpt lat="49.26933" lon="-0.19222">
        <ele>13.9</ele>
        <time>2025-05-31T19:03:05.032Z</time>
      </trkpt>
      <trkpt lat="49.26948" lon="-0.19209">
        <ele>13.68</ele>
        <time>2025-05-31T19:03:20.945Z</time>
      </trkpt>
      <trkpt lat="49.26976" lon="-0.19187">
        <ele>13.49</ele>
        <time>2025-05-31T19:03:36.863Z</time>
      </trkpt>
      <trkpt lat="49.27004" lon="-0.19165">
        <ele>13.25</ele>
        <time>2025-05-31T19:03:52.786Z</time>
      </trkpt>
      <trkpt lat="49.27017" lon="-0.19154">
        <ele>12.99</ele>
        <time>2025-05-31T19:04:08.711Z</time>
      </trkpt>
      <trkpt lat="49.27045" lon="-0.19132">
        <ele>12.7</ele>
        <time>2025-05-31T19:04:24.641Z</time>
      </trkpt>
      <trkpt lat="49.27064" lon="-0.19118">
        <ele>12.37</ele>
        <time>2025-05-31T19:04:40.575Z</time>
      </trkpt>
      <trkpt lat="49.27092" lon="-0.19095">
        <ele>11.98</ele>
        <time>2025-05-31T19:04:56.514Z</time>
      </trkpt>
      <trkpt lat="49.27118" lon="-0.19074">
        <ele>11.52</ele>
        <time>2025-05-31T19:05:12.458Z</time>
      </trkpt>
      <trkpt lat="49.27124" lon="-0.19071">
        <ele>11.13</ele>
        <time>2025-05-31T19:05:28.403Z</time>
      </trkpt>
      <trkpt lat="49.2714" lon="-0.19063">
        <ele>10.73</ele>
        <time>2025-05-31T19:05:44.350Z</time>
      </trkpt>
      <trkpt lat="49.27167" lon="-0.19042">
        <ele>10.33</ele>
        <time>2025-05-31T19:06:00.302Z</time>
      </trkpt>
      <trkpt lat="49.27194" lon="-0.19018">
        <ele>9.91</ele>
        <time>2025-05-31T19:06:16.259Z</time>
      </trkpt>
      <trkpt lat="49.27196" lon="-0.19017">
        <ele>9.48</ele>
        <time>2025-05-31T19:06:32.217Z</time>
      </trkpt>
      <trkpt lat="49.27222" lon="-0.18991">
        <ele>8.96</ele>
        <time>2025-05-31T19:06:48.180Z</time>
      </trkpt>
      <trkpt lat="49.27249" lon="-0.18965">
        <ele>8.45</ele>
        <time>2025-05-31T19:07:04.148Z</time>
      </trkpt>
      <trkpt lat="49.27272" lon="-0.18942">
        <ele>7.96</ele>
        <time>2025-05-31T19:07:20.120Z</time>
      </trkpt>
      <trkpt lat="49.27299" lon="-0.18916">
        <ele>7.5</ele>
        <time>2025-05-31T19:07:36.097Z</time>
      </trkpt>
      <trkpt lat="49.27325" lon="-0.1889">
        <ele>7.04</ele>
        <time>2025-05-31T19:07:52.079Z</time>
      </trkpt>
      <trkpt lat="49.27339" lon="-0.18877">
        <ele>6.64</ele>
        <time>2025-05-31T19:08:08.064Z</time>
      </trkpt>
      <trkpt lat="49.27366" lon="-0.18852">
        <ele>6.29</ele>
        <time>2025-05-31T19:08:24.054Z</time>
      </trkpt>
      <trkpt lat="49.27393" lon="-0.18827">
        <ele>5.92</ele>
        <time>2025-05-31T19:08:40.049Z</time>
      </trkpt>
      <trkpt lat="49.2742" lon="-0.18802">
        <ele>5.48</ele>
        <time>2025-05-31T19:08:56.049Z</time>
      </trkpt>
      <trkpt lat="49.27432" lon="-0.18791">
        <ele>5.1</ele>
        <time>2025-05-31T19:09:12.051Z</time>
      </trkpt>
      <trkpt lat="49.27459" lon="-0.18765">
        <ele>4.74</ele>
        <time>2025-05-31T19:09:28.058Z</time>
      </trkpt>
      <trkpt lat="49.27485" lon="-0.1874">
        <ele>4.42</ele>
        <time>2025-05-31T19:09:44.070Z</time>
      </trkpt>
      <trkpt lat="49.27512" lon="-0.18714">
        <ele>4.19</ele>
        <time>2025-05-31T19:10:00.087Z</time>
      </trkpt>
      <trkpt lat="49.27526" lon="-0.187">
        <ele>3.92</ele>
        <time>2025-05-31T19:10:16.107Z</time>
      </trkpt>
      <trkpt lat="49.27553" lon="-0.18675">
        <ele>3.68</ele>
        <time>2025-05-31T19:10:32.132Z</time>
      </trkpt>
      <trkpt lat="49.2758" lon="-0.1865">
        <ele>3.48</ele>
        <time>2025-05-31T19:10:48.162Z</time>
      </trkpt>
      <trkpt lat="49.27605" lon="-0.18627">
        <ele>3.24</ele>
        <time>2025-05-31T19:11:04.197Z</time>
      </trkpt>
      <trkpt lat="49.27632" lon="-0.18601">
        <ele>3.06</ele>
        <time>2025-05-31T19:11:20.237Z</time>
      </trkpt>
      <trkpt lat="49.27658" lon="-0.18576">
        <ele>2.94</ele>
        <time>2025-05-31T19:11:36.282Z</time>
      </trkpt>
      <trkpt lat="49.27685" lon="-0.1855">
        <ele>2.8</ele>
        <time>2025-05-31T19:11:52.332Z</time>
      </trkpt>
      <trkpt lat="49.27711" lon="-0.18524">
        <ele>2.67</ele>
        <time>2025-05-31T19:12:08.387Z</time>
      </trkpt>
      <trkpt lat="49.27728" lon="-0.18508">
        <ele>2.59</ele>
        <time>2025-05-31T19:12:24.445Z</time>
      </trkpt>
      <trkpt lat="49.27755" lon="-0.18482">
        <ele>2.53</ele>
        <time>2025-05-31T19:12:40.508Z</time>
      </trkpt>
      <trkpt lat="49.27781" lon="-0.18456">
        <ele>2.46</ele>
        <time>2025-05-31T19:12:56.576Z</time>
      </trkpt>
      <trkpt lat="49.27808" lon="-0.18431">
        <ele>2.4</ele>
        <time>2025-05-31T19:13:12.649Z</time>
      </trkpt>
      <trkpt lat="49.27834" lon="-0.18405">
        <ele>2.35</ele>
        <time>2025-05-31T19:13:28.727Z</time>
      </trkpt>
      <trkpt lat="49.27861" lon="-0.18379">
        <ele>2.26</ele>
        <time>2025-05-31T19:13:44.810Z</time>
      </trkpt>
      <trkpt lat="49.27887" lon="-0.18353">
        <ele>2.26</ele>
        <time>2025-05-31T19:14:00.898Z</time>
      </trkpt>
      <trkpt lat="49.27914" lon="-0.18328">
        <ele>2.28</ele>
        <time>2025-05-31T19:14:16.991Z</time>
      </trkpt>
      <trkpt lat="49.27941" lon="-0.18302">
        <ele>2.31</ele>
        <time>2025-05-31T19:14:33.089Z</time>
      </trkpt>
      <trkpt lat="49.27967" lon="-0.18276">
        <ele>2.4</ele>
        <time>2025-05-31T19:14:49.192Z</time>
      </trkpt>
      <trkpt lat="49.27994" lon="-0.1825">
        <ele>2.45</ele>
        <time>2025-05-31T19:15:05.300Z</time>
      </trkpt>
      <trkpt lat="49.2802" lon="-0.18225">
        <ele>2.48</ele>
        <time>2025-05-31T19:15:21.413Z</time>
      </trkpt>
      <trkpt lat="49.28022" lon="-0.18223">
        <ele>2.56</ele>
        <time>2025-05-31T19:15:37.527Z</time>
      </trkpt>
      <trkpt lat="49.28049" lon="-0.18197">
        <ele>2.66</ele>
        <time>2025-05-31T19:15:53.646Z</time>
      </trkpt>
      <trkpt lat="49.28075" lon="-0.18171">
        <ele>2.79</ele>
        <time>2025-05-31T19:16:09.770Z</time>
      </trkpt>
      <trkpt lat="49.28102" lon="-0.18146">
        <ele>2.9</ele>
        <time>2025-05-31T19:16:25.899Z</time>
      </trkpt>
      <trkpt lat="49.28128" lon="-0.1812">
        <ele>3.05</ele>
        <time>2025-05-31T19:16:42.033Z</time>
      </trkpt>
      <trkpt lat="49.28155" lon="-0.18094">
        <ele>3.21</ele>
        <time>2025-05-31T19:16:58.172Z</time>
      </trkpt>
      <trkpt lat="49.28181" lon="-0.18068">
        <ele>3.36</ele>
        <time>2025-05-31T19:17:14.316Z</time>
      </trkpt>
      <trkpt lat="49.28197" lon="-0.18053">
        <ele>3.48</ele>
        <time>2025-05-31T19:17:30.463Z</time>
      </trkpt>
      <trkpt lat="49.28224" lon="-0.18028">
        <ele>3.6</ele>
        <time>2025-05-31T19:17:46.615Z</time>
      </trkpt>
      <trkpt lat="49.28251" lon="-0.18002">
        <ele>3.76</ele>
        <time>2025-05-31T19:18:02.772Z</time>
      </trkpt>
      <trkpt lat="49.28277" lon="-0.17977">
        <ele>3.92</ele>
        <time>2025-05-31T19:18:18.934Z</time>
      </trkpt>
      <trkpt lat="49.28304" lon="-0.17952">
        <ele>4.09</ele>
        <time>2025-05-31T19:18:35.101Z</time>
      </trkpt>
      <trkpt lat="49.2832" lon="-0.17937">
        <ele>4.25</ele>
        <time>2025-05-31T19:18:51.271Z</time>
      </trkpt>
      <trkpt lat="49.28347" lon="-0.17911">
        <ele>4.41</ele>
        <time>2025-05-31T19:19:07.446Z</time>
      </trkpt>
      <trkpt lat="49.28373" lon="-0.17885">
        <ele>4.6</ele>
        <time>2025-05-31T19:19:23.626Z</time>
      </trkpt>
      <trkpt lat="49.284" lon="-0.17859">
        <ele>4.78</ele>
        <time>2025-05-31T19:19:39.811Z</time>
      </trkpt>
      <trkpt lat="49.28426" lon="-0.17833">
        <ele>4.99</ele>
        <time>2025-05-31T19:19:56.001Z</time>
      </trkpt>
      <trkpt lat="49.28453" lon="-0.17807">
        <ele>5.18</ele>
        <time>2025-05-31T19:20:12.196Z</time>
      </trkpt>
      <trkpt lat="49.28456" lon="-0.17804">
        <ele>5.34</ele>
        <time>2025-05-31T19:20:28.392Z</time>
      </trkpt>
      <trkpt lat="49.28466" lon="-0.17798">
        <ele>5.49</ele>
        <time>2025-05-31T19:20:44.590Z</time>
      </trkpt>
      <trkpt lat="49.28471" lon="-0.17797">
        <ele>5.63</ele>
        <time>2025-05-31T19:21:00.789Z</time>
      </trkpt>
      <trkpt lat="49.28476" lon="-0.178">
        <ele>5.77</ele>
        <time>2025-05-31T19:21:16.988Z</time>
      </trkpt>
      <trkpt lat="49.28483" lon="-0.17753">
        <ele>5.89</ele>
        <time>2025-05-31T19:21:33.192Z</time>
      </trkpt>
      <trkpt lat="49.2849" lon="-0.17706">
        <ele>5.98</ele>
        <time>2025-05-31T19:21:49.401Z</time>
      </trkpt>
      <trkpt lat="49.28491" lon="-0.177">
        <ele>6.11</ele>
        <time>2025-05-31T19:22:05.611Z</time>
      </trkpt>
      <trkpt lat="49.28496" lon="-0.17652">
        <ele>6.25</ele>
        <time>2025-05-31T19:22:21.826Z</time>
      </trkpt>
      <trkpt lat="49.28496" lon="-0.1765">
        <ele>6.36</ele>
        <time>2025-05-31T19:22:38.041Z</time>
      </trkpt>
      <trkpt lat="49.28495" lon="-0.17602">
        <ele>6.48</ele>
        <time>2025-05-31T19:22:54.261Z</time>
      </trkpt>
      <trkpt lat="49.28495" lon="-0.17589">
        <ele>6.61</ele>
        <time>2025-05-31T19:23:10.483Z</time>
      </trkpt>
      <trkpt lat="49.28489" lon="-0.17542">
        <ele>6.72</ele>
        <time>2025-05-31T19:23:26.710Z</time>
      </trkpt>
      <trkpt lat="49.28484" lon="-0.17494">
        <ele>6.84</ele>
        <time>2025-05-31T19:23:42.942Z</time>
      </trkpt>
      <trkpt lat="49.28478" lon="-0.17447">
        <ele>6.9</ele>
        <time>2025-05-31T19:23:59.179Z</time>
      </trkpt>
      <trkpt lat="49.28475" lon="-0.1742">
        <ele>6.99</ele>
        <time>2025-05-31T19:24:15.419Z</time>
      </trkpt>
      <trkpt lat="49.2847" lon="-0.17373">
        <ele>7.08</ele>
        <time>2025-05-31T19:24:31.664Z</time>
      </trkpt>
      <trkpt lat="49.28464" lon="-0.17325">
        <ele>7.2</ele>
        <time>2025-05-31T19:24:47.914Z</time>
      </trkpt>
      <trkpt lat="49.28459" lon="-0.17278">
        <ele>7.27</ele>
        <time>2025-05-31T19:25:04.169Z</time>
      </trkpt>
      <trkpt lat="49.28453" lon="-0.1723">
        <ele>7.28</ele>
        <time>2025-05-31T19:25:20.429Z</time>
      </trkpt>
      <trkpt lat="49.28449" lon="-0.17194">
        <ele>7.36</ele>
        <time>2025-05-31T19:25:36.693Z</time>
      </trkpt>
      <trkpt lat="49.28443" lon="-0.17147">
        <ele>7.46</ele>
        <time>2025-05-31T19:25:52.962Z</time>
      </trkpt>
      <trkpt lat="49.28437" lon="-0.17099">
        <ele>7.6</ele>
        <time>2025-05-31T19:26:09.236Z</time>
      </trkpt>
      <trkpt lat="49.28432" lon="-0.17056">
        <ele>7.72</ele>
        <time>2025-05-31T19:26:25.515Z</time>
      </trkpt>
      <trkpt lat="49.28428" lon="-0.17008">
        <ele>7.76</ele>
        <time>2025-05-31T19:26:41.799Z</time>
      </trkpt>
      <trkpt lat="49.28428" lon="-0.17008">
        <ele>7.81</ele>
        <time>2025-05-31T19:26:58.083Z</time>
      </trkpt>
      <trkpt lat="49.28429" lon="-0.1696">
        <ele>7.84</ele>
        <time>2025-05-31T19:27:14.372Z</time>
      </trkpt>
      <trkpt lat="49.28429" lon="-0.16955">
        <ele>7.87</ele>
        <time>2025-05-31T19:27:30.661Z</time>
      </trkpt>
      <trkpt lat="49.28433" lon="-0.16907">
        <ele>7.88</ele>
        <time>2025-05-31T19:27:46.955Z</time>
      </trkpt>
      <trkpt lat="49.28436" lon="-0.16881">
        <ele>7.95</ele>
        <time>2025-05-31T19:28:03.252Z</time>
      </trkpt>
      <trkpt lat="49.28442" lon="-0.16834">
        <ele>7.91</ele>
        <time>2025-05-31T19:28:19.554Z</time>
      </trkpt>
      <trkpt lat="49.28446" lon="-0.16804">
        <ele>7.92</ele>
        <time>2025-05-31T19:28:35.859Z</time>
      </trkpt>
      <trkpt lat="49.28449" lon="-0.16756">
        <ele>7.97</ele>
        <time>2025-05-31T19:28:52.169Z</time>
      </trkpt>
      <trkpt lat="49.28449" lon="-0.1675">
        <ele>8</ele>
        <time>2025-05-31T19:29:08.480Z</time>
      </trkpt>
      <trkpt lat="49.28447" lon="-0.16702">
        <ele>8.01</ele>
        <time>2025-05-31T19:29:24.796Z</time>
      </trkpt>
      <trkpt lat="49.28445" lon="-0.16654">
        <ele>8.05</ele>
        <time>2025-05-31T19:29:41.117Z</time>
      </trkpt>
      <trkpt lat="49.28443" lon="-0.16606">
        <ele>8.1</ele>
        <time>2025-05-31T19:29:57.443Z</time>
      </trkpt>
      <trkpt lat="49.28442" lon="-0.16594">
        <ele>8.08</ele>
        <time>2025-05-31T19:30:13.770Z</time>
      </trkpt>
      <trkpt lat="49.28442" lon="-0.1656">
        <ele>8.04</ele>
        <time>2025-05-31T19:30:30.101Z</time>
      </trkpt>
      <trkpt lat="49.28446" lon="-0.16512">
        <ele>7.95</ele>
        <time>2025-05-31T19:30:46.437Z</time>
      </trkpt>
      <trkpt lat="49.28447" lon="-0.16492">
        <ele>7.87</ele>
        <time>2025-05-31T19:31:02.775Z</time>
      </trkpt>
      <trkpt lat="49.28451" lon="-0.16444">
        <ele>7.8</ele>
        <time>2025-05-31T19:31:19.118Z</time>
      </trkpt>
      <trkpt lat="49.28455" lon="-0.16397">
        <ele>7.75</ele>
        <time>2025-05-31T19:31:35.466Z</time>
      </trkpt>
      <trkpt lat="49.28456" lon="-0.1638">
        <ele>7.71</ele>
        <time>2025-05-31T19:31:51.816Z</time>
      </trkpt>
      <trkpt lat="49.28462" lon="-0.16333">
        <ele>7.67</ele>
        <time>2025-05-31T19:32:08.171Z</time>
      </trkpt>
      <trkpt lat="49.28468" lon="-0.16287">
        <ele>7.55</ele>
        <time>2025-05-31T19:32:24.531Z</time>
      </trkpt>
      <trkpt lat="49.28473" lon="-0.1624">
        <ele>7.48</ele>
        <time>2025-05-31T19:32:40.896Z</time>
      </trkpt>
      <trkpt lat="49.28474" lon="-0.16232">
        <ele>7.43</ele>
        <time>2025-05-31T19:32:57.262Z</time>
      </trkpt>
      <trkpt lat="49.28474" lon="-0.16184">
        <ele>7.42</ele>
        <time>2025-05-31T19:33:13.633Z</time>
      </trkpt>
      <trkpt lat="49.28474" lon="-0.1618">
        <ele>7.36</ele>
        <time>2025-05-31T19:33:30.004Z</time>
      </trkpt>
      <trkpt lat="49.2847" lon="-0.16132">
        <ele>7.29</ele>
        <time>2025-05-31T19:33:46.380Z</time>
      </trkpt>
      <trkpt lat="49.28467" lon="-0.16084">
        <ele>7.22</ele>
        <time>2025-05-31T19:34:02.761Z</time>
      </trkpt>
      <trkpt lat="49.28466" lon="-0.16071">
        <ele>7.16</ele>
        <time>2025-05-31T19:34:19.144Z</time>
      </trkpt>
      <trkpt lat="49.28463" lon="-0.16023">
        <ele>7.06</ele>
        <time>2025-05-31T19:34:35.532Z</time>
      </trkpt>
      <trkpt lat="49.28461" lon="-0.15975">
        <ele>7.01</ele>
        <time>2025-05-31T19:34:51.925Z</time>
      </trkpt>
      <trkpt lat="49.28458" lon="-0.15927">
        <ele>7</ele>
        <time>2025-05-31T19:35:08.323Z</time>
      </trkpt>
      <trkpt lat="49.28458" lon="-0.15926">
        <ele>6.95</ele>
        <time>2025-05-31T19:35:24.721Z</time>
      </trkpt>
      <trkpt lat="49.28456" lon="-0.15878">
        <ele>6.9</ele>
        <time>2025-05-31T19:35:41.124Z</time>
      </trkpt>
      <trkpt lat="49.28455" lon="-0.1583">
        <ele>6.83</ele>
        <time>2025-05-31T19:35:57.532Z</time>
      </trkpt>
      <trkpt lat="49.28453" lon="-0.15782">
        <ele>6.73</ele>
        <time>2025-05-31T19:36:13.945Z</time>
      </trkpt>
      <trkpt lat="49.28452" lon="-0.1576">
        <ele>6.73</ele>
        <time>2025-05-31T19:36:30.360Z</time>
      </trkpt>
      <trkpt lat="49.2845" lon="-0.15712">
        <ele>6.76</ele>
        <time>2025-05-31T19:36:46.780Z</time>
      </trkpt>
      <trkpt lat="49.28449" lon="-0.15664">
        <ele>6.79</ele>
        <time>2025-05-31T19:37:03.205Z</time>
      </trkpt>
      <trkpt lat="49.28447" lon="-0.15616">
        <ele>6.78</ele>
        <time>2025-05-31T19:37:19.635Z</time>
      </trkpt>
      <trkpt lat="49.28445" lon="-0.15568">
        <ele>6.73</ele>
        <time>2025-05-31T19:37:36.070Z</time>
      </trkpt>
      <trkpt lat="49.28444" lon="-0.1552">
        <ele>6.65</ele>
        <time>2025-05-31T19:37:52.510Z</time>
      </trkpt>
      <trkpt lat="49.28443" lon="-0.15502">
        <ele>6.6</ele>
        <time>2025-05-31T19:38:08.952Z</time>
      </trkpt>
      <trkpt lat="49.28442" lon="-0.15454">
        <ele>6.52</ele>
        <time>2025-05-31T19:38:25.399Z</time>
      </trkpt>
      <trkpt lat="49.2844" lon="-0.15406">
        <ele>6.49</ele>
        <time>2025-05-31T19:38:41.851Z</time>
      </trkpt>
      <trkpt lat="49.28439" lon="-0.15358">
        <ele>6.47</ele>
        <time>2025-05-31T19:38:58.308Z</time>
      </trkpt>
      <trkpt lat="49.28437" lon="-0.1531">
        <ele>6.5</ele>
        <time>2025-05-31T19:39:14.770Z</time>
      </trkpt>
      <trkpt lat="49.28436" lon="-0.15262">
        <ele>6.48</ele>
        <time>2025-05-31T19:39:31.238Z</time>
      </trkpt>
      <trkpt lat="49.28435" lon="-0.15231">
        <ele>6.41</ele>
        <time>2025-05-31T19:39:47.709Z</time>
      </trkpt>
      <trkpt lat="49.28434" lon="-0.15183">
        <ele>6.33</ele>
        <time>2025-05-31T19:40:04.185Z</time>
      </trkpt>
      <trkpt lat="49.28433" lon="-0.15135">
        <ele>6.32</ele>
        <time>2025-05-31T19:40:20.666Z</time>
      </trkpt>
      <trkpt lat="49.28432" lon="-0.15115">
        <ele>6.25</ele>
        <time>2025-05-31T19:40:37.149Z</time>
      </trkpt>
      <trkpt lat="49.28435" lon="-0.15067">
        <ele>6.16</ele>
        <time>2025-05-31T19:40:53.637Z</time>
      </trkpt>
      <trkpt lat="49.28437" lon="-0.15019">
        <ele>6.02</ele>
        <time>2025-05-31T19:41:10.130Z</time>
      </trkpt>
      <trkpt lat="49.2844" lon="-0.14971">
        <ele>5.98</ele>
        <time>2025-05-31T19:41:26.628Z</time>
      </trkpt>
      <trkpt lat="49.28443" lon="-0.14923">
        <ele>5.93</ele>
        <time>2025-05-31T19:41:43.131Z</time>
      </trkpt>
      <trkpt lat="49.28446" lon="-0.14875">
        <ele>5.86</ele>
        <time>2025-05-31T19:41:59.639Z</time>
      </trkpt>
      <trkpt lat="49.28446" lon="-0.14868">
        <ele>5.85</ele>
        <time>2025-05-31T19:42:16.148Z</time>
      </trkpt>
      <trkpt lat="49.28449" lon="-0.1482">
        <ele>5.81</ele>
        <time>2025-05-31T19:42:32.662Z</time>
      </trkpt>
      <trkpt lat="49.28452" lon="-0.14772">
        <ele>5.83</ele>
        <time>2025-05-31T19:42:49.181Z</time>
      </trkpt>
      <trkpt lat="49.28455" lon="-0.14724">
        <ele>5.93</ele>
        <time>2025-05-31T19:43:05.705Z</time>
      </trkpt>
      <trkpt lat="49.28458" lon="-0.14676">
        <ele>5.97</ele>
        <time>2025-05-31T19:43:22.234Z</time>
      </trkpt>
      <trkpt lat="49.28461" lon="-0.14629">
        <ele>5.97</ele>
        <time>2025-05-31T19:43:38.768Z</time>
      </trkpt>
      <trkpt lat="49.28465" lon="-0.14581">
        <ele>5.95</ele>
        <time>2025-05-31T19:43:55.307Z</time>
      </trkpt>
      <trkpt lat="49.28466" lon="-0.14558">
        <ele>5.96</ele>
        <time>2025-05-31T19:44:11.848Z</time>
      </trkpt>
      <trkpt lat="49.28473" lon="-0.14515">
        <ele>5.98</ele>
        <time>2025-05-31T19:44:28.394Z</time>
      </trkpt>
      <trkpt lat="49.28484" lon="-0.1447">
        <ele>6.01</ele>
        <time>2025-05-31T19:44:44.945Z</time>
      </trkpt>
      <trkpt lat="49.28493" lon="-0.1443">
        <ele>6.01</ele>
        <time>2025-05-31T19:45:01.501Z</time>
      </trkpt>
      <trkpt lat="49.28502" lon="-0.14384">
        <ele>6.09</ele>
        <time>2025-05-31T19:45:18.062Z</time>
      </trkpt>
      <trkpt lat="49.28507" lon="-0.14354">
        <ele>6.16</ele>
        <time>2025-05-31T19:45:34.626Z</time>
      </trkpt>
      <trkpt lat="49.28513" lon="-0.14307">
        <ele>6.2</ele>
        <time>2025-05-31T19:45:51.195Z</time>
      </trkpt>
      <trkpt lat="49.2852" lon="-0.1426">
        <ele>6.24</ele>
        <time>2025-05-31T19:46:07.769Z</time>
      </trkpt>
      <trkpt lat="49.28521" lon="-0.14249">
        <ele>6.29</ele>
        <time>2025-05-31T19:46:24.344Z</time>
      </trkpt>
      <trkpt lat="49.28527" lon="-0.14202">
        <ele>6.36</ele>
        <time>2025-05-31T19:46:40.924Z</time>
      </trkpt>
      <trkpt lat="49.28533" lon="-0.14155">
        <ele>6.45</ele>
        <time>2025-05-31T19:46:57.509Z</time>
      </trkpt>
      <trkpt lat="49.28539" lon="-0.14107">
        <ele>6.5</ele>
        <time>2025-05-31T19:47:14.099Z</time>
      </trkpt>
      <trkpt lat="49.28542" lon="-0.14086">
        <ele>6.56</ele>
        <time>2025-05-31T19:47:30.692Z</time>
      </trkpt>
      <trkpt lat="49.28544" lon="-0.14038">
        <ele>6.65</ele>
        <time>2025-05-31T19:47:47.290Z</time>
      </trkpt>
      <trkpt lat="49.28545" lon="-0.14006">
        <ele>6.68</ele>
        <time>2025-05-31T19:48:03.891Z</time>
      </trkpt>
      <trkpt lat="49.28545" lon="-0.13958">
        <ele>6.67</ele>
        <time>2025-05-31T19:48:20.497Z</time>
      </trkpt>
      <trkpt lat="49.28545" lon="-0.13944">
        <ele>6.7</ele>
        <time>2025-05-31T19:48:37.104Z</time>
      </trkpt>
      <trkpt lat="49.2855" lon="-0.13896">
        <ele>6.7</ele>
        <time>2025-05-31T19:48:53.716Z</time>
      </trkpt>
      <trkpt lat="49.2855" lon="-0.13895">
        <ele>6.78</ele>
        <time>2025-05-31T19:49:10.329Z</time>
      </trkpt>
      <trkpt lat="49.28556" lon="-0.13848">
        <ele>6.88</ele>
        <time>2025-05-31T19:49:26.947Z</time>
      </trkpt>
      <trkpt lat="49.28563" lon="-0.13801">
        <ele>7</ele>
        <time>2025-05-31T19:49:43.570Z</time>
      </trkpt>
      <trkpt lat="49.28569" lon="-0.13754">
        <ele>7.13</ele>
        <time>2025-05-31T19:50:00.198Z</time>
      </trkpt>
      <trkpt lat="49.28576" lon="-0.13707">
        <ele>7.11</ele>
        <time>2025-05-31T19:50:16.831Z</time>
      </trkpt>
      <trkpt lat="49.28581" lon="-0.13669">
        <ele>7.08</ele>
        <time>2025-05-31T19:50:33.468Z</time>
      </trkpt>
      <trkpt lat="49.28588" lon="-0.13622">
        <ele>7.09</ele>
        <time>2025-05-31T19:50:50.110Z</time>
      </trkpt>
      <trkpt lat="49.28595" lon="-0.13575">
        <ele>7.14</ele>
        <time>2025-05-31T19:51:06.757Z</time>
      </trkpt>
      <trkpt lat="49.28599" lon="-0.13552">
        <ele>7.11</ele>
        <time>2025-05-31T19:51:23.406Z</time>
      </trkpt>
      <trkpt lat="49.28605" lon="-0.13505">
        <ele>7.07</ele>
        <time>2025-05-31T19:51:40.060Z</time>
      </trkpt>
      <trkpt lat="49.28611" lon="-0.13458">
        <ele>7.02</ele>
        <time>2025-05-31T19:51:56.719Z</time>
      </trkpt>
      <trkpt lat="49.28614" lon="-0.13433">
        <ele>6.96</ele>
        <time>2025-05-31T19:52:13.381Z</time>
      </trkpt>
      <trkpt lat="49.2862" lon="-0.13386">
        <ele>6.88</ele>
        <time>2025-05-31T19:52:30.048Z</time>
      </trkpt>
      <trkpt lat="49.28626" lon="-0.13339">
        <ele>6.75</ele>
        <time>2025-05-31T19:52:46.720Z</time>
      </trkpt>
      <trkpt lat="49.28631" lon="-0.13304">
        <ele>6.66</ele>
        <time>2025-05-31T19:53:03.396Z</time>
      </trkpt>
      <trkpt lat="49.28637" lon="-0.13257">
        <ele>6.6</ele>
        <time>2025-05-31T19:53:20.077Z</time>
      </trkpt>
      <trkpt lat="49.28643" lon="-0.1321">
        <ele>6.56</ele>
        <time>2025-05-31T19:53:36.763Z</time>
      </trkpt>
      <trkpt lat="49.28649" lon="-0.13162">
        <ele>6.53</ele>
        <time>2025-05-31T19:53:53.454Z</time>
      </trkpt>
      <trkpt lat="49.28655" lon="-0.13115">
        <ele>6.43</ele>
        <time>2025-05-31T19:54:10.150Z</time>
      </trkpt>
      <trkpt lat="49.28661" lon="-0.13068">
        <ele>6.38</ele>
        <time>2025-05-31T19:54:26.851Z</time>
      </trkpt>
      <trkpt lat="49.28662" lon="-0.13063">
        <ele>6.32</ele>
        <time>2025-05-31T19:54:43.553Z</time>
      </trkpt>
      <trkpt lat="49.28668" lon="-0.13016">
        <ele>6.26</ele>
        <time>2025-05-31T19:55:00.260Z</time>
      </trkpt>
      <trkpt lat="49.28674" lon="-0.12969">
        <ele>6.18</ele>
        <time>2025-05-31T19:55:16.972Z</time>
      </trkpt>
      <trkpt lat="49.2868" lon="-0.12921">
        <ele>6.19</ele>
        <time>2025-05-31T19:55:33.689Z</time>
      </trkpt>
      <trkpt lat="49.28687" lon="-0.12874">
        <ele>6.16</ele>
        <time>2025-05-31T19:55:50.411Z</time>
      </trkpt>
      <trkpt lat="49.28692" lon="-0.12832">
        <ele>6.09</ele>
        <time>2025-05-31T19:56:07.137Z</time>
      </trkpt>
      <trkpt lat="49.28698" lon="-0.12785">
        <ele>6.03</ele>
        <time>2025-05-31T19:56:23.868Z</time>
      </trkpt>
      <trkpt lat="49.28704" lon="-0.12738">
        <ele>6.02</ele>
        <time>2025-05-31T19:56:40.604Z</time>
      </trkpt>
      <trkpt lat="49.2871" lon="-0.1269">
        <ele>6.12</ele>
        <time>2025-05-31T19:56:57.345Z</time>
      </trkpt>
      <trkpt lat="49.28716" lon="-0.12643">
        <ele>6.1</ele>
        <time>2025-05-31T19:57:14.091Z</time>
      </trkpt>
      <trkpt lat="49.28722" lon="-0.12596">
        <ele>6.08</ele>
        <time>2025-05-31T19:57:30.842Z</time>
      </trkpt>
      <trkpt lat="49.28728" lon="-0.12549">
        <ele>6.03</ele>
        <time>2025-05-31T19:57:47.598Z</time>
      </trkpt>
      <trkpt lat="49.28734" lon="-0.12501">
        <ele>6.01</ele>
        <time>2025-05-31T19:58:04.360Z</time>
      </trkpt>
      <trkpt lat="49.28736" lon="-0.12482">
        <ele>5.93</ele>
        <time>2025-05-31T19:58:21.124Z</time>
      </trkpt>
      <trkpt lat="49.28742" lon="-0.12435">
        <ele>5.8</ele>
        <time>2025-05-31T19:58:37.893Z</time>
      </trkpt>
      <trkpt lat="49.28746" lon="-0.12402">
        <ele>5.67</ele>
        <time>2025-05-31T19:58:54.665Z</time>
      </trkpt>
      <trkpt lat="49.28753" lon="-0.12355">
        <ele>5.59</ele>
        <time>2025-05-31T19:59:11.442Z</time>
      </trkpt>
      <trkpt lat="49.28754" lon="-0.12347">
        <ele>5.59</ele>
        <time>2025-05-31T19:59:28.220Z</time>
      </trkpt>
      <trkpt lat="49.28754" lon="-0.12315">
        <ele>5.59</ele>
        <time>2025-05-31T19:59:45.001Z</time>
      </trkpt>
      <trkpt lat="49.28753" lon="-0.12314">
        <ele>5.6</ele>
        <time>2025-05-31T20:00:01.783Z</time>
      </trkpt>
      <trkpt lat="49.28753" lon="-0.12313">
        <ele>5.62</ele>
        <time>2025-05-31T20:00:18.565Z</time>
      </trkpt>
      <trkpt lat="49.28753" lon="-0.12312">
        <ele>5.64</ele>
        <time>2025-05-31T20:00:35.347Z</time>
      </trkpt>
      <trkpt lat="49.2874" lon="-0.12307">
        <ele>5.66</ele>
        <time>2025-05-31T20:00:52.131Z</time>
      </trkpt>
      <trkpt lat="49.28736" lon="-0.12301">
        <ele>5.68</ele>
        <time>2025-05-31T20:01:08.916Z</time>
      </trkpt>
      <trkpt lat="49.28705" lon="-0.12292">
        <ele>5.71</ele>
        <time>2025-05-31T20:01:25.706Z</time>
      </trkpt>
      <trkpt lat="49.28674" lon="-0.12283">
        <ele>5.72</ele>
        <time>2025-05-31T20:01:42.501Z</time>
      </trkpt>
      <trkpt lat="49.28643" lon="-0.12275">
        <ele>5.61</ele>
        <time>2025-05-31T20:01:59.301Z</time>
      </trkpt>
      <trkpt lat="49.28634" lon="-0.12272">
        <ele>5.54</ele>
        <time>2025-05-31T20:02:16.102Z</time>
      </trkpt>
      <trkpt lat="49.28603" lon="-0.12263">
        <ele>5.46</ele>
        <time>2025-05-31T20:02:32.908Z</time>
      </trkpt>
      <trkpt lat="49.28592" lon="-0.1226">
        <ele>6.03</ele>
        <time>2025-05-31T20:02:49.716Z</time>
      </trkpt>
      <trkpt lat="49.28601" lon="-0.12214">
        <ele>5.29</ele>
        <time>2025-05-31T20:03:06.529Z</time>
      </trkpt>
      <trkpt lat="49.2861" lon="-0.12168">
        <ele>5.22</ele>
        <time>2025-05-31T20:03:23.347Z</time>
      </trkpt>
      <trkpt lat="49.28619" lon="-0.12122">
        <ele>5.16</ele>
        <time>2025-05-31T20:03:40.170Z</time>
      </trkpt>
      <trkpt lat="49.28626" lon="-0.12086">
        <ele>5.02</ele>
        <time>2025-05-31T20:03:56.997Z</time>
      </trkpt>
      <trkpt lat="49.28632" lon="-0.12055">
        <ele>4.87</ele>
        <time>2025-05-31T20:04:13.828Z</time>
      </trkpt>
    </trkseg>
  </trk>
</gpx>